<?xml version="1.0" encoding="UTF-8" standalone="no" ?>
<gpx xmlns="http://www.topografix.com/GPX/1/1" xmlns:xsi="http://www.w3.org/2001/XMLSchema-instance" xsi:schemaLocation="http://www.topografix.com/GPX/1/1 http://www.topografix.com/GPX/1/1/gpx.xsd" version="1.1" creator="VisuGPX - https://www.visugpx.com">
  <metadata>
    <name>151111ROBBenjamins</name>
    <desc><![CDATA[Excellente sortie]]></desc>
  </metadata>
  <trk>
    <name><![CDATA[151111ROBBenjamins]]></name>
    <trkseg>
      <trkpt lat="43.41578" lon="6.07039">
        <ele>219.39999389648</ele>
        <time>2015-11-11T13:01:51Z</time>
      </trkpt>
      <trkpt lat="43.41578" lon="6.07039">
        <ele>219.39999389648</ele>
        <time>2015-11-11T13:01:53Z</time>
      </trkpt>
      <trkpt lat="43.41578" lon="6.07041">
        <ele>219.60000610352</ele>
        <time>2015-11-11T13:01:55Z</time>
      </trkpt>
      <trkpt lat="43.41578" lon="6.07045">
        <ele>219.60000610352</ele>
        <time>2015-11-11T13:01:57Z</time>
      </trkpt>
      <trkpt lat="43.41579" lon="6.07047">
        <ele>219.60000610352</ele>
        <time>2015-11-11T13:01:58Z</time>
      </trkpt>
      <trkpt lat="43.41579" lon="6.07049">
        <ele>219.60000610352</ele>
        <time>2015-11-11T13:01:59Z</time>
      </trkpt>
      <trkpt lat="43.41579" lon="6.07054">
        <ele>219.60000610352</ele>
        <time>2015-11-11T13:02:01Z</time>
      </trkpt>
      <trkpt lat="43.41581" lon="6.07058">
        <ele>219.60000610352</ele>
        <time>2015-11-11T13:02:03Z</time>
      </trkpt>
      <trkpt lat="43.41581" lon="6.07063">
        <ele>219.80000305176</ele>
        <time>2015-11-11T13:02:05Z</time>
      </trkpt>
      <trkpt lat="43.41581" lon="6.07069">
        <ele>219.80000305176</ele>
        <time>2015-11-11T13:02:07Z</time>
      </trkpt>
      <trkpt lat="43.41581" lon="6.07074">
        <ele>219.80000305176</ele>
        <time>2015-11-11T13:02:09Z</time>
      </trkpt>
      <trkpt lat="43.41582" lon="6.0708">
        <ele>219.39999389648</ele>
        <time>2015-11-11T13:02:11Z</time>
      </trkpt>
      <trkpt lat="43.41582" lon="6.07083">
        <ele>219.39999389648</ele>
        <time>2015-11-11T13:02:12Z</time>
      </trkpt>
      <trkpt lat="43.41583" lon="6.07086">
        <ele>219.39999389648</ele>
        <time>2015-11-11T13:02:13Z</time>
      </trkpt>
      <trkpt lat="43.41583" lon="6.07089">
        <ele>219.60000610352</ele>
        <time>2015-11-11T13:02:16Z</time>
      </trkpt>
      <trkpt lat="43.41583" lon="6.07089">
        <ele>220</ele>
        <time>2015-11-11T13:02:18Z</time>
      </trkpt>
      <trkpt lat="43.41583" lon="6.07089">
        <ele>219.80000305176</ele>
        <time>2015-11-11T13:02:19Z</time>
      </trkpt>
      <trkpt lat="43.41583" lon="6.07094">
        <ele>219.39999389648</ele>
        <time>2015-11-11T13:02:21Z</time>
      </trkpt>
      <trkpt lat="43.41583" lon="6.07097">
        <ele>219.39999389648</ele>
        <time>2015-11-11T13:02:22Z</time>
      </trkpt>
      <trkpt lat="43.41582" lon="6.071">
        <ele>219.19999694824</ele>
        <time>2015-11-11T13:02:23Z</time>
      </trkpt>
      <trkpt lat="43.41578" lon="6.07105">
        <ele>219.19999694824</ele>
        <time>2015-11-11T13:02:25Z</time>
      </trkpt>
      <trkpt lat="43.41576" lon="6.07107">
        <ele>219.19999694824</ele>
        <time>2015-11-11T13:02:26Z</time>
      </trkpt>
      <trkpt lat="43.41572" lon="6.07109">
        <ele>219.19999694824</ele>
        <time>2015-11-11T13:02:27Z</time>
      </trkpt>
      <trkpt lat="43.41564" lon="6.07115">
        <ele>219.19999694824</ele>
        <time>2015-11-11T13:02:29Z</time>
      </trkpt>
      <trkpt lat="43.4156" lon="6.07116">
        <ele>219</ele>
        <time>2015-11-11T13:02:30Z</time>
      </trkpt>
      <trkpt lat="43.41557" lon="6.07117">
        <ele>218.80000305176</ele>
        <time>2015-11-11T13:02:31Z</time>
      </trkpt>
      <trkpt lat="43.41549" lon="6.07116">
        <ele>218.60000610352</ele>
        <time>2015-11-11T13:02:33Z</time>
      </trkpt>
      <trkpt lat="43.41547" lon="6.07111">
        <ele>218.60000610352</ele>
        <time>2015-11-11T13:02:34Z</time>
      </trkpt>
      <trkpt lat="43.41545" lon="6.07106">
        <ele>218.60000610352</ele>
        <time>2015-11-11T13:02:35Z</time>
      </trkpt>
      <trkpt lat="43.41545" lon="6.07101">
        <ele>218.39999389648</ele>
        <time>2015-11-11T13:02:36Z</time>
      </trkpt>
      <trkpt lat="43.41545" lon="6.07096">
        <ele>218.39999389648</ele>
        <time>2015-11-11T13:02:37Z</time>
      </trkpt>
      <trkpt lat="43.41544" lon="6.07086">
        <ele>218.80000305176</ele>
        <time>2015-11-11T13:02:39Z</time>
      </trkpt>
      <trkpt lat="43.4154" lon="6.07077">
        <ele>218.60000610352</ele>
        <time>2015-11-11T13:02:41Z</time>
      </trkpt>
      <trkpt lat="43.41536" lon="6.07075">
        <ele>218</ele>
        <time>2015-11-11T13:02:42Z</time>
      </trkpt>
      <trkpt lat="43.41531" lon="6.07076">
        <ele>217.60000610352</ele>
        <time>2015-11-11T13:02:43Z</time>
      </trkpt>
      <trkpt lat="43.41525" lon="6.07076">
        <ele>217.19999694824</ele>
        <time>2015-11-11T13:02:44Z</time>
      </trkpt>
      <trkpt lat="43.4152" lon="6.07078">
        <ele>216.80000305176</ele>
        <time>2015-11-11T13:02:45Z</time>
      </trkpt>
      <trkpt lat="43.41514" lon="6.07079">
        <ele>216.39999389648</ele>
        <time>2015-11-11T13:02:46Z</time>
      </trkpt>
      <trkpt lat="43.41509" lon="6.07081">
        <ele>216.39999389648</ele>
        <time>2015-11-11T13:02:47Z</time>
      </trkpt>
      <trkpt lat="43.41501" lon="6.07084">
        <ele>217</ele>
        <time>2015-11-11T13:02:49Z</time>
      </trkpt>
      <trkpt lat="43.41493" lon="6.07085">
        <ele>217</ele>
        <time>2015-11-11T13:02:51Z</time>
      </trkpt>
      <trkpt lat="43.41488" lon="6.07082">
        <ele>217</ele>
        <time>2015-11-11T13:02:53Z</time>
      </trkpt>
      <trkpt lat="43.41483" lon="6.07078">
        <ele>217</ele>
        <time>2015-11-11T13:02:55Z</time>
      </trkpt>
      <trkpt lat="43.41479" lon="6.07076">
        <ele>216.80000305176</ele>
        <time>2015-11-11T13:02:57Z</time>
      </trkpt>
      <trkpt lat="43.41476" lon="6.07077">
        <ele>217.39999389648</ele>
        <time>2015-11-11T13:02:59Z</time>
      </trkpt>
      <trkpt lat="43.41471" lon="6.07076">
        <ele>217.39999389648</ele>
        <time>2015-11-11T13:03:03Z</time>
      </trkpt>
      <trkpt lat="43.4147" lon="6.07076">
        <ele>217.39999389648</ele>
        <time>2015-11-11T13:03:05Z</time>
      </trkpt>
      <trkpt lat="43.4147" lon="6.07074">
        <ele>217.19999694824</ele>
        <time>2015-11-11T13:03:06Z</time>
      </trkpt>
      <trkpt lat="43.41468" lon="6.07072">
        <ele>217</ele>
        <time>2015-11-11T13:03:07Z</time>
      </trkpt>
      <trkpt lat="43.41467" lon="6.07063">
        <ele>216.60000610352</ele>
        <time>2015-11-11T13:03:11Z</time>
      </trkpt>
      <trkpt lat="43.41468" lon="6.07059">
        <ele>216.39999389648</ele>
        <time>2015-11-11T13:03:12Z</time>
      </trkpt>
      <trkpt lat="43.41472" lon="6.07052">
        <ele>216.19999694824</ele>
        <time>2015-11-11T13:03:14Z</time>
      </trkpt>
      <trkpt lat="43.41474" lon="6.07048">
        <ele>216.19999694824</ele>
        <time>2015-11-11T13:03:15Z</time>
      </trkpt>
      <trkpt lat="43.41478" lon="6.07039">
        <ele>216.19999694824</ele>
        <time>2015-11-11T13:03:17Z</time>
      </trkpt>
      <trkpt lat="43.41483" lon="6.07028">
        <ele>215.80000305176</ele>
        <time>2015-11-11T13:03:19Z</time>
      </trkpt>
      <trkpt lat="43.41488" lon="6.07017">
        <ele>216.39999389648</ele>
        <time>2015-11-11T13:03:21Z</time>
      </trkpt>
      <trkpt lat="43.41494" lon="6.06992">
        <ele>216.80000305176</ele>
        <time>2015-11-11T13:03:25Z</time>
      </trkpt>
      <trkpt lat="43.41492" lon="6.06978">
        <ele>216.39999389648</ele>
        <time>2015-11-11T13:03:27Z</time>
      </trkpt>
      <trkpt lat="43.41487" lon="6.06965">
        <ele>216.80000305176</ele>
        <time>2015-11-11T13:03:29Z</time>
      </trkpt>
      <trkpt lat="43.41481" lon="6.06957">
        <ele>216.80000305176</ele>
        <time>2015-11-11T13:03:31Z</time>
      </trkpt>
      <trkpt lat="43.41476" lon="6.06947">
        <ele>216.60000610352</ele>
        <time>2015-11-11T13:03:33Z</time>
      </trkpt>
      <trkpt lat="43.41471" lon="6.06938">
        <ele>217.39999389648</ele>
        <time>2015-11-11T13:03:35Z</time>
      </trkpt>
      <trkpt lat="43.41469" lon="6.06934">
        <ele>217.80000305176</ele>
        <time>2015-11-11T13:03:36Z</time>
      </trkpt>
      <trkpt lat="43.41466" lon="6.0693">
        <ele>218</ele>
        <time>2015-11-11T13:03:37Z</time>
      </trkpt>
      <trkpt lat="43.41466" lon="6.06926">
        <ele>218</ele>
        <time>2015-11-11T13:03:38Z</time>
      </trkpt>
      <trkpt lat="43.41468" lon="6.06923">
        <ele>218.39999389648</ele>
        <time>2015-11-11T13:03:39Z</time>
      </trkpt>
      <trkpt lat="43.4147" lon="6.0692">
        <ele>218.60000610352</ele>
        <time>2015-11-11T13:03:40Z</time>
      </trkpt>
      <trkpt lat="43.41474" lon="6.0691">
        <ele>219</ele>
        <time>2015-11-11T13:03:43Z</time>
      </trkpt>
      <trkpt lat="43.41476" lon="6.06905">
        <ele>219</ele>
        <time>2015-11-11T13:03:45Z</time>
      </trkpt>
      <trkpt lat="43.41476" lon="6.06903">
        <ele>219.19999694824</ele>
        <time>2015-11-11T13:03:47Z</time>
      </trkpt>
      <trkpt lat="43.41476" lon="6.06904">
        <ele>219.39999389648</ele>
        <time>2015-11-11T13:03:49Z</time>
      </trkpt>
      <trkpt lat="43.41476" lon="6.06904">
        <ele>219.39999389648</ele>
        <time>2015-11-11T13:03:51Z</time>
      </trkpt>
      <trkpt lat="43.41475" lon="6.06904">
        <ele>219</ele>
        <time>2015-11-11T13:03:52Z</time>
      </trkpt>
      <trkpt lat="43.41476" lon="6.06903">
        <ele>219</ele>
        <time>2015-11-11T13:03:53Z</time>
      </trkpt>
      <trkpt lat="43.41475" lon="6.06899">
        <ele>219.19999694824</ele>
        <time>2015-11-11T13:03:55Z</time>
      </trkpt>
      <trkpt lat="43.41476" lon="6.06897">
        <ele>219.19999694824</ele>
        <time>2015-11-11T13:03:56Z</time>
      </trkpt>
      <trkpt lat="43.41476" lon="6.06894">
        <ele>219.19999694824</ele>
        <time>2015-11-11T13:03:57Z</time>
      </trkpt>
      <trkpt lat="43.41475" lon="6.06885">
        <ele>218.80000305176</ele>
        <time>2015-11-11T13:03:59Z</time>
      </trkpt>
      <trkpt lat="43.41476" lon="6.06881">
        <ele>218.60000610352</ele>
        <time>2015-11-11T13:04:00Z</time>
      </trkpt>
      <trkpt lat="43.41475" lon="6.06877">
        <ele>218.80000305176</ele>
        <time>2015-11-11T13:04:01Z</time>
      </trkpt>
      <trkpt lat="43.41475" lon="6.06869">
        <ele>219</ele>
        <time>2015-11-11T13:04:03Z</time>
      </trkpt>
      <trkpt lat="43.41473" lon="6.0686">
        <ele>219</ele>
        <time>2015-11-11T13:04:05Z</time>
      </trkpt>
      <trkpt lat="43.41473" lon="6.0685">
        <ele>219</ele>
        <time>2015-11-11T13:04:07Z</time>
      </trkpt>
      <trkpt lat="43.41474" lon="6.06841">
        <ele>218.60000610352</ele>
        <time>2015-11-11T13:04:09Z</time>
      </trkpt>
      <trkpt lat="43.41475" lon="6.06835">
        <ele>219</ele>
        <time>2015-11-11T13:04:11Z</time>
      </trkpt>
      <trkpt lat="43.41479" lon="6.06827">
        <ele>218.80000305176</ele>
        <time>2015-11-11T13:04:13Z</time>
      </trkpt>
      <trkpt lat="43.41483" lon="6.06817">
        <ele>217.80000305176</ele>
        <time>2015-11-11T13:04:15Z</time>
      </trkpt>
      <trkpt lat="43.41485" lon="6.06812">
        <ele>217.60000610352</ele>
        <time>2015-11-11T13:04:16Z</time>
      </trkpt>
      <trkpt lat="43.41486" lon="6.06806">
        <ele>217.80000305176</ele>
        <time>2015-11-11T13:04:17Z</time>
      </trkpt>
      <trkpt lat="43.41489" lon="6.06795">
        <ele>218.39999389648</ele>
        <time>2015-11-11T13:04:19Z</time>
      </trkpt>
      <trkpt lat="43.41491" lon="6.06789">
        <ele>218.60000610352</ele>
        <time>2015-11-11T13:04:20Z</time>
      </trkpt>
      <trkpt lat="43.41492" lon="6.06784">
        <ele>218.80000305176</ele>
        <time>2015-11-11T13:04:21Z</time>
      </trkpt>
      <trkpt lat="43.41494" lon="6.06773">
        <ele>218.80000305176</ele>
        <time>2015-11-11T13:04:23Z</time>
      </trkpt>
      <trkpt lat="43.41496" lon="6.06763">
        <ele>219</ele>
        <time>2015-11-11T13:04:25Z</time>
      </trkpt>
      <trkpt lat="43.41496" lon="6.06753">
        <ele>219.19999694824</ele>
        <time>2015-11-11T13:04:27Z</time>
      </trkpt>
      <trkpt lat="43.41497" lon="6.06742">
        <ele>219.60000610352</ele>
        <time>2015-11-11T13:04:29Z</time>
      </trkpt>
      <trkpt lat="43.41497" lon="6.06738">
        <ele>219.80000305176</ele>
        <time>2015-11-11T13:04:30Z</time>
      </trkpt>
      <trkpt lat="43.41497" lon="6.06732">
        <ele>220</ele>
        <time>2015-11-11T13:04:31Z</time>
      </trkpt>
      <trkpt lat="43.41498" lon="6.06721">
        <ele>219.80000305176</ele>
        <time>2015-11-11T13:04:33Z</time>
      </trkpt>
      <trkpt lat="43.41499" lon="6.06701">
        <ele>220.39999389648</ele>
        <time>2015-11-11T13:04:37Z</time>
      </trkpt>
      <trkpt lat="43.41499" lon="6.0668">
        <ele>220.60000610352</ele>
        <time>2015-11-11T13:04:41Z</time>
      </trkpt>
      <trkpt lat="43.41501" lon="6.06669">
        <ele>221</ele>
        <time>2015-11-11T13:04:43Z</time>
      </trkpt>
      <trkpt lat="43.41503" lon="6.06658">
        <ele>221</ele>
        <time>2015-11-11T13:04:45Z</time>
      </trkpt>
      <trkpt lat="43.41504" lon="6.06648">
        <ele>221</ele>
        <time>2015-11-11T13:04:47Z</time>
      </trkpt>
      <trkpt lat="43.41507" lon="6.06632">
        <ele>220.60000610352</ele>
        <time>2015-11-11T13:04:50Z</time>
      </trkpt>
      <trkpt lat="43.41509" lon="6.06621">
        <ele>221</ele>
        <time>2015-11-11T13:04:52Z</time>
      </trkpt>
      <trkpt lat="43.41512" lon="6.06599">
        <ele>221.19999694824</ele>
        <time>2015-11-11T13:04:56Z</time>
      </trkpt>
      <trkpt lat="43.41513" lon="6.06588">
        <ele>221.19999694824</ele>
        <time>2015-11-11T13:04:58Z</time>
      </trkpt>
      <trkpt lat="43.41515" lon="6.06576">
        <ele>221.39999389648</ele>
        <time>2015-11-11T13:05:00Z</time>
      </trkpt>
      <trkpt lat="43.41517" lon="6.06566">
        <ele>221.39999389648</ele>
        <time>2015-11-11T13:05:02Z</time>
      </trkpt>
      <trkpt lat="43.41519" lon="6.06554">
        <ele>221.60000610352</ele>
        <time>2015-11-11T13:05:04Z</time>
      </trkpt>
      <trkpt lat="43.41521" lon="6.06543">
        <ele>221.60000610352</ele>
        <time>2015-11-11T13:05:06Z</time>
      </trkpt>
      <trkpt lat="43.41523" lon="6.06531">
        <ele>221.80000305176</ele>
        <time>2015-11-11T13:05:08Z</time>
      </trkpt>
      <trkpt lat="43.41525" lon="6.0652">
        <ele>222</ele>
        <time>2015-11-11T13:05:10Z</time>
      </trkpt>
      <trkpt lat="43.41527" lon="6.06515">
        <ele>222.19999694824</ele>
        <time>2015-11-11T13:05:11Z</time>
      </trkpt>
      <trkpt lat="43.41528" lon="6.0651">
        <ele>222.39999389648</ele>
        <time>2015-11-11T13:05:12Z</time>
      </trkpt>
      <trkpt lat="43.41532" lon="6.06501">
        <ele>222.80000305176</ele>
        <time>2015-11-11T13:05:14Z</time>
      </trkpt>
      <trkpt lat="43.41537" lon="6.06494">
        <ele>223</ele>
        <time>2015-11-11T13:05:16Z</time>
      </trkpt>
      <trkpt lat="43.4154" lon="6.06488">
        <ele>223.39999389648</ele>
        <time>2015-11-11T13:05:18Z</time>
      </trkpt>
      <trkpt lat="43.41543" lon="6.06484">
        <ele>223.80000305176</ele>
        <time>2015-11-11T13:05:20Z</time>
      </trkpt>
      <trkpt lat="43.41544" lon="6.06482">
        <ele>224</ele>
        <time>2015-11-11T13:05:22Z</time>
      </trkpt>
      <trkpt lat="43.41544" lon="6.06481">
        <ele>224</ele>
        <time>2015-11-11T13:05:23Z</time>
      </trkpt>
      <trkpt lat="43.41545" lon="6.0648">
        <ele>224</ele>
        <time>2015-11-11T13:05:24Z</time>
      </trkpt>
      <trkpt lat="43.41545" lon="6.06478">
        <ele>224.19999694824</ele>
        <time>2015-11-11T13:05:26Z</time>
      </trkpt>
      <trkpt lat="43.41546" lon="6.06474">
        <ele>224</ele>
        <time>2015-11-11T13:05:28Z</time>
      </trkpt>
      <trkpt lat="43.41545" lon="6.06469">
        <ele>223.60000610352</ele>
        <time>2015-11-11T13:05:30Z</time>
      </trkpt>
      <trkpt lat="43.41545" lon="6.06462">
        <ele>223.39999389648</ele>
        <time>2015-11-11T13:05:32Z</time>
      </trkpt>
      <trkpt lat="43.41544" lon="6.06452">
        <ele>223.39999389648</ele>
        <time>2015-11-11T13:05:34Z</time>
      </trkpt>
      <trkpt lat="43.41544" lon="6.06448">
        <ele>223.60000610352</ele>
        <time>2015-11-11T13:05:35Z</time>
      </trkpt>
      <trkpt lat="43.41544" lon="6.06443">
        <ele>223.80000305176</ele>
        <time>2015-11-11T13:05:36Z</time>
      </trkpt>
      <trkpt lat="43.41548" lon="6.06423">
        <ele>223.80000305176</ele>
        <time>2015-11-11T13:05:40Z</time>
      </trkpt>
      <trkpt lat="43.41549" lon="6.06419">
        <ele>224.19999694824</ele>
        <time>2015-11-11T13:05:41Z</time>
      </trkpt>
      <trkpt lat="43.4155" lon="6.06414">
        <ele>224.60000610352</ele>
        <time>2015-11-11T13:05:42Z</time>
      </trkpt>
      <trkpt lat="43.41552" lon="6.06405">
        <ele>225</ele>
        <time>2015-11-11T13:05:44Z</time>
      </trkpt>
      <trkpt lat="43.41554" lon="6.06395">
        <ele>225</ele>
        <time>2015-11-11T13:05:46Z</time>
      </trkpt>
      <trkpt lat="43.41556" lon="6.06382">
        <ele>226.60000610352</ele>
        <time>2015-11-11T13:05:48Z</time>
      </trkpt>
      <trkpt lat="43.41558" lon="6.06375">
        <ele>226.80000305176</ele>
        <time>2015-11-11T13:05:50Z</time>
      </trkpt>
      <trkpt lat="43.41558" lon="6.0637">
        <ele>227</ele>
        <time>2015-11-11T13:05:51Z</time>
      </trkpt>
      <trkpt lat="43.4156" lon="6.06361">
        <ele>227.39999389648</ele>
        <time>2015-11-11T13:05:53Z</time>
      </trkpt>
      <trkpt lat="43.41561" lon="6.06357">
        <ele>227.60000610352</ele>
        <time>2015-11-11T13:05:54Z</time>
      </trkpt>
      <trkpt lat="43.41563" lon="6.06353">
        <ele>227.80000305176</ele>
        <time>2015-11-11T13:05:55Z</time>
      </trkpt>
      <trkpt lat="43.41571" lon="6.06339">
        <ele>228.80000305176</ele>
        <time>2015-11-11T13:05:59Z</time>
      </trkpt>
      <trkpt lat="43.41579" lon="6.06324">
        <ele>229.60000610352</ele>
        <time>2015-11-11T13:06:03Z</time>
      </trkpt>
      <trkpt lat="43.41581" lon="6.06321">
        <ele>229.80000305176</ele>
        <time>2015-11-11T13:06:04Z</time>
      </trkpt>
      <trkpt lat="43.41583" lon="6.06317">
        <ele>230</ele>
        <time>2015-11-11T13:06:05Z</time>
      </trkpt>
      <trkpt lat="43.41586" lon="6.06308">
        <ele>230.80000305176</ele>
        <time>2015-11-11T13:06:07Z</time>
      </trkpt>
      <trkpt lat="43.41587" lon="6.06299">
        <ele>231.19999694824</ele>
        <time>2015-11-11T13:06:09Z</time>
      </trkpt>
      <trkpt lat="43.41587" lon="6.06291">
        <ele>231.19999694824</ele>
        <time>2015-11-11T13:06:11Z</time>
      </trkpt>
      <trkpt lat="43.41585" lon="6.06282">
        <ele>231.39999389648</ele>
        <time>2015-11-11T13:06:13Z</time>
      </trkpt>
      <trkpt lat="43.41584" lon="6.06273">
        <ele>231.60000610352</ele>
        <time>2015-11-11T13:06:15Z</time>
      </trkpt>
      <trkpt lat="43.41586" lon="6.0627">
        <ele>231.60000610352</ele>
        <time>2015-11-11T13:06:16Z</time>
      </trkpt>
      <trkpt lat="43.41587" lon="6.06267">
        <ele>231.60000610352</ele>
        <time>2015-11-11T13:06:17Z</time>
      </trkpt>
      <trkpt lat="43.4159" lon="6.06263">
        <ele>231.80000305176</ele>
        <time>2015-11-11T13:06:18Z</time>
      </trkpt>
      <trkpt lat="43.41593" lon="6.06259">
        <ele>232.60000610352</ele>
        <time>2015-11-11T13:06:20Z</time>
      </trkpt>
      <trkpt lat="43.41595" lon="6.06257">
        <ele>232.80000305176</ele>
        <time>2015-11-11T13:06:21Z</time>
      </trkpt>
      <trkpt lat="43.41599" lon="6.06254">
        <ele>232.60000610352</ele>
        <time>2015-11-11T13:06:23Z</time>
      </trkpt>
      <trkpt lat="43.41599" lon="6.06253">
        <ele>232.80000305176</ele>
        <time>2015-11-11T13:06:24Z</time>
      </trkpt>
      <trkpt lat="43.41599" lon="6.06252">
        <ele>233</ele>
        <time>2015-11-11T13:06:25Z</time>
      </trkpt>
      <trkpt lat="43.41599" lon="6.06252">
        <ele>233.39999389648</ele>
        <time>2015-11-11T13:06:27Z</time>
      </trkpt>
      <trkpt lat="43.41599" lon="6.06252">
        <ele>233.19999694824</ele>
        <time>2015-11-11T13:06:31Z</time>
      </trkpt>
      <trkpt lat="43.41599" lon="6.06252">
        <ele>233.19999694824</ele>
        <time>2015-11-11T13:06:33Z</time>
      </trkpt>
      <trkpt lat="43.41599" lon="6.06252">
        <ele>233</ele>
        <time>2015-11-11T13:06:35Z</time>
      </trkpt>
      <trkpt lat="43.416" lon="6.0625">
        <ele>233</ele>
        <time>2015-11-11T13:06:36Z</time>
      </trkpt>
      <trkpt lat="43.41601" lon="6.06248">
        <ele>233.19999694824</ele>
        <time>2015-11-11T13:06:37Z</time>
      </trkpt>
      <trkpt lat="43.41603" lon="6.06241">
        <ele>233.19999694824</ele>
        <time>2015-11-11T13:06:39Z</time>
      </trkpt>
      <trkpt lat="43.41605" lon="6.06233">
        <ele>233.19999694824</ele>
        <time>2015-11-11T13:06:41Z</time>
      </trkpt>
      <trkpt lat="43.41607" lon="6.06224">
        <ele>233</ele>
        <time>2015-11-11T13:06:43Z</time>
      </trkpt>
      <trkpt lat="43.41608" lon="6.06216">
        <ele>233.19999694824</ele>
        <time>2015-11-11T13:06:45Z</time>
      </trkpt>
      <trkpt lat="43.41608" lon="6.06208">
        <ele>233.19999694824</ele>
        <time>2015-11-11T13:06:47Z</time>
      </trkpt>
      <trkpt lat="43.41604" lon="6.062">
        <ele>232.80000305176</ele>
        <time>2015-11-11T13:06:49Z</time>
      </trkpt>
      <trkpt lat="43.41602" lon="6.0619">
        <ele>232</ele>
        <time>2015-11-11T13:06:51Z</time>
      </trkpt>
      <trkpt lat="43.41601" lon="6.06179">
        <ele>231.80000305176</ele>
        <time>2015-11-11T13:06:53Z</time>
      </trkpt>
      <trkpt lat="43.41602" lon="6.06172">
        <ele>231.39999389648</ele>
        <time>2015-11-11T13:06:54Z</time>
      </trkpt>
      <trkpt lat="43.41605" lon="6.06166">
        <ele>231</ele>
        <time>2015-11-11T13:06:55Z</time>
      </trkpt>
      <trkpt lat="43.41608" lon="6.06161">
        <ele>230.19999694824</ele>
        <time>2015-11-11T13:06:56Z</time>
      </trkpt>
      <trkpt lat="43.41611" lon="6.06156">
        <ele>229.60000610352</ele>
        <time>2015-11-11T13:06:57Z</time>
      </trkpt>
      <trkpt lat="43.41619" lon="6.06147">
        <ele>230</ele>
        <time>2015-11-11T13:06:59Z</time>
      </trkpt>
      <trkpt lat="43.41626" lon="6.06138">
        <ele>230.19999694824</ele>
        <time>2015-11-11T13:07:01Z</time>
      </trkpt>
      <trkpt lat="43.41628" lon="6.06133">
        <ele>230.19999694824</ele>
        <time>2015-11-11T13:07:02Z</time>
      </trkpt>
      <trkpt lat="43.41629" lon="6.06128">
        <ele>230.19999694824</ele>
        <time>2015-11-11T13:07:03Z</time>
      </trkpt>
      <trkpt lat="43.41625" lon="6.06115">
        <ele>230.19999694824</ele>
        <time>2015-11-11T13:07:05Z</time>
      </trkpt>
      <trkpt lat="43.41622" lon="6.06108">
        <ele>230</ele>
        <time>2015-11-11T13:07:06Z</time>
      </trkpt>
      <trkpt lat="43.4162" lon="6.06101">
        <ele>229.80000305176</ele>
        <time>2015-11-11T13:07:07Z</time>
      </trkpt>
      <trkpt lat="43.41617" lon="6.06087">
        <ele>230</ele>
        <time>2015-11-11T13:07:09Z</time>
      </trkpt>
      <trkpt lat="43.41616" lon="6.06079">
        <ele>229.80000305176</ele>
        <time>2015-11-11T13:07:10Z</time>
      </trkpt>
      <trkpt lat="43.41616" lon="6.06072">
        <ele>229.60000610352</ele>
        <time>2015-11-11T13:07:11Z</time>
      </trkpt>
      <trkpt lat="43.41619" lon="6.06043">
        <ele>230.60000610352</ele>
        <time>2015-11-11T13:07:15Z</time>
      </trkpt>
      <trkpt lat="43.4162" lon="6.06036">
        <ele>230.80000305176</ele>
        <time>2015-11-11T13:07:16Z</time>
      </trkpt>
      <trkpt lat="43.41621" lon="6.06029">
        <ele>231</ele>
        <time>2015-11-11T13:07:17Z</time>
      </trkpt>
      <trkpt lat="43.41623" lon="6.06023">
        <ele>231.19999694824</ele>
        <time>2015-11-11T13:07:18Z</time>
      </trkpt>
      <trkpt lat="43.41623" lon="6.06017">
        <ele>231.60000610352</ele>
        <time>2015-11-11T13:07:19Z</time>
      </trkpt>
      <trkpt lat="43.41626" lon="6.06005">
        <ele>232</ele>
        <time>2015-11-11T13:07:21Z</time>
      </trkpt>
      <trkpt lat="43.41626" lon="6.05999">
        <ele>232.60000610352</ele>
        <time>2015-11-11T13:07:22Z</time>
      </trkpt>
      <trkpt lat="43.41627" lon="6.05993">
        <ele>233</ele>
        <time>2015-11-11T13:07:23Z</time>
      </trkpt>
      <trkpt lat="43.41628" lon="6.05988">
        <ele>233.19999694824</ele>
        <time>2015-11-11T13:07:24Z</time>
      </trkpt>
      <trkpt lat="43.41629" lon="6.05976">
        <ele>233.60000610352</ele>
        <time>2015-11-11T13:07:26Z</time>
      </trkpt>
      <trkpt lat="43.41631" lon="6.05971">
        <ele>233.39999389648</ele>
        <time>2015-11-11T13:07:27Z</time>
      </trkpt>
      <trkpt lat="43.41632" lon="6.05961">
        <ele>233.80000305176</ele>
        <time>2015-11-11T13:07:29Z</time>
      </trkpt>
      <trkpt lat="43.41635" lon="6.05939">
        <ele>234.39999389648</ele>
        <time>2015-11-11T13:07:33Z</time>
      </trkpt>
      <trkpt lat="43.41636" lon="6.05928">
        <ele>234.80000305176</ele>
        <time>2015-11-11T13:07:35Z</time>
      </trkpt>
      <trkpt lat="43.41639" lon="6.05906">
        <ele>235.39999389648</ele>
        <time>2015-11-11T13:07:39Z</time>
      </trkpt>
      <trkpt lat="43.41641" lon="6.0589">
        <ele>235.19999694824</ele>
        <time>2015-11-11T13:07:42Z</time>
      </trkpt>
      <trkpt lat="43.41642" lon="6.05873">
        <ele>235.80000305176</ele>
        <time>2015-11-11T13:07:45Z</time>
      </trkpt>
      <trkpt lat="43.41643" lon="6.05862">
        <ele>235.80000305176</ele>
        <time>2015-11-11T13:07:47Z</time>
      </trkpt>
      <trkpt lat="43.41644" lon="6.0585">
        <ele>235.60000610352</ele>
        <time>2015-11-11T13:07:49Z</time>
      </trkpt>
      <trkpt lat="43.41645" lon="6.05827">
        <ele>235.39999389648</ele>
        <time>2015-11-11T13:07:53Z</time>
      </trkpt>
      <trkpt lat="43.41646" lon="6.05805">
        <ele>236</ele>
        <time>2015-11-11T13:07:57Z</time>
      </trkpt>
      <trkpt lat="43.41646" lon="6.05793">
        <ele>236</ele>
        <time>2015-11-11T13:07:59Z</time>
      </trkpt>
      <trkpt lat="43.41646" lon="6.05781">
        <ele>236.19999694824</ele>
        <time>2015-11-11T13:08:01Z</time>
      </trkpt>
      <trkpt lat="43.41646" lon="6.0577">
        <ele>236.19999694824</ele>
        <time>2015-11-11T13:08:03Z</time>
      </trkpt>
      <trkpt lat="43.41646" lon="6.05757">
        <ele>236.19999694824</ele>
        <time>2015-11-11T13:08:05Z</time>
      </trkpt>
      <trkpt lat="43.41645" lon="6.05728">
        <ele>236.19999694824</ele>
        <time>2015-11-11T13:08:10Z</time>
      </trkpt>
      <trkpt lat="43.41645" lon="6.05722">
        <ele>236.19999694824</ele>
        <time>2015-11-11T13:08:11Z</time>
      </trkpt>
      <trkpt lat="43.41644" lon="6.0571">
        <ele>236</ele>
        <time>2015-11-11T13:08:13Z</time>
      </trkpt>
      <trkpt lat="43.41644" lon="6.05698">
        <ele>235.60000610352</ele>
        <time>2015-11-11T13:08:15Z</time>
      </trkpt>
      <trkpt lat="43.41643" lon="6.05679">
        <ele>235.39999389648</ele>
        <time>2015-11-11T13:08:18Z</time>
      </trkpt>
      <trkpt lat="43.41641" lon="6.0566">
        <ele>234.80000305176</ele>
        <time>2015-11-11T13:08:21Z</time>
      </trkpt>
      <trkpt lat="43.41641" lon="6.05654">
        <ele>234.60000610352</ele>
        <time>2015-11-11T13:08:22Z</time>
      </trkpt>
      <trkpt lat="43.4164" lon="6.05647">
        <ele>234.60000610352</ele>
        <time>2015-11-11T13:08:23Z</time>
      </trkpt>
      <trkpt lat="43.41639" lon="6.05633">
        <ele>234.80000305176</ele>
        <time>2015-11-11T13:08:25Z</time>
      </trkpt>
      <trkpt lat="43.41637" lon="6.0562">
        <ele>234.60000610352</ele>
        <time>2015-11-11T13:08:27Z</time>
      </trkpt>
      <trkpt lat="43.41633" lon="6.05593">
        <ele>234.39999389648</ele>
        <time>2015-11-11T13:08:31Z</time>
      </trkpt>
      <trkpt lat="43.4163" lon="6.05579">
        <ele>234.39999389648</ele>
        <time>2015-11-11T13:08:33Z</time>
      </trkpt>
      <trkpt lat="43.41625" lon="6.05552">
        <ele>234.39999389648</ele>
        <time>2015-11-11T13:08:37Z</time>
      </trkpt>
      <trkpt lat="43.41618" lon="6.05526">
        <ele>233.19999694824</ele>
        <time>2015-11-11T13:08:41Z</time>
      </trkpt>
      <trkpt lat="43.41603" lon="6.05476">
        <ele>233.80000305176</ele>
        <time>2015-11-11T13:08:49Z</time>
      </trkpt>
      <trkpt lat="43.41594" lon="6.05445">
        <ele>233.80000305176</ele>
        <time>2015-11-11T13:08:54Z</time>
      </trkpt>
      <trkpt lat="43.41589" lon="6.05426">
        <ele>233.80000305176</ele>
        <time>2015-11-11T13:08:57Z</time>
      </trkpt>
      <trkpt lat="43.41585" lon="6.05413">
        <ele>233.60000610352</ele>
        <time>2015-11-11T13:08:59Z</time>
      </trkpt>
      <trkpt lat="43.41577" lon="6.05389">
        <ele>233.19999694824</ele>
        <time>2015-11-11T13:09:03Z</time>
      </trkpt>
      <trkpt lat="43.41573" lon="6.05376">
        <ele>232.19999694824</ele>
        <time>2015-11-11T13:09:05Z</time>
      </trkpt>
      <trkpt lat="43.41568" lon="6.05364">
        <ele>232.19999694824</ele>
        <time>2015-11-11T13:09:07Z</time>
      </trkpt>
      <trkpt lat="43.41563" lon="6.05351">
        <ele>232.19999694824</ele>
        <time>2015-11-11T13:09:09Z</time>
      </trkpt>
      <trkpt lat="43.41557" lon="6.05339">
        <ele>231.80000305176</ele>
        <time>2015-11-11T13:09:11Z</time>
      </trkpt>
      <trkpt lat="43.41552" lon="6.05326">
        <ele>231.19999694824</ele>
        <time>2015-11-11T13:09:13Z</time>
      </trkpt>
      <trkpt lat="43.41549" lon="6.05312">
        <ele>231.19999694824</ele>
        <time>2015-11-11T13:09:15Z</time>
      </trkpt>
      <trkpt lat="43.41545" lon="6.05299">
        <ele>231.39999389648</ele>
        <time>2015-11-11T13:09:17Z</time>
      </trkpt>
      <trkpt lat="43.41541" lon="6.05281">
        <ele>231.60000610352</ele>
        <time>2015-11-11T13:09:19Z</time>
      </trkpt>
      <trkpt lat="43.41538" lon="6.05274">
        <ele>231.39999389648</ele>
        <time>2015-11-11T13:09:21Z</time>
      </trkpt>
      <trkpt lat="43.41536" lon="6.05268">
        <ele>231.19999694824</ele>
        <time>2015-11-11T13:09:22Z</time>
      </trkpt>
      <trkpt lat="43.41534" lon="6.05262">
        <ele>230.80000305176</ele>
        <time>2015-11-11T13:09:23Z</time>
      </trkpt>
      <trkpt lat="43.41531" lon="6.05256">
        <ele>230.80000305176</ele>
        <time>2015-11-11T13:09:24Z</time>
      </trkpt>
      <trkpt lat="43.41525" lon="6.05243">
        <ele>230.39999389648</ele>
        <time>2015-11-11T13:09:26Z</time>
      </trkpt>
      <trkpt lat="43.41523" lon="6.05237">
        <ele>229.80000305176</ele>
        <time>2015-11-11T13:09:27Z</time>
      </trkpt>
      <trkpt lat="43.4152" lon="6.05231">
        <ele>229.60000610352</ele>
        <time>2015-11-11T13:09:28Z</time>
      </trkpt>
      <trkpt lat="43.41514" lon="6.05219">
        <ele>229.39999389648</ele>
        <time>2015-11-11T13:09:30Z</time>
      </trkpt>
      <trkpt lat="43.41509" lon="6.05207">
        <ele>229</ele>
        <time>2015-11-11T13:09:32Z</time>
      </trkpt>
      <trkpt lat="43.41504" lon="6.05196">
        <ele>229</ele>
        <time>2015-11-11T13:09:34Z</time>
      </trkpt>
      <trkpt lat="43.41501" lon="6.0519">
        <ele>229.19999694824</ele>
        <time>2015-11-11T13:09:35Z</time>
      </trkpt>
      <trkpt lat="43.41499" lon="6.05185">
        <ele>229.19999694824</ele>
        <time>2015-11-11T13:09:36Z</time>
      </trkpt>
      <trkpt lat="43.41496" lon="6.05179">
        <ele>229</ele>
        <time>2015-11-11T13:09:37Z</time>
      </trkpt>
      <trkpt lat="43.41495" lon="6.05172">
        <ele>229</ele>
        <time>2015-11-11T13:09:38Z</time>
      </trkpt>
      <trkpt lat="43.41496" lon="6.05167">
        <ele>229</ele>
        <time>2015-11-11T13:09:39Z</time>
      </trkpt>
      <trkpt lat="43.41502" lon="6.05159">
        <ele>230</ele>
        <time>2015-11-11T13:09:41Z</time>
      </trkpt>
      <trkpt lat="43.41505" lon="6.05159">
        <ele>230.39999389648</ele>
        <time>2015-11-11T13:09:42Z</time>
      </trkpt>
      <trkpt lat="43.41512" lon="6.05157">
        <ele>230.60000610352</ele>
        <time>2015-11-11T13:09:44Z</time>
      </trkpt>
      <trkpt lat="43.4152" lon="6.05156">
        <ele>230.60000610352</ele>
        <time>2015-11-11T13:09:46Z</time>
      </trkpt>
      <trkpt lat="43.41527" lon="6.05155">
        <ele>231</ele>
        <time>2015-11-11T13:09:48Z</time>
      </trkpt>
      <trkpt lat="43.41535" lon="6.05154">
        <ele>231.39999389648</ele>
        <time>2015-11-11T13:09:50Z</time>
      </trkpt>
      <trkpt lat="43.41538" lon="6.05154">
        <ele>231.60000610352</ele>
        <time>2015-11-11T13:09:51Z</time>
      </trkpt>
      <trkpt lat="43.41545" lon="6.05154">
        <ele>232</ele>
        <time>2015-11-11T13:09:53Z</time>
      </trkpt>
      <trkpt lat="43.41549" lon="6.05154">
        <ele>232.19999694824</ele>
        <time>2015-11-11T13:09:54Z</time>
      </trkpt>
      <trkpt lat="43.41555" lon="6.05155">
        <ele>232.80000305176</ele>
        <time>2015-11-11T13:09:56Z</time>
      </trkpt>
      <trkpt lat="43.41561" lon="6.05155">
        <ele>233.39999389648</ele>
        <time>2015-11-11T13:09:58Z</time>
      </trkpt>
      <trkpt lat="43.41567" lon="6.05156">
        <ele>234.19999694824</ele>
        <time>2015-11-11T13:10:00Z</time>
      </trkpt>
      <trkpt lat="43.41571" lon="6.05157">
        <ele>234.80000305176</ele>
        <time>2015-11-11T13:10:02Z</time>
      </trkpt>
      <trkpt lat="43.41576" lon="6.05157">
        <ele>234.80000305176</ele>
        <time>2015-11-11T13:10:04Z</time>
      </trkpt>
      <trkpt lat="43.41581" lon="6.05158">
        <ele>235</ele>
        <time>2015-11-11T13:10:06Z</time>
      </trkpt>
      <trkpt lat="43.41585" lon="6.0516">
        <ele>235.39999389648</ele>
        <time>2015-11-11T13:10:08Z</time>
      </trkpt>
      <trkpt lat="43.4159" lon="6.0516">
        <ele>235.80000305176</ele>
        <time>2015-11-11T13:10:10Z</time>
      </trkpt>
      <trkpt lat="43.41595" lon="6.05161">
        <ele>236</ele>
        <time>2015-11-11T13:10:12Z</time>
      </trkpt>
      <trkpt lat="43.41601" lon="6.05162">
        <ele>236.19999694824</ele>
        <time>2015-11-11T13:10:14Z</time>
      </trkpt>
      <trkpt lat="43.41606" lon="6.05162">
        <ele>236.80000305176</ele>
        <time>2015-11-11T13:10:16Z</time>
      </trkpt>
      <trkpt lat="43.41611" lon="6.05163">
        <ele>237</ele>
        <time>2015-11-11T13:10:18Z</time>
      </trkpt>
      <trkpt lat="43.41616" lon="6.05163">
        <ele>237.19999694824</ele>
        <time>2015-11-11T13:10:20Z</time>
      </trkpt>
      <trkpt lat="43.41621" lon="6.05164">
        <ele>237.80000305176</ele>
        <time>2015-11-11T13:10:22Z</time>
      </trkpt>
      <trkpt lat="43.41631" lon="6.05165">
        <ele>238.39999389648</ele>
        <time>2015-11-11T13:10:26Z</time>
      </trkpt>
      <trkpt lat="43.41636" lon="6.05166">
        <ele>238.80000305176</ele>
        <time>2015-11-11T13:10:28Z</time>
      </trkpt>
      <trkpt lat="43.4164" lon="6.05166">
        <ele>239</ele>
        <time>2015-11-11T13:10:30Z</time>
      </trkpt>
      <trkpt lat="43.41645" lon="6.05167">
        <ele>239.39999389648</ele>
        <time>2015-11-11T13:10:32Z</time>
      </trkpt>
      <trkpt lat="43.4165" lon="6.05167">
        <ele>239.60000610352</ele>
        <time>2015-11-11T13:10:34Z</time>
      </trkpt>
      <trkpt lat="43.41652" lon="6.05167">
        <ele>239.60000610352</ele>
        <time>2015-11-11T13:10:35Z</time>
      </trkpt>
      <trkpt lat="43.41656" lon="6.05167">
        <ele>240.19999694824</ele>
        <time>2015-11-11T13:10:36Z</time>
      </trkpt>
      <trkpt lat="43.41661" lon="6.05166">
        <ele>240.39999389648</ele>
        <time>2015-11-11T13:10:39Z</time>
      </trkpt>
      <trkpt lat="43.41665" lon="6.05165">
        <ele>240.80000305176</ele>
        <time>2015-11-11T13:10:41Z</time>
      </trkpt>
      <trkpt lat="43.41669" lon="6.05162">
        <ele>241.39999389648</ele>
        <time>2015-11-11T13:10:43Z</time>
      </trkpt>
      <trkpt lat="43.41673" lon="6.05159">
        <ele>241.60000610352</ele>
        <time>2015-11-11T13:10:45Z</time>
      </trkpt>
      <trkpt lat="43.41676" lon="6.05155">
        <ele>242</ele>
        <time>2015-11-11T13:10:47Z</time>
      </trkpt>
      <trkpt lat="43.41679" lon="6.0515">
        <ele>242.19999694824</ele>
        <time>2015-11-11T13:10:49Z</time>
      </trkpt>
      <trkpt lat="43.41685" lon="6.05142">
        <ele>242.39999389648</ele>
        <time>2015-11-11T13:10:53Z</time>
      </trkpt>
      <trkpt lat="43.41689" lon="6.05138">
        <ele>242.60000610352</ele>
        <time>2015-11-11T13:10:55Z</time>
      </trkpt>
      <trkpt lat="43.41692" lon="6.05135">
        <ele>243</ele>
        <time>2015-11-11T13:10:57Z</time>
      </trkpt>
      <trkpt lat="43.41699" lon="6.05128">
        <ele>243.60000610352</ele>
        <time>2015-11-11T13:11:01Z</time>
      </trkpt>
      <trkpt lat="43.41703" lon="6.05124">
        <ele>243.60000610352</ele>
        <time>2015-11-11T13:11:03Z</time>
      </trkpt>
      <trkpt lat="43.41706" lon="6.05121">
        <ele>243.80000305176</ele>
        <time>2015-11-11T13:11:05Z</time>
      </trkpt>
      <trkpt lat="43.41708" lon="6.05121">
        <ele>243.80000305176</ele>
        <time>2015-11-11T13:11:06Z</time>
      </trkpt>
      <trkpt lat="43.4171" lon="6.05119">
        <ele>244</ele>
        <time>2015-11-11T13:11:07Z</time>
      </trkpt>
      <trkpt lat="43.41713" lon="6.05117">
        <ele>244.19999694824</ele>
        <time>2015-11-11T13:11:09Z</time>
      </trkpt>
      <trkpt lat="43.41721" lon="6.05111">
        <ele>244.80000305176</ele>
        <time>2015-11-11T13:11:14Z</time>
      </trkpt>
      <trkpt lat="43.41723" lon="6.0511">
        <ele>244.80000305176</ele>
        <time>2015-11-11T13:11:15Z</time>
      </trkpt>
      <trkpt lat="43.41727" lon="6.05109">
        <ele>245.39999389648</ele>
        <time>2015-11-11T13:11:17Z</time>
      </trkpt>
      <trkpt lat="43.41732" lon="6.05109">
        <ele>245.80000305176</ele>
        <time>2015-11-11T13:11:19Z</time>
      </trkpt>
      <trkpt lat="43.41735" lon="6.05111">
        <ele>246.39999389648</ele>
        <time>2015-11-11T13:11:22Z</time>
      </trkpt>
      <trkpt lat="43.41736" lon="6.05116">
        <ele>246.60000610352</ele>
        <time>2015-11-11T13:11:24Z</time>
      </trkpt>
      <trkpt lat="43.41736" lon="6.05119">
        <ele>246.80000305176</ele>
        <time>2015-11-11T13:11:25Z</time>
      </trkpt>
      <trkpt lat="43.41736" lon="6.05122">
        <ele>247</ele>
        <time>2015-11-11T13:11:26Z</time>
      </trkpt>
      <trkpt lat="43.41736" lon="6.05128">
        <ele>247.19999694824</ele>
        <time>2015-11-11T13:11:28Z</time>
      </trkpt>
      <trkpt lat="43.41735" lon="6.05144">
        <ele>247.60000610352</ele>
        <time>2015-11-11T13:11:33Z</time>
      </trkpt>
      <trkpt lat="43.41735" lon="6.05147">
        <ele>247.60000610352</ele>
        <time>2015-11-11T13:11:34Z</time>
      </trkpt>
      <trkpt lat="43.41735" lon="6.05154">
        <ele>247.39999389648</ele>
        <time>2015-11-11T13:11:36Z</time>
      </trkpt>
      <trkpt lat="43.41736" lon="6.05161">
        <ele>247.60000610352</ele>
        <time>2015-11-11T13:11:38Z</time>
      </trkpt>
      <trkpt lat="43.41739" lon="6.0517">
        <ele>247.60000610352</ele>
        <time>2015-11-11T13:11:41Z</time>
      </trkpt>
      <trkpt lat="43.41741" lon="6.05173">
        <ele>247.60000610352</ele>
        <time>2015-11-11T13:11:42Z</time>
      </trkpt>
      <trkpt lat="43.41744" lon="6.05177">
        <ele>247.80000305176</ele>
        <time>2015-11-11T13:11:44Z</time>
      </trkpt>
      <trkpt lat="43.41746" lon="6.05178">
        <ele>247.80000305176</ele>
        <time>2015-11-11T13:11:45Z</time>
      </trkpt>
      <trkpt lat="43.41749" lon="6.05179">
        <ele>248</ele>
        <time>2015-11-11T13:11:46Z</time>
      </trkpt>
      <trkpt lat="43.41753" lon="6.0518">
        <ele>248.19999694824</ele>
        <time>2015-11-11T13:11:48Z</time>
      </trkpt>
      <trkpt lat="43.41758" lon="6.05181">
        <ele>248.19999694824</ele>
        <time>2015-11-11T13:11:50Z</time>
      </trkpt>
      <trkpt lat="43.41763" lon="6.05181">
        <ele>248.39999389648</ele>
        <time>2015-11-11T13:11:52Z</time>
      </trkpt>
      <trkpt lat="43.41765" lon="6.05181">
        <ele>248.60000610352</ele>
        <time>2015-11-11T13:11:53Z</time>
      </trkpt>
      <trkpt lat="43.4177" lon="6.05181">
        <ele>248.80000305176</ele>
        <time>2015-11-11T13:11:55Z</time>
      </trkpt>
      <trkpt lat="43.41772" lon="6.05182">
        <ele>249</ele>
        <time>2015-11-11T13:11:56Z</time>
      </trkpt>
      <trkpt lat="43.41777" lon="6.05182">
        <ele>249.39999389648</ele>
        <time>2015-11-11T13:11:58Z</time>
      </trkpt>
      <trkpt lat="43.41782" lon="6.05182">
        <ele>249.60000610352</ele>
        <time>2015-11-11T13:12:00Z</time>
      </trkpt>
      <trkpt lat="43.41787" lon="6.05182">
        <ele>249.80000305176</ele>
        <time>2015-11-11T13:12:02Z</time>
      </trkpt>
      <trkpt lat="43.41792" lon="6.05182">
        <ele>250.19999694824</ele>
        <time>2015-11-11T13:12:04Z</time>
      </trkpt>
      <trkpt lat="43.41797" lon="6.05183">
        <ele>250.39999389648</ele>
        <time>2015-11-11T13:12:06Z</time>
      </trkpt>
      <trkpt lat="43.41802" lon="6.05182">
        <ele>250.60000610352</ele>
        <time>2015-11-11T13:12:08Z</time>
      </trkpt>
      <trkpt lat="43.41807" lon="6.05183">
        <ele>251</ele>
        <time>2015-11-11T13:12:10Z</time>
      </trkpt>
      <trkpt lat="43.41811" lon="6.05183">
        <ele>251.19999694824</ele>
        <time>2015-11-11T13:12:12Z</time>
      </trkpt>
      <trkpt lat="43.41816" lon="6.05183">
        <ele>251.60000610352</ele>
        <time>2015-11-11T13:12:14Z</time>
      </trkpt>
      <trkpt lat="43.41821" lon="6.05184">
        <ele>252</ele>
        <time>2015-11-11T13:12:16Z</time>
      </trkpt>
      <trkpt lat="43.41831" lon="6.05184">
        <ele>252</ele>
        <time>2015-11-11T13:12:20Z</time>
      </trkpt>
      <trkpt lat="43.41841" lon="6.05185">
        <ele>252.60000610352</ele>
        <time>2015-11-11T13:12:24Z</time>
      </trkpt>
      <trkpt lat="43.41846" lon="6.05185">
        <ele>252.80000305176</ele>
        <time>2015-11-11T13:12:26Z</time>
      </trkpt>
      <trkpt lat="43.41855" lon="6.05183">
        <ele>253.80000305176</ele>
        <time>2015-11-11T13:12:30Z</time>
      </trkpt>
      <trkpt lat="43.4186" lon="6.05181">
        <ele>253.60000610352</ele>
        <time>2015-11-11T13:12:32Z</time>
      </trkpt>
      <trkpt lat="43.41865" lon="6.0518">
        <ele>253.80000305176</ele>
        <time>2015-11-11T13:12:34Z</time>
      </trkpt>
      <trkpt lat="43.4187" lon="6.05178">
        <ele>254.19999694824</ele>
        <time>2015-11-11T13:12:36Z</time>
      </trkpt>
      <trkpt lat="43.41877" lon="6.05175">
        <ele>254.60000610352</ele>
        <time>2015-11-11T13:12:39Z</time>
      </trkpt>
      <trkpt lat="43.4188" lon="6.05173">
        <ele>255</ele>
        <time>2015-11-11T13:12:41Z</time>
      </trkpt>
      <trkpt lat="43.41882" lon="6.0517">
        <ele>255</ele>
        <time>2015-11-11T13:12:42Z</time>
      </trkpt>
      <trkpt lat="43.41884" lon="6.05166">
        <ele>255.19999694824</ele>
        <time>2015-11-11T13:12:43Z</time>
      </trkpt>
      <trkpt lat="43.41888" lon="6.05161">
        <ele>255.39999389648</ele>
        <time>2015-11-11T13:12:45Z</time>
      </trkpt>
      <trkpt lat="43.4189" lon="6.05158">
        <ele>255.60000610352</ele>
        <time>2015-11-11T13:12:46Z</time>
      </trkpt>
      <trkpt lat="43.41891" lon="6.05155">
        <ele>255.80000305176</ele>
        <time>2015-11-11T13:12:47Z</time>
      </trkpt>
      <trkpt lat="43.41894" lon="6.05151">
        <ele>256.20001220703</ele>
        <time>2015-11-11T13:12:49Z</time>
      </trkpt>
      <trkpt lat="43.41898" lon="6.05147">
        <ele>256.39999389648</ele>
        <time>2015-11-11T13:12:51Z</time>
      </trkpt>
      <trkpt lat="43.41903" lon="6.05144">
        <ele>256.39999389648</ele>
        <time>2015-11-11T13:12:53Z</time>
      </trkpt>
      <trkpt lat="43.41904" lon="6.05146">
        <ele>256.79998779297</ele>
        <time>2015-11-11T13:12:55Z</time>
      </trkpt>
      <trkpt lat="43.41904" lon="6.05145">
        <ele>257</ele>
        <time>2015-11-11T13:12:56Z</time>
      </trkpt>
      <trkpt lat="43.41903" lon="6.05144">
        <ele>257.20001220703</ele>
        <time>2015-11-11T13:12:57Z</time>
      </trkpt>
      <trkpt lat="43.41908" lon="6.05141">
        <ele>257.60000610352</ele>
        <time>2015-11-11T13:12:59Z</time>
      </trkpt>
      <trkpt lat="43.41922" lon="6.0515">
        <ele>258</ele>
        <time>2015-11-11T13:13:01Z</time>
      </trkpt>
      <trkpt lat="43.41932" lon="6.0515">
        <ele>258.20001220703</ele>
        <time>2015-11-11T13:13:03Z</time>
      </trkpt>
      <trkpt lat="43.41939" lon="6.05149">
        <ele>258.39999389648</ele>
        <time>2015-11-11T13:13:05Z</time>
      </trkpt>
      <trkpt lat="43.41945" lon="6.05146">
        <ele>258.79998779297</ele>
        <time>2015-11-11T13:13:07Z</time>
      </trkpt>
      <trkpt lat="43.4195" lon="6.05143">
        <ele>258.79998779297</ele>
        <time>2015-11-11T13:13:09Z</time>
      </trkpt>
      <trkpt lat="43.41956" lon="6.05141">
        <ele>259</ele>
        <time>2015-11-11T13:13:11Z</time>
      </trkpt>
      <trkpt lat="43.41961" lon="6.05138">
        <ele>259.20001220703</ele>
        <time>2015-11-11T13:13:13Z</time>
      </trkpt>
      <trkpt lat="43.41966" lon="6.05136">
        <ele>259.60000610352</ele>
        <time>2015-11-11T13:13:15Z</time>
      </trkpt>
      <trkpt lat="43.41968" lon="6.05134">
        <ele>259.60000610352</ele>
        <time>2015-11-11T13:13:16Z</time>
      </trkpt>
      <trkpt lat="43.4197" lon="6.05133">
        <ele>259.79998779297</ele>
        <time>2015-11-11T13:13:17Z</time>
      </trkpt>
      <trkpt lat="43.41975" lon="6.05132">
        <ele>260.20001220703</ele>
        <time>2015-11-11T13:13:19Z</time>
      </trkpt>
      <trkpt lat="43.4198" lon="6.05131">
        <ele>260.39999389648</ele>
        <time>2015-11-11T13:13:20Z</time>
      </trkpt>
      <trkpt lat="43.41986" lon="6.0513">
        <ele>261</ele>
        <time>2015-11-11T13:13:23Z</time>
      </trkpt>
      <trkpt lat="43.41989" lon="6.05131">
        <ele>261.20001220703</ele>
        <time>2015-11-11T13:13:24Z</time>
      </trkpt>
      <trkpt lat="43.41991" lon="6.05131">
        <ele>261.39999389648</ele>
        <time>2015-11-11T13:13:25Z</time>
      </trkpt>
      <trkpt lat="43.41997" lon="6.0513">
        <ele>261.39999389648</ele>
        <time>2015-11-11T13:13:27Z</time>
      </trkpt>
      <trkpt lat="43.42002" lon="6.05128">
        <ele>261.79998779297</ele>
        <time>2015-11-11T13:13:29Z</time>
      </trkpt>
      <trkpt lat="43.42009" lon="6.05125">
        <ele>262</ele>
        <time>2015-11-11T13:13:31Z</time>
      </trkpt>
      <trkpt lat="43.42015" lon="6.05123">
        <ele>262</ele>
        <time>2015-11-11T13:13:33Z</time>
      </trkpt>
      <trkpt lat="43.42022" lon="6.05121">
        <ele>262</ele>
        <time>2015-11-11T13:13:35Z</time>
      </trkpt>
      <trkpt lat="43.42029" lon="6.0512">
        <ele>261.79998779297</ele>
        <time>2015-11-11T13:13:37Z</time>
      </trkpt>
      <trkpt lat="43.42032" lon="6.05119">
        <ele>262</ele>
        <time>2015-11-11T13:13:38Z</time>
      </trkpt>
      <trkpt lat="43.42038" lon="6.05117">
        <ele>262.39999389648</ele>
        <time>2015-11-11T13:13:40Z</time>
      </trkpt>
      <trkpt lat="43.42041" lon="6.05117">
        <ele>262.60000610352</ele>
        <time>2015-11-11T13:13:41Z</time>
      </trkpt>
      <trkpt lat="43.42046" lon="6.05115">
        <ele>262.79998779297</ele>
        <time>2015-11-11T13:13:43Z</time>
      </trkpt>
      <trkpt lat="43.42055" lon="6.05114">
        <ele>263.20001220703</ele>
        <time>2015-11-11T13:13:46Z</time>
      </trkpt>
      <trkpt lat="43.42057" lon="6.05113">
        <ele>263.39999389648</ele>
        <time>2015-11-11T13:13:47Z</time>
      </trkpt>
      <trkpt lat="43.4206" lon="6.05113">
        <ele>263.39999389648</ele>
        <time>2015-11-11T13:13:48Z</time>
      </trkpt>
      <trkpt lat="43.42063" lon="6.05113">
        <ele>263.60000610352</ele>
        <time>2015-11-11T13:13:49Z</time>
      </trkpt>
      <trkpt lat="43.42069" lon="6.05112">
        <ele>264</ele>
        <time>2015-11-11T13:13:51Z</time>
      </trkpt>
      <trkpt lat="43.42074" lon="6.05112">
        <ele>264.20001220703</ele>
        <time>2015-11-11T13:13:53Z</time>
      </trkpt>
      <trkpt lat="43.4208" lon="6.05112">
        <ele>264</ele>
        <time>2015-11-11T13:13:55Z</time>
      </trkpt>
      <trkpt lat="43.42086" lon="6.05113">
        <ele>264.60000610352</ele>
        <time>2015-11-11T13:13:57Z</time>
      </trkpt>
      <trkpt lat="43.42092" lon="6.05114">
        <ele>264.79998779297</ele>
        <time>2015-11-11T13:13:59Z</time>
      </trkpt>
      <trkpt lat="43.42098" lon="6.05114">
        <ele>265</ele>
        <time>2015-11-11T13:14:01Z</time>
      </trkpt>
      <trkpt lat="43.42101" lon="6.05114">
        <ele>265</ele>
        <time>2015-11-11T13:14:02Z</time>
      </trkpt>
      <trkpt lat="43.42104" lon="6.05114">
        <ele>265.20001220703</ele>
        <time>2015-11-11T13:14:03Z</time>
      </trkpt>
      <trkpt lat="43.4211" lon="6.05114">
        <ele>265.39999389648</ele>
        <time>2015-11-11T13:14:05Z</time>
      </trkpt>
      <trkpt lat="43.42113" lon="6.05113">
        <ele>265.60000610352</ele>
        <time>2015-11-11T13:14:06Z</time>
      </trkpt>
      <trkpt lat="43.42115" lon="6.05113">
        <ele>265.60000610352</ele>
        <time>2015-11-11T13:14:07Z</time>
      </trkpt>
      <trkpt lat="43.4212" lon="6.05114">
        <ele>266.20001220703</ele>
        <time>2015-11-11T13:14:09Z</time>
      </trkpt>
      <trkpt lat="43.42123" lon="6.05116">
        <ele>266.79998779297</ele>
        <time>2015-11-11T13:14:11Z</time>
      </trkpt>
      <trkpt lat="43.42126" lon="6.05118">
        <ele>267.20001220703</ele>
        <time>2015-11-11T13:14:13Z</time>
      </trkpt>
      <trkpt lat="43.42128" lon="6.05119">
        <ele>267.20001220703</ele>
        <time>2015-11-11T13:14:15Z</time>
      </trkpt>
      <trkpt lat="43.42129" lon="6.05119">
        <ele>267.39999389648</ele>
        <time>2015-11-11T13:14:17Z</time>
      </trkpt>
      <trkpt lat="43.4213" lon="6.0512">
        <ele>267.39999389648</ele>
        <time>2015-11-11T13:14:19Z</time>
      </trkpt>
      <trkpt lat="43.4213" lon="6.0512">
        <ele>267.39999389648</ele>
        <time>2015-11-11T13:14:21Z</time>
      </trkpt>
      <trkpt lat="43.4213" lon="6.0512">
        <ele>267.60000610352</ele>
        <time>2015-11-11T13:14:27Z</time>
      </trkpt>
      <trkpt lat="43.4213" lon="6.0512">
        <ele>267.39999389648</ele>
        <time>2015-11-11T13:14:40Z</time>
      </trkpt>
      <trkpt lat="43.4213" lon="6.0512">
        <ele>267.60000610352</ele>
        <time>2015-11-11T13:14:42Z</time>
      </trkpt>
      <trkpt lat="43.4213" lon="6.0512">
        <ele>267.39999389648</ele>
        <time>2015-11-11T13:14:44Z</time>
      </trkpt>
      <trkpt lat="43.4213" lon="6.0512">
        <ele>267.39999389648</ele>
        <time>2015-11-11T13:14:46Z</time>
      </trkpt>
      <trkpt lat="43.4213" lon="6.0512">
        <ele>267.60000610352</ele>
        <time>2015-11-11T13:14:53Z</time>
      </trkpt>
      <trkpt lat="43.4213" lon="6.0512">
        <ele>267.60000610352</ele>
        <time>2015-11-11T13:14:59Z</time>
      </trkpt>
      <trkpt lat="43.4213" lon="6.0512">
        <ele>267.60000610352</ele>
        <time>2015-11-11T13:15:01Z</time>
      </trkpt>
      <trkpt lat="43.4213" lon="6.0512">
        <ele>267.39999389648</ele>
        <time>2015-11-11T13:15:07Z</time>
      </trkpt>
      <trkpt lat="43.4213" lon="6.0512">
        <ele>267.60000610352</ele>
        <time>2015-11-11T13:15:39Z</time>
      </trkpt>
      <trkpt lat="43.4213" lon="6.0512">
        <ele>267.60000610352</ele>
        <time>2015-11-11T13:15:41Z</time>
      </trkpt>
      <trkpt lat="43.4213" lon="6.0512">
        <ele>267.39999389648</ele>
        <time>2015-11-11T13:15:48Z</time>
      </trkpt>
      <trkpt lat="43.4213" lon="6.0512">
        <ele>267.60000610352</ele>
        <time>2015-11-11T13:15:56Z</time>
      </trkpt>
      <trkpt lat="43.4213" lon="6.0512">
        <ele>267.79998779297</ele>
        <time>2015-11-11T13:15:58Z</time>
      </trkpt>
      <trkpt lat="43.42133" lon="6.05124">
        <ele>267.60000610352</ele>
        <time>2015-11-11T13:16:00Z</time>
      </trkpt>
      <trkpt lat="43.42136" lon="6.05129">
        <ele>267.79998779297</ele>
        <time>2015-11-11T13:16:02Z</time>
      </trkpt>
      <trkpt lat="43.42138" lon="6.05131">
        <ele>267.79998779297</ele>
        <time>2015-11-11T13:16:03Z</time>
      </trkpt>
      <trkpt lat="43.4214" lon="6.05133">
        <ele>267.79998779297</ele>
        <time>2015-11-11T13:16:04Z</time>
      </trkpt>
      <trkpt lat="43.42144" lon="6.05138">
        <ele>268</ele>
        <time>2015-11-11T13:16:06Z</time>
      </trkpt>
      <trkpt lat="43.42147" lon="6.05143">
        <ele>268.20001220703</ele>
        <time>2015-11-11T13:16:08Z</time>
      </trkpt>
      <trkpt lat="43.42151" lon="6.05148">
        <ele>268</ele>
        <time>2015-11-11T13:16:10Z</time>
      </trkpt>
      <trkpt lat="43.4216" lon="6.05156">
        <ele>268.39999389648</ele>
        <time>2015-11-11T13:16:14Z</time>
      </trkpt>
      <trkpt lat="43.42162" lon="6.05158">
        <ele>268.39999389648</ele>
        <time>2015-11-11T13:16:15Z</time>
      </trkpt>
      <trkpt lat="43.42164" lon="6.0516">
        <ele>268.60000610352</ele>
        <time>2015-11-11T13:16:16Z</time>
      </trkpt>
      <trkpt lat="43.42169" lon="6.05163">
        <ele>268.79998779297</ele>
        <time>2015-11-11T13:16:18Z</time>
      </trkpt>
      <trkpt lat="43.42174" lon="6.05166">
        <ele>268.60000610352</ele>
        <time>2015-11-11T13:16:20Z</time>
      </trkpt>
      <trkpt lat="43.42176" lon="6.05167">
        <ele>268.60000610352</ele>
        <time>2015-11-11T13:16:21Z</time>
      </trkpt>
      <trkpt lat="43.42177" lon="6.05168">
        <ele>269</ele>
        <time>2015-11-11T13:16:22Z</time>
      </trkpt>
      <trkpt lat="43.42178" lon="6.05168">
        <ele>269.20001220703</ele>
        <time>2015-11-11T13:16:23Z</time>
      </trkpt>
      <trkpt lat="43.4218" lon="6.05167">
        <ele>269.20001220703</ele>
        <time>2015-11-11T13:16:24Z</time>
      </trkpt>
      <trkpt lat="43.42181" lon="6.05167">
        <ele>269.20001220703</ele>
        <time>2015-11-11T13:16:25Z</time>
      </trkpt>
      <trkpt lat="43.42183" lon="6.05166">
        <ele>269.20001220703</ele>
        <time>2015-11-11T13:16:26Z</time>
      </trkpt>
      <trkpt lat="43.42186" lon="6.0517">
        <ele>269.20001220703</ele>
        <time>2015-11-11T13:16:28Z</time>
      </trkpt>
      <trkpt lat="43.42187" lon="6.05172">
        <ele>269.20001220703</ele>
        <time>2015-11-11T13:16:29Z</time>
      </trkpt>
      <trkpt lat="43.42188" lon="6.05175">
        <ele>269.20001220703</ele>
        <time>2015-11-11T13:16:30Z</time>
      </trkpt>
      <trkpt lat="43.42192" lon="6.05179">
        <ele>269.20001220703</ele>
        <time>2015-11-11T13:16:32Z</time>
      </trkpt>
      <trkpt lat="43.42197" lon="6.05183">
        <ele>269.20001220703</ele>
        <time>2015-11-11T13:16:34Z</time>
      </trkpt>
      <trkpt lat="43.42207" lon="6.05188">
        <ele>269.79998779297</ele>
        <time>2015-11-11T13:16:38Z</time>
      </trkpt>
      <trkpt lat="43.42212" lon="6.05191">
        <ele>270</ele>
        <time>2015-11-11T13:16:40Z</time>
      </trkpt>
      <trkpt lat="43.42217" lon="6.05193">
        <ele>270.39999389648</ele>
        <time>2015-11-11T13:16:42Z</time>
      </trkpt>
      <trkpt lat="43.42222" lon="6.05197">
        <ele>270.60000610352</ele>
        <time>2015-11-11T13:16:44Z</time>
      </trkpt>
      <trkpt lat="43.42226" lon="6.05202">
        <ele>271</ele>
        <time>2015-11-11T13:16:46Z</time>
      </trkpt>
      <trkpt lat="43.42229" lon="6.05208">
        <ele>271.20001220703</ele>
        <time>2015-11-11T13:16:48Z</time>
      </trkpt>
      <trkpt lat="43.42234" lon="6.05212">
        <ele>271.60000610352</ele>
        <time>2015-11-11T13:16:50Z</time>
      </trkpt>
      <trkpt lat="43.4224" lon="6.05214">
        <ele>271.79998779297</ele>
        <time>2015-11-11T13:16:52Z</time>
      </trkpt>
      <trkpt lat="43.42245" lon="6.05215">
        <ele>271.60000610352</ele>
        <time>2015-11-11T13:16:54Z</time>
      </trkpt>
      <trkpt lat="43.42251" lon="6.05214">
        <ele>271.79998779297</ele>
        <time>2015-11-11T13:16:56Z</time>
      </trkpt>
      <trkpt lat="43.42254" lon="6.05214">
        <ele>272.20001220703</ele>
        <time>2015-11-11T13:16:57Z</time>
      </trkpt>
      <trkpt lat="43.42263" lon="6.05214">
        <ele>273.39999389648</ele>
        <time>2015-11-11T13:17:00Z</time>
      </trkpt>
      <trkpt lat="43.42268" lon="6.05214">
        <ele>273.39999389648</ele>
        <time>2015-11-11T13:17:02Z</time>
      </trkpt>
      <trkpt lat="43.42274" lon="6.05214">
        <ele>273.39999389648</ele>
        <time>2015-11-11T13:17:04Z</time>
      </trkpt>
      <trkpt lat="43.4228" lon="6.05215">
        <ele>273.39999389648</ele>
        <time>2015-11-11T13:17:06Z</time>
      </trkpt>
      <trkpt lat="43.42292" lon="6.05219">
        <ele>273.79998779297</ele>
        <time>2015-11-11T13:17:10Z</time>
      </trkpt>
      <trkpt lat="43.42297" lon="6.05221">
        <ele>273.79998779297</ele>
        <time>2015-11-11T13:17:12Z</time>
      </trkpt>
      <trkpt lat="43.42302" lon="6.05223">
        <ele>274.20001220703</ele>
        <time>2015-11-11T13:17:14Z</time>
      </trkpt>
      <trkpt lat="43.42307" lon="6.05224">
        <ele>274.39999389648</ele>
        <time>2015-11-11T13:17:16Z</time>
      </trkpt>
      <trkpt lat="43.42314" lon="6.05224">
        <ele>275</ele>
        <time>2015-11-11T13:17:19Z</time>
      </trkpt>
      <trkpt lat="43.42316" lon="6.05225">
        <ele>275.20001220703</ele>
        <time>2015-11-11T13:17:20Z</time>
      </trkpt>
      <trkpt lat="43.42325" lon="6.05227">
        <ele>275.60000610352</ele>
        <time>2015-11-11T13:17:24Z</time>
      </trkpt>
      <trkpt lat="43.42329" lon="6.05228">
        <ele>276.20001220703</ele>
        <time>2015-11-11T13:17:26Z</time>
      </trkpt>
      <trkpt lat="43.42333" lon="6.05229">
        <ele>276.79998779297</ele>
        <time>2015-11-11T13:17:28Z</time>
      </trkpt>
      <trkpt lat="43.42337" lon="6.0523">
        <ele>277.60000610352</ele>
        <time>2015-11-11T13:17:30Z</time>
      </trkpt>
      <trkpt lat="43.4234" lon="6.05231">
        <ele>277.79998779297</ele>
        <time>2015-11-11T13:17:32Z</time>
      </trkpt>
      <trkpt lat="43.42342" lon="6.05232">
        <ele>277.79998779297</ele>
        <time>2015-11-11T13:17:33Z</time>
      </trkpt>
      <trkpt lat="43.42344" lon="6.05232">
        <ele>278</ele>
        <time>2015-11-11T13:17:34Z</time>
      </trkpt>
      <trkpt lat="43.42351" lon="6.05232">
        <ele>278.60000610352</ele>
        <time>2015-11-11T13:17:38Z</time>
      </trkpt>
      <trkpt lat="43.42355" lon="6.05231">
        <ele>279</ele>
        <time>2015-11-11T13:17:40Z</time>
      </trkpt>
      <trkpt lat="43.4236" lon="6.0523">
        <ele>279.20001220703</ele>
        <time>2015-11-11T13:17:42Z</time>
      </trkpt>
      <trkpt lat="43.42364" lon="6.05229">
        <ele>279.39999389648</ele>
        <time>2015-11-11T13:17:44Z</time>
      </trkpt>
      <trkpt lat="43.42368" lon="6.05227">
        <ele>279.79998779297</ele>
        <time>2015-11-11T13:17:46Z</time>
      </trkpt>
      <trkpt lat="43.42369" lon="6.05227">
        <ele>279.79998779297</ele>
        <time>2015-11-11T13:17:47Z</time>
      </trkpt>
      <trkpt lat="43.42371" lon="6.05227">
        <ele>280</ele>
        <time>2015-11-11T13:17:48Z</time>
      </trkpt>
      <trkpt lat="43.42374" lon="6.05227">
        <ele>280.20001220703</ele>
        <time>2015-11-11T13:17:50Z</time>
      </trkpt>
      <trkpt lat="43.42378" lon="6.05227">
        <ele>280.39999389648</ele>
        <time>2015-11-11T13:17:52Z</time>
      </trkpt>
      <trkpt lat="43.42382" lon="6.05227">
        <ele>280.79998779297</ele>
        <time>2015-11-11T13:17:54Z</time>
      </trkpt>
      <trkpt lat="43.42385" lon="6.05227">
        <ele>281</ele>
        <time>2015-11-11T13:17:56Z</time>
      </trkpt>
      <trkpt lat="43.42389" lon="6.05226">
        <ele>281.20001220703</ele>
        <time>2015-11-11T13:17:58Z</time>
      </trkpt>
      <trkpt lat="43.42393" lon="6.05225">
        <ele>281.20001220703</ele>
        <time>2015-11-11T13:18:00Z</time>
      </trkpt>
      <trkpt lat="43.42397" lon="6.05224">
        <ele>281.20001220703</ele>
        <time>2015-11-11T13:18:02Z</time>
      </trkpt>
      <trkpt lat="43.42401" lon="6.05223">
        <ele>281.39999389648</ele>
        <time>2015-11-11T13:18:04Z</time>
      </trkpt>
      <trkpt lat="43.42405" lon="6.05222">
        <ele>281.60000610352</ele>
        <time>2015-11-11T13:18:06Z</time>
      </trkpt>
      <trkpt lat="43.42408" lon="6.05222">
        <ele>281.79998779297</ele>
        <time>2015-11-11T13:18:08Z</time>
      </trkpt>
      <trkpt lat="43.42413" lon="6.05222">
        <ele>281.79998779297</ele>
        <time>2015-11-11T13:18:10Z</time>
      </trkpt>
      <trkpt lat="43.42416" lon="6.05223">
        <ele>282.20001220703</ele>
        <time>2015-11-11T13:18:12Z</time>
      </trkpt>
      <trkpt lat="43.42425" lon="6.05223">
        <ele>282</ele>
        <time>2015-11-11T13:18:16Z</time>
      </trkpt>
      <trkpt lat="43.42431" lon="6.05223">
        <ele>282.39999389648</ele>
        <time>2015-11-11T13:18:19Z</time>
      </trkpt>
      <trkpt lat="43.42437" lon="6.05222">
        <ele>282.39999389648</ele>
        <time>2015-11-11T13:18:22Z</time>
      </trkpt>
      <trkpt lat="43.42439" lon="6.05222">
        <ele>282.39999389648</ele>
        <time>2015-11-11T13:18:23Z</time>
      </trkpt>
      <trkpt lat="43.42441" lon="6.05221">
        <ele>282.39999389648</ele>
        <time>2015-11-11T13:18:24Z</time>
      </trkpt>
      <trkpt lat="43.42449" lon="6.05218">
        <ele>283</ele>
        <time>2015-11-11T13:18:28Z</time>
      </trkpt>
      <trkpt lat="43.42453" lon="6.05215">
        <ele>283.60000610352</ele>
        <time>2015-11-11T13:18:30Z</time>
      </trkpt>
      <trkpt lat="43.42456" lon="6.05214">
        <ele>284.79998779297</ele>
        <time>2015-11-11T13:18:32Z</time>
      </trkpt>
      <trkpt lat="43.42459" lon="6.05213">
        <ele>285.60000610352</ele>
        <time>2015-11-11T13:18:34Z</time>
      </trkpt>
      <trkpt lat="43.42461" lon="6.05212">
        <ele>285.79998779297</ele>
        <time>2015-11-11T13:18:35Z</time>
      </trkpt>
      <trkpt lat="43.42462" lon="6.05212">
        <ele>286.20001220703</ele>
        <time>2015-11-11T13:18:36Z</time>
      </trkpt>
      <trkpt lat="43.42463" lon="6.05212">
        <ele>286.39999389648</ele>
        <time>2015-11-11T13:18:38Z</time>
      </trkpt>
      <trkpt lat="43.42463" lon="6.05212">
        <ele>286.39999389648</ele>
        <time>2015-11-11T13:18:40Z</time>
      </trkpt>
      <trkpt lat="43.42463" lon="6.05212">
        <ele>286.60000610352</ele>
        <time>2015-11-11T13:18:46Z</time>
      </trkpt>
      <trkpt lat="43.42463" lon="6.05212">
        <ele>286.60000610352</ele>
        <time>2015-11-11T13:19:03Z</time>
      </trkpt>
      <trkpt lat="43.42465" lon="6.05212">
        <ele>286.60000610352</ele>
        <time>2015-11-11T13:19:04Z</time>
      </trkpt>
      <trkpt lat="43.42466" lon="6.05212">
        <ele>286.60000610352</ele>
        <time>2015-11-11T13:19:05Z</time>
      </trkpt>
      <trkpt lat="43.42468" lon="6.05212">
        <ele>286.60000610352</ele>
        <time>2015-11-11T13:19:06Z</time>
      </trkpt>
      <trkpt lat="43.42473" lon="6.05213">
        <ele>286.79998779297</ele>
        <time>2015-11-11T13:19:08Z</time>
      </trkpt>
      <trkpt lat="43.42476" lon="6.05213">
        <ele>287</ele>
        <time>2015-11-11T13:19:09Z</time>
      </trkpt>
      <trkpt lat="43.42479" lon="6.05214">
        <ele>286.79998779297</ele>
        <time>2015-11-11T13:19:10Z</time>
      </trkpt>
      <trkpt lat="43.42481" lon="6.05214">
        <ele>286.79998779297</ele>
        <time>2015-11-11T13:19:11Z</time>
      </trkpt>
      <trkpt lat="43.42484" lon="6.05214">
        <ele>286.60000610352</ele>
        <time>2015-11-11T13:19:12Z</time>
      </trkpt>
      <trkpt lat="43.42489" lon="6.05216">
        <ele>286.79998779297</ele>
        <time>2015-11-11T13:19:14Z</time>
      </trkpt>
      <trkpt lat="43.42495" lon="6.0522">
        <ele>286.20001220703</ele>
        <time>2015-11-11T13:19:16Z</time>
      </trkpt>
      <trkpt lat="43.425" lon="6.05221">
        <ele>286</ele>
        <time>2015-11-11T13:19:18Z</time>
      </trkpt>
      <trkpt lat="43.42505" lon="6.05222">
        <ele>286.20001220703</ele>
        <time>2015-11-11T13:19:20Z</time>
      </trkpt>
      <trkpt lat="43.4251" lon="6.05223">
        <ele>286</ele>
        <time>2015-11-11T13:19:22Z</time>
      </trkpt>
      <trkpt lat="43.42516" lon="6.05223">
        <ele>286</ele>
        <time>2015-11-11T13:19:24Z</time>
      </trkpt>
      <trkpt lat="43.42519" lon="6.05223">
        <ele>286</ele>
        <time>2015-11-11T13:19:25Z</time>
      </trkpt>
      <trkpt lat="43.42521" lon="6.05224">
        <ele>286.20001220703</ele>
        <time>2015-11-11T13:19:26Z</time>
      </trkpt>
      <trkpt lat="43.42527" lon="6.05223">
        <ele>286.39999389648</ele>
        <time>2015-11-11T13:19:28Z</time>
      </trkpt>
      <trkpt lat="43.42532" lon="6.05223">
        <ele>286.79998779297</ele>
        <time>2015-11-11T13:19:30Z</time>
      </trkpt>
      <trkpt lat="43.42534" lon="6.05223">
        <ele>286.79998779297</ele>
        <time>2015-11-11T13:19:31Z</time>
      </trkpt>
      <trkpt lat="43.42537" lon="6.05223">
        <ele>287</ele>
        <time>2015-11-11T13:19:32Z</time>
      </trkpt>
      <trkpt lat="43.42545" lon="6.05221">
        <ele>286.79998779297</ele>
        <time>2015-11-11T13:19:34Z</time>
      </trkpt>
      <trkpt lat="43.42547" lon="6.05221">
        <ele>287</ele>
        <time>2015-11-11T13:19:35Z</time>
      </trkpt>
      <trkpt lat="43.42548" lon="6.0522">
        <ele>287.60000610352</ele>
        <time>2015-11-11T13:19:36Z</time>
      </trkpt>
      <trkpt lat="43.4255" lon="6.05219">
        <ele>288.39999389648</ele>
        <time>2015-11-11T13:19:37Z</time>
      </trkpt>
      <trkpt lat="43.42553" lon="6.05218">
        <ele>288.60000610352</ele>
        <time>2015-11-11T13:19:38Z</time>
      </trkpt>
      <trkpt lat="43.42558" lon="6.05218">
        <ele>288.79998779297</ele>
        <time>2015-11-11T13:19:40Z</time>
      </trkpt>
      <trkpt lat="43.4256" lon="6.05218">
        <ele>289</ele>
        <time>2015-11-11T13:19:41Z</time>
      </trkpt>
      <trkpt lat="43.42562" lon="6.05218">
        <ele>289.20001220703</ele>
        <time>2015-11-11T13:19:42Z</time>
      </trkpt>
      <trkpt lat="43.42565" lon="6.05219">
        <ele>289.39999389648</ele>
        <time>2015-11-11T13:19:43Z</time>
      </trkpt>
      <trkpt lat="43.42568" lon="6.0522">
        <ele>289.60000610352</ele>
        <time>2015-11-11T13:19:44Z</time>
      </trkpt>
      <trkpt lat="43.42575" lon="6.05222">
        <ele>289.20001220703</ele>
        <time>2015-11-11T13:19:46Z</time>
      </trkpt>
      <trkpt lat="43.42578" lon="6.05224">
        <ele>289</ele>
        <time>2015-11-11T13:19:47Z</time>
      </trkpt>
      <trkpt lat="43.42581" lon="6.05226">
        <ele>289.20001220703</ele>
        <time>2015-11-11T13:19:48Z</time>
      </trkpt>
      <trkpt lat="43.42587" lon="6.0523">
        <ele>289</ele>
        <time>2015-11-11T13:19:50Z</time>
      </trkpt>
      <trkpt lat="43.42592" lon="6.05235">
        <ele>289.20001220703</ele>
        <time>2015-11-11T13:19:52Z</time>
      </trkpt>
      <trkpt lat="43.42594" lon="6.05237">
        <ele>289.20001220703</ele>
        <time>2015-11-11T13:19:53Z</time>
      </trkpt>
      <trkpt lat="43.42596" lon="6.05238">
        <ele>289.20001220703</ele>
        <time>2015-11-11T13:19:54Z</time>
      </trkpt>
      <trkpt lat="43.42601" lon="6.05242">
        <ele>289.60000610352</ele>
        <time>2015-11-11T13:19:56Z</time>
      </trkpt>
      <trkpt lat="43.42605" lon="6.05246">
        <ele>289.60000610352</ele>
        <time>2015-11-11T13:19:58Z</time>
      </trkpt>
      <trkpt lat="43.42609" lon="6.0525">
        <ele>289.20001220703</ele>
        <time>2015-11-11T13:20:00Z</time>
      </trkpt>
      <trkpt lat="43.42615" lon="6.05252">
        <ele>289.20001220703</ele>
        <time>2015-11-11T13:20:02Z</time>
      </trkpt>
      <trkpt lat="43.42619" lon="6.05253">
        <ele>289.79998779297</ele>
        <time>2015-11-11T13:20:04Z</time>
      </trkpt>
      <trkpt lat="43.4262" lon="6.05255">
        <ele>290.60000610352</ele>
        <time>2015-11-11T13:20:06Z</time>
      </trkpt>
      <trkpt lat="43.42623" lon="6.05257">
        <ele>290.60000610352</ele>
        <time>2015-11-11T13:20:08Z</time>
      </trkpt>
      <trkpt lat="43.42625" lon="6.0526">
        <ele>290.79998779297</ele>
        <time>2015-11-11T13:20:10Z</time>
      </trkpt>
      <trkpt lat="43.42628" lon="6.05262">
        <ele>291</ele>
        <time>2015-11-11T13:20:12Z</time>
      </trkpt>
      <trkpt lat="43.4263" lon="6.05264">
        <ele>291.39999389648</ele>
        <time>2015-11-11T13:20:14Z</time>
      </trkpt>
      <trkpt lat="43.42632" lon="6.05266">
        <ele>291.60000610352</ele>
        <time>2015-11-11T13:20:16Z</time>
      </trkpt>
      <trkpt lat="43.42633" lon="6.05267">
        <ele>291.60000610352</ele>
        <time>2015-11-11T13:20:17Z</time>
      </trkpt>
      <trkpt lat="43.42634" lon="6.05267">
        <ele>291.60000610352</ele>
        <time>2015-11-11T13:20:18Z</time>
      </trkpt>
      <trkpt lat="43.42634" lon="6.05267">
        <ele>291.39999389648</ele>
        <time>2015-11-11T13:20:20Z</time>
      </trkpt>
      <trkpt lat="43.42634" lon="6.05267">
        <ele>291.39999389648</ele>
        <time>2015-11-11T13:20:26Z</time>
      </trkpt>
      <trkpt lat="43.42634" lon="6.05267">
        <ele>291.60000610352</ele>
        <time>2015-11-11T13:20:58Z</time>
      </trkpt>
      <trkpt lat="43.42635" lon="6.05267">
        <ele>291.60000610352</ele>
        <time>2015-11-11T13:21:00Z</time>
      </trkpt>
      <trkpt lat="43.42635" lon="6.05267">
        <ele>291.60000610352</ele>
        <time>2015-11-11T13:21:06Z</time>
      </trkpt>
      <trkpt lat="43.42635" lon="6.05267">
        <ele>291.39999389648</ele>
        <time>2015-11-11T13:21:40Z</time>
      </trkpt>
      <trkpt lat="43.42635" lon="6.05267">
        <ele>291.79998779297</ele>
        <time>2015-11-11T13:21:46Z</time>
      </trkpt>
      <trkpt lat="43.42635" lon="6.05267">
        <ele>291.79998779297</ele>
        <time>2015-11-11T13:22:08Z</time>
      </trkpt>
      <trkpt lat="43.42635" lon="6.05268">
        <ele>291.79998779297</ele>
        <time>2015-11-11T13:22:09Z</time>
      </trkpt>
      <trkpt lat="43.42635" lon="6.05269">
        <ele>291.60000610352</ele>
        <time>2015-11-11T13:22:10Z</time>
      </trkpt>
      <trkpt lat="43.42638" lon="6.05273">
        <ele>291.79998779297</ele>
        <time>2015-11-11T13:22:12Z</time>
      </trkpt>
      <trkpt lat="43.42641" lon="6.05276">
        <ele>292</ele>
        <time>2015-11-11T13:22:14Z</time>
      </trkpt>
      <trkpt lat="43.42643" lon="6.05278">
        <ele>292</ele>
        <time>2015-11-11T13:22:15Z</time>
      </trkpt>
      <trkpt lat="43.42645" lon="6.05279">
        <ele>292.20001220703</ele>
        <time>2015-11-11T13:22:16Z</time>
      </trkpt>
      <trkpt lat="43.42648" lon="6.05283">
        <ele>292</ele>
        <time>2015-11-11T13:22:18Z</time>
      </trkpt>
      <trkpt lat="43.42651" lon="6.05288">
        <ele>292.39999389648</ele>
        <time>2015-11-11T13:22:20Z</time>
      </trkpt>
      <trkpt lat="43.42654" lon="6.05293">
        <ele>292.79998779297</ele>
        <time>2015-11-11T13:22:22Z</time>
      </trkpt>
      <trkpt lat="43.42657" lon="6.05298">
        <ele>293</ele>
        <time>2015-11-11T13:22:24Z</time>
      </trkpt>
      <trkpt lat="43.42665" lon="6.05313">
        <ele>294</ele>
        <time>2015-11-11T13:22:30Z</time>
      </trkpt>
      <trkpt lat="43.4267" lon="6.05322">
        <ele>294.60000610352</ele>
        <time>2015-11-11T13:22:34Z</time>
      </trkpt>
      <trkpt lat="43.42673" lon="6.05326">
        <ele>294.60000610352</ele>
        <time>2015-11-11T13:22:36Z</time>
      </trkpt>
      <trkpt lat="43.42674" lon="6.05328">
        <ele>295</ele>
        <time>2015-11-11T13:22:37Z</time>
      </trkpt>
      <trkpt lat="43.42675" lon="6.05329">
        <ele>295.60000610352</ele>
        <time>2015-11-11T13:22:38Z</time>
      </trkpt>
      <trkpt lat="43.42677" lon="6.05331">
        <ele>296.20001220703</ele>
        <time>2015-11-11T13:22:40Z</time>
      </trkpt>
      <trkpt lat="43.42682" lon="6.05336">
        <ele>296.39999389648</ele>
        <time>2015-11-11T13:22:43Z</time>
      </trkpt>
      <trkpt lat="43.42683" lon="6.05338">
        <ele>296.60000610352</ele>
        <time>2015-11-11T13:22:44Z</time>
      </trkpt>
      <trkpt lat="43.42687" lon="6.0534">
        <ele>297</ele>
        <time>2015-11-11T13:22:46Z</time>
      </trkpt>
      <trkpt lat="43.42691" lon="6.0534">
        <ele>297.20001220703</ele>
        <time>2015-11-11T13:22:48Z</time>
      </trkpt>
      <trkpt lat="43.42693" lon="6.0534">
        <ele>297.20001220703</ele>
        <time>2015-11-11T13:22:49Z</time>
      </trkpt>
      <trkpt lat="43.42694" lon="6.05339">
        <ele>297.39999389648</ele>
        <time>2015-11-11T13:22:50Z</time>
      </trkpt>
      <trkpt lat="43.42698" lon="6.0534">
        <ele>297.60000610352</ele>
        <time>2015-11-11T13:22:52Z</time>
      </trkpt>
      <trkpt lat="43.42703" lon="6.05339">
        <ele>297.60000610352</ele>
        <time>2015-11-11T13:22:54Z</time>
      </trkpt>
      <trkpt lat="43.42705" lon="6.05339">
        <ele>297.60000610352</ele>
        <time>2015-11-11T13:22:55Z</time>
      </trkpt>
      <trkpt lat="43.42707" lon="6.05339">
        <ele>297.79998779297</ele>
        <time>2015-11-11T13:22:56Z</time>
      </trkpt>
      <trkpt lat="43.42712" lon="6.05338">
        <ele>298</ele>
        <time>2015-11-11T13:22:58Z</time>
      </trkpt>
      <trkpt lat="43.42715" lon="6.0534">
        <ele>298.39999389648</ele>
        <time>2015-11-11T13:23:00Z</time>
      </trkpt>
      <trkpt lat="43.42717" lon="6.05341">
        <ele>298.20001220703</ele>
        <time>2015-11-11T13:23:01Z</time>
      </trkpt>
      <trkpt lat="43.42719" lon="6.05343">
        <ele>298.60000610352</ele>
        <time>2015-11-11T13:23:02Z</time>
      </trkpt>
      <trkpt lat="43.4272" lon="6.05347">
        <ele>299</ele>
        <time>2015-11-11T13:23:04Z</time>
      </trkpt>
      <trkpt lat="43.42721" lon="6.05351">
        <ele>299.20001220703</ele>
        <time>2015-11-11T13:23:06Z</time>
      </trkpt>
      <trkpt lat="43.4272" lon="6.05361">
        <ele>299.60000610352</ele>
        <time>2015-11-11T13:23:10Z</time>
      </trkpt>
      <trkpt lat="43.42718" lon="6.05368">
        <ele>300</ele>
        <time>2015-11-11T13:23:13Z</time>
      </trkpt>
      <trkpt lat="43.42718" lon="6.05376">
        <ele>300.60000610352</ele>
        <time>2015-11-11T13:23:16Z</time>
      </trkpt>
      <trkpt lat="43.42717" lon="6.0538">
        <ele>300.79998779297</ele>
        <time>2015-11-11T13:23:18Z</time>
      </trkpt>
      <trkpt lat="43.4272" lon="6.0539">
        <ele>301.39999389648</ele>
        <time>2015-11-11T13:23:22Z</time>
      </trkpt>
      <trkpt lat="43.42722" lon="6.05395">
        <ele>301.39999389648</ele>
        <time>2015-11-11T13:23:24Z</time>
      </trkpt>
      <trkpt lat="43.42723" lon="6.05399">
        <ele>301.79998779297</ele>
        <time>2015-11-11T13:23:26Z</time>
      </trkpt>
      <trkpt lat="43.42723" lon="6.05403">
        <ele>302.20001220703</ele>
        <time>2015-11-11T13:23:28Z</time>
      </trkpt>
      <trkpt lat="43.42725" lon="6.05406">
        <ele>302.60000610352</ele>
        <time>2015-11-11T13:23:30Z</time>
      </trkpt>
      <trkpt lat="43.42725" lon="6.0541">
        <ele>302.79998779297</ele>
        <time>2015-11-11T13:23:32Z</time>
      </trkpt>
      <trkpt lat="43.42727" lon="6.05414">
        <ele>303.20001220703</ele>
        <time>2015-11-11T13:23:34Z</time>
      </trkpt>
      <trkpt lat="43.42728" lon="6.05416">
        <ele>303.20001220703</ele>
        <time>2015-11-11T13:23:35Z</time>
      </trkpt>
      <trkpt lat="43.42728" lon="6.05418">
        <ele>303.39999389648</ele>
        <time>2015-11-11T13:23:36Z</time>
      </trkpt>
      <trkpt lat="43.4273" lon="6.05422">
        <ele>303.60000610352</ele>
        <time>2015-11-11T13:23:38Z</time>
      </trkpt>
      <trkpt lat="43.4273" lon="6.05425">
        <ele>304.20001220703</ele>
        <time>2015-11-11T13:23:40Z</time>
      </trkpt>
      <trkpt lat="43.42731" lon="6.05427">
        <ele>304.20001220703</ele>
        <time>2015-11-11T13:23:41Z</time>
      </trkpt>
      <trkpt lat="43.42732" lon="6.05433">
        <ele>304.20001220703</ele>
        <time>2015-11-11T13:23:44Z</time>
      </trkpt>
      <trkpt lat="43.42732" lon="6.05438">
        <ele>304.20001220703</ele>
        <time>2015-11-11T13:23:46Z</time>
      </trkpt>
      <trkpt lat="43.42731" lon="6.05441">
        <ele>304.60000610352</ele>
        <time>2015-11-11T13:23:48Z</time>
      </trkpt>
      <trkpt lat="43.42732" lon="6.0545">
        <ele>304.60000610352</ele>
        <time>2015-11-11T13:23:52Z</time>
      </trkpt>
      <trkpt lat="43.4273" lon="6.05456">
        <ele>305.39999389648</ele>
        <time>2015-11-11T13:23:55Z</time>
      </trkpt>
      <trkpt lat="43.42726" lon="6.05461">
        <ele>305.60000610352</ele>
        <time>2015-11-11T13:23:58Z</time>
      </trkpt>
      <trkpt lat="43.42725" lon="6.05465">
        <ele>306</ele>
        <time>2015-11-11T13:24:00Z</time>
      </trkpt>
      <trkpt lat="43.42724" lon="6.05469">
        <ele>306</ele>
        <time>2015-11-11T13:24:02Z</time>
      </trkpt>
      <trkpt lat="43.42723" lon="6.05473">
        <ele>306.20001220703</ele>
        <time>2015-11-11T13:24:04Z</time>
      </trkpt>
      <trkpt lat="43.42724" lon="6.05483">
        <ele>306.60000610352</ele>
        <time>2015-11-11T13:24:08Z</time>
      </trkpt>
      <trkpt lat="43.42724" lon="6.05487">
        <ele>306.60000610352</ele>
        <time>2015-11-11T13:24:10Z</time>
      </trkpt>
      <trkpt lat="43.42725" lon="6.05492">
        <ele>307</ele>
        <time>2015-11-11T13:24:12Z</time>
      </trkpt>
      <trkpt lat="43.42726" lon="6.05496">
        <ele>307.20001220703</ele>
        <time>2015-11-11T13:24:14Z</time>
      </trkpt>
      <trkpt lat="43.42726" lon="6.05501">
        <ele>307.39999389648</ele>
        <time>2015-11-11T13:24:16Z</time>
      </trkpt>
      <trkpt lat="43.42727" lon="6.05505">
        <ele>307.60000610352</ele>
        <time>2015-11-11T13:24:18Z</time>
      </trkpt>
      <trkpt lat="43.42727" lon="6.05509">
        <ele>308</ele>
        <time>2015-11-11T13:24:20Z</time>
      </trkpt>
      <trkpt lat="43.42728" lon="6.05514">
        <ele>308.39999389648</ele>
        <time>2015-11-11T13:24:22Z</time>
      </trkpt>
      <trkpt lat="43.42728" lon="6.05519">
        <ele>308.39999389648</ele>
        <time>2015-11-11T13:24:24Z</time>
      </trkpt>
      <trkpt lat="43.42728" lon="6.05524">
        <ele>308.79998779297</ele>
        <time>2015-11-11T13:24:26Z</time>
      </trkpt>
      <trkpt lat="43.42728" lon="6.05528">
        <ele>309.20001220703</ele>
        <time>2015-11-11T13:24:28Z</time>
      </trkpt>
      <trkpt lat="43.42729" lon="6.0553">
        <ele>309.39999389648</ele>
        <time>2015-11-11T13:24:29Z</time>
      </trkpt>
      <trkpt lat="43.42729" lon="6.05532">
        <ele>309.39999389648</ele>
        <time>2015-11-11T13:24:30Z</time>
      </trkpt>
      <trkpt lat="43.4273" lon="6.05535">
        <ele>309.39999389648</ele>
        <time>2015-11-11T13:24:32Z</time>
      </trkpt>
      <trkpt lat="43.42731" lon="6.05539">
        <ele>309.79998779297</ele>
        <time>2015-11-11T13:24:34Z</time>
      </trkpt>
      <trkpt lat="43.42732" lon="6.05541">
        <ele>309.79998779297</ele>
        <time>2015-11-11T13:24:35Z</time>
      </trkpt>
      <trkpt lat="43.42733" lon="6.05543">
        <ele>309.79998779297</ele>
        <time>2015-11-11T13:24:36Z</time>
      </trkpt>
      <trkpt lat="43.42735" lon="6.05549">
        <ele>310.20001220703</ele>
        <time>2015-11-11T13:24:39Z</time>
      </trkpt>
      <trkpt lat="43.42736" lon="6.05555">
        <ele>310.60000610352</ele>
        <time>2015-11-11T13:24:42Z</time>
      </trkpt>
      <trkpt lat="43.42737" lon="6.05557">
        <ele>310.79998779297</ele>
        <time>2015-11-11T13:24:43Z</time>
      </trkpt>
      <trkpt lat="43.42737" lon="6.05559">
        <ele>311</ele>
        <time>2015-11-11T13:24:44Z</time>
      </trkpt>
      <trkpt lat="43.42738" lon="6.05563">
        <ele>311</ele>
        <time>2015-11-11T13:24:46Z</time>
      </trkpt>
      <trkpt lat="43.42739" lon="6.05567">
        <ele>311.39999389648</ele>
        <time>2015-11-11T13:24:48Z</time>
      </trkpt>
      <trkpt lat="43.42741" lon="6.0557">
        <ele>312</ele>
        <time>2015-11-11T13:24:50Z</time>
      </trkpt>
      <trkpt lat="43.42744" lon="6.05572">
        <ele>312.20001220703</ele>
        <time>2015-11-11T13:24:52Z</time>
      </trkpt>
      <trkpt lat="43.42747" lon="6.05575">
        <ele>312.39999389648</ele>
        <time>2015-11-11T13:24:54Z</time>
      </trkpt>
      <trkpt lat="43.42749" lon="6.05578">
        <ele>312.79998779297</ele>
        <time>2015-11-11T13:24:56Z</time>
      </trkpt>
      <trkpt lat="43.4275" lon="6.05579">
        <ele>313</ele>
        <time>2015-11-11T13:24:57Z</time>
      </trkpt>
      <trkpt lat="43.42751" lon="6.05582">
        <ele>313.39999389648</ele>
        <time>2015-11-11T13:24:59Z</time>
      </trkpt>
      <trkpt lat="43.42752" lon="6.05584">
        <ele>313.39999389648</ele>
        <time>2015-11-11T13:25:00Z</time>
      </trkpt>
      <trkpt lat="43.42753" lon="6.05587">
        <ele>313.79998779297</ele>
        <time>2015-11-11T13:25:02Z</time>
      </trkpt>
      <trkpt lat="43.42754" lon="6.05591">
        <ele>314</ele>
        <time>2015-11-11T13:25:04Z</time>
      </trkpt>
      <trkpt lat="43.42754" lon="6.05595">
        <ele>314.20001220703</ele>
        <time>2015-11-11T13:25:06Z</time>
      </trkpt>
      <trkpt lat="43.42754" lon="6.05596">
        <ele>314.60000610352</ele>
        <time>2015-11-11T13:25:07Z</time>
      </trkpt>
      <trkpt lat="43.42754" lon="6.05598">
        <ele>314.60000610352</ele>
        <time>2015-11-11T13:25:08Z</time>
      </trkpt>
      <trkpt lat="43.42754" lon="6.05602">
        <ele>314.79998779297</ele>
        <time>2015-11-11T13:25:10Z</time>
      </trkpt>
      <trkpt lat="43.42754" lon="6.05605">
        <ele>315</ele>
        <time>2015-11-11T13:25:12Z</time>
      </trkpt>
      <trkpt lat="43.42753" lon="6.05608">
        <ele>315.60000610352</ele>
        <time>2015-11-11T13:25:14Z</time>
      </trkpt>
      <trkpt lat="43.42752" lon="6.05611">
        <ele>315.79998779297</ele>
        <time>2015-11-11T13:25:16Z</time>
      </trkpt>
      <trkpt lat="43.42752" lon="6.05613">
        <ele>316</ele>
        <time>2015-11-11T13:25:17Z</time>
      </trkpt>
      <trkpt lat="43.42751" lon="6.05615">
        <ele>316.39999389648</ele>
        <time>2015-11-11T13:25:18Z</time>
      </trkpt>
      <trkpt lat="43.4275" lon="6.05618">
        <ele>316.39999389648</ele>
        <time>2015-11-11T13:25:20Z</time>
      </trkpt>
      <trkpt lat="43.42747" lon="6.05623">
        <ele>317</ele>
        <time>2015-11-11T13:25:23Z</time>
      </trkpt>
      <trkpt lat="43.42747" lon="6.05625">
        <ele>317.20001220703</ele>
        <time>2015-11-11T13:25:24Z</time>
      </trkpt>
      <trkpt lat="43.42745" lon="6.05629">
        <ele>317.20001220703</ele>
        <time>2015-11-11T13:25:26Z</time>
      </trkpt>
      <trkpt lat="43.42744" lon="6.05632">
        <ele>317.20001220703</ele>
        <time>2015-11-11T13:25:28Z</time>
      </trkpt>
      <trkpt lat="43.42742" lon="6.05635">
        <ele>317.60000610352</ele>
        <time>2015-11-11T13:25:30Z</time>
      </trkpt>
      <trkpt lat="43.42739" lon="6.05637">
        <ele>318</ele>
        <time>2015-11-11T13:25:32Z</time>
      </trkpt>
      <trkpt lat="43.42733" lon="6.05643">
        <ele>318</ele>
        <time>2015-11-11T13:25:37Z</time>
      </trkpt>
      <trkpt lat="43.42731" lon="6.05645">
        <ele>318</ele>
        <time>2015-11-11T13:25:38Z</time>
      </trkpt>
      <trkpt lat="43.42729" lon="6.05648">
        <ele>318.20001220703</ele>
        <time>2015-11-11T13:25:40Z</time>
      </trkpt>
      <trkpt lat="43.42728" lon="6.05651">
        <ele>318.60000610352</ele>
        <time>2015-11-11T13:25:42Z</time>
      </trkpt>
      <trkpt lat="43.42727" lon="6.05653">
        <ele>318.79998779297</ele>
        <time>2015-11-11T13:25:43Z</time>
      </trkpt>
      <trkpt lat="43.42727" lon="6.05655">
        <ele>318.79998779297</ele>
        <time>2015-11-11T13:25:44Z</time>
      </trkpt>
      <trkpt lat="43.42725" lon="6.05658">
        <ele>319</ele>
        <time>2015-11-11T13:25:46Z</time>
      </trkpt>
      <trkpt lat="43.42725" lon="6.05662">
        <ele>319.20001220703</ele>
        <time>2015-11-11T13:25:48Z</time>
      </trkpt>
      <trkpt lat="43.42721" lon="6.05669">
        <ele>319.60000610352</ele>
        <time>2015-11-11T13:25:52Z</time>
      </trkpt>
      <trkpt lat="43.4272" lon="6.05673">
        <ele>319.79998779297</ele>
        <time>2015-11-11T13:25:54Z</time>
      </trkpt>
      <trkpt lat="43.42718" lon="6.05676">
        <ele>320.20001220703</ele>
        <time>2015-11-11T13:25:56Z</time>
      </trkpt>
      <trkpt lat="43.42715" lon="6.05677">
        <ele>320.60000610352</ele>
        <time>2015-11-11T13:25:58Z</time>
      </trkpt>
      <trkpt lat="43.4271" lon="6.05681">
        <ele>321</ele>
        <time>2015-11-11T13:26:02Z</time>
      </trkpt>
      <trkpt lat="43.4271" lon="6.05682">
        <ele>321.20001220703</ele>
        <time>2015-11-11T13:26:03Z</time>
      </trkpt>
      <trkpt lat="43.42707" lon="6.05686">
        <ele>321.60000610352</ele>
        <time>2015-11-11T13:26:06Z</time>
      </trkpt>
      <trkpt lat="43.42707" lon="6.05689">
        <ele>322.20001220703</ele>
        <time>2015-11-11T13:26:08Z</time>
      </trkpt>
      <trkpt lat="43.42706" lon="6.0569">
        <ele>322.20001220703</ele>
        <time>2015-11-11T13:26:09Z</time>
      </trkpt>
      <trkpt lat="43.42706" lon="6.05691">
        <ele>322.39999389648</ele>
        <time>2015-11-11T13:26:10Z</time>
      </trkpt>
      <trkpt lat="43.42705" lon="6.05695">
        <ele>322.60000610352</ele>
        <time>2015-11-11T13:26:12Z</time>
      </trkpt>
      <trkpt lat="43.42703" lon="6.05702">
        <ele>323.39999389648</ele>
        <time>2015-11-11T13:26:16Z</time>
      </trkpt>
      <trkpt lat="43.42702" lon="6.05706">
        <ele>323.60000610352</ele>
        <time>2015-11-11T13:26:18Z</time>
      </trkpt>
      <trkpt lat="43.42701" lon="6.05707">
        <ele>323.79998779297</ele>
        <time>2015-11-11T13:26:19Z</time>
      </trkpt>
      <trkpt lat="43.42701" lon="6.05708">
        <ele>324</ele>
        <time>2015-11-11T13:26:20Z</time>
      </trkpt>
      <trkpt lat="43.427" lon="6.05711">
        <ele>324.39999389648</ele>
        <time>2015-11-11T13:26:22Z</time>
      </trkpt>
      <trkpt lat="43.427" lon="6.05716">
        <ele>324.60000610352</ele>
        <time>2015-11-11T13:26:24Z</time>
      </trkpt>
      <trkpt lat="43.42699" lon="6.05719">
        <ele>325</ele>
        <time>2015-11-11T13:26:26Z</time>
      </trkpt>
      <trkpt lat="43.42698" lon="6.0572">
        <ele>325.20001220703</ele>
        <time>2015-11-11T13:26:27Z</time>
      </trkpt>
      <trkpt lat="43.42698" lon="6.05721">
        <ele>325.39999389648</ele>
        <time>2015-11-11T13:26:28Z</time>
      </trkpt>
      <trkpt lat="43.42698" lon="6.05723">
        <ele>325.60000610352</ele>
        <time>2015-11-11T13:26:29Z</time>
      </trkpt>
      <trkpt lat="43.42697" lon="6.05724">
        <ele>325.60000610352</ele>
        <time>2015-11-11T13:26:30Z</time>
      </trkpt>
      <trkpt lat="43.42697" lon="6.05731">
        <ele>325.79998779297</ele>
        <time>2015-11-11T13:26:34Z</time>
      </trkpt>
      <trkpt lat="43.42698" lon="6.05734">
        <ele>326.39999389648</ele>
        <time>2015-11-11T13:26:36Z</time>
      </trkpt>
      <trkpt lat="43.42701" lon="6.05736">
        <ele>326.79998779297</ele>
        <time>2015-11-11T13:26:38Z</time>
      </trkpt>
      <trkpt lat="43.42703" lon="6.05737">
        <ele>326.79998779297</ele>
        <time>2015-11-11T13:26:40Z</time>
      </trkpt>
      <trkpt lat="43.42706" lon="6.05737">
        <ele>327.20001220703</ele>
        <time>2015-11-11T13:26:42Z</time>
      </trkpt>
      <trkpt lat="43.42712" lon="6.05737">
        <ele>327</ele>
        <time>2015-11-11T13:26:46Z</time>
      </trkpt>
      <trkpt lat="43.4272" lon="6.05737">
        <ele>327</ele>
        <time>2015-11-11T13:26:50Z</time>
      </trkpt>
      <trkpt lat="43.42723" lon="6.05738">
        <ele>327.20001220703</ele>
        <time>2015-11-11T13:26:52Z</time>
      </trkpt>
      <trkpt lat="43.42727" lon="6.05738">
        <ele>327.20001220703</ele>
        <time>2015-11-11T13:26:54Z</time>
      </trkpt>
      <trkpt lat="43.4273" lon="6.05739">
        <ele>327.20001220703</ele>
        <time>2015-11-11T13:26:56Z</time>
      </trkpt>
      <trkpt lat="43.42734" lon="6.05739">
        <ele>327.79998779297</ele>
        <time>2015-11-11T13:26:59Z</time>
      </trkpt>
      <trkpt lat="43.42735" lon="6.05739">
        <ele>327.60000610352</ele>
        <time>2015-11-11T13:27:00Z</time>
      </trkpt>
      <trkpt lat="43.42738" lon="6.0574">
        <ele>327.79998779297</ele>
        <time>2015-11-11T13:27:02Z</time>
      </trkpt>
      <trkpt lat="43.42741" lon="6.0574">
        <ele>328</ele>
        <time>2015-11-11T13:27:04Z</time>
      </trkpt>
      <trkpt lat="43.42744" lon="6.0574">
        <ele>328</ele>
        <time>2015-11-11T13:27:06Z</time>
      </trkpt>
      <trkpt lat="43.42746" lon="6.05741">
        <ele>327.79998779297</ele>
        <time>2015-11-11T13:27:07Z</time>
      </trkpt>
      <trkpt lat="43.42746" lon="6.05741">
        <ele>327.79998779297</ele>
        <time>2015-11-11T13:27:08Z</time>
      </trkpt>
      <trkpt lat="43.42749" lon="6.05741">
        <ele>328.20001220703</ele>
        <time>2015-11-11T13:27:10Z</time>
      </trkpt>
      <trkpt lat="43.42751" lon="6.05739">
        <ele>328.20001220703</ele>
        <time>2015-11-11T13:27:12Z</time>
      </trkpt>
      <trkpt lat="43.42754" lon="6.05737">
        <ele>328.39999389648</ele>
        <time>2015-11-11T13:27:14Z</time>
      </trkpt>
      <trkpt lat="43.42757" lon="6.05733">
        <ele>328.39999389648</ele>
        <time>2015-11-11T13:27:16Z</time>
      </trkpt>
      <trkpt lat="43.4276" lon="6.05731">
        <ele>328.20001220703</ele>
        <time>2015-11-11T13:27:18Z</time>
      </trkpt>
      <trkpt lat="43.42764" lon="6.05729">
        <ele>328.20001220703</ele>
        <time>2015-11-11T13:27:20Z</time>
      </trkpt>
      <trkpt lat="43.42768" lon="6.05728">
        <ele>328</ele>
        <time>2015-11-11T13:27:22Z</time>
      </trkpt>
      <trkpt lat="43.4277" lon="6.05728">
        <ele>328.20001220703</ele>
        <time>2015-11-11T13:27:23Z</time>
      </trkpt>
      <trkpt lat="43.42772" lon="6.05728">
        <ele>328.39999389648</ele>
        <time>2015-11-11T13:27:24Z</time>
      </trkpt>
      <trkpt lat="43.42775" lon="6.05729">
        <ele>328.39999389648</ele>
        <time>2015-11-11T13:27:26Z</time>
      </trkpt>
      <trkpt lat="43.42777" lon="6.05731">
        <ele>328.39999389648</ele>
        <time>2015-11-11T13:27:28Z</time>
      </trkpt>
      <trkpt lat="43.4278" lon="6.05733">
        <ele>328.60000610352</ele>
        <time>2015-11-11T13:27:30Z</time>
      </trkpt>
      <trkpt lat="43.42781" lon="6.05733">
        <ele>328.79998779297</ele>
        <time>2015-11-11T13:27:31Z</time>
      </trkpt>
      <trkpt lat="43.42783" lon="6.05733">
        <ele>329</ele>
        <time>2015-11-11T13:27:32Z</time>
      </trkpt>
      <trkpt lat="43.42785" lon="6.05734">
        <ele>328.79998779297</ele>
        <time>2015-11-11T13:27:34Z</time>
      </trkpt>
      <trkpt lat="43.42787" lon="6.05734">
        <ele>329</ele>
        <time>2015-11-11T13:27:35Z</time>
      </trkpt>
      <trkpt lat="43.42788" lon="6.05736">
        <ele>329.20001220703</ele>
        <time>2015-11-11T13:27:36Z</time>
      </trkpt>
      <trkpt lat="43.42789" lon="6.05739">
        <ele>329.20001220703</ele>
        <time>2015-11-11T13:27:38Z</time>
      </trkpt>
      <trkpt lat="43.42791" lon="6.0574">
        <ele>329.39999389648</ele>
        <time>2015-11-11T13:27:40Z</time>
      </trkpt>
      <trkpt lat="43.42794" lon="6.05741">
        <ele>329.79998779297</ele>
        <time>2015-11-11T13:27:42Z</time>
      </trkpt>
      <trkpt lat="43.42797" lon="6.05741">
        <ele>329.79998779297</ele>
        <time>2015-11-11T13:27:44Z</time>
      </trkpt>
      <trkpt lat="43.42799" lon="6.0574">
        <ele>329.60000610352</ele>
        <time>2015-11-11T13:27:45Z</time>
      </trkpt>
      <trkpt lat="43.42801" lon="6.05739">
        <ele>329.39999389648</ele>
        <time>2015-11-11T13:27:46Z</time>
      </trkpt>
      <trkpt lat="43.42805" lon="6.05737">
        <ele>329.39999389648</ele>
        <time>2015-11-11T13:27:48Z</time>
      </trkpt>
      <trkpt lat="43.42807" lon="6.05735">
        <ele>329.60000610352</ele>
        <time>2015-11-11T13:27:49Z</time>
      </trkpt>
      <trkpt lat="43.4281" lon="6.05734">
        <ele>329.60000610352</ele>
        <time>2015-11-11T13:27:50Z</time>
      </trkpt>
      <trkpt lat="43.42815" lon="6.05734">
        <ele>329.60000610352</ele>
        <time>2015-11-11T13:27:52Z</time>
      </trkpt>
      <trkpt lat="43.42817" lon="6.05735">
        <ele>329.60000610352</ele>
        <time>2015-11-11T13:27:53Z</time>
      </trkpt>
      <trkpt lat="43.42819" lon="6.05734">
        <ele>329.79998779297</ele>
        <time>2015-11-11T13:27:54Z</time>
      </trkpt>
      <trkpt lat="43.42822" lon="6.05732">
        <ele>329.79998779297</ele>
        <time>2015-11-11T13:27:56Z</time>
      </trkpt>
      <trkpt lat="43.42826" lon="6.05731">
        <ele>329.60000610352</ele>
        <time>2015-11-11T13:27:58Z</time>
      </trkpt>
      <trkpt lat="43.4283" lon="6.05729">
        <ele>329.39999389648</ele>
        <time>2015-11-11T13:28:00Z</time>
      </trkpt>
      <trkpt lat="43.42832" lon="6.05727">
        <ele>329.60000610352</ele>
        <time>2015-11-11T13:28:02Z</time>
      </trkpt>
      <trkpt lat="43.42832" lon="6.05727">
        <ele>329.79998779297</ele>
        <time>2015-11-11T13:28:04Z</time>
      </trkpt>
      <trkpt lat="43.42832" lon="6.05727">
        <ele>329.79998779297</ele>
        <time>2015-11-11T13:28:08Z</time>
      </trkpt>
      <trkpt lat="43.42832" lon="6.05727">
        <ele>330</ele>
        <time>2015-11-11T13:28:42Z</time>
      </trkpt>
      <trkpt lat="43.42833" lon="6.05727">
        <ele>330</ele>
        <time>2015-11-11T13:28:44Z</time>
      </trkpt>
      <trkpt lat="43.42833" lon="6.05727">
        <ele>329.79998779297</ele>
        <time>2015-11-11T13:28:50Z</time>
      </trkpt>
      <trkpt lat="43.42833" lon="6.05727">
        <ele>329.79998779297</ele>
        <time>2015-11-11T13:29:14Z</time>
      </trkpt>
      <trkpt lat="43.42833" lon="6.05727">
        <ele>329.79998779297</ele>
        <time>2015-11-11T13:29:16Z</time>
      </trkpt>
      <trkpt lat="43.42833" lon="6.05728">
        <ele>329.79998779297</ele>
        <time>2015-11-11T13:29:17Z</time>
      </trkpt>
      <trkpt lat="43.42834" lon="6.05728">
        <ele>329.79998779297</ele>
        <time>2015-11-11T13:29:18Z</time>
      </trkpt>
      <trkpt lat="43.42835" lon="6.05728">
        <ele>329.79998779297</ele>
        <time>2015-11-11T13:29:20Z</time>
      </trkpt>
      <trkpt lat="43.42836" lon="6.05729">
        <ele>329.60000610352</ele>
        <time>2015-11-11T13:29:22Z</time>
      </trkpt>
      <trkpt lat="43.42836" lon="6.05728">
        <ele>329.60000610352</ele>
        <time>2015-11-11T13:29:24Z</time>
      </trkpt>
      <trkpt lat="43.42836" lon="6.05728">
        <ele>329.60000610352</ele>
        <time>2015-11-11T13:29:28Z</time>
      </trkpt>
      <trkpt lat="43.42836" lon="6.05728">
        <ele>329.39999389648</ele>
        <time>2015-11-11T13:29:44Z</time>
      </trkpt>
      <trkpt lat="43.42836" lon="6.05728">
        <ele>329.60000610352</ele>
        <time>2015-11-11T13:29:46Z</time>
      </trkpt>
      <trkpt lat="43.42836" lon="6.05728">
        <ele>329.39999389648</ele>
        <time>2015-11-11T13:29:47Z</time>
      </trkpt>
      <trkpt lat="43.42836" lon="6.05728">
        <ele>329.79998779297</ele>
        <time>2015-11-11T13:29:54Z</time>
      </trkpt>
      <trkpt lat="43.42836" lon="6.05728">
        <ele>329.60000610352</ele>
        <time>2015-11-11T13:30:00Z</time>
      </trkpt>
      <trkpt lat="43.42837" lon="6.05728">
        <ele>329.60000610352</ele>
        <time>2015-11-11T13:30:02Z</time>
      </trkpt>
      <trkpt lat="43.42837" lon="6.05728">
        <ele>329.60000610352</ele>
        <time>2015-11-11T13:30:08Z</time>
      </trkpt>
      <trkpt lat="43.42837" lon="6.05728">
        <ele>329.60000610352</ele>
        <time>2015-11-11T13:30:40Z</time>
      </trkpt>
      <trkpt lat="43.42837" lon="6.05729">
        <ele>329.60000610352</ele>
        <time>2015-11-11T13:30:42Z</time>
      </trkpt>
      <trkpt lat="43.42837" lon="6.05729">
        <ele>329.60000610352</ele>
        <time>2015-11-11T13:30:48Z</time>
      </trkpt>
      <trkpt lat="43.42837" lon="6.05729">
        <ele>329.60000610352</ele>
        <time>2015-11-11T13:31:21Z</time>
      </trkpt>
      <trkpt lat="43.42837" lon="6.05729">
        <ele>329.39999389648</ele>
        <time>2015-11-11T13:31:23Z</time>
      </trkpt>
      <trkpt lat="43.42837" lon="6.05729">
        <ele>329.39999389648</ele>
        <time>2015-11-11T13:31:27Z</time>
      </trkpt>
      <trkpt lat="43.42837" lon="6.05729">
        <ele>329.60000610352</ele>
        <time>2015-11-11T13:31:31Z</time>
      </trkpt>
      <trkpt lat="43.42837" lon="6.05728">
        <ele>329.39999389648</ele>
        <time>2015-11-11T13:31:33Z</time>
      </trkpt>
      <trkpt lat="43.42839" lon="6.05724">
        <ele>329.39999389648</ele>
        <time>2015-11-11T13:31:35Z</time>
      </trkpt>
      <trkpt lat="43.42841" lon="6.05719">
        <ele>329.79998779297</ele>
        <time>2015-11-11T13:31:37Z</time>
      </trkpt>
      <trkpt lat="43.42841" lon="6.05712">
        <ele>329.60000610352</ele>
        <time>2015-11-11T13:31:39Z</time>
      </trkpt>
      <trkpt lat="43.42843" lon="6.05697">
        <ele>329.39999389648</ele>
        <time>2015-11-11T13:31:43Z</time>
      </trkpt>
      <trkpt lat="43.42845" lon="6.05684">
        <ele>329.60000610352</ele>
        <time>2015-11-11T13:31:46Z</time>
      </trkpt>
      <trkpt lat="43.42845" lon="6.05679">
        <ele>329.60000610352</ele>
        <time>2015-11-11T13:31:47Z</time>
      </trkpt>
      <trkpt lat="43.42847" lon="6.05668">
        <ele>329.39999389648</ele>
        <time>2015-11-11T13:31:49Z</time>
      </trkpt>
      <trkpt lat="43.42848" lon="6.05655">
        <ele>329</ele>
        <time>2015-11-11T13:31:51Z</time>
      </trkpt>
      <trkpt lat="43.4285" lon="6.05642">
        <ele>328.60000610352</ele>
        <time>2015-11-11T13:31:53Z</time>
      </trkpt>
      <trkpt lat="43.42852" lon="6.05628">
        <ele>328.20001220703</ele>
        <time>2015-11-11T13:31:55Z</time>
      </trkpt>
      <trkpt lat="43.42853" lon="6.05613">
        <ele>327.79998779297</ele>
        <time>2015-11-11T13:31:57Z</time>
      </trkpt>
      <trkpt lat="43.42854" lon="6.056">
        <ele>327.79998779297</ele>
        <time>2015-11-11T13:31:59Z</time>
      </trkpt>
      <trkpt lat="43.42855" lon="6.05584">
        <ele>327.79998779297</ele>
        <time>2015-11-11T13:32:01Z</time>
      </trkpt>
      <trkpt lat="43.42857" lon="6.05569">
        <ele>327.60000610352</ele>
        <time>2015-11-11T13:32:03Z</time>
      </trkpt>
      <trkpt lat="43.42859" lon="6.05552">
        <ele>327</ele>
        <time>2015-11-11T13:32:05Z</time>
      </trkpt>
      <trkpt lat="43.42862" lon="6.05536">
        <ele>327.20001220703</ele>
        <time>2015-11-11T13:32:07Z</time>
      </trkpt>
      <trkpt lat="43.42869" lon="6.05487">
        <ele>327.20001220703</ele>
        <time>2015-11-11T13:32:13Z</time>
      </trkpt>
      <trkpt lat="43.4287" lon="6.05471">
        <ele>327.20001220703</ele>
        <time>2015-11-11T13:32:15Z</time>
      </trkpt>
      <trkpt lat="43.42872" lon="6.05456">
        <ele>327.60000610352</ele>
        <time>2015-11-11T13:32:17Z</time>
      </trkpt>
      <trkpt lat="43.42874" lon="6.05442">
        <ele>328</ele>
        <time>2015-11-11T13:32:19Z</time>
      </trkpt>
      <trkpt lat="43.42876" lon="6.05429">
        <ele>328</ele>
        <time>2015-11-11T13:32:21Z</time>
      </trkpt>
      <trkpt lat="43.42878" lon="6.05416">
        <ele>328.60000610352</ele>
        <time>2015-11-11T13:32:23Z</time>
      </trkpt>
      <trkpt lat="43.42878" lon="6.05411">
        <ele>329</ele>
        <time>2015-11-11T13:32:24Z</time>
      </trkpt>
      <trkpt lat="43.42879" lon="6.05399">
        <ele>329.20001220703</ele>
        <time>2015-11-11T13:32:26Z</time>
      </trkpt>
      <trkpt lat="43.4288" lon="6.05393">
        <ele>329.39999389648</ele>
        <time>2015-11-11T13:32:27Z</time>
      </trkpt>
      <trkpt lat="43.42881" lon="6.05382">
        <ele>329.79998779297</ele>
        <time>2015-11-11T13:32:29Z</time>
      </trkpt>
      <trkpt lat="43.42882" lon="6.05377">
        <ele>330.20001220703</ele>
        <time>2015-11-11T13:32:30Z</time>
      </trkpt>
      <trkpt lat="43.42883" lon="6.05373">
        <ele>331</ele>
        <time>2015-11-11T13:32:31Z</time>
      </trkpt>
      <trkpt lat="43.42883" lon="6.05364">
        <ele>331.20001220703</ele>
        <time>2015-11-11T13:32:33Z</time>
      </trkpt>
      <trkpt lat="43.42883" lon="6.0536">
        <ele>331.39999389648</ele>
        <time>2015-11-11T13:32:34Z</time>
      </trkpt>
      <trkpt lat="43.42885" lon="6.05339">
        <ele>332.20001220703</ele>
        <time>2015-11-11T13:32:39Z</time>
      </trkpt>
      <trkpt lat="43.42886" lon="6.05335">
        <ele>332.20001220703</ele>
        <time>2015-11-11T13:32:40Z</time>
      </trkpt>
      <trkpt lat="43.42887" lon="6.05324">
        <ele>333</ele>
        <time>2015-11-11T13:32:43Z</time>
      </trkpt>
      <trkpt lat="43.42889" lon="6.05313">
        <ele>333.60000610352</ele>
        <time>2015-11-11T13:32:46Z</time>
      </trkpt>
      <trkpt lat="43.4289" lon="6.05307">
        <ele>334</ele>
        <time>2015-11-11T13:32:48Z</time>
      </trkpt>
      <trkpt lat="43.4289" lon="6.05303">
        <ele>334</ele>
        <time>2015-11-11T13:32:49Z</time>
      </trkpt>
      <trkpt lat="43.42891" lon="6.05296">
        <ele>334.20001220703</ele>
        <time>2015-11-11T13:32:51Z</time>
      </trkpt>
      <trkpt lat="43.42892" lon="6.05289">
        <ele>334.39999389648</ele>
        <time>2015-11-11T13:32:53Z</time>
      </trkpt>
      <trkpt lat="43.42892" lon="6.05282">
        <ele>334.39999389648</ele>
        <time>2015-11-11T13:32:55Z</time>
      </trkpt>
      <trkpt lat="43.42894" lon="6.05266">
        <ele>334</ele>
        <time>2015-11-11T13:32:59Z</time>
      </trkpt>
      <trkpt lat="43.42896" lon="6.05257">
        <ele>333.39999389648</ele>
        <time>2015-11-11T13:33:01Z</time>
      </trkpt>
      <trkpt lat="43.42899" lon="6.05228">
        <ele>333.20001220703</ele>
        <time>2015-11-11T13:33:07Z</time>
      </trkpt>
      <trkpt lat="43.429" lon="6.05218">
        <ele>333</ele>
        <time>2015-11-11T13:33:09Z</time>
      </trkpt>
      <trkpt lat="43.42902" lon="6.05208">
        <ele>333</ele>
        <time>2015-11-11T13:33:11Z</time>
      </trkpt>
      <trkpt lat="43.42903" lon="6.05198">
        <ele>333</ele>
        <time>2015-11-11T13:33:13Z</time>
      </trkpt>
      <trkpt lat="43.42904" lon="6.05189">
        <ele>333.20001220703</ele>
        <time>2015-11-11T13:33:15Z</time>
      </trkpt>
      <trkpt lat="43.42905" lon="6.05179">
        <ele>333.20001220703</ele>
        <time>2015-11-11T13:33:17Z</time>
      </trkpt>
      <trkpt lat="43.42905" lon="6.05174">
        <ele>333.20001220703</ele>
        <time>2015-11-11T13:33:18Z</time>
      </trkpt>
      <trkpt lat="43.42905" lon="6.05169">
        <ele>333</ele>
        <time>2015-11-11T13:33:19Z</time>
      </trkpt>
      <trkpt lat="43.42907" lon="6.05157">
        <ele>332.79998779297</ele>
        <time>2015-11-11T13:33:21Z</time>
      </trkpt>
      <trkpt lat="43.42907" lon="6.05151">
        <ele>332</ele>
        <time>2015-11-11T13:33:22Z</time>
      </trkpt>
      <trkpt lat="43.42908" lon="6.05144">
        <ele>331.79998779297</ele>
        <time>2015-11-11T13:33:23Z</time>
      </trkpt>
      <trkpt lat="43.42908" lon="6.05138">
        <ele>331.39999389648</ele>
        <time>2015-11-11T13:33:24Z</time>
      </trkpt>
      <trkpt lat="43.4291" lon="6.05131">
        <ele>330.79998779297</ele>
        <time>2015-11-11T13:33:25Z</time>
      </trkpt>
      <trkpt lat="43.42912" lon="6.05118">
        <ele>330.39999389648</ele>
        <time>2015-11-11T13:33:27Z</time>
      </trkpt>
      <trkpt lat="43.42913" lon="6.05105">
        <ele>329.79998779297</ele>
        <time>2015-11-11T13:33:29Z</time>
      </trkpt>
      <trkpt lat="43.42914" lon="6.05098">
        <ele>329.39999389648</ele>
        <time>2015-11-11T13:33:30Z</time>
      </trkpt>
      <trkpt lat="43.42915" lon="6.05091">
        <ele>329.39999389648</ele>
        <time>2015-11-11T13:33:31Z</time>
      </trkpt>
      <trkpt lat="43.42916" lon="6.05077">
        <ele>329</ele>
        <time>2015-11-11T13:33:33Z</time>
      </trkpt>
      <trkpt lat="43.42918" lon="6.05065">
        <ele>328.60000610352</ele>
        <time>2015-11-11T13:33:35Z</time>
      </trkpt>
      <trkpt lat="43.42919" lon="6.05054">
        <ele>328.60000610352</ele>
        <time>2015-11-11T13:33:37Z</time>
      </trkpt>
      <trkpt lat="43.42921" lon="6.05042">
        <ele>328.79998779297</ele>
        <time>2015-11-11T13:33:39Z</time>
      </trkpt>
      <trkpt lat="43.42922" lon="6.0503">
        <ele>328.20001220703</ele>
        <time>2015-11-11T13:33:41Z</time>
      </trkpt>
      <trkpt lat="43.42923" lon="6.05018">
        <ele>328</ele>
        <time>2015-11-11T13:33:43Z</time>
      </trkpt>
      <trkpt lat="43.42924" lon="6.05006">
        <ele>328.20001220703</ele>
        <time>2015-11-11T13:33:45Z</time>
      </trkpt>
      <trkpt lat="43.42926" lon="6.04994">
        <ele>327.79998779297</ele>
        <time>2015-11-11T13:33:47Z</time>
      </trkpt>
      <trkpt lat="43.42927" lon="6.04982">
        <ele>327.60000610352</ele>
        <time>2015-11-11T13:33:49Z</time>
      </trkpt>
      <trkpt lat="43.42929" lon="6.0497">
        <ele>327.60000610352</ele>
        <time>2015-11-11T13:33:51Z</time>
      </trkpt>
      <trkpt lat="43.4293" lon="6.04958">
        <ele>327.60000610352</ele>
        <time>2015-11-11T13:33:53Z</time>
      </trkpt>
      <trkpt lat="43.42931" lon="6.04948">
        <ele>327.39999389648</ele>
        <time>2015-11-11T13:33:55Z</time>
      </trkpt>
      <trkpt lat="43.42932" lon="6.04941">
        <ele>327.20001220703</ele>
        <time>2015-11-11T13:33:57Z</time>
      </trkpt>
      <trkpt lat="43.42931" lon="6.04936">
        <ele>327.39999389648</ele>
        <time>2015-11-11T13:33:59Z</time>
      </trkpt>
      <trkpt lat="43.42932" lon="6.04933">
        <ele>327.20001220703</ele>
        <time>2015-11-11T13:34:01Z</time>
      </trkpt>
      <trkpt lat="43.42932" lon="6.0493">
        <ele>327.20001220703</ele>
        <time>2015-11-11T13:34:03Z</time>
      </trkpt>
      <trkpt lat="43.42932" lon="6.04927">
        <ele>327</ele>
        <time>2015-11-11T13:34:05Z</time>
      </trkpt>
      <trkpt lat="43.42932" lon="6.04925">
        <ele>327.20001220703</ele>
        <time>2015-11-11T13:34:07Z</time>
      </trkpt>
      <trkpt lat="43.42932" lon="6.04924">
        <ele>326.60000610352</ele>
        <time>2015-11-11T13:34:09Z</time>
      </trkpt>
      <trkpt lat="43.42932" lon="6.04924">
        <ele>326.79998779297</ele>
        <time>2015-11-11T13:34:11Z</time>
      </trkpt>
      <trkpt lat="43.42932" lon="6.04924">
        <ele>326.79998779297</ele>
        <time>2015-11-11T13:34:17Z</time>
      </trkpt>
      <trkpt lat="43.42932" lon="6.04924">
        <ele>326.60000610352</ele>
        <time>2015-11-11T13:34:47Z</time>
      </trkpt>
      <trkpt lat="43.42932" lon="6.04924">
        <ele>326.79998779297</ele>
        <time>2015-11-11T13:34:49Z</time>
      </trkpt>
      <trkpt lat="43.42932" lon="6.04924">
        <ele>326.60000610352</ele>
        <time>2015-11-11T13:34:53Z</time>
      </trkpt>
      <trkpt lat="43.42932" lon="6.04924">
        <ele>326.60000610352</ele>
        <time>2015-11-11T13:35:27Z</time>
      </trkpt>
      <trkpt lat="43.42932" lon="6.04923">
        <ele>326.79998779297</ele>
        <time>2015-11-11T13:35:29Z</time>
      </trkpt>
      <trkpt lat="43.42932" lon="6.04923">
        <ele>326.60000610352</ele>
        <time>2015-11-11T13:35:33Z</time>
      </trkpt>
      <trkpt lat="43.42932" lon="6.04923">
        <ele>326.60000610352</ele>
        <time>2015-11-11T13:35:39Z</time>
      </trkpt>
      <trkpt lat="43.42932" lon="6.04923">
        <ele>326.60000610352</ele>
        <time>2015-11-11T13:35:41Z</time>
      </trkpt>
      <trkpt lat="43.42932" lon="6.0492">
        <ele>326.39999389648</ele>
        <time>2015-11-11T13:35:43Z</time>
      </trkpt>
      <trkpt lat="43.42932" lon="6.04918">
        <ele>326.39999389648</ele>
        <time>2015-11-11T13:35:45Z</time>
      </trkpt>
      <trkpt lat="43.42932" lon="6.04918">
        <ele>326.20001220703</ele>
        <time>2015-11-11T13:35:47Z</time>
      </trkpt>
      <trkpt lat="43.42933" lon="6.04915">
        <ele>326</ele>
        <time>2015-11-11T13:35:49Z</time>
      </trkpt>
      <trkpt lat="43.42934" lon="6.04913">
        <ele>325.79998779297</ele>
        <time>2015-11-11T13:35:50Z</time>
      </trkpt>
      <trkpt lat="43.42935" lon="6.04911">
        <ele>326</ele>
        <time>2015-11-11T13:35:51Z</time>
      </trkpt>
      <trkpt lat="43.42935" lon="6.04906">
        <ele>325.60000610352</ele>
        <time>2015-11-11T13:35:53Z</time>
      </trkpt>
      <trkpt lat="43.42937" lon="6.04903">
        <ele>325.39999389648</ele>
        <time>2015-11-11T13:35:54Z</time>
      </trkpt>
      <trkpt lat="43.42938" lon="6.049">
        <ele>324.79998779297</ele>
        <time>2015-11-11T13:35:55Z</time>
      </trkpt>
      <trkpt lat="43.4294" lon="6.04896">
        <ele>324</ele>
        <time>2015-11-11T13:35:56Z</time>
      </trkpt>
      <trkpt lat="43.42942" lon="6.04892">
        <ele>323.39999389648</ele>
        <time>2015-11-11T13:35:57Z</time>
      </trkpt>
      <trkpt lat="43.42945" lon="6.04885">
        <ele>322.79998779297</ele>
        <time>2015-11-11T13:35:59Z</time>
      </trkpt>
      <trkpt lat="43.42945" lon="6.04881">
        <ele>322.79998779297</ele>
        <time>2015-11-11T13:36:00Z</time>
      </trkpt>
      <trkpt lat="43.42946" lon="6.04877">
        <ele>322.39999389648</ele>
        <time>2015-11-11T13:36:01Z</time>
      </trkpt>
      <trkpt lat="43.42948" lon="6.04874">
        <ele>322.20001220703</ele>
        <time>2015-11-11T13:36:02Z</time>
      </trkpt>
      <trkpt lat="43.4295" lon="6.04872">
        <ele>321.60000610352</ele>
        <time>2015-11-11T13:36:03Z</time>
      </trkpt>
      <trkpt lat="43.42952" lon="6.04871">
        <ele>321.20001220703</ele>
        <time>2015-11-11T13:36:04Z</time>
      </trkpt>
      <trkpt lat="43.42954" lon="6.04869">
        <ele>320.79998779297</ele>
        <time>2015-11-11T13:36:05Z</time>
      </trkpt>
      <trkpt lat="43.42956" lon="6.04866">
        <ele>320.79998779297</ele>
        <time>2015-11-11T13:36:06Z</time>
      </trkpt>
      <trkpt lat="43.42959" lon="6.04864">
        <ele>320.39999389648</ele>
        <time>2015-11-11T13:36:07Z</time>
      </trkpt>
      <trkpt lat="43.42965" lon="6.04858">
        <ele>319</ele>
        <time>2015-11-11T13:36:09Z</time>
      </trkpt>
      <trkpt lat="43.42968" lon="6.04853">
        <ele>318.20001220703</ele>
        <time>2015-11-11T13:36:10Z</time>
      </trkpt>
      <trkpt lat="43.42971" lon="6.04849">
        <ele>317.60000610352</ele>
        <time>2015-11-11T13:36:11Z</time>
      </trkpt>
      <trkpt lat="43.42979" lon="6.04841">
        <ele>315.60000610352</ele>
        <time>2015-11-11T13:36:13Z</time>
      </trkpt>
      <trkpt lat="43.42982" lon="6.04836">
        <ele>314.39999389648</ele>
        <time>2015-11-11T13:36:14Z</time>
      </trkpt>
      <trkpt lat="43.42985" lon="6.04832">
        <ele>313.20001220703</ele>
        <time>2015-11-11T13:36:15Z</time>
      </trkpt>
      <trkpt lat="43.42987" lon="6.04826">
        <ele>312.39999389648</ele>
        <time>2015-11-11T13:36:16Z</time>
      </trkpt>
      <trkpt lat="43.42989" lon="6.0482">
        <ele>311.79998779297</ele>
        <time>2015-11-11T13:36:17Z</time>
      </trkpt>
      <trkpt lat="43.42991" lon="6.04815">
        <ele>311.39999389648</ele>
        <time>2015-11-11T13:36:18Z</time>
      </trkpt>
      <trkpt lat="43.42992" lon="6.0481">
        <ele>311.39999389648</ele>
        <time>2015-11-11T13:36:19Z</time>
      </trkpt>
      <trkpt lat="43.42996" lon="6.04803">
        <ele>311.39999389648</ele>
        <time>2015-11-11T13:36:21Z</time>
      </trkpt>
      <trkpt lat="43.42997" lon="6.048">
        <ele>311.60000610352</ele>
        <time>2015-11-11T13:36:22Z</time>
      </trkpt>
      <trkpt lat="43.42998" lon="6.048">
        <ele>311.60000610352</ele>
        <time>2015-11-11T13:36:23Z</time>
      </trkpt>
      <trkpt lat="43.42999" lon="6.04798">
        <ele>311.39999389648</ele>
        <time>2015-11-11T13:36:25Z</time>
      </trkpt>
      <trkpt lat="43.42999" lon="6.04798">
        <ele>311.39999389648</ele>
        <time>2015-11-11T13:36:26Z</time>
      </trkpt>
      <trkpt lat="43.42999" lon="6.04798">
        <ele>311.39999389648</ele>
        <time>2015-11-11T13:36:27Z</time>
      </trkpt>
      <trkpt lat="43.43" lon="6.04799">
        <ele>311.20001220703</ele>
        <time>2015-11-11T13:36:29Z</time>
      </trkpt>
      <trkpt lat="43.43" lon="6.04799">
        <ele>311.20001220703</ele>
        <time>2015-11-11T13:36:31Z</time>
      </trkpt>
      <trkpt lat="43.43" lon="6.04798">
        <ele>311.20001220703</ele>
        <time>2015-11-11T13:36:32Z</time>
      </trkpt>
      <trkpt lat="43.43002" lon="6.04796">
        <ele>311.20001220703</ele>
        <time>2015-11-11T13:36:33Z</time>
      </trkpt>
      <trkpt lat="43.43007" lon="6.04791">
        <ele>310.39999389648</ele>
        <time>2015-11-11T13:36:35Z</time>
      </trkpt>
      <trkpt lat="43.43009" lon="6.04788">
        <ele>309.39999389648</ele>
        <time>2015-11-11T13:36:36Z</time>
      </trkpt>
      <trkpt lat="43.43012" lon="6.04785">
        <ele>308.79998779297</ele>
        <time>2015-11-11T13:36:37Z</time>
      </trkpt>
      <trkpt lat="43.43016" lon="6.04782">
        <ele>307.79998779297</ele>
        <time>2015-11-11T13:36:38Z</time>
      </trkpt>
      <trkpt lat="43.43023" lon="6.04777">
        <ele>305.39999389648</ele>
        <time>2015-11-11T13:36:39Z</time>
      </trkpt>
      <trkpt lat="43.43029" lon="6.04772">
        <ele>304.20001220703</ele>
        <time>2015-11-11T13:36:41Z</time>
      </trkpt>
      <trkpt lat="43.43031" lon="6.04768">
        <ele>303.20001220703</ele>
        <time>2015-11-11T13:36:43Z</time>
      </trkpt>
      <trkpt lat="43.43031" lon="6.04768">
        <ele>303.79998779297</ele>
        <time>2015-11-11T13:36:45Z</time>
      </trkpt>
      <trkpt lat="43.43031" lon="6.04768">
        <ele>303.79998779297</ele>
        <time>2015-11-11T13:36:51Z</time>
      </trkpt>
      <trkpt lat="43.43031" lon="6.04768">
        <ele>303.60000610352</ele>
        <time>2015-11-11T13:37:09Z</time>
      </trkpt>
      <trkpt lat="43.43031" lon="6.04768">
        <ele>303.79998779297</ele>
        <time>2015-11-11T13:37:13Z</time>
      </trkpt>
      <trkpt lat="43.43031" lon="6.04768">
        <ele>303.79998779297</ele>
        <time>2015-11-11T13:37:15Z</time>
      </trkpt>
      <trkpt lat="43.43032" lon="6.04767">
        <ele>303.60000610352</ele>
        <time>2015-11-11T13:37:17Z</time>
      </trkpt>
      <trkpt lat="43.43032" lon="6.04762">
        <ele>303.60000610352</ele>
        <time>2015-11-11T13:37:19Z</time>
      </trkpt>
      <trkpt lat="43.43033" lon="6.04755">
        <ele>303.79998779297</ele>
        <time>2015-11-11T13:37:21Z</time>
      </trkpt>
      <trkpt lat="43.43036" lon="6.0475">
        <ele>304.20001220703</ele>
        <time>2015-11-11T13:37:23Z</time>
      </trkpt>
      <trkpt lat="43.43039" lon="6.04745">
        <ele>304.20001220703</ele>
        <time>2015-11-11T13:37:25Z</time>
      </trkpt>
      <trkpt lat="43.43043" lon="6.04739">
        <ele>304.39999389648</ele>
        <time>2015-11-11T13:37:27Z</time>
      </trkpt>
      <trkpt lat="43.43044" lon="6.04736">
        <ele>304.60000610352</ele>
        <time>2015-11-11T13:37:28Z</time>
      </trkpt>
      <trkpt lat="43.43046" lon="6.04733">
        <ele>304.60000610352</ele>
        <time>2015-11-11T13:37:29Z</time>
      </trkpt>
      <trkpt lat="43.43048" lon="6.04727">
        <ele>305.20001220703</ele>
        <time>2015-11-11T13:37:31Z</time>
      </trkpt>
      <trkpt lat="43.43051" lon="6.04722">
        <ele>305.60000610352</ele>
        <time>2015-11-11T13:37:33Z</time>
      </trkpt>
      <trkpt lat="43.43052" lon="6.0472">
        <ele>305.79998779297</ele>
        <time>2015-11-11T13:37:34Z</time>
      </trkpt>
      <trkpt lat="43.43054" lon="6.04714">
        <ele>306.39999389648</ele>
        <time>2015-11-11T13:37:36Z</time>
      </trkpt>
      <trkpt lat="43.43056" lon="6.04712">
        <ele>306.60000610352</ele>
        <time>2015-11-11T13:37:37Z</time>
      </trkpt>
      <trkpt lat="43.43058" lon="6.04706">
        <ele>307</ele>
        <time>2015-11-11T13:37:39Z</time>
      </trkpt>
      <trkpt lat="43.43058" lon="6.04704">
        <ele>307.20001220703</ele>
        <time>2015-11-11T13:37:40Z</time>
      </trkpt>
      <trkpt lat="43.43058" lon="6.04699">
        <ele>307.20001220703</ele>
        <time>2015-11-11T13:37:41Z</time>
      </trkpt>
      <trkpt lat="43.43058" lon="6.04695">
        <ele>307.60000610352</ele>
        <time>2015-11-11T13:37:43Z</time>
      </trkpt>
      <trkpt lat="43.43057" lon="6.04689">
        <ele>307.79998779297</ele>
        <time>2015-11-11T13:37:45Z</time>
      </trkpt>
      <trkpt lat="43.43055" lon="6.04683">
        <ele>308.20001220703</ele>
        <time>2015-11-11T13:37:47Z</time>
      </trkpt>
      <trkpt lat="43.43054" lon="6.04678">
        <ele>308.20001220703</ele>
        <time>2015-11-11T13:37:49Z</time>
      </trkpt>
      <trkpt lat="43.43053" lon="6.04672">
        <ele>308</ele>
        <time>2015-11-11T13:37:51Z</time>
      </trkpt>
      <trkpt lat="43.43053" lon="6.04666">
        <ele>308.39999389648</ele>
        <time>2015-11-11T13:37:53Z</time>
      </trkpt>
      <trkpt lat="43.43053" lon="6.04663">
        <ele>308.60000610352</ele>
        <time>2015-11-11T13:37:54Z</time>
      </trkpt>
      <trkpt lat="43.43053" lon="6.04653">
        <ele>308.60000610352</ele>
        <time>2015-11-11T13:37:57Z</time>
      </trkpt>
      <trkpt lat="43.43052" lon="6.04646">
        <ele>308.79998779297</ele>
        <time>2015-11-11T13:37:59Z</time>
      </trkpt>
      <trkpt lat="43.43051" lon="6.0464">
        <ele>309.20001220703</ele>
        <time>2015-11-11T13:38:01Z</time>
      </trkpt>
      <trkpt lat="43.43049" lon="6.04634">
        <ele>309.20001220703</ele>
        <time>2015-11-11T13:38:03Z</time>
      </trkpt>
      <trkpt lat="43.43046" lon="6.0462">
        <ele>309.39999389648</ele>
        <time>2015-11-11T13:38:07Z</time>
      </trkpt>
      <trkpt lat="43.43045" lon="6.04613">
        <ele>309.39999389648</ele>
        <time>2015-11-11T13:38:09Z</time>
      </trkpt>
      <trkpt lat="43.43045" lon="6.04606">
        <ele>309.79998779297</ele>
        <time>2015-11-11T13:38:11Z</time>
      </trkpt>
      <trkpt lat="43.43043" lon="6.04599">
        <ele>309.79998779297</ele>
        <time>2015-11-11T13:38:13Z</time>
      </trkpt>
      <trkpt lat="43.43042" lon="6.04593">
        <ele>310.20001220703</ele>
        <time>2015-11-11T13:38:15Z</time>
      </trkpt>
      <trkpt lat="43.43044" lon="6.04587">
        <ele>310.39999389648</ele>
        <time>2015-11-11T13:38:17Z</time>
      </trkpt>
      <trkpt lat="43.43045" lon="6.04581">
        <ele>310.60000610352</ele>
        <time>2015-11-11T13:38:19Z</time>
      </trkpt>
      <trkpt lat="43.43047" lon="6.04574">
        <ele>310.60000610352</ele>
        <time>2015-11-11T13:38:21Z</time>
      </trkpt>
      <trkpt lat="43.43049" lon="6.04562">
        <ele>310.79998779297</ele>
        <time>2015-11-11T13:38:25Z</time>
      </trkpt>
      <trkpt lat="43.4305" lon="6.04556">
        <ele>311.20001220703</ele>
        <time>2015-11-11T13:38:27Z</time>
      </trkpt>
      <trkpt lat="43.43051" lon="6.0455">
        <ele>311</ele>
        <time>2015-11-11T13:38:29Z</time>
      </trkpt>
      <trkpt lat="43.43052" lon="6.04543">
        <ele>311.20001220703</ele>
        <time>2015-11-11T13:38:31Z</time>
      </trkpt>
      <trkpt lat="43.43054" lon="6.04538">
        <ele>311.79998779297</ele>
        <time>2015-11-11T13:38:33Z</time>
      </trkpt>
      <trkpt lat="43.43055" lon="6.04531">
        <ele>312</ele>
        <time>2015-11-11T13:38:35Z</time>
      </trkpt>
      <trkpt lat="43.43056" lon="6.04525">
        <ele>312.20001220703</ele>
        <time>2015-11-11T13:38:37Z</time>
      </trkpt>
      <trkpt lat="43.43057" lon="6.04519">
        <ele>312.39999389648</ele>
        <time>2015-11-11T13:38:39Z</time>
      </trkpt>
      <trkpt lat="43.43059" lon="6.04507">
        <ele>312.20001220703</ele>
        <time>2015-11-11T13:38:43Z</time>
      </trkpt>
      <trkpt lat="43.4306" lon="6.04501">
        <ele>312.20001220703</ele>
        <time>2015-11-11T13:38:45Z</time>
      </trkpt>
      <trkpt lat="43.43061" lon="6.04494">
        <ele>312.60000610352</ele>
        <time>2015-11-11T13:38:47Z</time>
      </trkpt>
      <trkpt lat="43.43064" lon="6.04484">
        <ele>313</ele>
        <time>2015-11-11T13:38:50Z</time>
      </trkpt>
      <trkpt lat="43.43065" lon="6.0448">
        <ele>313.20001220703</ele>
        <time>2015-11-11T13:38:51Z</time>
      </trkpt>
      <trkpt lat="43.43067" lon="6.04473">
        <ele>313.39999389648</ele>
        <time>2015-11-11T13:38:53Z</time>
      </trkpt>
      <trkpt lat="43.43069" lon="6.04461">
        <ele>313.60000610352</ele>
        <time>2015-11-11T13:38:56Z</time>
      </trkpt>
      <trkpt lat="43.4307" lon="6.04456">
        <ele>313.60000610352</ele>
        <time>2015-11-11T13:38:57Z</time>
      </trkpt>
      <trkpt lat="43.43073" lon="6.04448">
        <ele>313.60000610352</ele>
        <time>2015-11-11T13:38:59Z</time>
      </trkpt>
      <trkpt lat="43.43076" lon="6.0444">
        <ele>314.20001220703</ele>
        <time>2015-11-11T13:39:01Z</time>
      </trkpt>
      <trkpt lat="43.43078" lon="6.04432">
        <ele>314.60000610352</ele>
        <time>2015-11-11T13:39:03Z</time>
      </trkpt>
      <trkpt lat="43.4308" lon="6.04424">
        <ele>314.60000610352</ele>
        <time>2015-11-11T13:39:05Z</time>
      </trkpt>
      <trkpt lat="43.43081" lon="6.04416">
        <ele>314.79998779297</ele>
        <time>2015-11-11T13:39:07Z</time>
      </trkpt>
      <trkpt lat="43.43082" lon="6.04408">
        <ele>315.20001220703</ele>
        <time>2015-11-11T13:39:09Z</time>
      </trkpt>
      <trkpt lat="43.43085" lon="6.04401">
        <ele>315.60000610352</ele>
        <time>2015-11-11T13:39:11Z</time>
      </trkpt>
      <trkpt lat="43.43087" lon="6.04393">
        <ele>315.60000610352</ele>
        <time>2015-11-11T13:39:13Z</time>
      </trkpt>
      <trkpt lat="43.4309" lon="6.04387">
        <ele>315.39999389648</ele>
        <time>2015-11-11T13:39:15Z</time>
      </trkpt>
      <trkpt lat="43.43094" lon="6.04382">
        <ele>316.20001220703</ele>
        <time>2015-11-11T13:39:17Z</time>
      </trkpt>
      <trkpt lat="43.43095" lon="6.0438">
        <ele>316.39999389648</ele>
        <time>2015-11-11T13:39:18Z</time>
      </trkpt>
      <trkpt lat="43.43097" lon="6.04377">
        <ele>316.60000610352</ele>
        <time>2015-11-11T13:39:19Z</time>
      </trkpt>
      <trkpt lat="43.43098" lon="6.04374">
        <ele>317.20001220703</ele>
        <time>2015-11-11T13:39:21Z</time>
      </trkpt>
      <trkpt lat="43.43099" lon="6.04373">
        <ele>317.60000610352</ele>
        <time>2015-11-11T13:39:22Z</time>
      </trkpt>
      <trkpt lat="43.43099" lon="6.04371">
        <ele>317.60000610352</ele>
        <time>2015-11-11T13:39:23Z</time>
      </trkpt>
      <trkpt lat="43.431" lon="6.04368">
        <ele>317.79998779297</ele>
        <time>2015-11-11T13:39:25Z</time>
      </trkpt>
      <trkpt lat="43.43101" lon="6.04364">
        <ele>317.79998779297</ele>
        <time>2015-11-11T13:39:27Z</time>
      </trkpt>
      <trkpt lat="43.43102" lon="6.04358">
        <ele>317.79998779297</ele>
        <time>2015-11-11T13:39:29Z</time>
      </trkpt>
      <trkpt lat="43.43103" lon="6.04354">
        <ele>317.79998779297</ele>
        <time>2015-11-11T13:39:31Z</time>
      </trkpt>
      <trkpt lat="43.43104" lon="6.04348">
        <ele>318.20001220703</ele>
        <time>2015-11-11T13:39:33Z</time>
      </trkpt>
      <trkpt lat="43.43105" lon="6.04342">
        <ele>318.60000610352</ele>
        <time>2015-11-11T13:39:35Z</time>
      </trkpt>
      <trkpt lat="43.43105" lon="6.0434">
        <ele>318.60000610352</ele>
        <time>2015-11-11T13:39:36Z</time>
      </trkpt>
      <trkpt lat="43.43104" lon="6.04337">
        <ele>318.60000610352</ele>
        <time>2015-11-11T13:39:37Z</time>
      </trkpt>
      <trkpt lat="43.43104" lon="6.04331">
        <ele>318.79998779297</ele>
        <time>2015-11-11T13:39:39Z</time>
      </trkpt>
      <trkpt lat="43.43104" lon="6.04325">
        <ele>319.20001220703</ele>
        <time>2015-11-11T13:39:41Z</time>
      </trkpt>
      <trkpt lat="43.43103" lon="6.0432">
        <ele>319.39999389648</ele>
        <time>2015-11-11T13:39:43Z</time>
      </trkpt>
      <trkpt lat="43.43103" lon="6.04315">
        <ele>319.79998779297</ele>
        <time>2015-11-11T13:39:45Z</time>
      </trkpt>
      <trkpt lat="43.43102" lon="6.0431">
        <ele>320.20001220703</ele>
        <time>2015-11-11T13:39:47Z</time>
      </trkpt>
      <trkpt lat="43.43102" lon="6.04305">
        <ele>320</ele>
        <time>2015-11-11T13:39:49Z</time>
      </trkpt>
      <trkpt lat="43.43101" lon="6.04298">
        <ele>320</ele>
        <time>2015-11-11T13:39:51Z</time>
      </trkpt>
      <trkpt lat="43.43099" lon="6.04287">
        <ele>320.79998779297</ele>
        <time>2015-11-11T13:39:55Z</time>
      </trkpt>
      <trkpt lat="43.43096" lon="6.04274">
        <ele>321.39999389648</ele>
        <time>2015-11-11T13:39:59Z</time>
      </trkpt>
      <trkpt lat="43.43095" lon="6.04267">
        <ele>321.60000610352</ele>
        <time>2015-11-11T13:40:01Z</time>
      </trkpt>
      <trkpt lat="43.43093" lon="6.04259">
        <ele>321.60000610352</ele>
        <time>2015-11-11T13:40:03Z</time>
      </trkpt>
      <trkpt lat="43.43089" lon="6.04244">
        <ele>321.79998779297</ele>
        <time>2015-11-11T13:40:07Z</time>
      </trkpt>
      <trkpt lat="43.43086" lon="6.04236">
        <ele>322</ele>
        <time>2015-11-11T13:40:09Z</time>
      </trkpt>
      <trkpt lat="43.43084" lon="6.04232">
        <ele>321.79998779297</ele>
        <time>2015-11-11T13:40:10Z</time>
      </trkpt>
      <trkpt lat="43.43083" lon="6.04229">
        <ele>321.79998779297</ele>
        <time>2015-11-11T13:40:11Z</time>
      </trkpt>
      <trkpt lat="43.4308" lon="6.04222">
        <ele>321.79998779297</ele>
        <time>2015-11-11T13:40:13Z</time>
      </trkpt>
      <trkpt lat="43.43076" lon="6.04216">
        <ele>321.79998779297</ele>
        <time>2015-11-11T13:40:15Z</time>
      </trkpt>
      <trkpt lat="43.43074" lon="6.04209">
        <ele>322.20001220703</ele>
        <time>2015-11-11T13:40:17Z</time>
      </trkpt>
      <trkpt lat="43.43073" lon="6.04202">
        <ele>322.20001220703</ele>
        <time>2015-11-11T13:40:19Z</time>
      </trkpt>
      <trkpt lat="43.43074" lon="6.04195">
        <ele>322.20001220703</ele>
        <time>2015-11-11T13:40:21Z</time>
      </trkpt>
      <trkpt lat="43.43075" lon="6.04191">
        <ele>322.39999389648</ele>
        <time>2015-11-11T13:40:22Z</time>
      </trkpt>
      <trkpt lat="43.43079" lon="6.04173">
        <ele>322.60000610352</ele>
        <time>2015-11-11T13:40:27Z</time>
      </trkpt>
      <trkpt lat="43.43078" lon="6.04164">
        <ele>322.60000610352</ele>
        <time>2015-11-11T13:40:29Z</time>
      </trkpt>
      <trkpt lat="43.43077" lon="6.04157">
        <ele>322.79998779297</ele>
        <time>2015-11-11T13:40:31Z</time>
      </trkpt>
      <trkpt lat="43.43076" lon="6.04149">
        <ele>323.20001220703</ele>
        <time>2015-11-11T13:40:33Z</time>
      </trkpt>
      <trkpt lat="43.43076" lon="6.04141">
        <ele>323</ele>
        <time>2015-11-11T13:40:35Z</time>
      </trkpt>
      <trkpt lat="43.43077" lon="6.04134">
        <ele>323.60000610352</ele>
        <time>2015-11-11T13:40:37Z</time>
      </trkpt>
      <trkpt lat="43.4308" lon="6.04128">
        <ele>324</ele>
        <time>2015-11-11T13:40:39Z</time>
      </trkpt>
      <trkpt lat="43.43082" lon="6.04121">
        <ele>324</ele>
        <time>2015-11-11T13:40:41Z</time>
      </trkpt>
      <trkpt lat="43.43083" lon="6.04114">
        <ele>323.60000610352</ele>
        <time>2015-11-11T13:40:43Z</time>
      </trkpt>
      <trkpt lat="43.43084" lon="6.04103">
        <ele>323.60000610352</ele>
        <time>2015-11-11T13:40:45Z</time>
      </trkpt>
      <trkpt lat="43.43084" lon="6.04102">
        <ele>323.60000610352</ele>
        <time>2015-11-11T13:40:46Z</time>
      </trkpt>
      <trkpt lat="43.43084" lon="6.04098">
        <ele>323.79998779297</ele>
        <time>2015-11-11T13:40:47Z</time>
      </trkpt>
      <trkpt lat="43.43084" lon="6.04091">
        <ele>324.39999389648</ele>
        <time>2015-11-11T13:40:49Z</time>
      </trkpt>
      <trkpt lat="43.43083" lon="6.04083">
        <ele>324.79998779297</ele>
        <time>2015-11-11T13:40:51Z</time>
      </trkpt>
      <trkpt lat="43.43083" lon="6.0408">
        <ele>324.60000610352</ele>
        <time>2015-11-11T13:40:52Z</time>
      </trkpt>
      <trkpt lat="43.43083" lon="6.04076">
        <ele>324.60000610352</ele>
        <time>2015-11-11T13:40:53Z</time>
      </trkpt>
      <trkpt lat="43.43083" lon="6.04069">
        <ele>325</ele>
        <time>2015-11-11T13:40:55Z</time>
      </trkpt>
      <trkpt lat="43.43082" lon="6.04062">
        <ele>325.39999389648</ele>
        <time>2015-11-11T13:40:58Z</time>
      </trkpt>
      <trkpt lat="43.43082" lon="6.04059">
        <ele>325.60000610352</ele>
        <time>2015-11-11T13:40:59Z</time>
      </trkpt>
      <trkpt lat="43.43081" lon="6.04056">
        <ele>325.79998779297</ele>
        <time>2015-11-11T13:41:01Z</time>
      </trkpt>
      <trkpt lat="43.4308" lon="6.04052">
        <ele>326</ele>
        <time>2015-11-11T13:41:03Z</time>
      </trkpt>
      <trkpt lat="43.4308" lon="6.04048">
        <ele>326</ele>
        <time>2015-11-11T13:41:05Z</time>
      </trkpt>
      <trkpt lat="43.43079" lon="6.04044">
        <ele>326</ele>
        <time>2015-11-11T13:41:07Z</time>
      </trkpt>
      <trkpt lat="43.43079" lon="6.04041">
        <ele>326.20001220703</ele>
        <time>2015-11-11T13:41:09Z</time>
      </trkpt>
      <trkpt lat="43.43079" lon="6.04039">
        <ele>326.20001220703</ele>
        <time>2015-11-11T13:41:10Z</time>
      </trkpt>
      <trkpt lat="43.43079" lon="6.04035">
        <ele>326.39999389648</ele>
        <time>2015-11-11T13:41:13Z</time>
      </trkpt>
      <trkpt lat="43.43079" lon="6.04033">
        <ele>326.39999389648</ele>
        <time>2015-11-11T13:41:15Z</time>
      </trkpt>
      <trkpt lat="43.43079" lon="6.04031">
        <ele>326.60000610352</ele>
        <time>2015-11-11T13:41:17Z</time>
      </trkpt>
      <trkpt lat="43.43079" lon="6.0403">
        <ele>326.60000610352</ele>
        <time>2015-11-11T13:41:19Z</time>
      </trkpt>
      <trkpt lat="43.43078" lon="6.0403">
        <ele>326.60000610352</ele>
        <time>2015-11-11T13:41:21Z</time>
      </trkpt>
      <trkpt lat="43.43078" lon="6.0403">
        <ele>326.79998779297</ele>
        <time>2015-11-11T13:41:27Z</time>
      </trkpt>
      <trkpt lat="43.43078" lon="6.0403">
        <ele>326.79998779297</ele>
        <time>2015-11-11T13:41:45Z</time>
      </trkpt>
      <trkpt lat="43.43079" lon="6.04029">
        <ele>326.60000610352</ele>
        <time>2015-11-11T13:41:47Z</time>
      </trkpt>
      <trkpt lat="43.43079" lon="6.04027">
        <ele>326.60000610352</ele>
        <time>2015-11-11T13:41:48Z</time>
      </trkpt>
      <trkpt lat="43.43081" lon="6.04025">
        <ele>326.60000610352</ele>
        <time>2015-11-11T13:41:49Z</time>
      </trkpt>
      <trkpt lat="43.43084" lon="6.04021">
        <ele>326.60000610352</ele>
        <time>2015-11-11T13:41:51Z</time>
      </trkpt>
      <trkpt lat="43.43087" lon="6.04019">
        <ele>326.60000610352</ele>
        <time>2015-11-11T13:41:52Z</time>
      </trkpt>
      <trkpt lat="43.43089" lon="6.04017">
        <ele>326.39999389648</ele>
        <time>2015-11-11T13:41:53Z</time>
      </trkpt>
      <trkpt lat="43.43092" lon="6.04015">
        <ele>326.60000610352</ele>
        <time>2015-11-11T13:41:55Z</time>
      </trkpt>
      <trkpt lat="43.43095" lon="6.04012">
        <ele>326.60000610352</ele>
        <time>2015-11-11T13:41:57Z</time>
      </trkpt>
      <trkpt lat="43.43096" lon="6.0401">
        <ele>326.60000610352</ele>
        <time>2015-11-11T13:41:58Z</time>
      </trkpt>
      <trkpt lat="43.43097" lon="6.04008">
        <ele>326.60000610352</ele>
        <time>2015-11-11T13:41:59Z</time>
      </trkpt>
      <trkpt lat="43.431" lon="6.04004">
        <ele>326.79998779297</ele>
        <time>2015-11-11T13:42:01Z</time>
      </trkpt>
      <trkpt lat="43.43103" lon="6.03996">
        <ele>326.79998779297</ele>
        <time>2015-11-11T13:42:04Z</time>
      </trkpt>
      <trkpt lat="43.43104" lon="6.03994">
        <ele>326.79998779297</ele>
        <time>2015-11-11T13:42:05Z</time>
      </trkpt>
      <trkpt lat="43.43107" lon="6.0399">
        <ele>326.79998779297</ele>
        <time>2015-11-11T13:42:07Z</time>
      </trkpt>
      <trkpt lat="43.4311" lon="6.03985">
        <ele>327</ele>
        <time>2015-11-11T13:42:09Z</time>
      </trkpt>
      <trkpt lat="43.43113" lon="6.0398">
        <ele>327</ele>
        <time>2015-11-11T13:42:11Z</time>
      </trkpt>
      <trkpt lat="43.43117" lon="6.03974">
        <ele>327.20001220703</ele>
        <time>2015-11-11T13:42:15Z</time>
      </trkpt>
      <trkpt lat="43.43119" lon="6.03971">
        <ele>327.60000610352</ele>
        <time>2015-11-11T13:42:17Z</time>
      </trkpt>
      <trkpt lat="43.43121" lon="6.03969">
        <ele>327.79998779297</ele>
        <time>2015-11-11T13:42:19Z</time>
      </trkpt>
      <trkpt lat="43.43122" lon="6.03967">
        <ele>327.79998779297</ele>
        <time>2015-11-11T13:42:20Z</time>
      </trkpt>
      <trkpt lat="43.43122" lon="6.03965">
        <ele>327.79998779297</ele>
        <time>2015-11-11T13:42:21Z</time>
      </trkpt>
      <trkpt lat="43.43124" lon="6.03961">
        <ele>327.79998779297</ele>
        <time>2015-11-11T13:42:23Z</time>
      </trkpt>
      <trkpt lat="43.43125" lon="6.03958">
        <ele>327.79998779297</ele>
        <time>2015-11-11T13:42:24Z</time>
      </trkpt>
      <trkpt lat="43.43126" lon="6.03956">
        <ele>328</ele>
        <time>2015-11-11T13:42:25Z</time>
      </trkpt>
      <trkpt lat="43.43128" lon="6.03951">
        <ele>328</ele>
        <time>2015-11-11T13:42:27Z</time>
      </trkpt>
      <trkpt lat="43.4313" lon="6.03947">
        <ele>328</ele>
        <time>2015-11-11T13:42:29Z</time>
      </trkpt>
      <trkpt lat="43.43132" lon="6.03943">
        <ele>328</ele>
        <time>2015-11-11T13:42:31Z</time>
      </trkpt>
      <trkpt lat="43.43134" lon="6.0394">
        <ele>328</ele>
        <time>2015-11-11T13:42:32Z</time>
      </trkpt>
      <trkpt lat="43.43135" lon="6.03938">
        <ele>328</ele>
        <time>2015-11-11T13:42:33Z</time>
      </trkpt>
      <trkpt lat="43.43139" lon="6.03933">
        <ele>328.39999389648</ele>
        <time>2015-11-11T13:42:35Z</time>
      </trkpt>
      <trkpt lat="43.43141" lon="6.03928">
        <ele>328.39999389648</ele>
        <time>2015-11-11T13:42:37Z</time>
      </trkpt>
      <trkpt lat="43.43141" lon="6.03926">
        <ele>328.39999389648</ele>
        <time>2015-11-11T13:42:38Z</time>
      </trkpt>
      <trkpt lat="43.43142" lon="6.03924">
        <ele>328.60000610352</ele>
        <time>2015-11-11T13:42:39Z</time>
      </trkpt>
      <trkpt lat="43.43143" lon="6.03922">
        <ele>329</ele>
        <time>2015-11-11T13:42:41Z</time>
      </trkpt>
      <trkpt lat="43.43143" lon="6.03921">
        <ele>329.20001220703</ele>
        <time>2015-11-11T13:42:43Z</time>
      </trkpt>
      <trkpt lat="43.43143" lon="6.03921">
        <ele>329.20001220703</ele>
        <time>2015-11-11T13:42:45Z</time>
      </trkpt>
      <trkpt lat="43.43143" lon="6.0392">
        <ele>329.20001220703</ele>
        <time>2015-11-11T13:42:47Z</time>
      </trkpt>
      <trkpt lat="43.43143" lon="6.03918">
        <ele>329.39999389648</ele>
        <time>2015-11-11T13:42:48Z</time>
      </trkpt>
      <trkpt lat="43.43142" lon="6.03914">
        <ele>329.39999389648</ele>
        <time>2015-11-11T13:42:50Z</time>
      </trkpt>
      <trkpt lat="43.4314" lon="6.03909">
        <ele>329.20001220703</ele>
        <time>2015-11-11T13:42:52Z</time>
      </trkpt>
      <trkpt lat="43.4314" lon="6.03906">
        <ele>329.39999389648</ele>
        <time>2015-11-11T13:42:53Z</time>
      </trkpt>
      <trkpt lat="43.43141" lon="6.03904">
        <ele>329.39999389648</ele>
        <time>2015-11-11T13:42:54Z</time>
      </trkpt>
      <trkpt lat="43.43143" lon="6.03901">
        <ele>329.60000610352</ele>
        <time>2015-11-11T13:42:56Z</time>
      </trkpt>
      <trkpt lat="43.43144" lon="6.03899">
        <ele>329.60000610352</ele>
        <time>2015-11-11T13:42:57Z</time>
      </trkpt>
      <trkpt lat="43.43144" lon="6.03896">
        <ele>329.60000610352</ele>
        <time>2015-11-11T13:42:58Z</time>
      </trkpt>
      <trkpt lat="43.43144" lon="6.03893">
        <ele>329.79998779297</ele>
        <time>2015-11-11T13:43:00Z</time>
      </trkpt>
      <trkpt lat="43.43144" lon="6.03889">
        <ele>330</ele>
        <time>2015-11-11T13:43:02Z</time>
      </trkpt>
      <trkpt lat="43.43144" lon="6.03883">
        <ele>330.20001220703</ele>
        <time>2015-11-11T13:43:04Z</time>
      </trkpt>
      <trkpt lat="43.43144" lon="6.03877">
        <ele>330.20001220703</ele>
        <time>2015-11-11T13:43:06Z</time>
      </trkpt>
      <trkpt lat="43.43144" lon="6.03872">
        <ele>330.20001220703</ele>
        <time>2015-11-11T13:43:08Z</time>
      </trkpt>
      <trkpt lat="43.43145" lon="6.03866">
        <ele>330.39999389648</ele>
        <time>2015-11-11T13:43:10Z</time>
      </trkpt>
      <trkpt lat="43.43145" lon="6.0386">
        <ele>330.39999389648</ele>
        <time>2015-11-11T13:43:12Z</time>
      </trkpt>
      <trkpt lat="43.43144" lon="6.03858">
        <ele>330.60000610352</ele>
        <time>2015-11-11T13:43:13Z</time>
      </trkpt>
      <trkpt lat="43.43143" lon="6.03853">
        <ele>330.79998779297</ele>
        <time>2015-11-11T13:43:15Z</time>
      </trkpt>
      <trkpt lat="43.43142" lon="6.03844">
        <ele>331.20001220703</ele>
        <time>2015-11-11T13:43:18Z</time>
      </trkpt>
      <trkpt lat="43.4314" lon="6.03833">
        <ele>331.39999389648</ele>
        <time>2015-11-11T13:43:22Z</time>
      </trkpt>
      <trkpt lat="43.43139" lon="6.03823">
        <ele>331.79998779297</ele>
        <time>2015-11-11T13:43:26Z</time>
      </trkpt>
      <trkpt lat="43.43137" lon="6.03817">
        <ele>331.79998779297</ele>
        <time>2015-11-11T13:43:28Z</time>
      </trkpt>
      <trkpt lat="43.43137" lon="6.03812">
        <ele>331.79998779297</ele>
        <time>2015-11-11T13:43:30Z</time>
      </trkpt>
      <trkpt lat="43.43137" lon="6.0381">
        <ele>332</ele>
        <time>2015-11-11T13:43:31Z</time>
      </trkpt>
      <trkpt lat="43.43137" lon="6.03808">
        <ele>332</ele>
        <time>2015-11-11T13:43:32Z</time>
      </trkpt>
      <trkpt lat="43.43137" lon="6.03806">
        <ele>332</ele>
        <time>2015-11-11T13:43:33Z</time>
      </trkpt>
      <trkpt lat="43.43137" lon="6.03804">
        <ele>332.39999389648</ele>
        <time>2015-11-11T13:43:34Z</time>
      </trkpt>
      <trkpt lat="43.43137" lon="6.03798">
        <ele>332.39999389648</ele>
        <time>2015-11-11T13:43:36Z</time>
      </trkpt>
      <trkpt lat="43.43135" lon="6.03796">
        <ele>332.39999389648</ele>
        <time>2015-11-11T13:43:37Z</time>
      </trkpt>
      <trkpt lat="43.43134" lon="6.03793">
        <ele>332.39999389648</ele>
        <time>2015-11-11T13:43:38Z</time>
      </trkpt>
      <trkpt lat="43.43133" lon="6.03791">
        <ele>332.20001220703</ele>
        <time>2015-11-11T13:43:39Z</time>
      </trkpt>
      <trkpt lat="43.43131" lon="6.03788">
        <ele>332.20001220703</ele>
        <time>2015-11-11T13:43:40Z</time>
      </trkpt>
      <trkpt lat="43.4313" lon="6.03784">
        <ele>332.20001220703</ele>
        <time>2015-11-11T13:43:42Z</time>
      </trkpt>
      <trkpt lat="43.43128" lon="6.0378">
        <ele>332.39999389648</ele>
        <time>2015-11-11T13:43:44Z</time>
      </trkpt>
      <trkpt lat="43.43125" lon="6.03777">
        <ele>332.60000610352</ele>
        <time>2015-11-11T13:43:46Z</time>
      </trkpt>
      <trkpt lat="43.43125" lon="6.03773">
        <ele>332.60000610352</ele>
        <time>2015-11-11T13:43:48Z</time>
      </trkpt>
      <trkpt lat="43.43126" lon="6.03771">
        <ele>332.60000610352</ele>
        <time>2015-11-11T13:43:49Z</time>
      </trkpt>
      <trkpt lat="43.43126" lon="6.0377">
        <ele>332.60000610352</ele>
        <time>2015-11-11T13:43:50Z</time>
      </trkpt>
      <trkpt lat="43.43127" lon="6.03769">
        <ele>332.60000610352</ele>
        <time>2015-11-11T13:43:51Z</time>
      </trkpt>
      <trkpt lat="43.43128" lon="6.03768">
        <ele>332.60000610352</ele>
        <time>2015-11-11T13:43:52Z</time>
      </trkpt>
      <trkpt lat="43.43128" lon="6.03764">
        <ele>332.79998779297</ele>
        <time>2015-11-11T13:43:54Z</time>
      </trkpt>
      <trkpt lat="43.43129" lon="6.03759">
        <ele>332.79998779297</ele>
        <time>2015-11-11T13:43:56Z</time>
      </trkpt>
      <trkpt lat="43.43128" lon="6.03754">
        <ele>332.79998779297</ele>
        <time>2015-11-11T13:43:58Z</time>
      </trkpt>
      <trkpt lat="43.43126" lon="6.03749">
        <ele>332.79998779297</ele>
        <time>2015-11-11T13:44:00Z</time>
      </trkpt>
      <trkpt lat="43.43121" lon="6.03748">
        <ele>333</ele>
        <time>2015-11-11T13:44:02Z</time>
      </trkpt>
      <trkpt lat="43.43118" lon="6.03746">
        <ele>333</ele>
        <time>2015-11-11T13:44:04Z</time>
      </trkpt>
      <trkpt lat="43.43118" lon="6.03746">
        <ele>333</ele>
        <time>2015-11-11T13:44:06Z</time>
      </trkpt>
      <trkpt lat="43.43118" lon="6.03745">
        <ele>333.20001220703</ele>
        <time>2015-11-11T13:44:08Z</time>
      </trkpt>
      <trkpt lat="43.43117" lon="6.03744">
        <ele>333.20001220703</ele>
        <time>2015-11-11T13:44:09Z</time>
      </trkpt>
      <trkpt lat="43.43116" lon="6.03743">
        <ele>333.20001220703</ele>
        <time>2015-11-11T13:44:10Z</time>
      </trkpt>
      <trkpt lat="43.43115" lon="6.03738">
        <ele>333.39999389648</ele>
        <time>2015-11-11T13:44:12Z</time>
      </trkpt>
      <trkpt lat="43.43112" lon="6.03734">
        <ele>333.60000610352</ele>
        <time>2015-11-11T13:44:14Z</time>
      </trkpt>
      <trkpt lat="43.4311" lon="6.03729">
        <ele>333.79998779297</ele>
        <time>2015-11-11T13:44:16Z</time>
      </trkpt>
      <trkpt lat="43.43109" lon="6.03728">
        <ele>333.79998779297</ele>
        <time>2015-11-11T13:44:17Z</time>
      </trkpt>
      <trkpt lat="43.43107" lon="6.03727">
        <ele>333.79998779297</ele>
        <time>2015-11-11T13:44:18Z</time>
      </trkpt>
      <trkpt lat="43.43103" lon="6.03726">
        <ele>334.20001220703</ele>
        <time>2015-11-11T13:44:20Z</time>
      </trkpt>
      <trkpt lat="43.431" lon="6.03725">
        <ele>334.60000610352</ele>
        <time>2015-11-11T13:44:22Z</time>
      </trkpt>
      <trkpt lat="43.43098" lon="6.03723">
        <ele>335</ele>
        <time>2015-11-11T13:44:24Z</time>
      </trkpt>
      <trkpt lat="43.43097" lon="6.03721">
        <ele>335.20001220703</ele>
        <time>2015-11-11T13:44:25Z</time>
      </trkpt>
      <trkpt lat="43.43095" lon="6.03721">
        <ele>335</ele>
        <time>2015-11-11T13:44:26Z</time>
      </trkpt>
      <trkpt lat="43.43094" lon="6.03719">
        <ele>335</ele>
        <time>2015-11-11T13:44:27Z</time>
      </trkpt>
      <trkpt lat="43.43094" lon="6.03718">
        <ele>334.79998779297</ele>
        <time>2015-11-11T13:44:28Z</time>
      </trkpt>
      <trkpt lat="43.43094" lon="6.03714">
        <ele>335</ele>
        <time>2015-11-11T13:44:30Z</time>
      </trkpt>
      <trkpt lat="43.43095" lon="6.03712">
        <ele>335</ele>
        <time>2015-11-11T13:44:31Z</time>
      </trkpt>
      <trkpt lat="43.43095" lon="6.0371">
        <ele>335</ele>
        <time>2015-11-11T13:44:32Z</time>
      </trkpt>
      <trkpt lat="43.43095" lon="6.0371">
        <ele>335.20001220703</ele>
        <time>2015-11-11T13:44:34Z</time>
      </trkpt>
      <trkpt lat="43.43095" lon="6.0371">
        <ele>335.39999389648</ele>
        <time>2015-11-11T13:44:38Z</time>
      </trkpt>
      <trkpt lat="43.43095" lon="6.0371">
        <ele>335.20001220703</ele>
        <time>2015-11-11T13:45:12Z</time>
      </trkpt>
      <trkpt lat="43.43095" lon="6.0371">
        <ele>335.39999389648</ele>
        <time>2015-11-11T13:45:13Z</time>
      </trkpt>
      <trkpt lat="43.43095" lon="6.0371">
        <ele>335.20001220703</ele>
        <time>2015-11-11T13:45:18Z</time>
      </trkpt>
      <trkpt lat="43.43095" lon="6.0371">
        <ele>335.20001220703</ele>
        <time>2015-11-11T13:45:52Z</time>
      </trkpt>
      <trkpt lat="43.43095" lon="6.0371">
        <ele>335.39999389648</ele>
        <time>2015-11-11T13:45:53Z</time>
      </trkpt>
      <trkpt lat="43.43095" lon="6.0371">
        <ele>335.20001220703</ele>
        <time>2015-11-11T13:45:56Z</time>
      </trkpt>
      <trkpt lat="43.43096" lon="6.03709">
        <ele>335.20001220703</ele>
        <time>2015-11-11T13:45:58Z</time>
      </trkpt>
      <trkpt lat="43.43097" lon="6.03701">
        <ele>335</ele>
        <time>2015-11-11T13:46:00Z</time>
      </trkpt>
      <trkpt lat="43.43097" lon="6.03693">
        <ele>334.60000610352</ele>
        <time>2015-11-11T13:46:02Z</time>
      </trkpt>
      <trkpt lat="43.43098" lon="6.03685">
        <ele>335.20001220703</ele>
        <time>2015-11-11T13:46:04Z</time>
      </trkpt>
      <trkpt lat="43.431" lon="6.03677">
        <ele>335.20001220703</ele>
        <time>2015-11-11T13:46:06Z</time>
      </trkpt>
      <trkpt lat="43.43105" lon="6.03662">
        <ele>335.39999389648</ele>
        <time>2015-11-11T13:46:10Z</time>
      </trkpt>
      <trkpt lat="43.43105" lon="6.03658">
        <ele>335.39999389648</ele>
        <time>2015-11-11T13:46:11Z</time>
      </trkpt>
      <trkpt lat="43.43105" lon="6.03653">
        <ele>335.20001220703</ele>
        <time>2015-11-11T13:46:12Z</time>
      </trkpt>
      <trkpt lat="43.43104" lon="6.03644">
        <ele>335.39999389648</ele>
        <time>2015-11-11T13:46:14Z</time>
      </trkpt>
      <trkpt lat="43.43102" lon="6.03636">
        <ele>335.39999389648</ele>
        <time>2015-11-11T13:46:16Z</time>
      </trkpt>
      <trkpt lat="43.43102" lon="6.03627">
        <ele>335.39999389648</ele>
        <time>2015-11-11T13:46:18Z</time>
      </trkpt>
      <trkpt lat="43.43102" lon="6.03619">
        <ele>335.39999389648</ele>
        <time>2015-11-11T13:46:20Z</time>
      </trkpt>
      <trkpt lat="43.43103" lon="6.0361">
        <ele>335.60000610352</ele>
        <time>2015-11-11T13:46:22Z</time>
      </trkpt>
      <trkpt lat="43.43105" lon="6.03602">
        <ele>335.60000610352</ele>
        <time>2015-11-11T13:46:24Z</time>
      </trkpt>
      <trkpt lat="43.43106" lon="6.03595">
        <ele>336.20001220703</ele>
        <time>2015-11-11T13:46:26Z</time>
      </trkpt>
      <trkpt lat="43.43107" lon="6.03592">
        <ele>336.39999389648</ele>
        <time>2015-11-11T13:46:27Z</time>
      </trkpt>
      <trkpt lat="43.43107" lon="6.03588">
        <ele>336.79998779297</ele>
        <time>2015-11-11T13:46:28Z</time>
      </trkpt>
      <trkpt lat="43.43108" lon="6.03581">
        <ele>337.20001220703</ele>
        <time>2015-11-11T13:46:30Z</time>
      </trkpt>
      <trkpt lat="43.43108" lon="6.03572">
        <ele>337.39999389648</ele>
        <time>2015-11-11T13:46:32Z</time>
      </trkpt>
      <trkpt lat="43.43107" lon="6.03563">
        <ele>337.39999389648</ele>
        <time>2015-11-11T13:46:34Z</time>
      </trkpt>
      <trkpt lat="43.43106" lon="6.03559">
        <ele>337.60000610352</ele>
        <time>2015-11-11T13:46:35Z</time>
      </trkpt>
      <trkpt lat="43.43107" lon="6.03554">
        <ele>337.60000610352</ele>
        <time>2015-11-11T13:46:36Z</time>
      </trkpt>
      <trkpt lat="43.43107" lon="6.03546">
        <ele>337.79998779297</ele>
        <time>2015-11-11T13:46:38Z</time>
      </trkpt>
      <trkpt lat="43.43106" lon="6.03533">
        <ele>337.79998779297</ele>
        <time>2015-11-11T13:46:41Z</time>
      </trkpt>
      <trkpt lat="43.43107" lon="6.03529">
        <ele>337.79998779297</ele>
        <time>2015-11-11T13:46:42Z</time>
      </trkpt>
      <trkpt lat="43.43107" lon="6.03522">
        <ele>338.39999389648</ele>
        <time>2015-11-11T13:46:44Z</time>
      </trkpt>
      <trkpt lat="43.43108" lon="6.03518">
        <ele>339</ele>
        <time>2015-11-11T13:46:45Z</time>
      </trkpt>
      <trkpt lat="43.43108" lon="6.03514">
        <ele>339.20001220703</ele>
        <time>2015-11-11T13:46:46Z</time>
      </trkpt>
      <trkpt lat="43.43108" lon="6.0351">
        <ele>339</ele>
        <time>2015-11-11T13:46:47Z</time>
      </trkpt>
      <trkpt lat="43.43108" lon="6.03506">
        <ele>338.79998779297</ele>
        <time>2015-11-11T13:46:48Z</time>
      </trkpt>
      <trkpt lat="43.43109" lon="6.03499">
        <ele>339</ele>
        <time>2015-11-11T13:46:50Z</time>
      </trkpt>
      <trkpt lat="43.4311" lon="6.0349">
        <ele>339.79998779297</ele>
        <time>2015-11-11T13:46:52Z</time>
      </trkpt>
      <trkpt lat="43.43111" lon="6.03478">
        <ele>340.20001220703</ele>
        <time>2015-11-11T13:46:56Z</time>
      </trkpt>
      <trkpt lat="43.43112" lon="6.03471">
        <ele>340.39999389648</ele>
        <time>2015-11-11T13:46:58Z</time>
      </trkpt>
      <trkpt lat="43.43112" lon="6.03464">
        <ele>340.20001220703</ele>
        <time>2015-11-11T13:47:00Z</time>
      </trkpt>
      <trkpt lat="43.43112" lon="6.03456">
        <ele>340.60000610352</ele>
        <time>2015-11-11T13:47:02Z</time>
      </trkpt>
      <trkpt lat="43.43111" lon="6.03447">
        <ele>340.60000610352</ele>
        <time>2015-11-11T13:47:04Z</time>
      </trkpt>
      <trkpt lat="43.43112" lon="6.03439">
        <ele>341</ele>
        <time>2015-11-11T13:47:06Z</time>
      </trkpt>
      <trkpt lat="43.43114" lon="6.03422">
        <ele>341</ele>
        <time>2015-11-11T13:47:10Z</time>
      </trkpt>
      <trkpt lat="43.43115" lon="6.03414">
        <ele>340.79998779297</ele>
        <time>2015-11-11T13:47:12Z</time>
      </trkpt>
      <trkpt lat="43.43118" lon="6.0339">
        <ele>340.79998779297</ele>
        <time>2015-11-11T13:47:18Z</time>
      </trkpt>
      <trkpt lat="43.43118" lon="6.03386">
        <ele>340.79998779297</ele>
        <time>2015-11-11T13:47:19Z</time>
      </trkpt>
      <trkpt lat="43.43119" lon="6.03375">
        <ele>341.20001220703</ele>
        <time>2015-11-11T13:47:22Z</time>
      </trkpt>
      <trkpt lat="43.43119" lon="6.03367">
        <ele>341.39999389648</ele>
        <time>2015-11-11T13:47:24Z</time>
      </trkpt>
      <trkpt lat="43.4312" lon="6.03356">
        <ele>341.39999389648</ele>
        <time>2015-11-11T13:47:27Z</time>
      </trkpt>
      <trkpt lat="43.43121" lon="6.03353">
        <ele>341.60000610352</ele>
        <time>2015-11-11T13:47:28Z</time>
      </trkpt>
      <trkpt lat="43.43121" lon="6.03345">
        <ele>341.79998779297</ele>
        <time>2015-11-11T13:47:30Z</time>
      </trkpt>
      <trkpt lat="43.43122" lon="6.03336">
        <ele>342.20001220703</ele>
        <time>2015-11-11T13:47:33Z</time>
      </trkpt>
      <trkpt lat="43.43122" lon="6.03332">
        <ele>342.60000610352</ele>
        <time>2015-11-11T13:47:34Z</time>
      </trkpt>
      <trkpt lat="43.43123" lon="6.03326">
        <ele>342.60000610352</ele>
        <time>2015-11-11T13:47:36Z</time>
      </trkpt>
      <trkpt lat="43.43124" lon="6.03313">
        <ele>343.20001220703</ele>
        <time>2015-11-11T13:47:40Z</time>
      </trkpt>
      <trkpt lat="43.43124" lon="6.03307">
        <ele>343.60000610352</ele>
        <time>2015-11-11T13:47:42Z</time>
      </trkpt>
      <trkpt lat="43.43124" lon="6.03302">
        <ele>344</ele>
        <time>2015-11-11T13:47:44Z</time>
      </trkpt>
      <trkpt lat="43.43123" lon="6.03295">
        <ele>344.20001220703</ele>
        <time>2015-11-11T13:47:46Z</time>
      </trkpt>
      <trkpt lat="43.43124" lon="6.03289">
        <ele>344</ele>
        <time>2015-11-11T13:47:48Z</time>
      </trkpt>
      <trkpt lat="43.43124" lon="6.03282">
        <ele>344.20001220703</ele>
        <time>2015-11-11T13:47:50Z</time>
      </trkpt>
      <trkpt lat="43.43124" lon="6.03276">
        <ele>344.20001220703</ele>
        <time>2015-11-11T13:47:52Z</time>
      </trkpt>
      <trkpt lat="43.43125" lon="6.03269">
        <ele>344.60000610352</ele>
        <time>2015-11-11T13:47:54Z</time>
      </trkpt>
      <trkpt lat="43.43126" lon="6.03257">
        <ele>345</ele>
        <time>2015-11-11T13:47:58Z</time>
      </trkpt>
      <trkpt lat="43.43127" lon="6.03251">
        <ele>345</ele>
        <time>2015-11-11T13:48:00Z</time>
      </trkpt>
      <trkpt lat="43.43126" lon="6.03246">
        <ele>345.39999389648</ele>
        <time>2015-11-11T13:48:02Z</time>
      </trkpt>
      <trkpt lat="43.43127" lon="6.03241">
        <ele>345.39999389648</ele>
        <time>2015-11-11T13:48:04Z</time>
      </trkpt>
      <trkpt lat="43.43127" lon="6.03238">
        <ele>345.20001220703</ele>
        <time>2015-11-11T13:48:05Z</time>
      </trkpt>
      <trkpt lat="43.43127" lon="6.03235">
        <ele>345.39999389648</ele>
        <time>2015-11-11T13:48:06Z</time>
      </trkpt>
      <trkpt lat="43.43128" lon="6.03229">
        <ele>345.20001220703</ele>
        <time>2015-11-11T13:48:08Z</time>
      </trkpt>
      <trkpt lat="43.43129" lon="6.03222">
        <ele>345</ele>
        <time>2015-11-11T13:48:10Z</time>
      </trkpt>
      <trkpt lat="43.43129" lon="6.03214">
        <ele>344.60000610352</ele>
        <time>2015-11-11T13:48:12Z</time>
      </trkpt>
      <trkpt lat="43.43129" lon="6.03203">
        <ele>343</ele>
        <time>2015-11-11T13:48:14Z</time>
      </trkpt>
      <trkpt lat="43.4313" lon="6.03197">
        <ele>342</ele>
        <time>2015-11-11T13:48:15Z</time>
      </trkpt>
      <trkpt lat="43.4313" lon="6.03191">
        <ele>341</ele>
        <time>2015-11-11T13:48:16Z</time>
      </trkpt>
      <trkpt lat="43.4313" lon="6.03178">
        <ele>339.20001220703</ele>
        <time>2015-11-11T13:48:18Z</time>
      </trkpt>
      <trkpt lat="43.4313" lon="6.03171">
        <ele>338.60000610352</ele>
        <time>2015-11-11T13:48:19Z</time>
      </trkpt>
      <trkpt lat="43.4313" lon="6.03165">
        <ele>337.60000610352</ele>
        <time>2015-11-11T13:48:20Z</time>
      </trkpt>
      <trkpt lat="43.43126" lon="6.0316">
        <ele>337.20001220703</ele>
        <time>2015-11-11T13:48:22Z</time>
      </trkpt>
      <trkpt lat="43.43124" lon="6.03159">
        <ele>337.60000610352</ele>
        <time>2015-11-11T13:48:24Z</time>
      </trkpt>
      <trkpt lat="43.43124" lon="6.03159">
        <ele>337.60000610352</ele>
        <time>2015-11-11T13:48:26Z</time>
      </trkpt>
      <trkpt lat="43.43124" lon="6.03159">
        <ele>337.79998779297</ele>
        <time>2015-11-11T13:48:28Z</time>
      </trkpt>
      <trkpt lat="43.43124" lon="6.03159">
        <ele>337.79998779297</ele>
        <time>2015-11-11T13:48:34Z</time>
      </trkpt>
      <trkpt lat="43.43124" lon="6.03159">
        <ele>338</ele>
        <time>2015-11-11T13:49:10Z</time>
      </trkpt>
      <trkpt lat="43.43124" lon="6.03159">
        <ele>337.60000610352</ele>
        <time>2015-11-11T13:49:14Z</time>
      </trkpt>
      <trkpt lat="43.43124" lon="6.03159">
        <ele>337.60000610352</ele>
        <time>2015-11-11T13:49:15Z</time>
      </trkpt>
      <trkpt lat="43.43124" lon="6.03159">
        <ele>337.79998779297</ele>
        <time>2015-11-11T13:49:18Z</time>
      </trkpt>
      <trkpt lat="43.43124" lon="6.03159">
        <ele>337.79998779297</ele>
        <time>2015-11-11T13:49:20Z</time>
      </trkpt>
      <trkpt lat="43.4312" lon="6.0316">
        <ele>337.79998779297</ele>
        <time>2015-11-11T13:49:22Z</time>
      </trkpt>
      <trkpt lat="43.43116" lon="6.03161">
        <ele>338</ele>
        <time>2015-11-11T13:49:24Z</time>
      </trkpt>
      <trkpt lat="43.43111" lon="6.03161">
        <ele>338.39999389648</ele>
        <time>2015-11-11T13:49:27Z</time>
      </trkpt>
      <trkpt lat="43.43108" lon="6.03162">
        <ele>338.60000610352</ele>
        <time>2015-11-11T13:49:28Z</time>
      </trkpt>
      <trkpt lat="43.43104" lon="6.03162">
        <ele>338.60000610352</ele>
        <time>2015-11-11T13:49:30Z</time>
      </trkpt>
      <trkpt lat="43.431" lon="6.03166">
        <ele>338.79998779297</ele>
        <time>2015-11-11T13:49:32Z</time>
      </trkpt>
      <trkpt lat="43.43096" lon="6.03169">
        <ele>339</ele>
        <time>2015-11-11T13:49:34Z</time>
      </trkpt>
      <trkpt lat="43.43092" lon="6.03169">
        <ele>339.39999389648</ele>
        <time>2015-11-11T13:49:36Z</time>
      </trkpt>
      <trkpt lat="43.43088" lon="6.0317">
        <ele>339.39999389648</ele>
        <time>2015-11-11T13:49:38Z</time>
      </trkpt>
      <trkpt lat="43.43082" lon="6.0317">
        <ele>339.79998779297</ele>
        <time>2015-11-11T13:49:41Z</time>
      </trkpt>
      <trkpt lat="43.4308" lon="6.03171">
        <ele>340</ele>
        <time>2015-11-11T13:49:42Z</time>
      </trkpt>
      <trkpt lat="43.43077" lon="6.03173">
        <ele>340</ele>
        <time>2015-11-11T13:49:44Z</time>
      </trkpt>
      <trkpt lat="43.43074" lon="6.03177">
        <ele>340.39999389648</ele>
        <time>2015-11-11T13:49:47Z</time>
      </trkpt>
      <trkpt lat="43.43073" lon="6.03177">
        <ele>340.20001220703</ele>
        <time>2015-11-11T13:49:48Z</time>
      </trkpt>
      <trkpt lat="43.43069" lon="6.03179">
        <ele>341</ele>
        <time>2015-11-11T13:49:51Z</time>
      </trkpt>
      <trkpt lat="43.43068" lon="6.03179">
        <ele>341.20001220703</ele>
        <time>2015-11-11T13:49:52Z</time>
      </trkpt>
      <trkpt lat="43.43066" lon="6.0318">
        <ele>341.79998779297</ele>
        <time>2015-11-11T13:49:54Z</time>
      </trkpt>
      <trkpt lat="43.43064" lon="6.0318">
        <ele>341.79998779297</ele>
        <time>2015-11-11T13:49:55Z</time>
      </trkpt>
      <trkpt lat="43.43063" lon="6.0318">
        <ele>342.20001220703</ele>
        <time>2015-11-11T13:49:56Z</time>
      </trkpt>
      <trkpt lat="43.43061" lon="6.0318">
        <ele>342.60000610352</ele>
        <time>2015-11-11T13:49:58Z</time>
      </trkpt>
      <trkpt lat="43.43059" lon="6.03179">
        <ele>342.60000610352</ele>
        <time>2015-11-11T13:49:59Z</time>
      </trkpt>
      <trkpt lat="43.43058" lon="6.03179">
        <ele>342.79998779297</ele>
        <time>2015-11-11T13:50:00Z</time>
      </trkpt>
      <trkpt lat="43.43055" lon="6.03178">
        <ele>342.79998779297</ele>
        <time>2015-11-11T13:50:02Z</time>
      </trkpt>
      <trkpt lat="43.43049" lon="6.03176">
        <ele>343.39999389648</ele>
        <time>2015-11-11T13:50:06Z</time>
      </trkpt>
      <trkpt lat="43.43046" lon="6.03175">
        <ele>343.79998779297</ele>
        <time>2015-11-11T13:50:08Z</time>
      </trkpt>
      <trkpt lat="43.43043" lon="6.03175">
        <ele>343.79998779297</ele>
        <time>2015-11-11T13:50:10Z</time>
      </trkpt>
      <trkpt lat="43.4304" lon="6.03175">
        <ele>344.39999389648</ele>
        <time>2015-11-11T13:50:12Z</time>
      </trkpt>
      <trkpt lat="43.43037" lon="6.03175">
        <ele>344.79998779297</ele>
        <time>2015-11-11T13:50:14Z</time>
      </trkpt>
      <trkpt lat="43.43034" lon="6.03176">
        <ele>345</ele>
        <time>2015-11-11T13:50:16Z</time>
      </trkpt>
      <trkpt lat="43.43032" lon="6.03176">
        <ele>345.20001220703</ele>
        <time>2015-11-11T13:50:17Z</time>
      </trkpt>
      <trkpt lat="43.43027" lon="6.03175">
        <ele>345.20001220703</ele>
        <time>2015-11-11T13:50:20Z</time>
      </trkpt>
      <trkpt lat="43.43026" lon="6.03176">
        <ele>345.39999389648</ele>
        <time>2015-11-11T13:50:21Z</time>
      </trkpt>
      <trkpt lat="43.43024" lon="6.03175">
        <ele>345.60000610352</ele>
        <time>2015-11-11T13:50:22Z</time>
      </trkpt>
      <trkpt lat="43.43022" lon="6.03175">
        <ele>345.79998779297</ele>
        <time>2015-11-11T13:50:24Z</time>
      </trkpt>
      <trkpt lat="43.4302" lon="6.03175">
        <ele>346.20001220703</ele>
        <time>2015-11-11T13:50:26Z</time>
      </trkpt>
      <trkpt lat="43.43015" lon="6.03173">
        <ele>346.39999389648</ele>
        <time>2015-11-11T13:50:29Z</time>
      </trkpt>
      <trkpt lat="43.43014" lon="6.03173">
        <ele>346.39999389648</ele>
        <time>2015-11-11T13:50:30Z</time>
      </trkpt>
      <trkpt lat="43.43011" lon="6.03172">
        <ele>346.60000610352</ele>
        <time>2015-11-11T13:50:32Z</time>
      </trkpt>
      <trkpt lat="43.4301" lon="6.03171">
        <ele>346.60000610352</ele>
        <time>2015-11-11T13:50:34Z</time>
      </trkpt>
      <trkpt lat="43.43008" lon="6.0317">
        <ele>346.60000610352</ele>
        <time>2015-11-11T13:50:36Z</time>
      </trkpt>
      <trkpt lat="43.43008" lon="6.03169">
        <ele>346.79998779297</ele>
        <time>2015-11-11T13:50:37Z</time>
      </trkpt>
      <trkpt lat="43.43007" lon="6.03168">
        <ele>346.79998779297</ele>
        <time>2015-11-11T13:50:38Z</time>
      </trkpt>
      <trkpt lat="43.43006" lon="6.03168">
        <ele>347.20001220703</ele>
        <time>2015-11-11T13:50:39Z</time>
      </trkpt>
      <trkpt lat="43.43005" lon="6.03167">
        <ele>347.20001220703</ele>
        <time>2015-11-11T13:50:40Z</time>
      </trkpt>
      <trkpt lat="43.43002" lon="6.03165">
        <ele>347.39999389648</ele>
        <time>2015-11-11T13:50:42Z</time>
      </trkpt>
      <trkpt lat="43.43002" lon="6.03164">
        <ele>347.39999389648</ele>
        <time>2015-11-11T13:50:43Z</time>
      </trkpt>
      <trkpt lat="43.42999" lon="6.03163">
        <ele>347.79998779297</ele>
        <time>2015-11-11T13:50:45Z</time>
      </trkpt>
      <trkpt lat="43.42997" lon="6.03163">
        <ele>348</ele>
        <time>2015-11-11T13:50:47Z</time>
      </trkpt>
      <trkpt lat="43.42996" lon="6.03162">
        <ele>348</ele>
        <time>2015-11-11T13:50:48Z</time>
      </trkpt>
      <trkpt lat="43.42994" lon="6.03161">
        <ele>348</ele>
        <time>2015-11-11T13:50:50Z</time>
      </trkpt>
      <trkpt lat="43.4299" lon="6.03161">
        <ele>348.20001220703</ele>
        <time>2015-11-11T13:50:52Z</time>
      </trkpt>
      <trkpt lat="43.42989" lon="6.03161">
        <ele>348.60000610352</ele>
        <time>2015-11-11T13:50:54Z</time>
      </trkpt>
      <trkpt lat="43.42987" lon="6.0316">
        <ele>348.79998779297</ele>
        <time>2015-11-11T13:50:55Z</time>
      </trkpt>
      <trkpt lat="43.42986" lon="6.0316">
        <ele>348.60000610352</ele>
        <time>2015-11-11T13:50:56Z</time>
      </trkpt>
      <trkpt lat="43.42982" lon="6.03159">
        <ele>348.60000610352</ele>
        <time>2015-11-11T13:50:58Z</time>
      </trkpt>
      <trkpt lat="43.4298" lon="6.03158">
        <ele>349</ele>
        <time>2015-11-11T13:51:00Z</time>
      </trkpt>
      <trkpt lat="43.42978" lon="6.03158">
        <ele>349</ele>
        <time>2015-11-11T13:51:01Z</time>
      </trkpt>
      <trkpt lat="43.42978" lon="6.03157">
        <ele>349.20001220703</ele>
        <time>2015-11-11T13:51:02Z</time>
      </trkpt>
      <trkpt lat="43.42975" lon="6.03155">
        <ele>349.60000610352</ele>
        <time>2015-11-11T13:51:04Z</time>
      </trkpt>
      <trkpt lat="43.42973" lon="6.03155">
        <ele>349.60000610352</ele>
        <time>2015-11-11T13:51:06Z</time>
      </trkpt>
      <trkpt lat="43.42969" lon="6.03155">
        <ele>349.60000610352</ele>
        <time>2015-11-11T13:51:08Z</time>
      </trkpt>
      <trkpt lat="43.42967" lon="6.03154">
        <ele>350</ele>
        <time>2015-11-11T13:51:10Z</time>
      </trkpt>
      <trkpt lat="43.42965" lon="6.03153">
        <ele>350.20001220703</ele>
        <time>2015-11-11T13:51:12Z</time>
      </trkpt>
      <trkpt lat="43.42963" lon="6.03153">
        <ele>350.20001220703</ele>
        <time>2015-11-11T13:51:13Z</time>
      </trkpt>
      <trkpt lat="43.42962" lon="6.03152">
        <ele>350.20001220703</ele>
        <time>2015-11-11T13:51:14Z</time>
      </trkpt>
      <trkpt lat="43.42959" lon="6.03151">
        <ele>350.39999389648</ele>
        <time>2015-11-11T13:51:16Z</time>
      </trkpt>
      <trkpt lat="43.42957" lon="6.0315">
        <ele>350.79998779297</ele>
        <time>2015-11-11T13:51:18Z</time>
      </trkpt>
      <trkpt lat="43.42955" lon="6.0315">
        <ele>351</ele>
        <time>2015-11-11T13:51:19Z</time>
      </trkpt>
      <trkpt lat="43.42954" lon="6.03149">
        <ele>351</ele>
        <time>2015-11-11T13:51:20Z</time>
      </trkpt>
      <trkpt lat="43.42952" lon="6.03148">
        <ele>351.20001220703</ele>
        <time>2015-11-11T13:51:22Z</time>
      </trkpt>
      <trkpt lat="43.4295" lon="6.03147">
        <ele>351.20001220703</ele>
        <time>2015-11-11T13:51:23Z</time>
      </trkpt>
      <trkpt lat="43.42949" lon="6.03146">
        <ele>351.39999389648</ele>
        <time>2015-11-11T13:51:24Z</time>
      </trkpt>
      <trkpt lat="43.42946" lon="6.03144">
        <ele>351.39999389648</ele>
        <time>2015-11-11T13:51:26Z</time>
      </trkpt>
      <trkpt lat="43.42945" lon="6.03144">
        <ele>351.39999389648</ele>
        <time>2015-11-11T13:51:27Z</time>
      </trkpt>
      <trkpt lat="43.42944" lon="6.03143">
        <ele>351.60000610352</ele>
        <time>2015-11-11T13:51:28Z</time>
      </trkpt>
      <trkpt lat="43.42943" lon="6.03141">
        <ele>351.60000610352</ele>
        <time>2015-11-11T13:51:29Z</time>
      </trkpt>
      <trkpt lat="43.42942" lon="6.0314">
        <ele>351.79998779297</ele>
        <time>2015-11-11T13:51:30Z</time>
      </trkpt>
      <trkpt lat="43.42936" lon="6.03137">
        <ele>352.60000610352</ele>
        <time>2015-11-11T13:51:34Z</time>
      </trkpt>
      <trkpt lat="43.42934" lon="6.03136">
        <ele>352.79998779297</ele>
        <time>2015-11-11T13:51:36Z</time>
      </trkpt>
      <trkpt lat="43.42931" lon="6.03135">
        <ele>353.20001220703</ele>
        <time>2015-11-11T13:51:38Z</time>
      </trkpt>
      <trkpt lat="43.42929" lon="6.03134">
        <ele>353.39999389648</ele>
        <time>2015-11-11T13:51:40Z</time>
      </trkpt>
      <trkpt lat="43.42926" lon="6.03132">
        <ele>353.60000610352</ele>
        <time>2015-11-11T13:51:42Z</time>
      </trkpt>
      <trkpt lat="43.42923" lon="6.03131">
        <ele>353.79998779297</ele>
        <time>2015-11-11T13:51:44Z</time>
      </trkpt>
      <trkpt lat="43.42922" lon="6.03131">
        <ele>354</ele>
        <time>2015-11-11T13:51:45Z</time>
      </trkpt>
      <trkpt lat="43.42921" lon="6.0313">
        <ele>354.20001220703</ele>
        <time>2015-11-11T13:51:46Z</time>
      </trkpt>
      <trkpt lat="43.42912" lon="6.03127">
        <ele>354.60000610352</ele>
        <time>2015-11-11T13:51:52Z</time>
      </trkpt>
      <trkpt lat="43.4291" lon="6.03125">
        <ele>355.20001220703</ele>
        <time>2015-11-11T13:51:54Z</time>
      </trkpt>
      <trkpt lat="43.42907" lon="6.03123">
        <ele>355.39999389648</ele>
        <time>2015-11-11T13:51:56Z</time>
      </trkpt>
      <trkpt lat="43.42905" lon="6.03123">
        <ele>355.79998779297</ele>
        <time>2015-11-11T13:51:58Z</time>
      </trkpt>
      <trkpt lat="43.429" lon="6.0312">
        <ele>356.60000610352</ele>
        <time>2015-11-11T13:52:02Z</time>
      </trkpt>
      <trkpt lat="43.42898" lon="6.03119">
        <ele>356.79998779297</ele>
        <time>2015-11-11T13:52:04Z</time>
      </trkpt>
      <trkpt lat="43.42895" lon="6.03118">
        <ele>356.79998779297</ele>
        <time>2015-11-11T13:52:06Z</time>
      </trkpt>
      <trkpt lat="43.42893" lon="6.03117">
        <ele>356.79998779297</ele>
        <time>2015-11-11T13:52:08Z</time>
      </trkpt>
      <trkpt lat="43.4289" lon="6.03116">
        <ele>357</ele>
        <time>2015-11-11T13:52:10Z</time>
      </trkpt>
      <trkpt lat="43.42887" lon="6.03116">
        <ele>357</ele>
        <time>2015-11-11T13:52:12Z</time>
      </trkpt>
      <trkpt lat="43.42884" lon="6.03117">
        <ele>357</ele>
        <time>2015-11-11T13:52:14Z</time>
      </trkpt>
      <trkpt lat="43.42881" lon="6.03118">
        <ele>357.39999389648</ele>
        <time>2015-11-11T13:52:16Z</time>
      </trkpt>
      <trkpt lat="43.42878" lon="6.03119">
        <ele>357.39999389648</ele>
        <time>2015-11-11T13:52:18Z</time>
      </trkpt>
      <trkpt lat="43.42875" lon="6.03119">
        <ele>357.60000610352</ele>
        <time>2015-11-11T13:52:20Z</time>
      </trkpt>
      <trkpt lat="43.42874" lon="6.0312">
        <ele>357.79998779297</ele>
        <time>2015-11-11T13:52:21Z</time>
      </trkpt>
      <trkpt lat="43.42873" lon="6.03122">
        <ele>357.79998779297</ele>
        <time>2015-11-11T13:52:22Z</time>
      </trkpt>
      <trkpt lat="43.4287" lon="6.03122">
        <ele>358</ele>
        <time>2015-11-11T13:52:24Z</time>
      </trkpt>
      <trkpt lat="43.42869" lon="6.03122">
        <ele>358</ele>
        <time>2015-11-11T13:52:25Z</time>
      </trkpt>
      <trkpt lat="43.42867" lon="6.03122">
        <ele>358.20001220703</ele>
        <time>2015-11-11T13:52:26Z</time>
      </trkpt>
      <trkpt lat="43.42864" lon="6.03121">
        <ele>358.20001220703</ele>
        <time>2015-11-11T13:52:28Z</time>
      </trkpt>
      <trkpt lat="43.42863" lon="6.03121">
        <ele>358.39999389648</ele>
        <time>2015-11-11T13:52:29Z</time>
      </trkpt>
      <trkpt lat="43.42862" lon="6.0312">
        <ele>358.39999389648</ele>
        <time>2015-11-11T13:52:30Z</time>
      </trkpt>
      <trkpt lat="43.42859" lon="6.0312">
        <ele>358.60000610352</ele>
        <time>2015-11-11T13:52:32Z</time>
      </trkpt>
      <trkpt lat="43.42855" lon="6.0312">
        <ele>358.60000610352</ele>
        <time>2015-11-11T13:52:34Z</time>
      </trkpt>
      <trkpt lat="43.42852" lon="6.0312">
        <ele>358.79998779297</ele>
        <time>2015-11-11T13:52:36Z</time>
      </trkpt>
      <trkpt lat="43.42849" lon="6.0312">
        <ele>358.79998779297</ele>
        <time>2015-11-11T13:52:38Z</time>
      </trkpt>
      <trkpt lat="43.42846" lon="6.0312">
        <ele>358.79998779297</ele>
        <time>2015-11-11T13:52:40Z</time>
      </trkpt>
      <trkpt lat="43.42842" lon="6.0312">
        <ele>359</ele>
        <time>2015-11-11T13:52:42Z</time>
      </trkpt>
      <trkpt lat="43.42841" lon="6.03121">
        <ele>359</ele>
        <time>2015-11-11T13:52:43Z</time>
      </trkpt>
      <trkpt lat="43.42839" lon="6.03122">
        <ele>359.20001220703</ele>
        <time>2015-11-11T13:52:44Z</time>
      </trkpt>
      <trkpt lat="43.42837" lon="6.03123">
        <ele>359.39999389648</ele>
        <time>2015-11-11T13:52:46Z</time>
      </trkpt>
      <trkpt lat="43.42836" lon="6.03123">
        <ele>359.60000610352</ele>
        <time>2015-11-11T13:52:47Z</time>
      </trkpt>
      <trkpt lat="43.42834" lon="6.03124">
        <ele>359.60000610352</ele>
        <time>2015-11-11T13:52:48Z</time>
      </trkpt>
      <trkpt lat="43.4283" lon="6.03129">
        <ele>360.20001220703</ele>
        <time>2015-11-11T13:52:52Z</time>
      </trkpt>
      <trkpt lat="43.42828" lon="6.0313">
        <ele>360.39999389648</ele>
        <time>2015-11-11T13:52:53Z</time>
      </trkpt>
      <trkpt lat="43.42827" lon="6.03132">
        <ele>360.39999389648</ele>
        <time>2015-11-11T13:52:54Z</time>
      </trkpt>
      <trkpt lat="43.42825" lon="6.03135">
        <ele>360.20001220703</ele>
        <time>2015-11-11T13:52:56Z</time>
      </trkpt>
      <trkpt lat="43.42823" lon="6.03137">
        <ele>360.39999389648</ele>
        <time>2015-11-11T13:52:58Z</time>
      </trkpt>
      <trkpt lat="43.4282" lon="6.03139">
        <ele>360.39999389648</ele>
        <time>2015-11-11T13:53:00Z</time>
      </trkpt>
      <trkpt lat="43.42817" lon="6.03141">
        <ele>360.60000610352</ele>
        <time>2015-11-11T13:53:02Z</time>
      </trkpt>
      <trkpt lat="43.42815" lon="6.03143">
        <ele>361</ele>
        <time>2015-11-11T13:53:04Z</time>
      </trkpt>
      <trkpt lat="43.4281" lon="6.03146">
        <ele>360.79998779297</ele>
        <time>2015-11-11T13:53:08Z</time>
      </trkpt>
      <trkpt lat="43.42807" lon="6.03149">
        <ele>361.39999389648</ele>
        <time>2015-11-11T13:53:11Z</time>
      </trkpt>
      <trkpt lat="43.42805" lon="6.0315">
        <ele>361.60000610352</ele>
        <time>2015-11-11T13:53:12Z</time>
      </trkpt>
      <trkpt lat="43.42802" lon="6.03152">
        <ele>362</ele>
        <time>2015-11-11T13:53:15Z</time>
      </trkpt>
      <trkpt lat="43.42797" lon="6.03154">
        <ele>362.20001220703</ele>
        <time>2015-11-11T13:53:18Z</time>
      </trkpt>
      <trkpt lat="43.42794" lon="6.03155">
        <ele>362.60000610352</ele>
        <time>2015-11-11T13:53:20Z</time>
      </trkpt>
      <trkpt lat="43.42793" lon="6.03156">
        <ele>363</ele>
        <time>2015-11-11T13:53:21Z</time>
      </trkpt>
      <trkpt lat="43.42791" lon="6.03157">
        <ele>363</ele>
        <time>2015-11-11T13:53:22Z</time>
      </trkpt>
      <trkpt lat="43.42788" lon="6.03159">
        <ele>363.20001220703</ele>
        <time>2015-11-11T13:53:24Z</time>
      </trkpt>
      <trkpt lat="43.42785" lon="6.03161">
        <ele>363.39999389648</ele>
        <time>2015-11-11T13:53:26Z</time>
      </trkpt>
      <trkpt lat="43.42783" lon="6.03163">
        <ele>363.79998779297</ele>
        <time>2015-11-11T13:53:28Z</time>
      </trkpt>
      <trkpt lat="43.42781" lon="6.03164">
        <ele>363.60000610352</ele>
        <time>2015-11-11T13:53:29Z</time>
      </trkpt>
      <trkpt lat="43.42781" lon="6.03165">
        <ele>363.79998779297</ele>
        <time>2015-11-11T13:53:30Z</time>
      </trkpt>
      <trkpt lat="43.42779" lon="6.03166">
        <ele>364</ele>
        <time>2015-11-11T13:53:31Z</time>
      </trkpt>
      <trkpt lat="43.42778" lon="6.03167">
        <ele>364.20001220703</ele>
        <time>2015-11-11T13:53:32Z</time>
      </trkpt>
      <trkpt lat="43.42772" lon="6.03169">
        <ele>365</ele>
        <time>2015-11-11T13:53:36Z</time>
      </trkpt>
      <trkpt lat="43.42765" lon="6.03171">
        <ele>365.20001220703</ele>
        <time>2015-11-11T13:53:40Z</time>
      </trkpt>
      <trkpt lat="43.42762" lon="6.03173">
        <ele>365.20001220703</ele>
        <time>2015-11-11T13:53:42Z</time>
      </trkpt>
      <trkpt lat="43.42759" lon="6.03175">
        <ele>365.20001220703</ele>
        <time>2015-11-11T13:53:44Z</time>
      </trkpt>
      <trkpt lat="43.42752" lon="6.03176">
        <ele>365.60000610352</ele>
        <time>2015-11-11T13:53:48Z</time>
      </trkpt>
      <trkpt lat="43.42749" lon="6.03175">
        <ele>365.60000610352</ele>
        <time>2015-11-11T13:53:50Z</time>
      </trkpt>
      <trkpt lat="43.42746" lon="6.03174">
        <ele>365.79998779297</ele>
        <time>2015-11-11T13:53:52Z</time>
      </trkpt>
      <trkpt lat="43.42739" lon="6.03171">
        <ele>366</ele>
        <time>2015-11-11T13:53:56Z</time>
      </trkpt>
      <trkpt lat="43.42736" lon="6.03171">
        <ele>366</ele>
        <time>2015-11-11T13:53:58Z</time>
      </trkpt>
      <trkpt lat="43.42734" lon="6.03171">
        <ele>366.20001220703</ele>
        <time>2015-11-11T13:53:59Z</time>
      </trkpt>
      <trkpt lat="43.42733" lon="6.03171">
        <ele>366.20001220703</ele>
        <time>2015-11-11T13:54:00Z</time>
      </trkpt>
      <trkpt lat="43.4273" lon="6.03171">
        <ele>366.39999389648</ele>
        <time>2015-11-11T13:54:02Z</time>
      </trkpt>
      <trkpt lat="43.42728" lon="6.03172">
        <ele>366.79998779297</ele>
        <time>2015-11-11T13:54:03Z</time>
      </trkpt>
      <trkpt lat="43.42723" lon="6.03173">
        <ele>367</ele>
        <time>2015-11-11T13:54:06Z</time>
      </trkpt>
      <trkpt lat="43.4272" lon="6.03174">
        <ele>367.20001220703</ele>
        <time>2015-11-11T13:54:08Z</time>
      </trkpt>
      <trkpt lat="43.42717" lon="6.03174">
        <ele>367.20001220703</ele>
        <time>2015-11-11T13:54:10Z</time>
      </trkpt>
      <trkpt lat="43.42714" lon="6.03174">
        <ele>367.20001220703</ele>
        <time>2015-11-11T13:54:12Z</time>
      </trkpt>
      <trkpt lat="43.4271" lon="6.03173">
        <ele>367.39999389648</ele>
        <time>2015-11-11T13:54:14Z</time>
      </trkpt>
      <trkpt lat="43.42708" lon="6.03172">
        <ele>367.60000610352</ele>
        <time>2015-11-11T13:54:15Z</time>
      </trkpt>
      <trkpt lat="43.42707" lon="6.03171">
        <ele>367.79998779297</ele>
        <time>2015-11-11T13:54:16Z</time>
      </trkpt>
      <trkpt lat="43.42705" lon="6.0317">
        <ele>367.79998779297</ele>
        <time>2015-11-11T13:54:17Z</time>
      </trkpt>
      <trkpt lat="43.42704" lon="6.03168">
        <ele>367.79998779297</ele>
        <time>2015-11-11T13:54:18Z</time>
      </trkpt>
      <trkpt lat="43.42699" lon="6.03163">
        <ele>368</ele>
        <time>2015-11-11T13:54:21Z</time>
      </trkpt>
      <trkpt lat="43.42698" lon="6.03162">
        <ele>368.20001220703</ele>
        <time>2015-11-11T13:54:22Z</time>
      </trkpt>
      <trkpt lat="43.42696" lon="6.03158">
        <ele>368.20001220703</ele>
        <time>2015-11-11T13:54:24Z</time>
      </trkpt>
      <trkpt lat="43.42693" lon="6.03154">
        <ele>368.39999389648</ele>
        <time>2015-11-11T13:54:26Z</time>
      </trkpt>
      <trkpt lat="43.4269" lon="6.03151">
        <ele>368.20001220703</ele>
        <time>2015-11-11T13:54:28Z</time>
      </trkpt>
      <trkpt lat="43.42687" lon="6.03147">
        <ele>368.39999389648</ele>
        <time>2015-11-11T13:54:30Z</time>
      </trkpt>
      <trkpt lat="43.42684" lon="6.03145">
        <ele>368.39999389648</ele>
        <time>2015-11-11T13:54:32Z</time>
      </trkpt>
      <trkpt lat="43.42681" lon="6.03144">
        <ele>369</ele>
        <time>2015-11-11T13:54:34Z</time>
      </trkpt>
      <trkpt lat="43.42679" lon="6.03143">
        <ele>369.20001220703</ele>
        <time>2015-11-11T13:54:35Z</time>
      </trkpt>
      <trkpt lat="43.42677" lon="6.03144">
        <ele>369</ele>
        <time>2015-11-11T13:54:36Z</time>
      </trkpt>
      <trkpt lat="43.42673" lon="6.03145">
        <ele>369.20001220703</ele>
        <time>2015-11-11T13:54:38Z</time>
      </trkpt>
      <trkpt lat="43.4267" lon="6.03146">
        <ele>369.60000610352</ele>
        <time>2015-11-11T13:54:40Z</time>
      </trkpt>
      <trkpt lat="43.42666" lon="6.03149">
        <ele>369.79998779297</ele>
        <time>2015-11-11T13:54:42Z</time>
      </trkpt>
      <trkpt lat="43.42662" lon="6.03152">
        <ele>370</ele>
        <time>2015-11-11T13:54:45Z</time>
      </trkpt>
      <trkpt lat="43.42661" lon="6.03154">
        <ele>370</ele>
        <time>2015-11-11T13:54:46Z</time>
      </trkpt>
      <trkpt lat="43.42658" lon="6.03157">
        <ele>370</ele>
        <time>2015-11-11T13:54:48Z</time>
      </trkpt>
      <trkpt lat="43.42656" lon="6.0316">
        <ele>370.39999389648</ele>
        <time>2015-11-11T13:54:50Z</time>
      </trkpt>
      <trkpt lat="43.42655" lon="6.03163">
        <ele>370.39999389648</ele>
        <time>2015-11-11T13:54:51Z</time>
      </trkpt>
      <trkpt lat="43.42655" lon="6.03166">
        <ele>370.60000610352</ele>
        <time>2015-11-11T13:54:52Z</time>
      </trkpt>
      <trkpt lat="43.42655" lon="6.0317">
        <ele>370.79998779297</ele>
        <time>2015-11-11T13:54:54Z</time>
      </trkpt>
      <trkpt lat="43.42653" lon="6.03174">
        <ele>371</ele>
        <time>2015-11-11T13:54:56Z</time>
      </trkpt>
      <trkpt lat="43.42651" lon="6.03178">
        <ele>371.20001220703</ele>
        <time>2015-11-11T13:54:58Z</time>
      </trkpt>
      <trkpt lat="43.42647" lon="6.03179">
        <ele>371.60000610352</ele>
        <time>2015-11-11T13:55:00Z</time>
      </trkpt>
      <trkpt lat="43.42643" lon="6.0318">
        <ele>371.79998779297</ele>
        <time>2015-11-11T13:55:02Z</time>
      </trkpt>
      <trkpt lat="43.42639" lon="6.0318">
        <ele>372</ele>
        <time>2015-11-11T13:55:04Z</time>
      </trkpt>
      <trkpt lat="43.42634" lon="6.03181">
        <ele>372.20001220703</ele>
        <time>2015-11-11T13:55:07Z</time>
      </trkpt>
      <trkpt lat="43.42629" lon="6.03182">
        <ele>372.60000610352</ele>
        <time>2015-11-11T13:55:10Z</time>
      </trkpt>
      <trkpt lat="43.42627" lon="6.03182">
        <ele>372.79998779297</ele>
        <time>2015-11-11T13:55:11Z</time>
      </trkpt>
      <trkpt lat="43.42625" lon="6.03182">
        <ele>372.79998779297</ele>
        <time>2015-11-11T13:55:12Z</time>
      </trkpt>
      <trkpt lat="43.42619" lon="6.03184">
        <ele>373.20001220703</ele>
        <time>2015-11-11T13:55:16Z</time>
      </trkpt>
      <trkpt lat="43.42615" lon="6.03185">
        <ele>373.39999389648</ele>
        <time>2015-11-11T13:55:18Z</time>
      </trkpt>
      <trkpt lat="43.42612" lon="6.03186">
        <ele>374</ele>
        <time>2015-11-11T13:55:20Z</time>
      </trkpt>
      <trkpt lat="43.42609" lon="6.03186">
        <ele>374.20001220703</ele>
        <time>2015-11-11T13:55:22Z</time>
      </trkpt>
      <trkpt lat="43.42608" lon="6.03187">
        <ele>374.20001220703</ele>
        <time>2015-11-11T13:55:23Z</time>
      </trkpt>
      <trkpt lat="43.42606" lon="6.03186">
        <ele>374.39999389648</ele>
        <time>2015-11-11T13:55:24Z</time>
      </trkpt>
      <trkpt lat="43.42603" lon="6.03185">
        <ele>375</ele>
        <time>2015-11-11T13:55:26Z</time>
      </trkpt>
      <trkpt lat="43.42599" lon="6.03185">
        <ele>375</ele>
        <time>2015-11-11T13:55:28Z</time>
      </trkpt>
      <trkpt lat="43.42593" lon="6.03186">
        <ele>375.39999389648</ele>
        <time>2015-11-11T13:55:32Z</time>
      </trkpt>
      <trkpt lat="43.42589" lon="6.03187">
        <ele>375.39999389648</ele>
        <time>2015-11-11T13:55:34Z</time>
      </trkpt>
      <trkpt lat="43.42584" lon="6.03187">
        <ele>375.60000610352</ele>
        <time>2015-11-11T13:55:37Z</time>
      </trkpt>
      <trkpt lat="43.42582" lon="6.03187">
        <ele>375.79998779297</ele>
        <time>2015-11-11T13:55:38Z</time>
      </trkpt>
      <trkpt lat="43.42579" lon="6.03187">
        <ele>376.39999389648</ele>
        <time>2015-11-11T13:55:40Z</time>
      </trkpt>
      <trkpt lat="43.42575" lon="6.0319">
        <ele>376.39999389648</ele>
        <time>2015-11-11T13:55:42Z</time>
      </trkpt>
      <trkpt lat="43.4257" lon="6.03194">
        <ele>377</ele>
        <time>2015-11-11T13:55:46Z</time>
      </trkpt>
      <trkpt lat="43.42567" lon="6.03196">
        <ele>377.20001220703</ele>
        <time>2015-11-11T13:55:48Z</time>
      </trkpt>
      <trkpt lat="43.42565" lon="6.03199">
        <ele>377.20001220703</ele>
        <time>2015-11-11T13:55:50Z</time>
      </trkpt>
      <trkpt lat="43.42562" lon="6.03202">
        <ele>377.60000610352</ele>
        <time>2015-11-11T13:55:52Z</time>
      </trkpt>
      <trkpt lat="43.42558" lon="6.03203">
        <ele>377.79998779297</ele>
        <time>2015-11-11T13:55:54Z</time>
      </trkpt>
      <trkpt lat="43.42552" lon="6.03207">
        <ele>377.79998779297</ele>
        <time>2015-11-11T13:55:58Z</time>
      </trkpt>
      <trkpt lat="43.42549" lon="6.03209">
        <ele>377.79998779297</ele>
        <time>2015-11-11T13:56:00Z</time>
      </trkpt>
      <trkpt lat="43.42546" lon="6.03211">
        <ele>378.20001220703</ele>
        <time>2015-11-11T13:56:02Z</time>
      </trkpt>
      <trkpt lat="43.42543" lon="6.03214">
        <ele>378.39999389648</ele>
        <time>2015-11-11T13:56:04Z</time>
      </trkpt>
      <trkpt lat="43.42541" lon="6.03216">
        <ele>379</ele>
        <time>2015-11-11T13:56:06Z</time>
      </trkpt>
      <trkpt lat="43.42539" lon="6.03219">
        <ele>379</ele>
        <time>2015-11-11T13:56:08Z</time>
      </trkpt>
      <trkpt lat="43.42537" lon="6.03222">
        <ele>379</ele>
        <time>2015-11-11T13:56:10Z</time>
      </trkpt>
      <trkpt lat="43.42535" lon="6.03222">
        <ele>379.39999389648</ele>
        <time>2015-11-11T13:56:11Z</time>
      </trkpt>
      <trkpt lat="43.42531" lon="6.03225">
        <ele>379.79998779297</ele>
        <time>2015-11-11T13:56:14Z</time>
      </trkpt>
      <trkpt lat="43.42528" lon="6.03227">
        <ele>380.20001220703</ele>
        <time>2015-11-11T13:56:16Z</time>
      </trkpt>
      <trkpt lat="43.42525" lon="6.03229">
        <ele>380.39999389648</ele>
        <time>2015-11-11T13:56:18Z</time>
      </trkpt>
      <trkpt lat="43.42524" lon="6.0323">
        <ele>380.60000610352</ele>
        <time>2015-11-11T13:56:19Z</time>
      </trkpt>
      <trkpt lat="43.42521" lon="6.03234">
        <ele>381</ele>
        <time>2015-11-11T13:56:22Z</time>
      </trkpt>
      <trkpt lat="43.42519" lon="6.03237">
        <ele>381.20001220703</ele>
        <time>2015-11-11T13:56:24Z</time>
      </trkpt>
      <trkpt lat="43.42516" lon="6.0324">
        <ele>381.39999389648</ele>
        <time>2015-11-11T13:56:26Z</time>
      </trkpt>
      <trkpt lat="43.42514" lon="6.03243">
        <ele>381.79998779297</ele>
        <time>2015-11-11T13:56:28Z</time>
      </trkpt>
      <trkpt lat="43.42512" lon="6.03247">
        <ele>382</ele>
        <time>2015-11-11T13:56:30Z</time>
      </trkpt>
      <trkpt lat="43.42511" lon="6.0325">
        <ele>382</ele>
        <time>2015-11-11T13:56:32Z</time>
      </trkpt>
      <trkpt lat="43.4251" lon="6.03251">
        <ele>382.20001220703</ele>
        <time>2015-11-11T13:56:33Z</time>
      </trkpt>
      <trkpt lat="43.42509" lon="6.03252">
        <ele>382.39999389648</ele>
        <time>2015-11-11T13:56:34Z</time>
      </trkpt>
      <trkpt lat="43.42509" lon="6.03252">
        <ele>382.79998779297</ele>
        <time>2015-11-11T13:56:36Z</time>
      </trkpt>
      <trkpt lat="43.4251" lon="6.03253">
        <ele>383</ele>
        <time>2015-11-11T13:56:38Z</time>
      </trkpt>
      <trkpt lat="43.4251" lon="6.03253">
        <ele>382.79998779297</ele>
        <time>2015-11-11T13:56:42Z</time>
      </trkpt>
      <trkpt lat="43.4251" lon="6.03253">
        <ele>382.79998779297</ele>
        <time>2015-11-11T13:56:44Z</time>
      </trkpt>
      <trkpt lat="43.42509" lon="6.03253">
        <ele>382.79998779297</ele>
        <time>2015-11-11T13:56:46Z</time>
      </trkpt>
      <trkpt lat="43.42509" lon="6.03253">
        <ele>382.60000610352</ele>
        <time>2015-11-11T13:56:50Z</time>
      </trkpt>
      <trkpt lat="43.42509" lon="6.03253">
        <ele>382.79998779297</ele>
        <time>2015-11-11T13:58:02Z</time>
      </trkpt>
      <trkpt lat="43.42509" lon="6.03253">
        <ele>382.79998779297</ele>
        <time>2015-11-11T13:58:04Z</time>
      </trkpt>
      <trkpt lat="43.42509" lon="6.03253">
        <ele>383</ele>
        <time>2015-11-11T13:58:10Z</time>
      </trkpt>
      <trkpt lat="43.42509" lon="6.03253">
        <ele>383</ele>
        <time>2015-11-11T13:59:22Z</time>
      </trkpt>
      <trkpt lat="43.4251" lon="6.03253">
        <ele>383</ele>
        <time>2015-11-11T13:59:24Z</time>
      </trkpt>
      <trkpt lat="43.4251" lon="6.03253">
        <ele>383</ele>
        <time>2015-11-11T13:59:30Z</time>
      </trkpt>
      <trkpt lat="43.4251" lon="6.03253">
        <ele>383.20001220703</ele>
        <time>2015-11-11T14:00:02Z</time>
      </trkpt>
      <trkpt lat="43.4251" lon="6.03253">
        <ele>383.20001220703</ele>
        <time>2015-11-11T14:00:04Z</time>
      </trkpt>
      <trkpt lat="43.4251" lon="6.03253">
        <ele>383.20001220703</ele>
        <time>2015-11-11T14:00:10Z</time>
      </trkpt>
      <trkpt lat="43.4251" lon="6.03253">
        <ele>383.20001220703</ele>
        <time>2015-11-11T14:00:42Z</time>
      </trkpt>
      <trkpt lat="43.4251" lon="6.03253">
        <ele>383.39999389648</ele>
        <time>2015-11-11T14:00:44Z</time>
      </trkpt>
      <trkpt lat="43.4251" lon="6.03253">
        <ele>383.39999389648</ele>
        <time>2015-11-11T14:00:49Z</time>
      </trkpt>
      <trkpt lat="43.4251" lon="6.03253">
        <ele>383.39999389648</ele>
        <time>2015-11-11T14:01:21Z</time>
      </trkpt>
      <trkpt lat="43.42509" lon="6.03253">
        <ele>383.39999389648</ele>
        <time>2015-11-11T14:01:23Z</time>
      </trkpt>
      <trkpt lat="43.42509" lon="6.03253">
        <ele>383.39999389648</ele>
        <time>2015-11-11T14:01:27Z</time>
      </trkpt>
      <trkpt lat="43.42509" lon="6.03253">
        <ele>383.60000610352</ele>
        <time>2015-11-11T14:01:43Z</time>
      </trkpt>
      <trkpt lat="43.42509" lon="6.03254">
        <ele>383.39999389648</ele>
        <time>2015-11-11T14:01:44Z</time>
      </trkpt>
      <trkpt lat="43.42507" lon="6.03256">
        <ele>383.20001220703</ele>
        <time>2015-11-11T14:01:47Z</time>
      </trkpt>
      <trkpt lat="43.42505" lon="6.03258">
        <ele>383.39999389648</ele>
        <time>2015-11-11T14:01:49Z</time>
      </trkpt>
      <trkpt lat="43.42503" lon="6.03259">
        <ele>383.60000610352</ele>
        <time>2015-11-11T14:01:50Z</time>
      </trkpt>
      <trkpt lat="43.42502" lon="6.0326">
        <ele>383.79998779297</ele>
        <time>2015-11-11T14:01:51Z</time>
      </trkpt>
      <trkpt lat="43.42499" lon="6.03263">
        <ele>383.79998779297</ele>
        <time>2015-11-11T14:01:53Z</time>
      </trkpt>
      <trkpt lat="43.42496" lon="6.03266">
        <ele>384.39999389648</ele>
        <time>2015-11-11T14:01:55Z</time>
      </trkpt>
      <trkpt lat="43.42494" lon="6.03268">
        <ele>384.60000610352</ele>
        <time>2015-11-11T14:01:57Z</time>
      </trkpt>
      <trkpt lat="43.42493" lon="6.03269">
        <ele>384.79998779297</ele>
        <time>2015-11-11T14:01:58Z</time>
      </trkpt>
      <trkpt lat="43.4249" lon="6.03275">
        <ele>385.39999389648</ele>
        <time>2015-11-11T14:02:01Z</time>
      </trkpt>
      <trkpt lat="43.42487" lon="6.03281">
        <ele>386</ele>
        <time>2015-11-11T14:02:05Z</time>
      </trkpt>
      <trkpt lat="43.42483" lon="6.03288">
        <ele>386.60000610352</ele>
        <time>2015-11-11T14:02:09Z</time>
      </trkpt>
      <trkpt lat="43.42482" lon="6.03289">
        <ele>387</ele>
        <time>2015-11-11T14:02:10Z</time>
      </trkpt>
      <trkpt lat="43.4248" lon="6.0329">
        <ele>387</ele>
        <time>2015-11-11T14:02:11Z</time>
      </trkpt>
      <trkpt lat="43.42476" lon="6.03295">
        <ele>388</ele>
        <time>2015-11-11T14:02:15Z</time>
      </trkpt>
      <trkpt lat="43.42474" lon="6.03297">
        <ele>388</ele>
        <time>2015-11-11T14:02:17Z</time>
      </trkpt>
      <trkpt lat="43.42472" lon="6.03299">
        <ele>388.39999389648</ele>
        <time>2015-11-11T14:02:19Z</time>
      </trkpt>
      <trkpt lat="43.42471" lon="6.03301">
        <ele>388.60000610352</ele>
        <time>2015-11-11T14:02:21Z</time>
      </trkpt>
      <trkpt lat="43.42469" lon="6.03303">
        <ele>389</ele>
        <time>2015-11-11T14:02:23Z</time>
      </trkpt>
      <trkpt lat="43.42467" lon="6.03304">
        <ele>389</ele>
        <time>2015-11-11T14:02:25Z</time>
      </trkpt>
      <trkpt lat="43.42466" lon="6.03306">
        <ele>389</ele>
        <time>2015-11-11T14:02:26Z</time>
      </trkpt>
      <trkpt lat="43.42464" lon="6.03309">
        <ele>389.60000610352</ele>
        <time>2015-11-11T14:02:29Z</time>
      </trkpt>
      <trkpt lat="43.42462" lon="6.03311">
        <ele>389.79998779297</ele>
        <time>2015-11-11T14:02:31Z</time>
      </trkpt>
      <trkpt lat="43.42461" lon="6.03311">
        <ele>390.20001220703</ele>
        <time>2015-11-11T14:02:32Z</time>
      </trkpt>
      <trkpt lat="43.4246" lon="6.03312">
        <ele>390.39999389648</ele>
        <time>2015-11-11T14:02:33Z</time>
      </trkpt>
      <trkpt lat="43.42456" lon="6.03312">
        <ele>391.20001220703</ele>
        <time>2015-11-11T14:02:36Z</time>
      </trkpt>
      <trkpt lat="43.42453" lon="6.03312">
        <ele>391.60000610352</ele>
        <time>2015-11-11T14:02:38Z</time>
      </trkpt>
      <trkpt lat="43.42453" lon="6.03313">
        <ele>391.79998779297</ele>
        <time>2015-11-11T14:02:39Z</time>
      </trkpt>
      <trkpt lat="43.4245" lon="6.03313">
        <ele>392.39999389648</ele>
        <time>2015-11-11T14:02:41Z</time>
      </trkpt>
      <trkpt lat="43.42449" lon="6.03313">
        <ele>392.60000610352</ele>
        <time>2015-11-11T14:02:42Z</time>
      </trkpt>
      <trkpt lat="43.42446" lon="6.03314">
        <ele>393</ele>
        <time>2015-11-11T14:02:45Z</time>
      </trkpt>
      <trkpt lat="43.42445" lon="6.03313">
        <ele>393.39999389648</ele>
        <time>2015-11-11T14:02:46Z</time>
      </trkpt>
      <trkpt lat="43.42442" lon="6.03314">
        <ele>394.39999389648</ele>
        <time>2015-11-11T14:02:48Z</time>
      </trkpt>
      <trkpt lat="43.42441" lon="6.03314">
        <ele>394.60000610352</ele>
        <time>2015-11-11T14:02:50Z</time>
      </trkpt>
      <trkpt lat="43.42439" lon="6.03314">
        <ele>395</ele>
        <time>2015-11-11T14:02:52Z</time>
      </trkpt>
      <trkpt lat="43.42436" lon="6.03314">
        <ele>395.60000610352</ele>
        <time>2015-11-11T14:02:55Z</time>
      </trkpt>
      <trkpt lat="43.42434" lon="6.03314">
        <ele>395.79998779297</ele>
        <time>2015-11-11T14:02:57Z</time>
      </trkpt>
      <trkpt lat="43.42433" lon="6.03313">
        <ele>396.39999389648</ele>
        <time>2015-11-11T14:02:59Z</time>
      </trkpt>
      <trkpt lat="43.42431" lon="6.03314">
        <ele>396.60000610352</ele>
        <time>2015-11-11T14:03:01Z</time>
      </trkpt>
      <trkpt lat="43.4243" lon="6.03315">
        <ele>397</ele>
        <time>2015-11-11T14:03:03Z</time>
      </trkpt>
      <trkpt lat="43.42424" lon="6.03318">
        <ele>398.20001220703</ele>
        <time>2015-11-11T14:03:09Z</time>
      </trkpt>
      <trkpt lat="43.42421" lon="6.03318">
        <ele>398.79998779297</ele>
        <time>2015-11-11T14:03:13Z</time>
      </trkpt>
      <trkpt lat="43.42418" lon="6.03318">
        <ele>398.79998779297</ele>
        <time>2015-11-11T14:03:15Z</time>
      </trkpt>
      <trkpt lat="43.42416" lon="6.0332">
        <ele>399.39999389648</ele>
        <time>2015-11-11T14:03:17Z</time>
      </trkpt>
      <trkpt lat="43.42415" lon="6.03321">
        <ele>399.60000610352</ele>
        <time>2015-11-11T14:03:19Z</time>
      </trkpt>
      <trkpt lat="43.42413" lon="6.03323">
        <ele>399.79998779297</ele>
        <time>2015-11-11T14:03:21Z</time>
      </trkpt>
      <trkpt lat="43.42408" lon="6.03324">
        <ele>400.79998779297</ele>
        <time>2015-11-11T14:03:27Z</time>
      </trkpt>
      <trkpt lat="43.42406" lon="6.03325">
        <ele>401.39999389648</ele>
        <time>2015-11-11T14:03:29Z</time>
      </trkpt>
      <trkpt lat="43.42405" lon="6.03325">
        <ele>401.60000610352</ele>
        <time>2015-11-11T14:03:30Z</time>
      </trkpt>
      <trkpt lat="43.42404" lon="6.03325">
        <ele>401.60000610352</ele>
        <time>2015-11-11T14:03:31Z</time>
      </trkpt>
      <trkpt lat="43.42402" lon="6.03325">
        <ele>401.79998779297</ele>
        <time>2015-11-11T14:03:33Z</time>
      </trkpt>
      <trkpt lat="43.42401" lon="6.03325">
        <ele>401.60000610352</ele>
        <time>2015-11-11T14:03:34Z</time>
      </trkpt>
      <trkpt lat="43.424" lon="6.03324">
        <ele>401.79998779297</ele>
        <time>2015-11-11T14:03:35Z</time>
      </trkpt>
      <trkpt lat="43.42398" lon="6.03324">
        <ele>402</ele>
        <time>2015-11-11T14:03:37Z</time>
      </trkpt>
      <trkpt lat="43.42397" lon="6.03325">
        <ele>402.39999389648</ele>
        <time>2015-11-11T14:03:39Z</time>
      </trkpt>
      <trkpt lat="43.42395" lon="6.03326">
        <ele>402.39999389648</ele>
        <time>2015-11-11T14:03:41Z</time>
      </trkpt>
      <trkpt lat="43.42393" lon="6.03327">
        <ele>402.60000610352</ele>
        <time>2015-11-11T14:03:43Z</time>
      </trkpt>
      <trkpt lat="43.42391" lon="6.03328">
        <ele>402.79998779297</ele>
        <time>2015-11-11T14:03:45Z</time>
      </trkpt>
      <trkpt lat="43.42389" lon="6.03329">
        <ele>403</ele>
        <time>2015-11-11T14:03:47Z</time>
      </trkpt>
      <trkpt lat="43.42387" lon="6.03331">
        <ele>403.20001220703</ele>
        <time>2015-11-11T14:03:49Z</time>
      </trkpt>
      <trkpt lat="43.42386" lon="6.03331">
        <ele>403.39999389648</ele>
        <time>2015-11-11T14:03:51Z</time>
      </trkpt>
      <trkpt lat="43.42384" lon="6.03331">
        <ele>403.20001220703</ele>
        <time>2015-11-11T14:03:53Z</time>
      </trkpt>
      <trkpt lat="43.42383" lon="6.03331">
        <ele>403.39999389648</ele>
        <time>2015-11-11T14:03:55Z</time>
      </trkpt>
      <trkpt lat="43.42381" lon="6.03329">
        <ele>403.79998779297</ele>
        <time>2015-11-11T14:03:57Z</time>
      </trkpt>
      <trkpt lat="43.4238" lon="6.0333">
        <ele>403.79998779297</ele>
        <time>2015-11-11T14:03:58Z</time>
      </trkpt>
      <trkpt lat="43.42379" lon="6.0333">
        <ele>403.60000610352</ele>
        <time>2015-11-11T14:03:59Z</time>
      </trkpt>
      <trkpt lat="43.42378" lon="6.03329">
        <ele>403.79998779297</ele>
        <time>2015-11-11T14:04:01Z</time>
      </trkpt>
      <trkpt lat="43.42378" lon="6.03328">
        <ele>403.79998779297</ele>
        <time>2015-11-11T14:04:03Z</time>
      </trkpt>
      <trkpt lat="43.42378" lon="6.03328">
        <ele>403.79998779297</ele>
        <time>2015-11-11T14:04:09Z</time>
      </trkpt>
      <trkpt lat="43.42378" lon="6.03328">
        <ele>403.79998779297</ele>
        <time>2015-11-11T14:04:23Z</time>
      </trkpt>
      <trkpt lat="43.42378" lon="6.03328">
        <ele>403.79998779297</ele>
        <time>2015-11-11T14:04:24Z</time>
      </trkpt>
      <trkpt lat="43.42377" lon="6.03328">
        <ele>403.79998779297</ele>
        <time>2015-11-11T14:04:25Z</time>
      </trkpt>
      <trkpt lat="43.42377" lon="6.03328">
        <ele>403.79998779297</ele>
        <time>2015-11-11T14:04:31Z</time>
      </trkpt>
      <trkpt lat="43.42377" lon="6.03328">
        <ele>403.60000610352</ele>
        <time>2015-11-11T14:06:23Z</time>
      </trkpt>
      <trkpt lat="43.42377" lon="6.03328">
        <ele>403.60000610352</ele>
        <time>2015-11-11T14:06:25Z</time>
      </trkpt>
      <trkpt lat="43.42377" lon="6.03328">
        <ele>404</ele>
        <time>2015-11-11T14:06:31Z</time>
      </trkpt>
      <trkpt lat="43.42377" lon="6.03328">
        <ele>403.60000610352</ele>
        <time>2015-11-11T14:07:03Z</time>
      </trkpt>
      <trkpt lat="43.42377" lon="6.03327">
        <ele>403.60000610352</ele>
        <time>2015-11-11T14:07:05Z</time>
      </trkpt>
      <trkpt lat="43.42377" lon="6.03327">
        <ele>403.60000610352</ele>
        <time>2015-11-11T14:07:11Z</time>
      </trkpt>
      <trkpt lat="43.42377" lon="6.03327">
        <ele>403.79998779297</ele>
        <time>2015-11-11T14:07:43Z</time>
      </trkpt>
      <trkpt lat="43.42378" lon="6.03327">
        <ele>403.79998779297</ele>
        <time>2015-11-11T14:07:45Z</time>
      </trkpt>
      <trkpt lat="43.42378" lon="6.03327">
        <ele>403.79998779297</ele>
        <time>2015-11-11T14:07:50Z</time>
      </trkpt>
      <trkpt lat="43.42378" lon="6.03327">
        <ele>404.20001220703</ele>
        <time>2015-11-11T14:08:07Z</time>
      </trkpt>
      <trkpt lat="43.42379" lon="6.03328">
        <ele>404</ele>
        <time>2015-11-11T14:08:09Z</time>
      </trkpt>
      <trkpt lat="43.4238" lon="6.03329">
        <ele>404</ele>
        <time>2015-11-11T14:08:11Z</time>
      </trkpt>
      <trkpt lat="43.42381" lon="6.0333">
        <ele>403.79998779297</ele>
        <time>2015-11-11T14:08:13Z</time>
      </trkpt>
      <trkpt lat="43.42381" lon="6.0333">
        <ele>403.79998779297</ele>
        <time>2015-11-11T14:08:15Z</time>
      </trkpt>
      <trkpt lat="43.42381" lon="6.0333">
        <ele>403.79998779297</ele>
        <time>2015-11-11T14:08:21Z</time>
      </trkpt>
      <trkpt lat="43.42381" lon="6.0333">
        <ele>404</ele>
        <time>2015-11-11T14:08:25Z</time>
      </trkpt>
      <trkpt lat="43.42381" lon="6.0333">
        <ele>404</ele>
        <time>2015-11-11T14:08:27Z</time>
      </trkpt>
      <trkpt lat="43.42381" lon="6.03329">
        <ele>403.79998779297</ele>
        <time>2015-11-11T14:08:29Z</time>
      </trkpt>
      <trkpt lat="43.42381" lon="6.03329">
        <ele>403.79998779297</ele>
        <time>2015-11-11T14:08:33Z</time>
      </trkpt>
      <trkpt lat="43.42381" lon="6.03329">
        <ele>403.79998779297</ele>
        <time>2015-11-11T14:08:35Z</time>
      </trkpt>
      <trkpt lat="43.4238" lon="6.03329">
        <ele>403.79998779297</ele>
        <time>2015-11-11T14:08:37Z</time>
      </trkpt>
      <trkpt lat="43.4238" lon="6.03329">
        <ele>403.79998779297</ele>
        <time>2015-11-11T14:08:39Z</time>
      </trkpt>
      <trkpt lat="43.42378" lon="6.03326">
        <ele>404</ele>
        <time>2015-11-11T14:08:44Z</time>
      </trkpt>
      <trkpt lat="43.42377" lon="6.03325">
        <ele>403.79998779297</ele>
        <time>2015-11-11T14:08:45Z</time>
      </trkpt>
      <trkpt lat="43.42377" lon="6.03323">
        <ele>404</ele>
        <time>2015-11-11T14:08:46Z</time>
      </trkpt>
      <trkpt lat="43.42376" lon="6.03319">
        <ele>404</ele>
        <time>2015-11-11T14:08:48Z</time>
      </trkpt>
      <trkpt lat="43.42376" lon="6.03315">
        <ele>404</ele>
        <time>2015-11-11T14:08:50Z</time>
      </trkpt>
      <trkpt lat="43.42376" lon="6.03312">
        <ele>404</ele>
        <time>2015-11-11T14:08:51Z</time>
      </trkpt>
      <trkpt lat="43.42376" lon="6.0331">
        <ele>404</ele>
        <time>2015-11-11T14:08:52Z</time>
      </trkpt>
      <trkpt lat="43.42377" lon="6.03305">
        <ele>404</ele>
        <time>2015-11-11T14:08:54Z</time>
      </trkpt>
      <trkpt lat="43.42378" lon="6.033">
        <ele>404</ele>
        <time>2015-11-11T14:08:55Z</time>
      </trkpt>
      <trkpt lat="43.42377" lon="6.03297">
        <ele>404</ele>
        <time>2015-11-11T14:08:56Z</time>
      </trkpt>
      <trkpt lat="43.42376" lon="6.03287">
        <ele>403.79998779297</ele>
        <time>2015-11-11T14:08:58Z</time>
      </trkpt>
      <trkpt lat="43.42375" lon="6.03282">
        <ele>403.60000610352</ele>
        <time>2015-11-11T14:08:59Z</time>
      </trkpt>
      <trkpt lat="43.42374" lon="6.03276">
        <ele>403.39999389648</ele>
        <time>2015-11-11T14:09:00Z</time>
      </trkpt>
      <trkpt lat="43.42372" lon="6.0327">
        <ele>403.20001220703</ele>
        <time>2015-11-11T14:09:01Z</time>
      </trkpt>
      <trkpt lat="43.42371" lon="6.03264">
        <ele>402.79998779297</ele>
        <time>2015-11-11T14:09:02Z</time>
      </trkpt>
      <trkpt lat="43.42369" lon="6.03253">
        <ele>403.20001220703</ele>
        <time>2015-11-11T14:09:04Z</time>
      </trkpt>
      <trkpt lat="43.42368" lon="6.03243">
        <ele>403.79998779297</ele>
        <time>2015-11-11T14:09:06Z</time>
      </trkpt>
      <trkpt lat="43.42368" lon="6.03235">
        <ele>404.20001220703</ele>
        <time>2015-11-11T14:09:08Z</time>
      </trkpt>
      <trkpt lat="43.42369" lon="6.03226">
        <ele>404</ele>
        <time>2015-11-11T14:09:10Z</time>
      </trkpt>
      <trkpt lat="43.4237" lon="6.03217">
        <ele>404.20001220703</ele>
        <time>2015-11-11T14:09:12Z</time>
      </trkpt>
      <trkpt lat="43.42371" lon="6.03208">
        <ele>404</ele>
        <time>2015-11-11T14:09:14Z</time>
      </trkpt>
      <trkpt lat="43.42371" lon="6.032">
        <ele>404</ele>
        <time>2015-11-11T14:09:16Z</time>
      </trkpt>
      <trkpt lat="43.42371" lon="6.03191">
        <ele>404.20001220703</ele>
        <time>2015-11-11T14:09:18Z</time>
      </trkpt>
      <trkpt lat="43.42371" lon="6.03175">
        <ele>404.79998779297</ele>
        <time>2015-11-11T14:09:22Z</time>
      </trkpt>
      <trkpt lat="43.42372" lon="6.03167">
        <ele>404.79998779297</ele>
        <time>2015-11-11T14:09:24Z</time>
      </trkpt>
      <trkpt lat="43.42373" lon="6.03158">
        <ele>405.20001220703</ele>
        <time>2015-11-11T14:09:26Z</time>
      </trkpt>
      <trkpt lat="43.42373" lon="6.0315">
        <ele>405.39999389648</ele>
        <time>2015-11-11T14:09:28Z</time>
      </trkpt>
      <trkpt lat="43.42373" lon="6.03143">
        <ele>405.79998779297</ele>
        <time>2015-11-11T14:09:30Z</time>
      </trkpt>
      <trkpt lat="43.42374" lon="6.03136">
        <ele>406.20001220703</ele>
        <time>2015-11-11T14:09:32Z</time>
      </trkpt>
      <trkpt lat="43.42374" lon="6.03126">
        <ele>406.39999389648</ele>
        <time>2015-11-11T14:09:35Z</time>
      </trkpt>
      <trkpt lat="43.42374" lon="6.03123">
        <ele>406.79998779297</ele>
        <time>2015-11-11T14:09:36Z</time>
      </trkpt>
      <trkpt lat="43.42374" lon="6.03116">
        <ele>407.20001220703</ele>
        <time>2015-11-11T14:09:38Z</time>
      </trkpt>
      <trkpt lat="43.42375" lon="6.03109">
        <ele>407.20001220703</ele>
        <time>2015-11-11T14:09:40Z</time>
      </trkpt>
      <trkpt lat="43.42377" lon="6.03098">
        <ele>407.60000610352</ele>
        <time>2015-11-11T14:09:44Z</time>
      </trkpt>
      <trkpt lat="43.42377" lon="6.03092">
        <ele>408.20001220703</ele>
        <time>2015-11-11T14:09:46Z</time>
      </trkpt>
      <trkpt lat="43.42379" lon="6.03087">
        <ele>408.60000610352</ele>
        <time>2015-11-11T14:09:48Z</time>
      </trkpt>
      <trkpt lat="43.4238" lon="6.03083">
        <ele>408.79998779297</ele>
        <time>2015-11-11T14:09:50Z</time>
      </trkpt>
      <trkpt lat="43.42379" lon="6.03073">
        <ele>409.60000610352</ele>
        <time>2015-11-11T14:09:54Z</time>
      </trkpt>
      <trkpt lat="43.4238" lon="6.03068">
        <ele>410</ele>
        <time>2015-11-11T14:09:56Z</time>
      </trkpt>
      <trkpt lat="43.42381" lon="6.03065">
        <ele>410</ele>
        <time>2015-11-11T14:09:58Z</time>
      </trkpt>
      <trkpt lat="43.42381" lon="6.03063">
        <ele>410.20001220703</ele>
        <time>2015-11-11T14:09:59Z</time>
      </trkpt>
      <trkpt lat="43.42381" lon="6.0306">
        <ele>410.39999389648</ele>
        <time>2015-11-11T14:10:01Z</time>
      </trkpt>
      <trkpt lat="43.42382" lon="6.03058">
        <ele>410.39999389648</ele>
        <time>2015-11-11T14:10:02Z</time>
      </trkpt>
      <trkpt lat="43.42382" lon="6.03054">
        <ele>411</ele>
        <time>2015-11-11T14:10:04Z</time>
      </trkpt>
      <trkpt lat="43.42383" lon="6.0305">
        <ele>411.39999389648</ele>
        <time>2015-11-11T14:10:06Z</time>
      </trkpt>
      <trkpt lat="43.42383" lon="6.03048">
        <ele>411.60000610352</ele>
        <time>2015-11-11T14:10:07Z</time>
      </trkpt>
      <trkpt lat="43.42383" lon="6.03046">
        <ele>411.79998779297</ele>
        <time>2015-11-11T14:10:08Z</time>
      </trkpt>
      <trkpt lat="43.42384" lon="6.03037">
        <ele>412.39999389648</ele>
        <time>2015-11-11T14:10:13Z</time>
      </trkpt>
      <trkpt lat="43.42383" lon="6.03035">
        <ele>412.60000610352</ele>
        <time>2015-11-11T14:10:14Z</time>
      </trkpt>
      <trkpt lat="43.42383" lon="6.03032">
        <ele>412.79998779297</ele>
        <time>2015-11-11T14:10:16Z</time>
      </trkpt>
      <trkpt lat="43.42383" lon="6.03029">
        <ele>413.60000610352</ele>
        <time>2015-11-11T14:10:18Z</time>
      </trkpt>
      <trkpt lat="43.42383" lon="6.03026">
        <ele>414</ele>
        <time>2015-11-11T14:10:20Z</time>
      </trkpt>
      <trkpt lat="43.42382" lon="6.03019">
        <ele>414.39999389648</ele>
        <time>2015-11-11T14:10:24Z</time>
      </trkpt>
      <trkpt lat="43.42382" lon="6.03015">
        <ele>414.60000610352</ele>
        <time>2015-11-11T14:10:26Z</time>
      </trkpt>
      <trkpt lat="43.4238" lon="6.03009">
        <ele>415.20001220703</ele>
        <time>2015-11-11T14:10:30Z</time>
      </trkpt>
      <trkpt lat="43.42379" lon="6.03006">
        <ele>415.39999389648</ele>
        <time>2015-11-11T14:10:32Z</time>
      </trkpt>
      <trkpt lat="43.42378" lon="6.03002">
        <ele>415.79998779297</ele>
        <time>2015-11-11T14:10:34Z</time>
      </trkpt>
      <trkpt lat="43.42377" lon="6.02999">
        <ele>415.79998779297</ele>
        <time>2015-11-11T14:10:36Z</time>
      </trkpt>
      <trkpt lat="43.42376" lon="6.02996">
        <ele>416</ele>
        <time>2015-11-11T14:10:38Z</time>
      </trkpt>
      <trkpt lat="43.42376" lon="6.02993">
        <ele>416.20001220703</ele>
        <time>2015-11-11T14:10:40Z</time>
      </trkpt>
      <trkpt lat="43.42376" lon="6.0299">
        <ele>416.39999389648</ele>
        <time>2015-11-11T14:10:41Z</time>
      </trkpt>
      <trkpt lat="43.42376" lon="6.02987">
        <ele>416.60000610352</ele>
        <time>2015-11-11T14:10:44Z</time>
      </trkpt>
      <trkpt lat="43.42376" lon="6.02983">
        <ele>417</ele>
        <time>2015-11-11T14:10:46Z</time>
      </trkpt>
      <trkpt lat="43.42376" lon="6.0298">
        <ele>417.39999389648</ele>
        <time>2015-11-11T14:10:48Z</time>
      </trkpt>
      <trkpt lat="43.42376" lon="6.02973">
        <ele>417.60000610352</ele>
        <time>2015-11-11T14:10:52Z</time>
      </trkpt>
      <trkpt lat="43.42376" lon="6.02969">
        <ele>417.79998779297</ele>
        <time>2015-11-11T14:10:54Z</time>
      </trkpt>
      <trkpt lat="43.42376" lon="6.02967">
        <ele>418</ele>
        <time>2015-11-11T14:10:55Z</time>
      </trkpt>
      <trkpt lat="43.42377" lon="6.02957">
        <ele>418.39999389648</ele>
        <time>2015-11-11T14:11:00Z</time>
      </trkpt>
      <trkpt lat="43.42377" lon="6.02953">
        <ele>418.60000610352</ele>
        <time>2015-11-11T14:11:02Z</time>
      </trkpt>
      <trkpt lat="43.42378" lon="6.02949">
        <ele>419</ele>
        <time>2015-11-11T14:11:04Z</time>
      </trkpt>
      <trkpt lat="43.4238" lon="6.0294">
        <ele>419.39999389648</ele>
        <time>2015-11-11T14:11:08Z</time>
      </trkpt>
      <trkpt lat="43.42382" lon="6.02932">
        <ele>419.20001220703</ele>
        <time>2015-11-11T14:11:12Z</time>
      </trkpt>
      <trkpt lat="43.42382" lon="6.02928">
        <ele>418.79998779297</ele>
        <time>2015-11-11T14:11:14Z</time>
      </trkpt>
      <trkpt lat="43.42383" lon="6.02923">
        <ele>419</ele>
        <time>2015-11-11T14:11:16Z</time>
      </trkpt>
      <trkpt lat="43.42385" lon="6.02918">
        <ele>419</ele>
        <time>2015-11-11T14:11:18Z</time>
      </trkpt>
      <trkpt lat="43.42386" lon="6.02913">
        <ele>419.20001220703</ele>
        <time>2015-11-11T14:11:20Z</time>
      </trkpt>
      <trkpt lat="43.4239" lon="6.02901">
        <ele>419</ele>
        <time>2015-11-11T14:11:24Z</time>
      </trkpt>
      <trkpt lat="43.42393" lon="6.02894">
        <ele>419.39999389648</ele>
        <time>2015-11-11T14:11:26Z</time>
      </trkpt>
      <trkpt lat="43.42395" lon="6.02887">
        <ele>418.79998779297</ele>
        <time>2015-11-11T14:11:28Z</time>
      </trkpt>
      <trkpt lat="43.42398" lon="6.02881">
        <ele>418.79998779297</ele>
        <time>2015-11-11T14:11:30Z</time>
      </trkpt>
      <trkpt lat="43.42401" lon="6.02874">
        <ele>418.60000610352</ele>
        <time>2015-11-11T14:11:32Z</time>
      </trkpt>
      <trkpt lat="43.42404" lon="6.02867">
        <ele>418.20001220703</ele>
        <time>2015-11-11T14:11:34Z</time>
      </trkpt>
      <trkpt lat="43.42407" lon="6.02859">
        <ele>417.79998779297</ele>
        <time>2015-11-11T14:11:36Z</time>
      </trkpt>
      <trkpt lat="43.42414" lon="6.0284">
        <ele>417.20001220703</ele>
        <time>2015-11-11T14:11:40Z</time>
      </trkpt>
      <trkpt lat="43.42419" lon="6.02831">
        <ele>416.79998779297</ele>
        <time>2015-11-11T14:11:42Z</time>
      </trkpt>
      <trkpt lat="43.42423" lon="6.0282">
        <ele>416.20001220703</ele>
        <time>2015-11-11T14:11:44Z</time>
      </trkpt>
      <trkpt lat="43.42424" lon="6.02814">
        <ele>415.79998779297</ele>
        <time>2015-11-11T14:11:45Z</time>
      </trkpt>
      <trkpt lat="43.42431" lon="6.02799">
        <ele>415.39999389648</ele>
        <time>2015-11-11T14:11:48Z</time>
      </trkpt>
      <trkpt lat="43.42432" lon="6.02787">
        <ele>415.20001220703</ele>
        <time>2015-11-11T14:11:50Z</time>
      </trkpt>
      <trkpt lat="43.4243" lon="6.02776">
        <ele>414.79998779297</ele>
        <time>2015-11-11T14:11:52Z</time>
      </trkpt>
      <trkpt lat="43.4243" lon="6.0277">
        <ele>414.60000610352</ele>
        <time>2015-11-11T14:11:53Z</time>
      </trkpt>
      <trkpt lat="43.42431" lon="6.02764">
        <ele>414.60000610352</ele>
        <time>2015-11-11T14:11:54Z</time>
      </trkpt>
      <trkpt lat="43.42436" lon="6.02754">
        <ele>414</ele>
        <time>2015-11-11T14:11:56Z</time>
      </trkpt>
      <trkpt lat="43.42441" lon="6.02743">
        <ele>413.60000610352</ele>
        <time>2015-11-11T14:11:58Z</time>
      </trkpt>
      <trkpt lat="43.42442" lon="6.0273">
        <ele>412.60000610352</ele>
        <time>2015-11-11T14:12:00Z</time>
      </trkpt>
      <trkpt lat="43.42441" lon="6.02717">
        <ele>412.39999389648</ele>
        <time>2015-11-11T14:12:02Z</time>
      </trkpt>
      <trkpt lat="43.42441" lon="6.02703">
        <ele>412</ele>
        <time>2015-11-11T14:12:04Z</time>
      </trkpt>
      <trkpt lat="43.42441" lon="6.02696">
        <ele>411.39999389648</ele>
        <time>2015-11-11T14:12:05Z</time>
      </trkpt>
      <trkpt lat="43.42442" lon="6.02689">
        <ele>411</ele>
        <time>2015-11-11T14:12:06Z</time>
      </trkpt>
      <trkpt lat="43.42442" lon="6.02674">
        <ele>410.39999389648</ele>
        <time>2015-11-11T14:12:08Z</time>
      </trkpt>
      <trkpt lat="43.42442" lon="6.02667">
        <ele>410.60000610352</ele>
        <time>2015-11-11T14:12:09Z</time>
      </trkpt>
      <trkpt lat="43.42442" lon="6.02661">
        <ele>410.60000610352</ele>
        <time>2015-11-11T14:12:10Z</time>
      </trkpt>
      <trkpt lat="43.4244" lon="6.02648">
        <ele>410.39999389648</ele>
        <time>2015-11-11T14:12:12Z</time>
      </trkpt>
      <trkpt lat="43.42439" lon="6.02643">
        <ele>410.39999389648</ele>
        <time>2015-11-11T14:12:13Z</time>
      </trkpt>
      <trkpt lat="43.42439" lon="6.02639">
        <ele>410.60000610352</ele>
        <time>2015-11-11T14:12:14Z</time>
      </trkpt>
      <trkpt lat="43.42439" lon="6.02634">
        <ele>411.20001220703</ele>
        <time>2015-11-11T14:12:16Z</time>
      </trkpt>
      <trkpt lat="43.42439" lon="6.02632">
        <ele>411</ele>
        <time>2015-11-11T14:12:17Z</time>
      </trkpt>
      <trkpt lat="43.42438" lon="6.02632">
        <ele>411</ele>
        <time>2015-11-11T14:12:18Z</time>
      </trkpt>
      <trkpt lat="43.42438" lon="6.02632">
        <ele>411.20001220703</ele>
        <time>2015-11-11T14:12:20Z</time>
      </trkpt>
      <trkpt lat="43.42438" lon="6.02632">
        <ele>411</ele>
        <time>2015-11-11T14:12:26Z</time>
      </trkpt>
      <trkpt lat="43.42438" lon="6.02632">
        <ele>411</ele>
        <time>2015-11-11T14:12:58Z</time>
      </trkpt>
      <trkpt lat="43.42438" lon="6.02632">
        <ele>411</ele>
        <time>2015-11-11T14:13:00Z</time>
      </trkpt>
      <trkpt lat="43.42438" lon="6.02632">
        <ele>411</ele>
        <time>2015-11-11T14:13:06Z</time>
      </trkpt>
      <trkpt lat="43.42438" lon="6.02632">
        <ele>411.20001220703</ele>
        <time>2015-11-11T14:13:38Z</time>
      </trkpt>
      <trkpt lat="43.42438" lon="6.02632">
        <ele>411.20001220703</ele>
        <time>2015-11-11T14:13:40Z</time>
      </trkpt>
      <trkpt lat="43.42438" lon="6.02632">
        <ele>411</ele>
        <time>2015-11-11T14:13:46Z</time>
      </trkpt>
      <trkpt lat="43.42438" lon="6.02632">
        <ele>411.39999389648</ele>
        <time>2015-11-11T14:13:58Z</time>
      </trkpt>
      <trkpt lat="43.42438" lon="6.02632">
        <ele>411.20001220703</ele>
        <time>2015-11-11T14:14:00Z</time>
      </trkpt>
      <trkpt lat="43.42436" lon="6.02629">
        <ele>411</ele>
        <time>2015-11-11T14:14:02Z</time>
      </trkpt>
      <trkpt lat="43.42431" lon="6.02626">
        <ele>410.79998779297</ele>
        <time>2015-11-11T14:14:04Z</time>
      </trkpt>
      <trkpt lat="43.42426" lon="6.02621">
        <ele>410.20001220703</ele>
        <time>2015-11-11T14:14:06Z</time>
      </trkpt>
      <trkpt lat="43.42422" lon="6.02614">
        <ele>409.60000610352</ele>
        <time>2015-11-11T14:14:08Z</time>
      </trkpt>
      <trkpt lat="43.42421" lon="6.02609">
        <ele>409.79998779297</ele>
        <time>2015-11-11T14:14:09Z</time>
      </trkpt>
      <trkpt lat="43.42421" lon="6.02596">
        <ele>410</ele>
        <time>2015-11-11T14:14:12Z</time>
      </trkpt>
      <trkpt lat="43.42422" lon="6.02588">
        <ele>410.60000610352</ele>
        <time>2015-11-11T14:14:14Z</time>
      </trkpt>
      <trkpt lat="43.42421" lon="6.0258">
        <ele>411</ele>
        <time>2015-11-11T14:14:16Z</time>
      </trkpt>
      <trkpt lat="43.42421" lon="6.02571">
        <ele>411.20001220703</ele>
        <time>2015-11-11T14:14:18Z</time>
      </trkpt>
      <trkpt lat="43.42422" lon="6.02563">
        <ele>411.20001220703</ele>
        <time>2015-11-11T14:14:20Z</time>
      </trkpt>
      <trkpt lat="43.42423" lon="6.02555">
        <ele>411.39999389648</ele>
        <time>2015-11-11T14:14:22Z</time>
      </trkpt>
      <trkpt lat="43.42424" lon="6.02547">
        <ele>412</ele>
        <time>2015-11-11T14:14:24Z</time>
      </trkpt>
      <trkpt lat="43.42428" lon="6.02531">
        <ele>412.79998779297</ele>
        <time>2015-11-11T14:14:28Z</time>
      </trkpt>
      <trkpt lat="43.4243" lon="6.02523">
        <ele>413</ele>
        <time>2015-11-11T14:14:30Z</time>
      </trkpt>
      <trkpt lat="43.4243" lon="6.02515">
        <ele>413.39999389648</ele>
        <time>2015-11-11T14:14:32Z</time>
      </trkpt>
      <trkpt lat="43.42429" lon="6.02506">
        <ele>413.79998779297</ele>
        <time>2015-11-11T14:14:34Z</time>
      </trkpt>
      <trkpt lat="43.4243" lon="6.02501">
        <ele>414</ele>
        <time>2015-11-11T14:14:35Z</time>
      </trkpt>
      <trkpt lat="43.4243" lon="6.02496">
        <ele>413.79998779297</ele>
        <time>2015-11-11T14:14:36Z</time>
      </trkpt>
      <trkpt lat="43.42431" lon="6.02488">
        <ele>413.79998779297</ele>
        <time>2015-11-11T14:14:38Z</time>
      </trkpt>
      <trkpt lat="43.42433" lon="6.02479">
        <ele>414</ele>
        <time>2015-11-11T14:14:40Z</time>
      </trkpt>
      <trkpt lat="43.42434" lon="6.0247">
        <ele>414.20001220703</ele>
        <time>2015-11-11T14:14:42Z</time>
      </trkpt>
      <trkpt lat="43.42436" lon="6.02462">
        <ele>414.20001220703</ele>
        <time>2015-11-11T14:14:44Z</time>
      </trkpt>
      <trkpt lat="43.42439" lon="6.02451">
        <ele>414.39999389648</ele>
        <time>2015-11-11T14:14:46Z</time>
      </trkpt>
      <trkpt lat="43.4244" lon="6.02444">
        <ele>414.60000610352</ele>
        <time>2015-11-11T14:14:48Z</time>
      </trkpt>
      <trkpt lat="43.42441" lon="6.0244">
        <ele>414.60000610352</ele>
        <time>2015-11-11T14:14:49Z</time>
      </trkpt>
      <trkpt lat="43.42443" lon="6.02431">
        <ele>414.20001220703</ele>
        <time>2015-11-11T14:14:51Z</time>
      </trkpt>
      <trkpt lat="43.42447" lon="6.02423">
        <ele>414</ele>
        <time>2015-11-11T14:14:53Z</time>
      </trkpt>
      <trkpt lat="43.42451" lon="6.02415">
        <ele>413.79998779297</ele>
        <time>2015-11-11T14:14:55Z</time>
      </trkpt>
      <trkpt lat="43.42455" lon="6.02408">
        <ele>414.60000610352</ele>
        <time>2015-11-11T14:14:57Z</time>
      </trkpt>
      <trkpt lat="43.42459" lon="6.02401">
        <ele>414.20001220703</ele>
        <time>2015-11-11T14:14:59Z</time>
      </trkpt>
      <trkpt lat="43.42461" lon="6.02393">
        <ele>414</ele>
        <time>2015-11-11T14:15:01Z</time>
      </trkpt>
      <trkpt lat="43.42463" lon="6.02384">
        <ele>414.20001220703</ele>
        <time>2015-11-11T14:15:03Z</time>
      </trkpt>
      <trkpt lat="43.42465" lon="6.02375">
        <ele>414.20001220703</ele>
        <time>2015-11-11T14:15:05Z</time>
      </trkpt>
      <trkpt lat="43.42466" lon="6.02366">
        <ele>414.20001220703</ele>
        <time>2015-11-11T14:15:07Z</time>
      </trkpt>
      <trkpt lat="43.42467" lon="6.02359">
        <ele>414.79998779297</ele>
        <time>2015-11-11T14:15:09Z</time>
      </trkpt>
      <trkpt lat="43.42467" lon="6.02335">
        <ele>416.60000610352</ele>
        <time>2015-11-11T14:15:17Z</time>
      </trkpt>
      <trkpt lat="43.42467" lon="6.02331">
        <ele>417.20001220703</ele>
        <time>2015-11-11T14:15:19Z</time>
      </trkpt>
      <trkpt lat="43.42466" lon="6.02327">
        <ele>417.60000610352</ele>
        <time>2015-11-11T14:15:21Z</time>
      </trkpt>
      <trkpt lat="43.42466" lon="6.02324">
        <ele>418</ele>
        <time>2015-11-11T14:15:22Z</time>
      </trkpt>
      <trkpt lat="43.42467" lon="6.02322">
        <ele>418.20001220703</ele>
        <time>2015-11-11T14:15:23Z</time>
      </trkpt>
      <trkpt lat="43.42468" lon="6.02318">
        <ele>418.60000610352</ele>
        <time>2015-11-11T14:15:25Z</time>
      </trkpt>
      <trkpt lat="43.4247" lon="6.02309">
        <ele>419.39999389648</ele>
        <time>2015-11-11T14:15:29Z</time>
      </trkpt>
      <trkpt lat="43.42472" lon="6.02301">
        <ele>420.20001220703</ele>
        <time>2015-11-11T14:15:33Z</time>
      </trkpt>
      <trkpt lat="43.42472" lon="6.02297">
        <ele>420.39999389648</ele>
        <time>2015-11-11T14:15:35Z</time>
      </trkpt>
      <trkpt lat="43.42473" lon="6.02293">
        <ele>420.79998779297</ele>
        <time>2015-11-11T14:15:37Z</time>
      </trkpt>
      <trkpt lat="43.42474" lon="6.02289">
        <ele>420.79998779297</ele>
        <time>2015-11-11T14:15:39Z</time>
      </trkpt>
      <trkpt lat="43.42474" lon="6.02284">
        <ele>420.79998779297</ele>
        <time>2015-11-11T14:15:41Z</time>
      </trkpt>
      <trkpt lat="43.42474" lon="6.0228">
        <ele>421.39999389648</ele>
        <time>2015-11-11T14:15:43Z</time>
      </trkpt>
      <trkpt lat="43.42474" lon="6.02276">
        <ele>421.60000610352</ele>
        <time>2015-11-11T14:15:45Z</time>
      </trkpt>
      <trkpt lat="43.42474" lon="6.02271">
        <ele>421.79998779297</ele>
        <time>2015-11-11T14:15:47Z</time>
      </trkpt>
      <trkpt lat="43.42474" lon="6.02267">
        <ele>421.79998779297</ele>
        <time>2015-11-11T14:15:49Z</time>
      </trkpt>
      <trkpt lat="43.42474" lon="6.02262">
        <ele>422.20001220703</ele>
        <time>2015-11-11T14:15:51Z</time>
      </trkpt>
      <trkpt lat="43.42474" lon="6.02257">
        <ele>422.39999389648</ele>
        <time>2015-11-11T14:15:53Z</time>
      </trkpt>
      <trkpt lat="43.42474" lon="6.02253">
        <ele>422.39999389648</ele>
        <time>2015-11-11T14:15:55Z</time>
      </trkpt>
      <trkpt lat="43.42474" lon="6.02244">
        <ele>422.60000610352</ele>
        <time>2015-11-11T14:15:59Z</time>
      </trkpt>
      <trkpt lat="43.42475" lon="6.02234">
        <ele>423.20001220703</ele>
        <time>2015-11-11T14:16:03Z</time>
      </trkpt>
      <trkpt lat="43.42475" lon="6.02228">
        <ele>422.79998779297</ele>
        <time>2015-11-11T14:16:05Z</time>
      </trkpt>
      <trkpt lat="43.42476" lon="6.02218">
        <ele>423</ele>
        <time>2015-11-11T14:16:09Z</time>
      </trkpt>
      <trkpt lat="43.42476" lon="6.02205">
        <ele>423.60000610352</ele>
        <time>2015-11-11T14:16:14Z</time>
      </trkpt>
      <trkpt lat="43.42476" lon="6.02203">
        <ele>423.39999389648</ele>
        <time>2015-11-11T14:16:15Z</time>
      </trkpt>
      <trkpt lat="43.42476" lon="6.02192">
        <ele>423.60000610352</ele>
        <time>2015-11-11T14:16:19Z</time>
      </trkpt>
      <trkpt lat="43.42476" lon="6.02187">
        <ele>423.60000610352</ele>
        <time>2015-11-11T14:16:21Z</time>
      </trkpt>
      <trkpt lat="43.42476" lon="6.02176">
        <ele>423.60000610352</ele>
        <time>2015-11-11T14:16:25Z</time>
      </trkpt>
      <trkpt lat="43.42476" lon="6.0217">
        <ele>423.39999389648</ele>
        <time>2015-11-11T14:16:27Z</time>
      </trkpt>
      <trkpt lat="43.42476" lon="6.02159">
        <ele>423.60000610352</ele>
        <time>2015-11-11T14:16:31Z</time>
      </trkpt>
      <trkpt lat="43.42477" lon="6.02146">
        <ele>424</ele>
        <time>2015-11-11T14:16:36Z</time>
      </trkpt>
      <trkpt lat="43.42477" lon="6.02143">
        <ele>424.20001220703</ele>
        <time>2015-11-11T14:16:37Z</time>
      </trkpt>
      <trkpt lat="43.42477" lon="6.02138">
        <ele>424</ele>
        <time>2015-11-11T14:16:39Z</time>
      </trkpt>
      <trkpt lat="43.42478" lon="6.02128">
        <ele>424.60000610352</ele>
        <time>2015-11-11T14:16:43Z</time>
      </trkpt>
      <trkpt lat="43.42478" lon="6.02122">
        <ele>425</ele>
        <time>2015-11-11T14:16:45Z</time>
      </trkpt>
      <trkpt lat="43.42478" lon="6.02117">
        <ele>425.20001220703</ele>
        <time>2015-11-11T14:16:47Z</time>
      </trkpt>
      <trkpt lat="43.42478" lon="6.02113">
        <ele>425.60000610352</ele>
        <time>2015-11-11T14:16:48Z</time>
      </trkpt>
      <trkpt lat="43.42478" lon="6.0211">
        <ele>425.79998779297</ele>
        <time>2015-11-11T14:16:50Z</time>
      </trkpt>
      <trkpt lat="43.42477" lon="6.02108">
        <ele>426</ele>
        <time>2015-11-11T14:16:51Z</time>
      </trkpt>
      <trkpt lat="43.42477" lon="6.02103">
        <ele>425.79998779297</ele>
        <time>2015-11-11T14:16:53Z</time>
      </trkpt>
      <trkpt lat="43.42477" lon="6.02098">
        <ele>426.20001220703</ele>
        <time>2015-11-11T14:16:55Z</time>
      </trkpt>
      <trkpt lat="43.42478" lon="6.02093">
        <ele>426.79998779297</ele>
        <time>2015-11-11T14:16:57Z</time>
      </trkpt>
      <trkpt lat="43.42478" lon="6.02087">
        <ele>427.20001220703</ele>
        <time>2015-11-11T14:16:59Z</time>
      </trkpt>
      <trkpt lat="43.42479" lon="6.02085">
        <ele>427.39999389648</ele>
        <time>2015-11-11T14:17:00Z</time>
      </trkpt>
      <trkpt lat="43.42479" lon="6.02083">
        <ele>427.60000610352</ele>
        <time>2015-11-11T14:17:01Z</time>
      </trkpt>
      <trkpt lat="43.4248" lon="6.02078">
        <ele>428.20001220703</ele>
        <time>2015-11-11T14:17:03Z</time>
      </trkpt>
      <trkpt lat="43.4248" lon="6.02074">
        <ele>429</ele>
        <time>2015-11-11T14:17:05Z</time>
      </trkpt>
      <trkpt lat="43.4248" lon="6.02069">
        <ele>429.60000610352</ele>
        <time>2015-11-11T14:17:07Z</time>
      </trkpt>
      <trkpt lat="43.4248" lon="6.02061">
        <ele>430.20001220703</ele>
        <time>2015-11-11T14:17:11Z</time>
      </trkpt>
      <trkpt lat="43.4248" lon="6.02057">
        <ele>430.39999389648</ele>
        <time>2015-11-11T14:17:13Z</time>
      </trkpt>
      <trkpt lat="43.4248" lon="6.02053">
        <ele>430.79998779297</ele>
        <time>2015-11-11T14:17:15Z</time>
      </trkpt>
      <trkpt lat="43.42481" lon="6.02044">
        <ele>431.39999389648</ele>
        <time>2015-11-11T14:17:19Z</time>
      </trkpt>
      <trkpt lat="43.4248" lon="6.02032">
        <ele>432.20001220703</ele>
        <time>2015-11-11T14:17:25Z</time>
      </trkpt>
      <trkpt lat="43.42479" lon="6.02028">
        <ele>432.39999389648</ele>
        <time>2015-11-11T14:17:27Z</time>
      </trkpt>
      <trkpt lat="43.42479" lon="6.02024">
        <ele>432.60000610352</ele>
        <time>2015-11-11T14:17:29Z</time>
      </trkpt>
      <trkpt lat="43.42479" lon="6.0202">
        <ele>432.79998779297</ele>
        <time>2015-11-11T14:17:31Z</time>
      </trkpt>
      <trkpt lat="43.4248" lon="6.02016">
        <ele>433</ele>
        <time>2015-11-11T14:17:33Z</time>
      </trkpt>
      <trkpt lat="43.4248" lon="6.02013">
        <ele>432.79998779297</ele>
        <time>2015-11-11T14:17:35Z</time>
      </trkpt>
      <trkpt lat="43.4248" lon="6.0201">
        <ele>433</ele>
        <time>2015-11-11T14:17:37Z</time>
      </trkpt>
      <trkpt lat="43.4248" lon="6.02009">
        <ele>433.60000610352</ele>
        <time>2015-11-11T14:17:39Z</time>
      </trkpt>
      <trkpt lat="43.4248" lon="6.02009">
        <ele>433.79998779297</ele>
        <time>2015-11-11T14:17:40Z</time>
      </trkpt>
      <trkpt lat="43.4248" lon="6.02009">
        <ele>434</ele>
        <time>2015-11-11T14:17:45Z</time>
      </trkpt>
      <trkpt lat="43.4248" lon="6.02009">
        <ele>433.79998779297</ele>
        <time>2015-11-11T14:18:17Z</time>
      </trkpt>
      <trkpt lat="43.42481" lon="6.02009">
        <ele>433.79998779297</ele>
        <time>2015-11-11T14:18:19Z</time>
      </trkpt>
      <trkpt lat="43.42481" lon="6.02009">
        <ele>433.60000610352</ele>
        <time>2015-11-11T14:18:25Z</time>
      </trkpt>
      <trkpt lat="43.42481" lon="6.02009">
        <ele>433.79998779297</ele>
        <time>2015-11-11T14:19:14Z</time>
      </trkpt>
      <trkpt lat="43.42481" lon="6.02009">
        <ele>433.79998779297</ele>
        <time>2015-11-11T14:19:16Z</time>
      </trkpt>
      <trkpt lat="43.4248" lon="6.02009">
        <ele>433.79998779297</ele>
        <time>2015-11-11T14:19:18Z</time>
      </trkpt>
      <trkpt lat="43.4248" lon="6.02009">
        <ele>434</ele>
        <time>2015-11-11T14:19:23Z</time>
      </trkpt>
      <trkpt lat="43.4248" lon="6.02009">
        <ele>434</ele>
        <time>2015-11-11T14:19:54Z</time>
      </trkpt>
      <trkpt lat="43.42481" lon="6.02009">
        <ele>433.79998779297</ele>
        <time>2015-11-11T14:19:56Z</time>
      </trkpt>
      <trkpt lat="43.42481" lon="6.02009">
        <ele>433.79998779297</ele>
        <time>2015-11-11T14:20:01Z</time>
      </trkpt>
      <trkpt lat="43.42481" lon="6.02009">
        <ele>434</ele>
        <time>2015-11-11T14:20:34Z</time>
      </trkpt>
      <trkpt lat="43.42481" lon="6.02009">
        <ele>434</ele>
        <time>2015-11-11T14:20:36Z</time>
      </trkpt>
      <trkpt lat="43.42481" lon="6.02009">
        <ele>434</ele>
        <time>2015-11-11T14:20:42Z</time>
      </trkpt>
      <trkpt lat="43.42481" lon="6.02009">
        <ele>434</ele>
        <time>2015-11-11T14:21:14Z</time>
      </trkpt>
      <trkpt lat="43.4248" lon="6.02008">
        <ele>434.20001220703</ele>
        <time>2015-11-11T14:21:16Z</time>
      </trkpt>
      <trkpt lat="43.4248" lon="6.02008">
        <ele>434.20001220703</ele>
        <time>2015-11-11T14:21:22Z</time>
      </trkpt>
      <trkpt lat="43.4248" lon="6.02008">
        <ele>434.39999389648</ele>
        <time>2015-11-11T14:21:54Z</time>
      </trkpt>
      <trkpt lat="43.4248" lon="6.02008">
        <ele>434.20001220703</ele>
        <time>2015-11-11T14:21:56Z</time>
      </trkpt>
      <trkpt lat="43.4248" lon="6.02008">
        <ele>434</ele>
        <time>2015-11-11T14:22:02Z</time>
      </trkpt>
      <trkpt lat="43.4248" lon="6.02008">
        <ele>434.39999389648</ele>
        <time>2015-11-11T14:22:18Z</time>
      </trkpt>
      <trkpt lat="43.42481" lon="6.02008">
        <ele>434.20001220703</ele>
        <time>2015-11-11T14:22:20Z</time>
      </trkpt>
      <trkpt lat="43.42481" lon="6.02008">
        <ele>434.20001220703</ele>
        <time>2015-11-11T14:22:26Z</time>
      </trkpt>
      <trkpt lat="43.42481" lon="6.02008">
        <ele>434.20001220703</ele>
        <time>2015-11-11T14:22:38Z</time>
      </trkpt>
      <trkpt lat="43.42481" lon="6.02008">
        <ele>434.39999389648</ele>
        <time>2015-11-11T14:22:40Z</time>
      </trkpt>
      <trkpt lat="43.42481" lon="6.02008">
        <ele>434.60000610352</ele>
        <time>2015-11-11T14:22:44Z</time>
      </trkpt>
      <trkpt lat="43.42481" lon="6.02008">
        <ele>434.79998779297</ele>
        <time>2015-11-11T14:23:04Z</time>
      </trkpt>
      <trkpt lat="43.42481" lon="6.02008">
        <ele>434.79998779297</ele>
        <time>2015-11-11T14:23:06Z</time>
      </trkpt>
      <trkpt lat="43.42482" lon="6.02007">
        <ele>434.39999389648</ele>
        <time>2015-11-11T14:23:09Z</time>
      </trkpt>
      <trkpt lat="43.42482" lon="6.02007">
        <ele>434.39999389648</ele>
        <time>2015-11-11T14:23:10Z</time>
      </trkpt>
      <trkpt lat="43.42482" lon="6.02007">
        <ele>434.60000610352</ele>
        <time>2015-11-11T14:23:15Z</time>
      </trkpt>
      <trkpt lat="43.42482" lon="6.02007">
        <ele>434.60000610352</ele>
        <time>2015-11-11T14:23:38Z</time>
      </trkpt>
      <trkpt lat="43.42483" lon="6.02007">
        <ele>434.60000610352</ele>
        <time>2015-11-11T14:23:39Z</time>
      </trkpt>
      <trkpt lat="43.42483" lon="6.02007">
        <ele>434.79998779297</ele>
        <time>2015-11-11T14:23:44Z</time>
      </trkpt>
      <trkpt lat="43.42483" lon="6.02007">
        <ele>434.79998779297</ele>
        <time>2015-11-11T14:23:51Z</time>
      </trkpt>
      <trkpt lat="43.42483" lon="6.02007">
        <ele>434.60000610352</ele>
        <time>2015-11-11T14:23:52Z</time>
      </trkpt>
      <trkpt lat="43.42485" lon="6.02006">
        <ele>434.79998779297</ele>
        <time>2015-11-11T14:23:53Z</time>
      </trkpt>
      <trkpt lat="43.42486" lon="6.02005">
        <ele>435</ele>
        <time>2015-11-11T14:23:54Z</time>
      </trkpt>
      <trkpt lat="43.42488" lon="6.02004">
        <ele>435.20001220703</ele>
        <time>2015-11-11T14:23:55Z</time>
      </trkpt>
      <trkpt lat="43.4249" lon="6.02004">
        <ele>435.20001220703</ele>
        <time>2015-11-11T14:23:56Z</time>
      </trkpt>
      <trkpt lat="43.42494" lon="6.02003">
        <ele>435.39999389648</ele>
        <time>2015-11-11T14:23:58Z</time>
      </trkpt>
      <trkpt lat="43.42499" lon="6.02002">
        <ele>435.60000610352</ele>
        <time>2015-11-11T14:24:00Z</time>
      </trkpt>
      <trkpt lat="43.42503" lon="6.02003">
        <ele>436</ele>
        <time>2015-11-11T14:24:02Z</time>
      </trkpt>
      <trkpt lat="43.4251" lon="6.02004">
        <ele>436</ele>
        <time>2015-11-11T14:24:04Z</time>
      </trkpt>
      <trkpt lat="43.42518" lon="6.02004">
        <ele>435.60000610352</ele>
        <time>2015-11-11T14:24:06Z</time>
      </trkpt>
      <trkpt lat="43.42526" lon="6.02005">
        <ele>435.60000610352</ele>
        <time>2015-11-11T14:24:08Z</time>
      </trkpt>
      <trkpt lat="43.42535" lon="6.02007">
        <ele>435</ele>
        <time>2015-11-11T14:24:10Z</time>
      </trkpt>
      <trkpt lat="43.42545" lon="6.02009">
        <ele>434.39999389648</ele>
        <time>2015-11-11T14:24:12Z</time>
      </trkpt>
      <trkpt lat="43.42551" lon="6.0201">
        <ele>433.60000610352</ele>
        <time>2015-11-11T14:24:13Z</time>
      </trkpt>
      <trkpt lat="43.42556" lon="6.0201">
        <ele>432.79998779297</ele>
        <time>2015-11-11T14:24:14Z</time>
      </trkpt>
      <trkpt lat="43.42567" lon="6.02011">
        <ele>430.79998779297</ele>
        <time>2015-11-11T14:24:16Z</time>
      </trkpt>
      <trkpt lat="43.42577" lon="6.02013">
        <ele>429.39999389648</ele>
        <time>2015-11-11T14:24:18Z</time>
      </trkpt>
      <trkpt lat="43.42589" lon="6.02016">
        <ele>428</ele>
        <time>2015-11-11T14:24:20Z</time>
      </trkpt>
      <trkpt lat="43.426" lon="6.02017">
        <ele>426.60000610352</ele>
        <time>2015-11-11T14:24:22Z</time>
      </trkpt>
      <trkpt lat="43.4261" lon="6.02018">
        <ele>425.79998779297</ele>
        <time>2015-11-11T14:24:24Z</time>
      </trkpt>
      <trkpt lat="43.42616" lon="6.02019">
        <ele>424.79998779297</ele>
        <time>2015-11-11T14:24:25Z</time>
      </trkpt>
      <trkpt lat="43.4262" lon="6.0202">
        <ele>423.79998779297</ele>
        <time>2015-11-11T14:24:26Z</time>
      </trkpt>
      <trkpt lat="43.42632" lon="6.02022">
        <ele>421.79998779297</ele>
        <time>2015-11-11T14:24:28Z</time>
      </trkpt>
      <trkpt lat="43.42637" lon="6.02024">
        <ele>420.79998779297</ele>
        <time>2015-11-11T14:24:29Z</time>
      </trkpt>
      <trkpt lat="43.42643" lon="6.02024">
        <ele>419.79998779297</ele>
        <time>2015-11-11T14:24:30Z</time>
      </trkpt>
      <trkpt lat="43.42649" lon="6.02024">
        <ele>418.79998779297</ele>
        <time>2015-11-11T14:24:31Z</time>
      </trkpt>
      <trkpt lat="43.42654" lon="6.02025">
        <ele>418.20001220703</ele>
        <time>2015-11-11T14:24:32Z</time>
      </trkpt>
      <trkpt lat="43.42666" lon="6.02027">
        <ele>416.39999389648</ele>
        <time>2015-11-11T14:24:34Z</time>
      </trkpt>
      <trkpt lat="43.42673" lon="6.02028">
        <ele>414.60000610352</ele>
        <time>2015-11-11T14:24:35Z</time>
      </trkpt>
      <trkpt lat="43.4268" lon="6.02029">
        <ele>413</ele>
        <time>2015-11-11T14:24:36Z</time>
      </trkpt>
      <trkpt lat="43.42687" lon="6.0203">
        <ele>411.39999389648</ele>
        <time>2015-11-11T14:24:37Z</time>
      </trkpt>
      <trkpt lat="43.42693" lon="6.02031">
        <ele>410.79998779297</ele>
        <time>2015-11-11T14:24:38Z</time>
      </trkpt>
      <trkpt lat="43.42699" lon="6.02032">
        <ele>410</ele>
        <time>2015-11-11T14:24:39Z</time>
      </trkpt>
      <trkpt lat="43.42705" lon="6.02033">
        <ele>409.60000610352</ele>
        <time>2015-11-11T14:24:40Z</time>
      </trkpt>
      <trkpt lat="43.42717" lon="6.02034">
        <ele>408.39999389648</ele>
        <time>2015-11-11T14:24:42Z</time>
      </trkpt>
      <trkpt lat="43.42724" lon="6.02035">
        <ele>407.39999389648</ele>
        <time>2015-11-11T14:24:43Z</time>
      </trkpt>
      <trkpt lat="43.42731" lon="6.02036">
        <ele>406.20001220703</ele>
        <time>2015-11-11T14:24:44Z</time>
      </trkpt>
      <trkpt lat="43.4274" lon="6.02038">
        <ele>405.79998779297</ele>
        <time>2015-11-11T14:24:46Z</time>
      </trkpt>
      <trkpt lat="43.4274" lon="6.02042">
        <ele>406.39999389648</ele>
        <time>2015-11-11T14:24:48Z</time>
      </trkpt>
      <trkpt lat="43.42739" lon="6.02048">
        <ele>406.60000610352</ele>
        <time>2015-11-11T14:24:50Z</time>
      </trkpt>
      <trkpt lat="43.4274" lon="6.02054">
        <ele>406.60000610352</ele>
        <time>2015-11-11T14:24:52Z</time>
      </trkpt>
      <trkpt lat="43.42739" lon="6.02063">
        <ele>406.39999389648</ele>
        <time>2015-11-11T14:24:54Z</time>
      </trkpt>
      <trkpt lat="43.42738" lon="6.02074">
        <ele>406.20001220703</ele>
        <time>2015-11-11T14:24:56Z</time>
      </trkpt>
      <trkpt lat="43.42736" lon="6.0208">
        <ele>406</ele>
        <time>2015-11-11T14:24:57Z</time>
      </trkpt>
      <trkpt lat="43.42735" lon="6.02086">
        <ele>405.79998779297</ele>
        <time>2015-11-11T14:24:58Z</time>
      </trkpt>
      <trkpt lat="43.42734" lon="6.02099">
        <ele>405.79998779297</ele>
        <time>2015-11-11T14:25:00Z</time>
      </trkpt>
      <trkpt lat="43.42732" lon="6.0211">
        <ele>406.20001220703</ele>
        <time>2015-11-11T14:25:02Z</time>
      </trkpt>
      <trkpt lat="43.42729" lon="6.02122">
        <ele>406.39999389648</ele>
        <time>2015-11-11T14:25:04Z</time>
      </trkpt>
      <trkpt lat="43.42726" lon="6.02134">
        <ele>405.79998779297</ele>
        <time>2015-11-11T14:25:06Z</time>
      </trkpt>
      <trkpt lat="43.42723" lon="6.02139">
        <ele>405.20001220703</ele>
        <time>2015-11-11T14:25:07Z</time>
      </trkpt>
      <trkpt lat="43.42721" lon="6.02144">
        <ele>405</ele>
        <time>2015-11-11T14:25:08Z</time>
      </trkpt>
      <trkpt lat="43.42717" lon="6.02149">
        <ele>404.60000610352</ele>
        <time>2015-11-11T14:25:10Z</time>
      </trkpt>
      <trkpt lat="43.42717" lon="6.02151">
        <ele>404.60000610352</ele>
        <time>2015-11-11T14:25:11Z</time>
      </trkpt>
      <trkpt lat="43.42717" lon="6.0215">
        <ele>404.60000610352</ele>
        <time>2015-11-11T14:25:12Z</time>
      </trkpt>
      <trkpt lat="43.42717" lon="6.02151">
        <ele>404.79998779297</ele>
        <time>2015-11-11T14:25:13Z</time>
      </trkpt>
      <trkpt lat="43.42717" lon="6.02151">
        <ele>404.79998779297</ele>
        <time>2015-11-11T14:25:17Z</time>
      </trkpt>
      <trkpt lat="43.42717" lon="6.02151">
        <ele>404.60000610352</ele>
        <time>2015-11-11T14:25:23Z</time>
      </trkpt>
      <trkpt lat="43.42717" lon="6.02151">
        <ele>404.79998779297</ele>
        <time>2015-11-11T14:25:25Z</time>
      </trkpt>
      <trkpt lat="43.42717" lon="6.02152">
        <ele>404.60000610352</ele>
        <time>2015-11-11T14:25:27Z</time>
      </trkpt>
      <trkpt lat="43.42717" lon="6.02152">
        <ele>404.60000610352</ele>
        <time>2015-11-11T14:25:31Z</time>
      </trkpt>
      <trkpt lat="43.42717" lon="6.02152">
        <ele>404.39999389648</ele>
        <time>2015-11-11T14:26:05Z</time>
      </trkpt>
      <trkpt lat="43.42717" lon="6.02152">
        <ele>404.39999389648</ele>
        <time>2015-11-11T14:26:07Z</time>
      </trkpt>
      <trkpt lat="43.42717" lon="6.02153">
        <ele>404.60000610352</ele>
        <time>2015-11-11T14:26:09Z</time>
      </trkpt>
      <trkpt lat="43.42717" lon="6.02154">
        <ele>404.39999389648</ele>
        <time>2015-11-11T14:26:11Z</time>
      </trkpt>
      <trkpt lat="43.42718" lon="6.02155">
        <ele>404.20001220703</ele>
        <time>2015-11-11T14:26:13Z</time>
      </trkpt>
      <trkpt lat="43.42718" lon="6.02155">
        <ele>404.20001220703</ele>
        <time>2015-11-11T14:26:19Z</time>
      </trkpt>
      <trkpt lat="43.42718" lon="6.02155">
        <ele>404.39999389648</ele>
        <time>2015-11-11T14:26:39Z</time>
      </trkpt>
      <trkpt lat="43.42717" lon="6.02155">
        <ele>404.39999389648</ele>
        <time>2015-11-11T14:26:40Z</time>
      </trkpt>
      <trkpt lat="43.42717" lon="6.02155">
        <ele>404.39999389648</ele>
        <time>2015-11-11T14:26:41Z</time>
      </trkpt>
      <trkpt lat="43.42717" lon="6.02154">
        <ele>404.39999389648</ele>
        <time>2015-11-11T14:26:43Z</time>
      </trkpt>
      <trkpt lat="43.42717" lon="6.02154">
        <ele>404.20001220703</ele>
        <time>2015-11-11T14:26:45Z</time>
      </trkpt>
      <trkpt lat="43.42717" lon="6.02154">
        <ele>404.39999389648</ele>
        <time>2015-11-11T14:26:51Z</time>
      </trkpt>
      <trkpt lat="43.42717" lon="6.02154">
        <ele>404.60000610352</ele>
        <time>2015-11-11T14:27:05Z</time>
      </trkpt>
      <trkpt lat="43.42717" lon="6.02155">
        <ele>404.60000610352</ele>
        <time>2015-11-11T14:27:07Z</time>
      </trkpt>
      <trkpt lat="43.42717" lon="6.02155">
        <ele>404.39999389648</ele>
        <time>2015-11-11T14:27:09Z</time>
      </trkpt>
      <trkpt lat="43.42718" lon="6.02156">
        <ele>404.39999389648</ele>
        <time>2015-11-11T14:27:11Z</time>
      </trkpt>
      <trkpt lat="43.42718" lon="6.02156">
        <ele>404.20001220703</ele>
        <time>2015-11-11T14:27:17Z</time>
      </trkpt>
      <trkpt lat="43.42718" lon="6.02156">
        <ele>404.20001220703</ele>
        <time>2015-11-11T14:27:33Z</time>
      </trkpt>
      <trkpt lat="43.42718" lon="6.02156">
        <ele>404.20001220703</ele>
        <time>2015-11-11T14:27:35Z</time>
      </trkpt>
      <trkpt lat="43.42718" lon="6.02156">
        <ele>404.20001220703</ele>
        <time>2015-11-11T14:27:39Z</time>
      </trkpt>
      <trkpt lat="43.42718" lon="6.02156">
        <ele>404.39999389648</ele>
        <time>2015-11-11T14:27:43Z</time>
      </trkpt>
      <trkpt lat="43.42718" lon="6.02157">
        <ele>404.39999389648</ele>
        <time>2015-11-11T14:27:44Z</time>
      </trkpt>
      <trkpt lat="43.42719" lon="6.02159">
        <ele>404.20001220703</ele>
        <time>2015-11-11T14:27:45Z</time>
      </trkpt>
      <trkpt lat="43.42719" lon="6.02162">
        <ele>404</ele>
        <time>2015-11-11T14:27:46Z</time>
      </trkpt>
      <trkpt lat="43.42719" lon="6.02165">
        <ele>404</ele>
        <time>2015-11-11T14:27:47Z</time>
      </trkpt>
      <trkpt lat="43.42722" lon="6.0217">
        <ele>403.60000610352</ele>
        <time>2015-11-11T14:27:49Z</time>
      </trkpt>
      <trkpt lat="43.42724" lon="6.02172">
        <ele>403.39999389648</ele>
        <time>2015-11-11T14:27:50Z</time>
      </trkpt>
      <trkpt lat="43.42726" lon="6.02174">
        <ele>403</ele>
        <time>2015-11-11T14:27:51Z</time>
      </trkpt>
      <trkpt lat="43.42731" lon="6.02179">
        <ele>402.20001220703</ele>
        <time>2015-11-11T14:27:53Z</time>
      </trkpt>
      <trkpt lat="43.42735" lon="6.0218">
        <ele>402</ele>
        <time>2015-11-11T14:27:54Z</time>
      </trkpt>
      <trkpt lat="43.42738" lon="6.02181">
        <ele>401.60000610352</ele>
        <time>2015-11-11T14:27:55Z</time>
      </trkpt>
      <trkpt lat="43.42744" lon="6.02184">
        <ele>400.79998779297</ele>
        <time>2015-11-11T14:27:57Z</time>
      </trkpt>
      <trkpt lat="43.42748" lon="6.02188">
        <ele>400.60000610352</ele>
        <time>2015-11-11T14:27:59Z</time>
      </trkpt>
      <trkpt lat="43.42752" lon="6.02191">
        <ele>400.39999389648</ele>
        <time>2015-11-11T14:28:01Z</time>
      </trkpt>
      <trkpt lat="43.42755" lon="6.02193">
        <ele>399.39999389648</ele>
        <time>2015-11-11T14:28:03Z</time>
      </trkpt>
      <trkpt lat="43.42757" lon="6.02194">
        <ele>399.20001220703</ele>
        <time>2015-11-11T14:28:04Z</time>
      </trkpt>
      <trkpt lat="43.42762" lon="6.02201">
        <ele>398.39999389648</ele>
        <time>2015-11-11T14:28:07Z</time>
      </trkpt>
      <trkpt lat="43.42765" lon="6.02204">
        <ele>398.20001220703</ele>
        <time>2015-11-11T14:28:08Z</time>
      </trkpt>
      <trkpt lat="43.42766" lon="6.02207">
        <ele>397.79998779297</ele>
        <time>2015-11-11T14:28:09Z</time>
      </trkpt>
      <trkpt lat="43.42768" lon="6.02212">
        <ele>397.79998779297</ele>
        <time>2015-11-11T14:28:11Z</time>
      </trkpt>
      <trkpt lat="43.4277" lon="6.02217">
        <ele>397.39999389648</ele>
        <time>2015-11-11T14:28:13Z</time>
      </trkpt>
      <trkpt lat="43.42773" lon="6.02223">
        <ele>396.79998779297</ele>
        <time>2015-11-11T14:28:15Z</time>
      </trkpt>
      <trkpt lat="43.42775" lon="6.02229">
        <ele>396.20001220703</ele>
        <time>2015-11-11T14:28:17Z</time>
      </trkpt>
      <trkpt lat="43.42778" lon="6.02235">
        <ele>395.79998779297</ele>
        <time>2015-11-11T14:28:19Z</time>
      </trkpt>
      <trkpt lat="43.4278" lon="6.02239">
        <ele>395.39999389648</ele>
        <time>2015-11-11T14:28:21Z</time>
      </trkpt>
      <trkpt lat="43.42783" lon="6.02245">
        <ele>395</ele>
        <time>2015-11-11T14:28:23Z</time>
      </trkpt>
      <trkpt lat="43.42785" lon="6.02247">
        <ele>394.79998779297</ele>
        <time>2015-11-11T14:28:24Z</time>
      </trkpt>
      <trkpt lat="43.42787" lon="6.0225">
        <ele>394.60000610352</ele>
        <time>2015-11-11T14:28:25Z</time>
      </trkpt>
      <trkpt lat="43.4279" lon="6.02254">
        <ele>394.20001220703</ele>
        <time>2015-11-11T14:28:27Z</time>
      </trkpt>
      <trkpt lat="43.42792" lon="6.02256">
        <ele>393.79998779297</ele>
        <time>2015-11-11T14:28:28Z</time>
      </trkpt>
      <trkpt lat="43.42793" lon="6.02259">
        <ele>393.60000610352</ele>
        <time>2015-11-11T14:28:29Z</time>
      </trkpt>
      <trkpt lat="43.42794" lon="6.02261">
        <ele>393.60000610352</ele>
        <time>2015-11-11T14:28:30Z</time>
      </trkpt>
      <trkpt lat="43.42794" lon="6.02265">
        <ele>393.20001220703</ele>
        <time>2015-11-11T14:28:31Z</time>
      </trkpt>
      <trkpt lat="43.4279" lon="6.02272">
        <ele>393</ele>
        <time>2015-11-11T14:28:33Z</time>
      </trkpt>
      <trkpt lat="43.42789" lon="6.02275">
        <ele>392.79998779297</ele>
        <time>2015-11-11T14:28:34Z</time>
      </trkpt>
      <trkpt lat="43.42787" lon="6.02277">
        <ele>392.79998779297</ele>
        <time>2015-11-11T14:28:35Z</time>
      </trkpt>
      <trkpt lat="43.42785" lon="6.02284">
        <ele>392.39999389648</ele>
        <time>2015-11-11T14:28:37Z</time>
      </trkpt>
      <trkpt lat="43.42786" lon="6.0229">
        <ele>392</ele>
        <time>2015-11-11T14:28:39Z</time>
      </trkpt>
      <trkpt lat="43.42787" lon="6.02292">
        <ele>391.79998779297</ele>
        <time>2015-11-11T14:28:40Z</time>
      </trkpt>
      <trkpt lat="43.42789" lon="6.02293">
        <ele>391.60000610352</ele>
        <time>2015-11-11T14:28:41Z</time>
      </trkpt>
      <trkpt lat="43.42794" lon="6.02294">
        <ele>391.20001220703</ele>
        <time>2015-11-11T14:28:43Z</time>
      </trkpt>
      <trkpt lat="43.42801" lon="6.02295">
        <ele>391</ele>
        <time>2015-11-11T14:28:45Z</time>
      </trkpt>
      <trkpt lat="43.42804" lon="6.02297">
        <ele>391</ele>
        <time>2015-11-11T14:28:46Z</time>
      </trkpt>
      <trkpt lat="43.42806" lon="6.02299">
        <ele>391</ele>
        <time>2015-11-11T14:28:47Z</time>
      </trkpt>
      <trkpt lat="43.42807" lon="6.02306">
        <ele>390.60000610352</ele>
        <time>2015-11-11T14:28:49Z</time>
      </trkpt>
      <trkpt lat="43.42807" lon="6.02309">
        <ele>390.60000610352</ele>
        <time>2015-11-11T14:28:50Z</time>
      </trkpt>
      <trkpt lat="43.42807" lon="6.02313">
        <ele>390.39999389648</ele>
        <time>2015-11-11T14:28:51Z</time>
      </trkpt>
      <trkpt lat="43.42805" lon="6.02318">
        <ele>390</ele>
        <time>2015-11-11T14:28:53Z</time>
      </trkpt>
      <trkpt lat="43.42803" lon="6.0232">
        <ele>389.60000610352</ele>
        <time>2015-11-11T14:28:54Z</time>
      </trkpt>
      <trkpt lat="43.42802" lon="6.02324">
        <ele>389.20001220703</ele>
        <time>2015-11-11T14:28:55Z</time>
      </trkpt>
      <trkpt lat="43.428" lon="6.02331">
        <ele>388.79998779297</ele>
        <time>2015-11-11T14:28:57Z</time>
      </trkpt>
      <trkpt lat="43.42797" lon="6.02337">
        <ele>388.39999389648</ele>
        <time>2015-11-11T14:28:59Z</time>
      </trkpt>
      <trkpt lat="43.42794" lon="6.02342">
        <ele>388.20001220703</ele>
        <time>2015-11-11T14:29:01Z</time>
      </trkpt>
      <trkpt lat="43.42791" lon="6.02348">
        <ele>388.20001220703</ele>
        <time>2015-11-11T14:29:03Z</time>
      </trkpt>
      <trkpt lat="43.42789" lon="6.02351">
        <ele>387.79998779297</ele>
        <time>2015-11-11T14:29:05Z</time>
      </trkpt>
      <trkpt lat="43.42789" lon="6.02352">
        <ele>387.60000610352</ele>
        <time>2015-11-11T14:29:06Z</time>
      </trkpt>
      <trkpt lat="43.42789" lon="6.02352">
        <ele>387.60000610352</ele>
        <time>2015-11-11T14:29:07Z</time>
      </trkpt>
      <trkpt lat="43.42788" lon="6.02352">
        <ele>388</ele>
        <time>2015-11-11T14:29:09Z</time>
      </trkpt>
      <trkpt lat="43.42788" lon="6.02352">
        <ele>387.79998779297</ele>
        <time>2015-11-11T14:29:12Z</time>
      </trkpt>
      <trkpt lat="43.42788" lon="6.02352">
        <ele>387.79998779297</ele>
        <time>2015-11-11T14:29:13Z</time>
      </trkpt>
      <trkpt lat="43.42788" lon="6.02353">
        <ele>387.79998779297</ele>
        <time>2015-11-11T14:29:15Z</time>
      </trkpt>
      <trkpt lat="43.42788" lon="6.02356">
        <ele>387.79998779297</ele>
        <time>2015-11-11T14:29:17Z</time>
      </trkpt>
      <trkpt lat="43.42788" lon="6.02358">
        <ele>387.60000610352</ele>
        <time>2015-11-11T14:29:18Z</time>
      </trkpt>
      <trkpt lat="43.42789" lon="6.0236">
        <ele>387.20001220703</ele>
        <time>2015-11-11T14:29:19Z</time>
      </trkpt>
      <trkpt lat="43.42789" lon="6.02366">
        <ele>386.60000610352</ele>
        <time>2015-11-11T14:29:21Z</time>
      </trkpt>
      <trkpt lat="43.42791" lon="6.02372">
        <ele>386.20001220703</ele>
        <time>2015-11-11T14:29:23Z</time>
      </trkpt>
      <trkpt lat="43.42792" lon="6.02374">
        <ele>386</ele>
        <time>2015-11-11T14:29:24Z</time>
      </trkpt>
      <trkpt lat="43.42793" lon="6.02375">
        <ele>385.79998779297</ele>
        <time>2015-11-11T14:29:25Z</time>
      </trkpt>
      <trkpt lat="43.42793" lon="6.02377">
        <ele>385.60000610352</ele>
        <time>2015-11-11T14:29:26Z</time>
      </trkpt>
      <trkpt lat="43.42793" lon="6.02378">
        <ele>385.39999389648</ele>
        <time>2015-11-11T14:29:27Z</time>
      </trkpt>
      <trkpt lat="43.42793" lon="6.02381">
        <ele>385.20001220703</ele>
        <time>2015-11-11T14:29:29Z</time>
      </trkpt>
      <trkpt lat="43.42796" lon="6.02386">
        <ele>384.79998779297</ele>
        <time>2015-11-11T14:29:31Z</time>
      </trkpt>
      <trkpt lat="43.42797" lon="6.02392">
        <ele>384.20001220703</ele>
        <time>2015-11-11T14:29:33Z</time>
      </trkpt>
      <trkpt lat="43.42798" lon="6.02398">
        <ele>383.79998779297</ele>
        <time>2015-11-11T14:29:35Z</time>
      </trkpt>
      <trkpt lat="43.42801" lon="6.02404">
        <ele>383.20001220703</ele>
        <time>2015-11-11T14:29:37Z</time>
      </trkpt>
      <trkpt lat="43.42802" lon="6.02407">
        <ele>383.20001220703</ele>
        <time>2015-11-11T14:29:38Z</time>
      </trkpt>
      <trkpt lat="43.42804" lon="6.02411">
        <ele>383.20001220703</ele>
        <time>2015-11-11T14:29:39Z</time>
      </trkpt>
      <trkpt lat="43.42803" lon="6.02414">
        <ele>383.20001220703</ele>
        <time>2015-11-11T14:29:40Z</time>
      </trkpt>
      <trkpt lat="43.42803" lon="6.02419">
        <ele>382.79998779297</ele>
        <time>2015-11-11T14:29:41Z</time>
      </trkpt>
      <trkpt lat="43.42802" lon="6.02423">
        <ele>382.60000610352</ele>
        <time>2015-11-11T14:29:42Z</time>
      </trkpt>
      <trkpt lat="43.42801" lon="6.02433">
        <ele>381.60000610352</ele>
        <time>2015-11-11T14:29:44Z</time>
      </trkpt>
      <trkpt lat="43.42801" lon="6.02436">
        <ele>381.39999389648</ele>
        <time>2015-11-11T14:29:45Z</time>
      </trkpt>
      <trkpt lat="43.428" lon="6.02443">
        <ele>381</ele>
        <time>2015-11-11T14:29:47Z</time>
      </trkpt>
      <trkpt lat="43.42801" lon="6.02451">
        <ele>380.39999389648</ele>
        <time>2015-11-11T14:29:49Z</time>
      </trkpt>
      <trkpt lat="43.42803" lon="6.02457">
        <ele>380</ele>
        <time>2015-11-11T14:29:51Z</time>
      </trkpt>
      <trkpt lat="43.42805" lon="6.02463">
        <ele>379.79998779297</ele>
        <time>2015-11-11T14:29:53Z</time>
      </trkpt>
      <trkpt lat="43.42805" lon="6.02469">
        <ele>379.39999389648</ele>
        <time>2015-11-11T14:29:55Z</time>
      </trkpt>
      <trkpt lat="43.42803" lon="6.02476">
        <ele>378.79998779297</ele>
        <time>2015-11-11T14:29:57Z</time>
      </trkpt>
      <trkpt lat="43.42802" lon="6.02481">
        <ele>378.39999389648</ele>
        <time>2015-11-11T14:29:59Z</time>
      </trkpt>
      <trkpt lat="43.42802" lon="6.02483">
        <ele>378.39999389648</ele>
        <time>2015-11-11T14:30:00Z</time>
      </trkpt>
      <trkpt lat="43.42801" lon="6.02487">
        <ele>378.39999389648</ele>
        <time>2015-11-11T14:30:01Z</time>
      </trkpt>
      <trkpt lat="43.428" lon="6.02493">
        <ele>377.79998779297</ele>
        <time>2015-11-11T14:30:03Z</time>
      </trkpt>
      <trkpt lat="43.428" lon="6.02496">
        <ele>377.79998779297</ele>
        <time>2015-11-11T14:30:04Z</time>
      </trkpt>
      <trkpt lat="43.42799" lon="6.025">
        <ele>377.60000610352</ele>
        <time>2015-11-11T14:30:05Z</time>
      </trkpt>
      <trkpt lat="43.42796" lon="6.02507">
        <ele>376.79998779297</ele>
        <time>2015-11-11T14:30:07Z</time>
      </trkpt>
      <trkpt lat="43.42796" lon="6.0251">
        <ele>376.60000610352</ele>
        <time>2015-11-11T14:30:08Z</time>
      </trkpt>
      <trkpt lat="43.42797" lon="6.02514">
        <ele>376.39999389648</ele>
        <time>2015-11-11T14:30:09Z</time>
      </trkpt>
      <trkpt lat="43.42804" lon="6.0252">
        <ele>375.79998779297</ele>
        <time>2015-11-11T14:30:12Z</time>
      </trkpt>
      <trkpt lat="43.42806" lon="6.02521">
        <ele>375.60000610352</ele>
        <time>2015-11-11T14:30:13Z</time>
      </trkpt>
      <trkpt lat="43.42811" lon="6.02523">
        <ele>375.39999389648</ele>
        <time>2015-11-11T14:30:15Z</time>
      </trkpt>
      <trkpt lat="43.42815" lon="6.02522">
        <ele>375.20001220703</ele>
        <time>2015-11-11T14:30:17Z</time>
      </trkpt>
      <trkpt lat="43.4282" lon="6.02521">
        <ele>375</ele>
        <time>2015-11-11T14:30:19Z</time>
      </trkpt>
      <trkpt lat="43.42825" lon="6.0252">
        <ele>375</ele>
        <time>2015-11-11T14:30:21Z</time>
      </trkpt>
      <trkpt lat="43.42827" lon="6.0252">
        <ele>374.79998779297</ele>
        <time>2015-11-11T14:30:22Z</time>
      </trkpt>
      <trkpt lat="43.42829" lon="6.02521">
        <ele>374.39999389648</ele>
        <time>2015-11-11T14:30:23Z</time>
      </trkpt>
      <trkpt lat="43.4283" lon="6.02521">
        <ele>374.39999389648</ele>
        <time>2015-11-11T14:30:24Z</time>
      </trkpt>
      <trkpt lat="43.42831" lon="6.02522">
        <ele>374.60000610352</ele>
        <time>2015-11-11T14:30:25Z</time>
      </trkpt>
      <trkpt lat="43.42831" lon="6.02521">
        <ele>374.60000610352</ele>
        <time>2015-11-11T14:30:26Z</time>
      </trkpt>
      <trkpt lat="43.42831" lon="6.02522">
        <ele>374.60000610352</ele>
        <time>2015-11-11T14:30:27Z</time>
      </trkpt>
      <trkpt lat="43.42831" lon="6.02522">
        <ele>374.39999389648</ele>
        <time>2015-11-11T14:30:29Z</time>
      </trkpt>
      <trkpt lat="43.42832" lon="6.02522">
        <ele>374.60000610352</ele>
        <time>2015-11-11T14:30:31Z</time>
      </trkpt>
      <trkpt lat="43.42832" lon="6.02522">
        <ele>374.39999389648</ele>
        <time>2015-11-11T14:30:35Z</time>
      </trkpt>
      <trkpt lat="43.42833" lon="6.02523">
        <ele>374.39999389648</ele>
        <time>2015-11-11T14:30:37Z</time>
      </trkpt>
      <trkpt lat="43.42833" lon="6.02523">
        <ele>374.60000610352</ele>
        <time>2015-11-11T14:30:43Z</time>
      </trkpt>
      <trkpt lat="43.42833" lon="6.02523">
        <ele>374.60000610352</ele>
        <time>2015-11-11T14:30:51Z</time>
      </trkpt>
      <trkpt lat="43.42833" lon="6.02523">
        <ele>374.39999389648</ele>
        <time>2015-11-11T14:30:53Z</time>
      </trkpt>
      <trkpt lat="43.42835" lon="6.02527">
        <ele>374.20001220703</ele>
        <time>2015-11-11T14:30:55Z</time>
      </trkpt>
      <trkpt lat="43.42838" lon="6.02532">
        <ele>374.20001220703</ele>
        <time>2015-11-11T14:30:57Z</time>
      </trkpt>
      <trkpt lat="43.42841" lon="6.02535">
        <ele>374.20001220703</ele>
        <time>2015-11-11T14:30:58Z</time>
      </trkpt>
      <trkpt lat="43.42842" lon="6.02538">
        <ele>373.79998779297</ele>
        <time>2015-11-11T14:30:59Z</time>
      </trkpt>
      <trkpt lat="43.42846" lon="6.02546">
        <ele>373.60000610352</ele>
        <time>2015-11-11T14:31:01Z</time>
      </trkpt>
      <trkpt lat="43.42853" lon="6.02549">
        <ele>373.20001220703</ele>
        <time>2015-11-11T14:31:03Z</time>
      </trkpt>
      <trkpt lat="43.42857" lon="6.02552">
        <ele>372.79998779297</ele>
        <time>2015-11-11T14:31:05Z</time>
      </trkpt>
      <trkpt lat="43.4286" lon="6.02555">
        <ele>372.39999389648</ele>
        <time>2015-11-11T14:31:06Z</time>
      </trkpt>
      <trkpt lat="43.42861" lon="6.02559">
        <ele>372</ele>
        <time>2015-11-11T14:31:07Z</time>
      </trkpt>
      <trkpt lat="43.42866" lon="6.02567">
        <ele>371.39999389648</ele>
        <time>2015-11-11T14:31:09Z</time>
      </trkpt>
      <trkpt lat="43.42872" lon="6.02574">
        <ele>370.79998779297</ele>
        <time>2015-11-11T14:31:11Z</time>
      </trkpt>
      <trkpt lat="43.42874" lon="6.02577">
        <ele>370.60000610352</ele>
        <time>2015-11-11T14:31:12Z</time>
      </trkpt>
      <trkpt lat="43.42875" lon="6.02579">
        <ele>370.39999389648</ele>
        <time>2015-11-11T14:31:13Z</time>
      </trkpt>
      <trkpt lat="43.42879" lon="6.02585">
        <ele>370.20001220703</ele>
        <time>2015-11-11T14:31:15Z</time>
      </trkpt>
      <trkpt lat="43.42883" lon="6.0259">
        <ele>369.60000610352</ele>
        <time>2015-11-11T14:31:17Z</time>
      </trkpt>
      <trkpt lat="43.42886" lon="6.02595">
        <ele>369.20001220703</ele>
        <time>2015-11-11T14:31:19Z</time>
      </trkpt>
      <trkpt lat="43.42888" lon="6.026">
        <ele>368.79998779297</ele>
        <time>2015-11-11T14:31:21Z</time>
      </trkpt>
      <trkpt lat="43.4289" lon="6.02607">
        <ele>368.60000610352</ele>
        <time>2015-11-11T14:31:23Z</time>
      </trkpt>
      <trkpt lat="43.4289" lon="6.02612">
        <ele>368</ele>
        <time>2015-11-11T14:31:25Z</time>
      </trkpt>
      <trkpt lat="43.42891" lon="6.02619">
        <ele>367.60000610352</ele>
        <time>2015-11-11T14:31:27Z</time>
      </trkpt>
      <trkpt lat="43.42892" lon="6.02623">
        <ele>367.39999389648</ele>
        <time>2015-11-11T14:31:28Z</time>
      </trkpt>
      <trkpt lat="43.42894" lon="6.02626">
        <ele>367.20001220703</ele>
        <time>2015-11-11T14:31:29Z</time>
      </trkpt>
      <trkpt lat="43.42897" lon="6.02634">
        <ele>366.79998779297</ele>
        <time>2015-11-11T14:31:31Z</time>
      </trkpt>
      <trkpt lat="43.42897" lon="6.02638">
        <ele>366.60000610352</ele>
        <time>2015-11-11T14:31:32Z</time>
      </trkpt>
      <trkpt lat="43.42897" lon="6.02642">
        <ele>366.60000610352</ele>
        <time>2015-11-11T14:31:33Z</time>
      </trkpt>
      <trkpt lat="43.42896" lon="6.02651">
        <ele>366.39999389648</ele>
        <time>2015-11-11T14:31:35Z</time>
      </trkpt>
      <trkpt lat="43.42897" lon="6.02659">
        <ele>366.20001220703</ele>
        <time>2015-11-11T14:31:37Z</time>
      </trkpt>
      <trkpt lat="43.42901" lon="6.02666">
        <ele>365.79998779297</ele>
        <time>2015-11-11T14:31:39Z</time>
      </trkpt>
      <trkpt lat="43.42903" lon="6.02669">
        <ele>365.79998779297</ele>
        <time>2015-11-11T14:31:40Z</time>
      </trkpt>
      <trkpt lat="43.42905" lon="6.0267">
        <ele>365.60000610352</ele>
        <time>2015-11-11T14:31:41Z</time>
      </trkpt>
      <trkpt lat="43.42907" lon="6.0267">
        <ele>365.39999389648</ele>
        <time>2015-11-11T14:31:42Z</time>
      </trkpt>
      <trkpt lat="43.42912" lon="6.02673">
        <ele>365.20001220703</ele>
        <time>2015-11-11T14:31:45Z</time>
      </trkpt>
      <trkpt lat="43.42914" lon="6.02675">
        <ele>365.20001220703</ele>
        <time>2015-11-11T14:31:47Z</time>
      </trkpt>
      <trkpt lat="43.42918" lon="6.02676">
        <ele>364.60000610352</ele>
        <time>2015-11-11T14:31:49Z</time>
      </trkpt>
      <trkpt lat="43.42921" lon="6.02681">
        <ele>364.20001220703</ele>
        <time>2015-11-11T14:31:51Z</time>
      </trkpt>
      <trkpt lat="43.42922" lon="6.02685">
        <ele>363.60000610352</ele>
        <time>2015-11-11T14:31:52Z</time>
      </trkpt>
      <trkpt lat="43.42923" lon="6.02689">
        <ele>363.20001220703</ele>
        <time>2015-11-11T14:31:53Z</time>
      </trkpt>
      <trkpt lat="43.42923" lon="6.02693">
        <ele>362.79998779297</ele>
        <time>2015-11-11T14:31:54Z</time>
      </trkpt>
      <trkpt lat="43.42922" lon="6.02696">
        <ele>362.60000610352</ele>
        <time>2015-11-11T14:31:55Z</time>
      </trkpt>
      <trkpt lat="43.42922" lon="6.027">
        <ele>362.39999389648</ele>
        <time>2015-11-11T14:31:56Z</time>
      </trkpt>
      <trkpt lat="43.42923" lon="6.02703">
        <ele>362.39999389648</ele>
        <time>2015-11-11T14:31:57Z</time>
      </trkpt>
      <trkpt lat="43.42925" lon="6.0271">
        <ele>362.39999389648</ele>
        <time>2015-11-11T14:31:59Z</time>
      </trkpt>
      <trkpt lat="43.42925" lon="6.02714">
        <ele>362</ele>
        <time>2015-11-11T14:32:00Z</time>
      </trkpt>
      <trkpt lat="43.42924" lon="6.02717">
        <ele>361.79998779297</ele>
        <time>2015-11-11T14:32:01Z</time>
      </trkpt>
      <trkpt lat="43.42927" lon="6.02723">
        <ele>361.60000610352</ele>
        <time>2015-11-11T14:32:03Z</time>
      </trkpt>
      <trkpt lat="43.42929" lon="6.02725">
        <ele>361.39999389648</ele>
        <time>2015-11-11T14:32:04Z</time>
      </trkpt>
      <trkpt lat="43.42931" lon="6.02726">
        <ele>361.20001220703</ele>
        <time>2015-11-11T14:32:05Z</time>
      </trkpt>
      <trkpt lat="43.42937" lon="6.02731">
        <ele>360.79998779297</ele>
        <time>2015-11-11T14:32:07Z</time>
      </trkpt>
      <trkpt lat="43.42939" lon="6.02734">
        <ele>360.60000610352</ele>
        <time>2015-11-11T14:32:08Z</time>
      </trkpt>
      <trkpt lat="43.42942" lon="6.02738">
        <ele>360.60000610352</ele>
        <time>2015-11-11T14:32:09Z</time>
      </trkpt>
      <trkpt lat="43.42944" lon="6.02742">
        <ele>360.39999389648</ele>
        <time>2015-11-11T14:32:10Z</time>
      </trkpt>
      <trkpt lat="43.42947" lon="6.02746">
        <ele>360.20001220703</ele>
        <time>2015-11-11T14:32:11Z</time>
      </trkpt>
      <trkpt lat="43.42953" lon="6.02753">
        <ele>359.39999389648</ele>
        <time>2015-11-11T14:32:13Z</time>
      </trkpt>
      <trkpt lat="43.4296" lon="6.02765">
        <ele>358.39999389648</ele>
        <time>2015-11-11T14:32:17Z</time>
      </trkpt>
      <trkpt lat="43.42964" lon="6.0277">
        <ele>358.39999389648</ele>
        <time>2015-11-11T14:32:19Z</time>
      </trkpt>
      <trkpt lat="43.42966" lon="6.02774">
        <ele>358</ele>
        <time>2015-11-11T14:32:21Z</time>
      </trkpt>
      <trkpt lat="43.4297" lon="6.0278">
        <ele>357.79998779297</ele>
        <time>2015-11-11T14:32:23Z</time>
      </trkpt>
      <trkpt lat="43.42974" lon="6.02788">
        <ele>357</ele>
        <time>2015-11-11T14:32:26Z</time>
      </trkpt>
      <trkpt lat="43.42976" lon="6.0279">
        <ele>356.79998779297</ele>
        <time>2015-11-11T14:32:27Z</time>
      </trkpt>
      <trkpt lat="43.42981" lon="6.02803">
        <ele>356.20001220703</ele>
        <time>2015-11-11T14:32:31Z</time>
      </trkpt>
      <trkpt lat="43.42982" lon="6.02809">
        <ele>355.79998779297</ele>
        <time>2015-11-11T14:32:33Z</time>
      </trkpt>
      <trkpt lat="43.42984" lon="6.02815">
        <ele>355.39999389648</ele>
        <time>2015-11-11T14:32:35Z</time>
      </trkpt>
      <trkpt lat="43.42983" lon="6.02818">
        <ele>355.20001220703</ele>
        <time>2015-11-11T14:32:36Z</time>
      </trkpt>
      <trkpt lat="43.42983" lon="6.02821">
        <ele>355</ele>
        <time>2015-11-11T14:32:37Z</time>
      </trkpt>
      <trkpt lat="43.42984" lon="6.02828">
        <ele>354.79998779297</ele>
        <time>2015-11-11T14:32:39Z</time>
      </trkpt>
      <trkpt lat="43.42987" lon="6.02837">
        <ele>354.39999389648</ele>
        <time>2015-11-11T14:32:41Z</time>
      </trkpt>
      <trkpt lat="43.42989" lon="6.02845">
        <ele>353.79998779297</ele>
        <time>2015-11-11T14:32:43Z</time>
      </trkpt>
      <trkpt lat="43.4299" lon="6.02853">
        <ele>353.79998779297</ele>
        <time>2015-11-11T14:32:45Z</time>
      </trkpt>
      <trkpt lat="43.42992" lon="6.02856">
        <ele>353.60000610352</ele>
        <time>2015-11-11T14:32:46Z</time>
      </trkpt>
      <trkpt lat="43.42993" lon="6.02858">
        <ele>353.39999389648</ele>
        <time>2015-11-11T14:32:47Z</time>
      </trkpt>
      <trkpt lat="43.42997" lon="6.02864">
        <ele>353.39999389648</ele>
        <time>2015-11-11T14:32:49Z</time>
      </trkpt>
      <trkpt lat="43.43003" lon="6.02866">
        <ele>352.60000610352</ele>
        <time>2015-11-11T14:32:52Z</time>
      </trkpt>
      <trkpt lat="43.43006" lon="6.02866">
        <ele>352.39999389648</ele>
        <time>2015-11-11T14:32:53Z</time>
      </trkpt>
      <trkpt lat="43.43011" lon="6.02869">
        <ele>352.20001220703</ele>
        <time>2015-11-11T14:32:55Z</time>
      </trkpt>
      <trkpt lat="43.43018" lon="6.02871">
        <ele>351.79998779297</ele>
        <time>2015-11-11T14:32:57Z</time>
      </trkpt>
      <trkpt lat="43.43019" lon="6.02873">
        <ele>351.60000610352</ele>
        <time>2015-11-11T14:32:58Z</time>
      </trkpt>
      <trkpt lat="43.43022" lon="6.02874">
        <ele>351.60000610352</ele>
        <time>2015-11-11T14:32:59Z</time>
      </trkpt>
      <trkpt lat="43.43027" lon="6.02878">
        <ele>351.60000610352</ele>
        <time>2015-11-11T14:33:01Z</time>
      </trkpt>
      <trkpt lat="43.43029" lon="6.0288">
        <ele>351.39999389648</ele>
        <time>2015-11-11T14:33:02Z</time>
      </trkpt>
      <trkpt lat="43.43032" lon="6.02882">
        <ele>351</ele>
        <time>2015-11-11T14:33:03Z</time>
      </trkpt>
      <trkpt lat="43.43036" lon="6.02883">
        <ele>350.60000610352</ele>
        <time>2015-11-11T14:33:04Z</time>
      </trkpt>
      <trkpt lat="43.43039" lon="6.02884">
        <ele>350.39999389648</ele>
        <time>2015-11-11T14:33:05Z</time>
      </trkpt>
      <trkpt lat="43.43041" lon="6.02887">
        <ele>350.39999389648</ele>
        <time>2015-11-11T14:33:06Z</time>
      </trkpt>
      <trkpt lat="43.43043" lon="6.0289">
        <ele>350.20001220703</ele>
        <time>2015-11-11T14:33:07Z</time>
      </trkpt>
      <trkpt lat="43.43047" lon="6.02895">
        <ele>349.79998779297</ele>
        <time>2015-11-11T14:33:09Z</time>
      </trkpt>
      <trkpt lat="43.43051" lon="6.02899">
        <ele>349.39999389648</ele>
        <time>2015-11-11T14:33:11Z</time>
      </trkpt>
      <trkpt lat="43.43052" lon="6.02902">
        <ele>349.20001220703</ele>
        <time>2015-11-11T14:33:12Z</time>
      </trkpt>
      <trkpt lat="43.43054" lon="6.02904">
        <ele>349</ele>
        <time>2015-11-11T14:33:13Z</time>
      </trkpt>
      <trkpt lat="43.43056" lon="6.02907">
        <ele>349</ele>
        <time>2015-11-11T14:33:15Z</time>
      </trkpt>
      <trkpt lat="43.43058" lon="6.02909">
        <ele>349</ele>
        <time>2015-11-11T14:33:17Z</time>
      </trkpt>
      <trkpt lat="43.43058" lon="6.02909">
        <ele>348.79998779297</ele>
        <time>2015-11-11T14:33:19Z</time>
      </trkpt>
      <trkpt lat="43.43059" lon="6.0291">
        <ele>348.79998779297</ele>
        <time>2015-11-11T14:33:21Z</time>
      </trkpt>
      <trkpt lat="43.43059" lon="6.0291">
        <ele>349</ele>
        <time>2015-11-11T14:33:25Z</time>
      </trkpt>
      <trkpt lat="43.43059" lon="6.0291">
        <ele>349</ele>
        <time>2015-11-11T14:33:57Z</time>
      </trkpt>
      <trkpt lat="43.43059" lon="6.0291">
        <ele>348.79998779297</ele>
        <time>2015-11-11T14:33:59Z</time>
      </trkpt>
      <trkpt lat="43.43059" lon="6.0291">
        <ele>348.79998779297</ele>
        <time>2015-11-11T14:34:05Z</time>
      </trkpt>
      <trkpt lat="43.43059" lon="6.0291">
        <ele>348.60000610352</ele>
        <time>2015-11-11T14:34:37Z</time>
      </trkpt>
      <trkpt lat="43.43059" lon="6.0291">
        <ele>348.79998779297</ele>
        <time>2015-11-11T14:34:39Z</time>
      </trkpt>
      <trkpt lat="43.43059" lon="6.0291">
        <ele>348.79998779297</ele>
        <time>2015-11-11T14:34:43Z</time>
      </trkpt>
      <trkpt lat="43.43059" lon="6.0291">
        <ele>349</ele>
        <time>2015-11-11T14:35:03Z</time>
      </trkpt>
      <trkpt lat="43.43061" lon="6.02911">
        <ele>348.79998779297</ele>
        <time>2015-11-11T14:35:05Z</time>
      </trkpt>
      <trkpt lat="43.43062" lon="6.02914">
        <ele>349</ele>
        <time>2015-11-11T14:35:06Z</time>
      </trkpt>
      <trkpt lat="43.43063" lon="6.02915">
        <ele>348.79998779297</ele>
        <time>2015-11-11T14:35:07Z</time>
      </trkpt>
      <trkpt lat="43.43063" lon="6.02915">
        <ele>348.79998779297</ele>
        <time>2015-11-11T14:35:09Z</time>
      </trkpt>
      <trkpt lat="43.43063" lon="6.02915">
        <ele>348.79998779297</ele>
        <time>2015-11-11T14:35:12Z</time>
      </trkpt>
      <trkpt lat="43.43063" lon="6.02915">
        <ele>349</ele>
        <time>2015-11-11T14:35:15Z</time>
      </trkpt>
      <trkpt lat="43.43063" lon="6.02916">
        <ele>348.60000610352</ele>
        <time>2015-11-11T14:35:17Z</time>
      </trkpt>
      <trkpt lat="43.43065" lon="6.0292">
        <ele>348.60000610352</ele>
        <time>2015-11-11T14:35:19Z</time>
      </trkpt>
      <trkpt lat="43.43068" lon="6.02923">
        <ele>348.60000610352</ele>
        <time>2015-11-11T14:35:20Z</time>
      </trkpt>
      <trkpt lat="43.4307" lon="6.02926">
        <ele>348.39999389648</ele>
        <time>2015-11-11T14:35:21Z</time>
      </trkpt>
      <trkpt lat="43.43073" lon="6.0293">
        <ele>348</ele>
        <time>2015-11-11T14:35:22Z</time>
      </trkpt>
      <trkpt lat="43.43076" lon="6.02934">
        <ele>348</ele>
        <time>2015-11-11T14:35:23Z</time>
      </trkpt>
      <trkpt lat="43.43079" lon="6.02938">
        <ele>347.60000610352</ele>
        <time>2015-11-11T14:35:24Z</time>
      </trkpt>
      <trkpt lat="43.43081" lon="6.02941">
        <ele>347.39999389648</ele>
        <time>2015-11-11T14:35:25Z</time>
      </trkpt>
      <trkpt lat="43.43085" lon="6.02947">
        <ele>347.39999389648</ele>
        <time>2015-11-11T14:35:28Z</time>
      </trkpt>
      <trkpt lat="43.43087" lon="6.02949">
        <ele>347.20001220703</ele>
        <time>2015-11-11T14:35:29Z</time>
      </trkpt>
      <trkpt lat="43.43088" lon="6.02952">
        <ele>347</ele>
        <time>2015-11-11T14:35:30Z</time>
      </trkpt>
      <trkpt lat="43.4309" lon="6.02955">
        <ele>346.79998779297</ele>
        <time>2015-11-11T14:35:31Z</time>
      </trkpt>
      <trkpt lat="43.43093" lon="6.0296">
        <ele>346.39999389648</ele>
        <time>2015-11-11T14:35:33Z</time>
      </trkpt>
      <trkpt lat="43.43099" lon="6.02968">
        <ele>345.60000610352</ele>
        <time>2015-11-11T14:35:35Z</time>
      </trkpt>
      <trkpt lat="43.43104" lon="6.02975">
        <ele>345</ele>
        <time>2015-11-11T14:35:37Z</time>
      </trkpt>
      <trkpt lat="43.43108" lon="6.02979">
        <ele>344.60000610352</ele>
        <time>2015-11-11T14:35:38Z</time>
      </trkpt>
      <trkpt lat="43.43111" lon="6.02984">
        <ele>344.39999389648</ele>
        <time>2015-11-11T14:35:39Z</time>
      </trkpt>
      <trkpt lat="43.43114" lon="6.02994">
        <ele>344</ele>
        <time>2015-11-11T14:35:41Z</time>
      </trkpt>
      <trkpt lat="43.43116" lon="6.02997">
        <ele>344</ele>
        <time>2015-11-11T14:35:43Z</time>
      </trkpt>
      <trkpt lat="43.43116" lon="6.02997">
        <ele>343.79998779297</ele>
        <time>2015-11-11T14:35:45Z</time>
      </trkpt>
      <trkpt lat="43.43114" lon="6.02996">
        <ele>344</ele>
        <time>2015-11-11T14:35:47Z</time>
      </trkpt>
      <trkpt lat="43.43113" lon="6.02998">
        <ele>344.20001220703</ele>
        <time>2015-11-11T14:35:48Z</time>
      </trkpt>
      <trkpt lat="43.43112" lon="6.02998">
        <ele>344.20001220703</ele>
        <time>2015-11-11T14:35:49Z</time>
      </trkpt>
      <trkpt lat="43.43112" lon="6.02998">
        <ele>344.20001220703</ele>
        <time>2015-11-11T14:35:51Z</time>
      </trkpt>
      <trkpt lat="43.43112" lon="6.02998">
        <ele>344</ele>
        <time>2015-11-11T14:35:57Z</time>
      </trkpt>
      <trkpt lat="43.43112" lon="6.02998">
        <ele>344</ele>
        <time>2015-11-11T14:36:29Z</time>
      </trkpt>
      <trkpt lat="43.43112" lon="6.02998">
        <ele>344</ele>
        <time>2015-11-11T14:36:30Z</time>
      </trkpt>
      <trkpt lat="43.43112" lon="6.02998">
        <ele>344</ele>
        <time>2015-11-11T14:36:35Z</time>
      </trkpt>
      <trkpt lat="43.43112" lon="6.02998">
        <ele>344</ele>
        <time>2015-11-11T14:37:05Z</time>
      </trkpt>
      <trkpt lat="43.43113" lon="6.02998">
        <ele>343.79998779297</ele>
        <time>2015-11-11T14:37:07Z</time>
      </trkpt>
      <trkpt lat="43.43112" lon="6.02998">
        <ele>344.20001220703</ele>
        <time>2015-11-11T14:37:09Z</time>
      </trkpt>
      <trkpt lat="43.43112" lon="6.02998">
        <ele>344.20001220703</ele>
        <time>2015-11-11T14:37:11Z</time>
      </trkpt>
      <trkpt lat="43.43112" lon="6.02998">
        <ele>344.20001220703</ele>
        <time>2015-11-11T14:37:13Z</time>
      </trkpt>
      <trkpt lat="43.43112" lon="6.02999">
        <ele>344.20001220703</ele>
        <time>2015-11-11T14:37:14Z</time>
      </trkpt>
      <trkpt lat="43.43113" lon="6.02999">
        <ele>344</ele>
        <time>2015-11-11T14:37:15Z</time>
      </trkpt>
      <trkpt lat="43.43116" lon="6.03004">
        <ele>343.79998779297</ele>
        <time>2015-11-11T14:37:17Z</time>
      </trkpt>
      <trkpt lat="43.43117" lon="6.03008">
        <ele>343.60000610352</ele>
        <time>2015-11-11T14:37:18Z</time>
      </trkpt>
      <trkpt lat="43.43119" lon="6.03011">
        <ele>343.39999389648</ele>
        <time>2015-11-11T14:37:19Z</time>
      </trkpt>
      <trkpt lat="43.43122" lon="6.03018">
        <ele>343</ele>
        <time>2015-11-11T14:37:21Z</time>
      </trkpt>
      <trkpt lat="43.43124" lon="6.03022">
        <ele>342.79998779297</ele>
        <time>2015-11-11T14:37:22Z</time>
      </trkpt>
      <trkpt lat="43.43126" lon="6.03025">
        <ele>342.39999389648</ele>
        <time>2015-11-11T14:37:23Z</time>
      </trkpt>
      <trkpt lat="43.43129" lon="6.03032">
        <ele>342.39999389648</ele>
        <time>2015-11-11T14:37:25Z</time>
      </trkpt>
      <trkpt lat="43.4313" lon="6.03037">
        <ele>342.20001220703</ele>
        <time>2015-11-11T14:37:27Z</time>
      </trkpt>
      <trkpt lat="43.43132" lon="6.03043">
        <ele>341.79998779297</ele>
        <time>2015-11-11T14:37:29Z</time>
      </trkpt>
      <trkpt lat="43.43134" lon="6.0305">
        <ele>341.39999389648</ele>
        <time>2015-11-11T14:37:31Z</time>
      </trkpt>
      <trkpt lat="43.43135" lon="6.03053">
        <ele>341.20001220703</ele>
        <time>2015-11-11T14:37:32Z</time>
      </trkpt>
      <trkpt lat="43.43136" lon="6.03057">
        <ele>340.79998779297</ele>
        <time>2015-11-11T14:37:33Z</time>
      </trkpt>
      <trkpt lat="43.43137" lon="6.03062">
        <ele>340.20001220703</ele>
        <time>2015-11-11T14:37:34Z</time>
      </trkpt>
      <trkpt lat="43.43137" lon="6.03069">
        <ele>339.60000610352</ele>
        <time>2015-11-11T14:37:35Z</time>
      </trkpt>
      <trkpt lat="43.43137" lon="6.03075">
        <ele>339.20001220703</ele>
        <time>2015-11-11T14:37:36Z</time>
      </trkpt>
      <trkpt lat="43.43137" lon="6.03082">
        <ele>338.60000610352</ele>
        <time>2015-11-11T14:37:37Z</time>
      </trkpt>
      <trkpt lat="43.43136" lon="6.03094">
        <ele>338.20001220703</ele>
        <time>2015-11-11T14:37:39Z</time>
      </trkpt>
      <trkpt lat="43.43134" lon="6.03106">
        <ele>338</ele>
        <time>2015-11-11T14:37:41Z</time>
      </trkpt>
      <trkpt lat="43.43133" lon="6.03113">
        <ele>338</ele>
        <time>2015-11-11T14:37:42Z</time>
      </trkpt>
      <trkpt lat="43.43132" lon="6.0312">
        <ele>337.60000610352</ele>
        <time>2015-11-11T14:37:43Z</time>
      </trkpt>
      <trkpt lat="43.43133" lon="6.03137">
        <ele>337.39999389648</ele>
        <time>2015-11-11T14:37:45Z</time>
      </trkpt>
      <trkpt lat="43.43133" lon="6.03146">
        <ele>337.20001220703</ele>
        <time>2015-11-11T14:37:46Z</time>
      </trkpt>
      <trkpt lat="43.43132" lon="6.03155">
        <ele>336.60000610352</ele>
        <time>2015-11-11T14:37:47Z</time>
      </trkpt>
      <trkpt lat="43.43131" lon="6.03163">
        <ele>336</ele>
        <time>2015-11-11T14:37:48Z</time>
      </trkpt>
      <trkpt lat="43.43132" lon="6.03171">
        <ele>336.39999389648</ele>
        <time>2015-11-11T14:37:49Z</time>
      </trkpt>
      <trkpt lat="43.43132" lon="6.03177">
        <ele>337</ele>
        <time>2015-11-11T14:37:50Z</time>
      </trkpt>
      <trkpt lat="43.43132" lon="6.03181">
        <ele>337.79998779297</ele>
        <time>2015-11-11T14:37:51Z</time>
      </trkpt>
      <trkpt lat="43.43132" lon="6.03186">
        <ele>339.39999389648</ele>
        <time>2015-11-11T14:37:53Z</time>
      </trkpt>
      <trkpt lat="43.43132" lon="6.03191">
        <ele>340.60000610352</ele>
        <time>2015-11-11T14:37:55Z</time>
      </trkpt>
      <trkpt lat="43.43132" lon="6.03195">
        <ele>341.39999389648</ele>
        <time>2015-11-11T14:37:57Z</time>
      </trkpt>
      <trkpt lat="43.43132" lon="6.03197">
        <ele>341.79998779297</ele>
        <time>2015-11-11T14:37:58Z</time>
      </trkpt>
      <trkpt lat="43.43132" lon="6.032">
        <ele>342</ele>
        <time>2015-11-11T14:37:59Z</time>
      </trkpt>
      <trkpt lat="43.43131" lon="6.03204">
        <ele>342.60000610352</ele>
        <time>2015-11-11T14:38:01Z</time>
      </trkpt>
      <trkpt lat="43.43131" lon="6.03206">
        <ele>343.20001220703</ele>
        <time>2015-11-11T14:38:02Z</time>
      </trkpt>
      <trkpt lat="43.43131" lon="6.03212">
        <ele>343.79998779297</ele>
        <time>2015-11-11T14:38:05Z</time>
      </trkpt>
      <trkpt lat="43.4313" lon="6.03215">
        <ele>344.39999389648</ele>
        <time>2015-11-11T14:38:07Z</time>
      </trkpt>
      <trkpt lat="43.4313" lon="6.03224">
        <ele>345</ele>
        <time>2015-11-11T14:38:11Z</time>
      </trkpt>
      <trkpt lat="43.43129" lon="6.03226">
        <ele>345.20001220703</ele>
        <time>2015-11-11T14:38:12Z</time>
      </trkpt>
      <trkpt lat="43.43129" lon="6.03228">
        <ele>345.20001220703</ele>
        <time>2015-11-11T14:38:13Z</time>
      </trkpt>
      <trkpt lat="43.43129" lon="6.03233">
        <ele>345.20001220703</ele>
        <time>2015-11-11T14:38:15Z</time>
      </trkpt>
      <trkpt lat="43.43127" lon="6.03235">
        <ele>345.20001220703</ele>
        <time>2015-11-11T14:38:17Z</time>
      </trkpt>
      <trkpt lat="43.43126" lon="6.03236">
        <ele>345.20001220703</ele>
        <time>2015-11-11T14:38:18Z</time>
      </trkpt>
      <trkpt lat="43.43127" lon="6.03238">
        <ele>345.39999389648</ele>
        <time>2015-11-11T14:38:19Z</time>
      </trkpt>
      <trkpt lat="43.43126" lon="6.03241">
        <ele>345.60000610352</ele>
        <time>2015-11-11T14:38:21Z</time>
      </trkpt>
      <trkpt lat="43.43126" lon="6.03243">
        <ele>345.60000610352</ele>
        <time>2015-11-11T14:38:22Z</time>
      </trkpt>
      <trkpt lat="43.43126" lon="6.03244">
        <ele>345.60000610352</ele>
        <time>2015-11-11T14:38:23Z</time>
      </trkpt>
      <trkpt lat="43.43126" lon="6.03247">
        <ele>345.60000610352</ele>
        <time>2015-11-11T14:38:25Z</time>
      </trkpt>
      <trkpt lat="43.43127" lon="6.0325">
        <ele>345.60000610352</ele>
        <time>2015-11-11T14:38:27Z</time>
      </trkpt>
      <trkpt lat="43.43126" lon="6.03253">
        <ele>345.79998779297</ele>
        <time>2015-11-11T14:38:29Z</time>
      </trkpt>
      <trkpt lat="43.43126" lon="6.03255">
        <ele>345.39999389648</ele>
        <time>2015-11-11T14:38:31Z</time>
      </trkpt>
      <trkpt lat="43.43126" lon="6.03257">
        <ele>345.39999389648</ele>
        <time>2015-11-11T14:38:33Z</time>
      </trkpt>
      <trkpt lat="43.43126" lon="6.03257">
        <ele>345.39999389648</ele>
        <time>2015-11-11T14:38:35Z</time>
      </trkpt>
      <trkpt lat="43.43126" lon="6.03257">
        <ele>345.60000610352</ele>
        <time>2015-11-11T14:38:41Z</time>
      </trkpt>
      <trkpt lat="43.43126" lon="6.03257">
        <ele>345.79998779297</ele>
        <time>2015-11-11T14:38:47Z</time>
      </trkpt>
      <trkpt lat="43.43125" lon="6.03257">
        <ele>345.60000610352</ele>
        <time>2015-11-11T14:38:49Z</time>
      </trkpt>
      <trkpt lat="43.43125" lon="6.03259">
        <ele>345.60000610352</ele>
        <time>2015-11-11T14:38:50Z</time>
      </trkpt>
      <trkpt lat="43.43125" lon="6.0326">
        <ele>345.60000610352</ele>
        <time>2015-11-11T14:38:51Z</time>
      </trkpt>
      <trkpt lat="43.43127" lon="6.03261">
        <ele>345.60000610352</ele>
        <time>2015-11-11T14:38:52Z</time>
      </trkpt>
      <trkpt lat="43.43127" lon="6.03261">
        <ele>345.60000610352</ele>
        <time>2015-11-11T14:38:53Z</time>
      </trkpt>
      <trkpt lat="43.43128" lon="6.03259">
        <ele>345.39999389648</ele>
        <time>2015-11-11T14:38:54Z</time>
      </trkpt>
      <trkpt lat="43.43129" lon="6.03253">
        <ele>345.20001220703</ele>
        <time>2015-11-11T14:38:57Z</time>
      </trkpt>
      <trkpt lat="43.43129" lon="6.0325">
        <ele>345.20001220703</ele>
        <time>2015-11-11T14:38:59Z</time>
      </trkpt>
      <trkpt lat="43.43129" lon="6.03247">
        <ele>345.20001220703</ele>
        <time>2015-11-11T14:39:01Z</time>
      </trkpt>
      <trkpt lat="43.43128" lon="6.03245">
        <ele>345</ele>
        <time>2015-11-11T14:39:03Z</time>
      </trkpt>
      <trkpt lat="43.43128" lon="6.03243">
        <ele>345.20001220703</ele>
        <time>2015-11-11T14:39:05Z</time>
      </trkpt>
      <trkpt lat="43.43127" lon="6.03243">
        <ele>345.39999389648</ele>
        <time>2015-11-11T14:39:06Z</time>
      </trkpt>
      <trkpt lat="43.43126" lon="6.03243">
        <ele>345.39999389648</ele>
        <time>2015-11-11T14:39:07Z</time>
      </trkpt>
      <trkpt lat="43.43125" lon="6.03246">
        <ele>345.60000610352</ele>
        <time>2015-11-11T14:39:09Z</time>
      </trkpt>
      <trkpt lat="43.43126" lon="6.0325">
        <ele>345.39999389648</ele>
        <time>2015-11-11T14:39:11Z</time>
      </trkpt>
      <trkpt lat="43.43126" lon="6.03256">
        <ele>345.60000610352</ele>
        <time>2015-11-11T14:39:13Z</time>
      </trkpt>
      <trkpt lat="43.43126" lon="6.03259">
        <ele>345.60000610352</ele>
        <time>2015-11-11T14:39:14Z</time>
      </trkpt>
      <trkpt lat="43.43125" lon="6.03271">
        <ele>345</ele>
        <time>2015-11-11T14:39:17Z</time>
      </trkpt>
      <trkpt lat="43.43124" lon="6.03281">
        <ele>344.60000610352</ele>
        <time>2015-11-11T14:39:19Z</time>
      </trkpt>
      <trkpt lat="43.43124" lon="6.03287">
        <ele>344.20001220703</ele>
        <time>2015-11-11T14:39:20Z</time>
      </trkpt>
      <trkpt lat="43.43125" lon="6.03294">
        <ele>344</ele>
        <time>2015-11-11T14:39:21Z</time>
      </trkpt>
      <trkpt lat="43.43124" lon="6.03309">
        <ele>343.39999389648</ele>
        <time>2015-11-11T14:39:23Z</time>
      </trkpt>
      <trkpt lat="43.43123" lon="6.03317">
        <ele>343</ele>
        <time>2015-11-11T14:39:24Z</time>
      </trkpt>
      <trkpt lat="43.43122" lon="6.03325">
        <ele>342.79998779297</ele>
        <time>2015-11-11T14:39:25Z</time>
      </trkpt>
      <trkpt lat="43.43121" lon="6.03342">
        <ele>341.39999389648</ele>
        <time>2015-11-11T14:39:27Z</time>
      </trkpt>
      <trkpt lat="43.43119" lon="6.03359">
        <ele>340.60000610352</ele>
        <time>2015-11-11T14:39:29Z</time>
      </trkpt>
      <trkpt lat="43.43118" lon="6.03387">
        <ele>339.60000610352</ele>
        <time>2015-11-11T14:39:32Z</time>
      </trkpt>
      <trkpt lat="43.43118" lon="6.03397">
        <ele>339.20001220703</ele>
        <time>2015-11-11T14:39:33Z</time>
      </trkpt>
      <trkpt lat="43.43116" lon="6.03417">
        <ele>338.79998779297</ele>
        <time>2015-11-11T14:39:35Z</time>
      </trkpt>
      <trkpt lat="43.43115" lon="6.03436">
        <ele>339.20001220703</ele>
        <time>2015-11-11T14:39:37Z</time>
      </trkpt>
      <trkpt lat="43.43114" lon="6.03452">
        <ele>339.20001220703</ele>
        <time>2015-11-11T14:39:39Z</time>
      </trkpt>
      <trkpt lat="43.43113" lon="6.0346">
        <ele>339.39999389648</ele>
        <time>2015-11-11T14:39:40Z</time>
      </trkpt>
      <trkpt lat="43.43112" lon="6.03467">
        <ele>339.39999389648</ele>
        <time>2015-11-11T14:39:41Z</time>
      </trkpt>
      <trkpt lat="43.43111" lon="6.03473">
        <ele>339.39999389648</ele>
        <time>2015-11-11T14:39:42Z</time>
      </trkpt>
      <trkpt lat="43.43109" lon="6.03481">
        <ele>339.39999389648</ele>
        <time>2015-11-11T14:39:43Z</time>
      </trkpt>
      <trkpt lat="43.43108" lon="6.03489">
        <ele>339</ele>
        <time>2015-11-11T14:39:44Z</time>
      </trkpt>
      <trkpt lat="43.43108" lon="6.03498">
        <ele>338.60000610352</ele>
        <time>2015-11-11T14:39:45Z</time>
      </trkpt>
      <trkpt lat="43.43108" lon="6.03507">
        <ele>338.20001220703</ele>
        <time>2015-11-11T14:39:46Z</time>
      </trkpt>
      <trkpt lat="43.43108" lon="6.03516">
        <ele>338</ele>
        <time>2015-11-11T14:39:47Z</time>
      </trkpt>
      <trkpt lat="43.43106" lon="6.03534">
        <ele>337.20001220703</ele>
        <time>2015-11-11T14:39:49Z</time>
      </trkpt>
      <trkpt lat="43.43106" lon="6.03543">
        <ele>337</ele>
        <time>2015-11-11T14:39:50Z</time>
      </trkpt>
      <trkpt lat="43.43106" lon="6.03553">
        <ele>336.60000610352</ele>
        <time>2015-11-11T14:39:51Z</time>
      </trkpt>
      <trkpt lat="43.43107" lon="6.03561">
        <ele>336.60000610352</ele>
        <time>2015-11-11T14:39:52Z</time>
      </trkpt>
      <trkpt lat="43.43108" lon="6.03568">
        <ele>336.60000610352</ele>
        <time>2015-11-11T14:39:53Z</time>
      </trkpt>
      <trkpt lat="43.43108" lon="6.03578">
        <ele>337</ele>
        <time>2015-11-11T14:39:55Z</time>
      </trkpt>
      <trkpt lat="43.43108" lon="6.03581">
        <ele>337.20001220703</ele>
        <time>2015-11-11T14:39:56Z</time>
      </trkpt>
      <trkpt lat="43.43107" lon="6.03582">
        <ele>337.60000610352</ele>
        <time>2015-11-11T14:39:57Z</time>
      </trkpt>
      <trkpt lat="43.43108" lon="6.03584">
        <ele>337.39999389648</ele>
        <time>2015-11-11T14:39:59Z</time>
      </trkpt>
      <trkpt lat="43.43108" lon="6.03584">
        <ele>337.39999389648</ele>
        <time>2015-11-11T14:40:01Z</time>
      </trkpt>
      <trkpt lat="43.43108" lon="6.03584">
        <ele>337.39999389648</ele>
        <time>2015-11-11T14:40:07Z</time>
      </trkpt>
      <trkpt lat="43.43108" lon="6.03584">
        <ele>337.39999389648</ele>
        <time>2015-11-11T14:40:35Z</time>
      </trkpt>
      <trkpt lat="43.43107" lon="6.03586">
        <ele>337.39999389648</ele>
        <time>2015-11-11T14:40:36Z</time>
      </trkpt>
      <trkpt lat="43.43106" lon="6.03587">
        <ele>337.39999389648</ele>
        <time>2015-11-11T14:40:37Z</time>
      </trkpt>
      <trkpt lat="43.43106" lon="6.03591">
        <ele>337.39999389648</ele>
        <time>2015-11-11T14:40:39Z</time>
      </trkpt>
      <trkpt lat="43.43106" lon="6.03592">
        <ele>337.20001220703</ele>
        <time>2015-11-11T14:40:40Z</time>
      </trkpt>
      <trkpt lat="43.43107" lon="6.03593">
        <ele>337.20001220703</ele>
        <time>2015-11-11T14:40:41Z</time>
      </trkpt>
      <trkpt lat="43.43107" lon="6.03592">
        <ele>337.20001220703</ele>
        <time>2015-11-11T14:40:42Z</time>
      </trkpt>
      <trkpt lat="43.43107" lon="6.03592">
        <ele>337.20001220703</ele>
        <time>2015-11-11T14:40:43Z</time>
      </trkpt>
      <trkpt lat="43.43107" lon="6.03592">
        <ele>337.20001220703</ele>
        <time>2015-11-11T14:40:49Z</time>
      </trkpt>
      <trkpt lat="43.43107" lon="6.03592">
        <ele>337.20001220703</ele>
        <time>2015-11-11T14:40:53Z</time>
      </trkpt>
      <trkpt lat="43.43108" lon="6.03592">
        <ele>337.20001220703</ele>
        <time>2015-11-11T14:40:55Z</time>
      </trkpt>
      <trkpt lat="43.43109" lon="6.03592">
        <ele>337.39999389648</ele>
        <time>2015-11-11T14:40:58Z</time>
      </trkpt>
      <trkpt lat="43.4311" lon="6.03591">
        <ele>337.39999389648</ele>
        <time>2015-11-11T14:40:59Z</time>
      </trkpt>
      <trkpt lat="43.43112" lon="6.0359">
        <ele>337.60000610352</ele>
        <time>2015-11-11T14:41:01Z</time>
      </trkpt>
      <trkpt lat="43.43115" lon="6.03589">
        <ele>337.60000610352</ele>
        <time>2015-11-11T14:41:03Z</time>
      </trkpt>
      <trkpt lat="43.4312" lon="6.03589">
        <ele>337.60000610352</ele>
        <time>2015-11-11T14:41:05Z</time>
      </trkpt>
      <trkpt lat="43.43125" lon="6.03587">
        <ele>337.20001220703</ele>
        <time>2015-11-11T14:41:07Z</time>
      </trkpt>
      <trkpt lat="43.43128" lon="6.03587">
        <ele>337.20001220703</ele>
        <time>2015-11-11T14:41:08Z</time>
      </trkpt>
      <trkpt lat="43.43131" lon="6.03586">
        <ele>337.20001220703</ele>
        <time>2015-11-11T14:41:09Z</time>
      </trkpt>
      <trkpt lat="43.43143" lon="6.03586">
        <ele>337.39999389648</ele>
        <time>2015-11-11T14:41:13Z</time>
      </trkpt>
      <trkpt lat="43.4315" lon="6.03588">
        <ele>337.39999389648</ele>
        <time>2015-11-11T14:41:15Z</time>
      </trkpt>
      <trkpt lat="43.43155" lon="6.03591">
        <ele>337.39999389648</ele>
        <time>2015-11-11T14:41:17Z</time>
      </trkpt>
      <trkpt lat="43.43158" lon="6.03593">
        <ele>337.39999389648</ele>
        <time>2015-11-11T14:41:18Z</time>
      </trkpt>
      <trkpt lat="43.43164" lon="6.03601">
        <ele>338.39999389648</ele>
        <time>2015-11-11T14:41:21Z</time>
      </trkpt>
      <trkpt lat="43.43166" lon="6.03607">
        <ele>338.60000610352</ele>
        <time>2015-11-11T14:41:23Z</time>
      </trkpt>
      <trkpt lat="43.43166" lon="6.03614">
        <ele>338.60000610352</ele>
        <time>2015-11-11T14:41:25Z</time>
      </trkpt>
      <trkpt lat="43.43167" lon="6.03621">
        <ele>338.60000610352</ele>
        <time>2015-11-11T14:41:27Z</time>
      </trkpt>
      <trkpt lat="43.43168" lon="6.03629">
        <ele>338.60000610352</ele>
        <time>2015-11-11T14:41:29Z</time>
      </trkpt>
      <trkpt lat="43.43169" lon="6.03636">
        <ele>338.20001220703</ele>
        <time>2015-11-11T14:41:31Z</time>
      </trkpt>
      <trkpt lat="43.4317" lon="6.03639">
        <ele>338.39999389648</ele>
        <time>2015-11-11T14:41:33Z</time>
      </trkpt>
      <trkpt lat="43.4317" lon="6.03638">
        <ele>338.39999389648</ele>
        <time>2015-11-11T14:41:34Z</time>
      </trkpt>
      <trkpt lat="43.4317" lon="6.03639">
        <ele>338.60000610352</ele>
        <time>2015-11-11T14:41:35Z</time>
      </trkpt>
      <trkpt lat="43.4317" lon="6.03639">
        <ele>338.60000610352</ele>
        <time>2015-11-11T14:41:41Z</time>
      </trkpt>
      <trkpt lat="43.4317" lon="6.03639">
        <ele>338.39999389648</ele>
        <time>2015-11-11T14:42:13Z</time>
      </trkpt>
      <trkpt lat="43.43169" lon="6.03639">
        <ele>338.39999389648</ele>
        <time>2015-11-11T14:42:15Z</time>
      </trkpt>
      <trkpt lat="43.43169" lon="6.03639">
        <ele>338.39999389648</ele>
        <time>2015-11-11T14:42:19Z</time>
      </trkpt>
      <trkpt lat="43.43169" lon="6.03639">
        <ele>338.20001220703</ele>
        <time>2015-11-11T14:42:35Z</time>
      </trkpt>
      <trkpt lat="43.43169" lon="6.03639">
        <ele>338.20001220703</ele>
        <time>2015-11-11T14:42:39Z</time>
      </trkpt>
      <trkpt lat="43.43171" lon="6.03641">
        <ele>338.20001220703</ele>
        <time>2015-11-11T14:42:41Z</time>
      </trkpt>
      <trkpt lat="43.43172" lon="6.03642">
        <ele>338</ele>
        <time>2015-11-11T14:42:42Z</time>
      </trkpt>
      <trkpt lat="43.43174" lon="6.03644">
        <ele>338</ele>
        <time>2015-11-11T14:42:43Z</time>
      </trkpt>
      <trkpt lat="43.43176" lon="6.03647">
        <ele>338</ele>
        <time>2015-11-11T14:42:45Z</time>
      </trkpt>
      <trkpt lat="43.43177" lon="6.03649">
        <ele>338.39999389648</ele>
        <time>2015-11-11T14:42:47Z</time>
      </trkpt>
      <trkpt lat="43.43177" lon="6.03649">
        <ele>338.20001220703</ele>
        <time>2015-11-11T14:42:48Z</time>
      </trkpt>
      <trkpt lat="43.43177" lon="6.03649">
        <ele>338.20001220703</ele>
        <time>2015-11-11T14:42:49Z</time>
      </trkpt>
      <trkpt lat="43.43177" lon="6.03649">
        <ele>338.20001220703</ele>
        <time>2015-11-11T14:42:51Z</time>
      </trkpt>
      <trkpt lat="43.43177" lon="6.03649">
        <ele>338.20001220703</ele>
        <time>2015-11-11T14:42:53Z</time>
      </trkpt>
      <trkpt lat="43.43175" lon="6.03647">
        <ele>338.60000610352</ele>
        <time>2015-11-11T14:42:55Z</time>
      </trkpt>
      <trkpt lat="43.43176" lon="6.03647">
        <ele>338.20001220703</ele>
        <time>2015-11-11T14:42:57Z</time>
      </trkpt>
      <trkpt lat="43.43175" lon="6.03647">
        <ele>338.20001220703</ele>
        <time>2015-11-11T14:42:59Z</time>
      </trkpt>
      <trkpt lat="43.43174" lon="6.03644">
        <ele>338.20001220703</ele>
        <time>2015-11-11T14:43:00Z</time>
      </trkpt>
      <trkpt lat="43.43172" lon="6.03643">
        <ele>338.20001220703</ele>
        <time>2015-11-11T14:43:01Z</time>
      </trkpt>
      <trkpt lat="43.4317" lon="6.03639">
        <ele>338.39999389648</ele>
        <time>2015-11-11T14:43:03Z</time>
      </trkpt>
      <trkpt lat="43.4317" lon="6.03637">
        <ele>338.39999389648</ele>
        <time>2015-11-11T14:43:05Z</time>
      </trkpt>
      <trkpt lat="43.43169" lon="6.03637">
        <ele>338.39999389648</ele>
        <time>2015-11-11T14:43:07Z</time>
      </trkpt>
      <trkpt lat="43.43168" lon="6.03637">
        <ele>338.39999389648</ele>
        <time>2015-11-11T14:43:09Z</time>
      </trkpt>
      <trkpt lat="43.43169" lon="6.03637">
        <ele>338.39999389648</ele>
        <time>2015-11-11T14:43:11Z</time>
      </trkpt>
      <trkpt lat="43.43168" lon="6.03637">
        <ele>338.39999389648</ele>
        <time>2015-11-11T14:43:13Z</time>
      </trkpt>
      <trkpt lat="43.43168" lon="6.03637">
        <ele>338.39999389648</ele>
        <time>2015-11-11T14:43:19Z</time>
      </trkpt>
      <trkpt lat="43.43168" lon="6.03637">
        <ele>338</ele>
        <time>2015-11-11T14:43:31Z</time>
      </trkpt>
      <trkpt lat="43.43168" lon="6.03639">
        <ele>338</ele>
        <time>2015-11-11T14:43:33Z</time>
      </trkpt>
      <trkpt lat="43.43168" lon="6.03641">
        <ele>337.79998779297</ele>
        <time>2015-11-11T14:43:34Z</time>
      </trkpt>
      <trkpt lat="43.43168" lon="6.03644">
        <ele>337.79998779297</ele>
        <time>2015-11-11T14:43:35Z</time>
      </trkpt>
      <trkpt lat="43.43168" lon="6.0365">
        <ele>337.60000610352</ele>
        <time>2015-11-11T14:43:37Z</time>
      </trkpt>
      <trkpt lat="43.43167" lon="6.03659">
        <ele>337.20001220703</ele>
        <time>2015-11-11T14:43:39Z</time>
      </trkpt>
      <trkpt lat="43.43165" lon="6.03667">
        <ele>337.20001220703</ele>
        <time>2015-11-11T14:43:41Z</time>
      </trkpt>
      <trkpt lat="43.43164" lon="6.0368">
        <ele>336.60000610352</ele>
        <time>2015-11-11T14:43:44Z</time>
      </trkpt>
      <trkpt lat="43.43163" lon="6.03686">
        <ele>336</ele>
        <time>2015-11-11T14:43:45Z</time>
      </trkpt>
      <trkpt lat="43.4316" lon="6.03697">
        <ele>335.60000610352</ele>
        <time>2015-11-11T14:43:47Z</time>
      </trkpt>
      <trkpt lat="43.43159" lon="6.03707">
        <ele>335.20001220703</ele>
        <time>2015-11-11T14:43:49Z</time>
      </trkpt>
      <trkpt lat="43.43158" lon="6.03714">
        <ele>335.20001220703</ele>
        <time>2015-11-11T14:43:51Z</time>
      </trkpt>
      <trkpt lat="43.43157" lon="6.03718">
        <ele>335</ele>
        <time>2015-11-11T14:43:53Z</time>
      </trkpt>
      <trkpt lat="43.43155" lon="6.03725">
        <ele>334.79998779297</ele>
        <time>2015-11-11T14:43:55Z</time>
      </trkpt>
      <trkpt lat="43.43155" lon="6.03732">
        <ele>334.39999389648</ele>
        <time>2015-11-11T14:43:57Z</time>
      </trkpt>
      <trkpt lat="43.43153" lon="6.0374">
        <ele>334</ele>
        <time>2015-11-11T14:43:59Z</time>
      </trkpt>
      <trkpt lat="43.43151" lon="6.03748">
        <ele>333.79998779297</ele>
        <time>2015-11-11T14:44:01Z</time>
      </trkpt>
      <trkpt lat="43.43151" lon="6.03752">
        <ele>333.79998779297</ele>
        <time>2015-11-11T14:44:02Z</time>
      </trkpt>
      <trkpt lat="43.43152" lon="6.03756">
        <ele>333.79998779297</ele>
        <time>2015-11-11T14:44:03Z</time>
      </trkpt>
      <trkpt lat="43.43153" lon="6.03763">
        <ele>334</ele>
        <time>2015-11-11T14:44:05Z</time>
      </trkpt>
      <trkpt lat="43.43155" lon="6.03771">
        <ele>333.60000610352</ele>
        <time>2015-11-11T14:44:07Z</time>
      </trkpt>
      <trkpt lat="43.43156" lon="6.03778">
        <ele>333.20001220703</ele>
        <time>2015-11-11T14:44:09Z</time>
      </trkpt>
      <trkpt lat="43.43158" lon="6.03781">
        <ele>333.39999389648</ele>
        <time>2015-11-11T14:44:10Z</time>
      </trkpt>
      <trkpt lat="43.4316" lon="6.03782">
        <ele>333.39999389648</ele>
        <time>2015-11-11T14:44:11Z</time>
      </trkpt>
      <trkpt lat="43.43162" lon="6.03784">
        <ele>333.79998779297</ele>
        <time>2015-11-11T14:44:12Z</time>
      </trkpt>
      <trkpt lat="43.43164" lon="6.03786">
        <ele>334.20001220703</ele>
        <time>2015-11-11T14:44:14Z</time>
      </trkpt>
      <trkpt lat="43.43166" lon="6.03787">
        <ele>334.39999389648</ele>
        <time>2015-11-11T14:44:15Z</time>
      </trkpt>
      <trkpt lat="43.43168" lon="6.03788">
        <ele>334.60000610352</ele>
        <time>2015-11-11T14:44:17Z</time>
      </trkpt>
      <trkpt lat="43.43171" lon="6.03788">
        <ele>334.79998779297</ele>
        <time>2015-11-11T14:44:19Z</time>
      </trkpt>
      <trkpt lat="43.43172" lon="6.03789">
        <ele>335</ele>
        <time>2015-11-11T14:44:20Z</time>
      </trkpt>
      <trkpt lat="43.43176" lon="6.03786">
        <ele>335.20001220703</ele>
        <time>2015-11-11T14:44:23Z</time>
      </trkpt>
      <trkpt lat="43.43177" lon="6.03782">
        <ele>335</ele>
        <time>2015-11-11T14:44:25Z</time>
      </trkpt>
      <trkpt lat="43.43179" lon="6.03778">
        <ele>335.20001220703</ele>
        <time>2015-11-11T14:44:27Z</time>
      </trkpt>
      <trkpt lat="43.43179" lon="6.03772">
        <ele>335.20001220703</ele>
        <time>2015-11-11T14:44:30Z</time>
      </trkpt>
      <trkpt lat="43.4318" lon="6.0377">
        <ele>335.20001220703</ele>
        <time>2015-11-11T14:44:31Z</time>
      </trkpt>
      <trkpt lat="43.43182" lon="6.03767">
        <ele>335.20001220703</ele>
        <time>2015-11-11T14:44:33Z</time>
      </trkpt>
      <trkpt lat="43.43184" lon="6.03763">
        <ele>335.20001220703</ele>
        <time>2015-11-11T14:44:35Z</time>
      </trkpt>
      <trkpt lat="43.43186" lon="6.03759">
        <ele>335.39999389648</ele>
        <time>2015-11-11T14:44:37Z</time>
      </trkpt>
      <trkpt lat="43.43188" lon="6.03755">
        <ele>335.39999389648</ele>
        <time>2015-11-11T14:44:39Z</time>
      </trkpt>
      <trkpt lat="43.43189" lon="6.03753">
        <ele>335.20001220703</ele>
        <time>2015-11-11T14:44:40Z</time>
      </trkpt>
      <trkpt lat="43.43191" lon="6.0375">
        <ele>334.79998779297</ele>
        <time>2015-11-11T14:44:42Z</time>
      </trkpt>
      <trkpt lat="43.43191" lon="6.0375">
        <ele>334.60000610352</ele>
        <time>2015-11-11T14:44:43Z</time>
      </trkpt>
      <trkpt lat="43.43191" lon="6.0375">
        <ele>334.60000610352</ele>
        <time>2015-11-11T14:44:47Z</time>
      </trkpt>
      <trkpt lat="43.43191" lon="6.0375">
        <ele>334.60000610352</ele>
        <time>2015-11-11T14:44:49Z</time>
      </trkpt>
      <trkpt lat="43.43192" lon="6.03749">
        <ele>334.60000610352</ele>
        <time>2015-11-11T14:44:51Z</time>
      </trkpt>
      <trkpt lat="43.43193" lon="6.03746">
        <ele>334.60000610352</ele>
        <time>2015-11-11T14:44:53Z</time>
      </trkpt>
      <trkpt lat="43.43191" lon="6.03742">
        <ele>334.39999389648</ele>
        <time>2015-11-11T14:44:55Z</time>
      </trkpt>
      <trkpt lat="43.43191" lon="6.03738">
        <ele>334.20001220703</ele>
        <time>2015-11-11T14:44:57Z</time>
      </trkpt>
      <trkpt lat="43.43192" lon="6.03734">
        <ele>333.79998779297</ele>
        <time>2015-11-11T14:44:58Z</time>
      </trkpt>
      <trkpt lat="43.43195" lon="6.0373">
        <ele>333.39999389648</ele>
        <time>2015-11-11T14:44:59Z</time>
      </trkpt>
      <trkpt lat="43.43197" lon="6.03728">
        <ele>332.20001220703</ele>
        <time>2015-11-11T14:45:00Z</time>
      </trkpt>
      <trkpt lat="43.43199" lon="6.03725">
        <ele>332</ele>
        <time>2015-11-11T14:45:01Z</time>
      </trkpt>
      <trkpt lat="43.43201" lon="6.0372">
        <ele>332</ele>
        <time>2015-11-11T14:45:03Z</time>
      </trkpt>
      <trkpt lat="43.43206" lon="6.03716">
        <ele>331.60000610352</ele>
        <time>2015-11-11T14:45:05Z</time>
      </trkpt>
      <trkpt lat="43.43208" lon="6.03712">
        <ele>331.20001220703</ele>
        <time>2015-11-11T14:45:06Z</time>
      </trkpt>
      <trkpt lat="43.43209" lon="6.03709">
        <ele>330.79998779297</ele>
        <time>2015-11-11T14:45:07Z</time>
      </trkpt>
      <trkpt lat="43.4321" lon="6.03707">
        <ele>330.60000610352</ele>
        <time>2015-11-11T14:45:08Z</time>
      </trkpt>
      <trkpt lat="43.43212" lon="6.03706">
        <ele>330.60000610352</ele>
        <time>2015-11-11T14:45:09Z</time>
      </trkpt>
      <trkpt lat="43.43212" lon="6.03706">
        <ele>330.39999389648</ele>
        <time>2015-11-11T14:45:11Z</time>
      </trkpt>
      <trkpt lat="43.43212" lon="6.03706">
        <ele>330.60000610352</ele>
        <time>2015-11-11T14:45:13Z</time>
      </trkpt>
      <trkpt lat="43.43212" lon="6.03706">
        <ele>330.39999389648</ele>
        <time>2015-11-11T14:45:19Z</time>
      </trkpt>
      <trkpt lat="43.43212" lon="6.03706">
        <ele>330.39999389648</ele>
        <time>2015-11-11T14:45:33Z</time>
      </trkpt>
      <trkpt lat="43.43212" lon="6.03705">
        <ele>330.39999389648</ele>
        <time>2015-11-11T14:45:35Z</time>
      </trkpt>
      <trkpt lat="43.43214" lon="6.03702">
        <ele>330.20001220703</ele>
        <time>2015-11-11T14:45:37Z</time>
      </trkpt>
      <trkpt lat="43.43216" lon="6.037">
        <ele>330</ele>
        <time>2015-11-11T14:45:38Z</time>
      </trkpt>
      <trkpt lat="43.43217" lon="6.03697">
        <ele>330</ele>
        <time>2015-11-11T14:45:39Z</time>
      </trkpt>
      <trkpt lat="43.43219" lon="6.03693">
        <ele>330</ele>
        <time>2015-11-11T14:45:41Z</time>
      </trkpt>
      <trkpt lat="43.43221" lon="6.03692">
        <ele>329.79998779297</ele>
        <time>2015-11-11T14:45:42Z</time>
      </trkpt>
      <trkpt lat="43.43222" lon="6.0369">
        <ele>329.60000610352</ele>
        <time>2015-11-11T14:45:43Z</time>
      </trkpt>
      <trkpt lat="43.43224" lon="6.03688">
        <ele>329.39999389648</ele>
        <time>2015-11-11T14:45:44Z</time>
      </trkpt>
      <trkpt lat="43.43225" lon="6.03686">
        <ele>329.39999389648</ele>
        <time>2015-11-11T14:45:45Z</time>
      </trkpt>
      <trkpt lat="43.43227" lon="6.03683">
        <ele>328.79998779297</ele>
        <time>2015-11-11T14:45:47Z</time>
      </trkpt>
      <trkpt lat="43.43227" lon="6.03683">
        <ele>328.39999389648</ele>
        <time>2015-11-11T14:45:49Z</time>
      </trkpt>
      <trkpt lat="43.4323" lon="6.03679">
        <ele>327.79998779297</ele>
        <time>2015-11-11T14:45:53Z</time>
      </trkpt>
      <trkpt lat="43.43229" lon="6.0368">
        <ele>327.60000610352</ele>
        <time>2015-11-11T14:45:54Z</time>
      </trkpt>
      <trkpt lat="43.43229" lon="6.0368">
        <ele>327.60000610352</ele>
        <time>2015-11-11T14:45:55Z</time>
      </trkpt>
      <trkpt lat="43.4323" lon="6.03679">
        <ele>327.39999389648</ele>
        <time>2015-11-11T14:45:56Z</time>
      </trkpt>
      <trkpt lat="43.43233" lon="6.03675">
        <ele>327.20001220703</ele>
        <time>2015-11-11T14:45:58Z</time>
      </trkpt>
      <trkpt lat="43.43235" lon="6.03673">
        <ele>326.39999389648</ele>
        <time>2015-11-11T14:46:00Z</time>
      </trkpt>
      <trkpt lat="43.43235" lon="6.03673">
        <ele>326.20001220703</ele>
        <time>2015-11-11T14:46:02Z</time>
      </trkpt>
      <trkpt lat="43.43237" lon="6.03671">
        <ele>326.20001220703</ele>
        <time>2015-11-11T14:46:03Z</time>
      </trkpt>
      <trkpt lat="43.43237" lon="6.0367">
        <ele>326</ele>
        <time>2015-11-11T14:46:04Z</time>
      </trkpt>
      <trkpt lat="43.43237" lon="6.0367">
        <ele>325.79998779297</ele>
        <time>2015-11-11T14:46:06Z</time>
      </trkpt>
      <trkpt lat="43.43238" lon="6.03669">
        <ele>325.79998779297</ele>
        <time>2015-11-11T14:46:08Z</time>
      </trkpt>
      <trkpt lat="43.43238" lon="6.03669">
        <ele>325.79998779297</ele>
        <time>2015-11-11T14:46:10Z</time>
      </trkpt>
      <trkpt lat="43.43238" lon="6.03669">
        <ele>325.60000610352</ele>
        <time>2015-11-11T14:46:12Z</time>
      </trkpt>
      <trkpt lat="43.4324" lon="6.03666">
        <ele>325.20001220703</ele>
        <time>2015-11-11T14:46:14Z</time>
      </trkpt>
      <trkpt lat="43.43241" lon="6.03664">
        <ele>325.20001220703</ele>
        <time>2015-11-11T14:46:15Z</time>
      </trkpt>
      <trkpt lat="43.43243" lon="6.03663">
        <ele>325</ele>
        <time>2015-11-11T14:46:16Z</time>
      </trkpt>
      <trkpt lat="43.43245" lon="6.03659">
        <ele>324.79998779297</ele>
        <time>2015-11-11T14:46:18Z</time>
      </trkpt>
      <trkpt lat="43.43247" lon="6.03657">
        <ele>324.39999389648</ele>
        <time>2015-11-11T14:46:20Z</time>
      </trkpt>
      <trkpt lat="43.43249" lon="6.03654">
        <ele>324</ele>
        <time>2015-11-11T14:46:22Z</time>
      </trkpt>
      <trkpt lat="43.43252" lon="6.03652">
        <ele>323.39999389648</ele>
        <time>2015-11-11T14:46:24Z</time>
      </trkpt>
      <trkpt lat="43.43253" lon="6.03651">
        <ele>323.20001220703</ele>
        <time>2015-11-11T14:46:25Z</time>
      </trkpt>
      <trkpt lat="43.43254" lon="6.0365">
        <ele>323</ele>
        <time>2015-11-11T14:46:26Z</time>
      </trkpt>
      <trkpt lat="43.43254" lon="6.03649">
        <ele>322.79998779297</ele>
        <time>2015-11-11T14:46:28Z</time>
      </trkpt>
      <trkpt lat="43.43254" lon="6.03649">
        <ele>322.79998779297</ele>
        <time>2015-11-11T14:46:30Z</time>
      </trkpt>
      <trkpt lat="43.43254" lon="6.03649">
        <ele>322.39999389648</ele>
        <time>2015-11-11T14:46:32Z</time>
      </trkpt>
      <trkpt lat="43.43254" lon="6.03648">
        <ele>322.60000610352</ele>
        <time>2015-11-11T14:46:34Z</time>
      </trkpt>
      <trkpt lat="43.43254" lon="6.03648">
        <ele>322.79998779297</ele>
        <time>2015-11-11T14:46:40Z</time>
      </trkpt>
      <trkpt lat="43.43254" lon="6.03648">
        <ele>322.39999389648</ele>
        <time>2015-11-11T14:46:52Z</time>
      </trkpt>
      <trkpt lat="43.43254" lon="6.03648">
        <ele>322.39999389648</ele>
        <time>2015-11-11T14:46:54Z</time>
      </trkpt>
      <trkpt lat="43.43254" lon="6.03648">
        <ele>322.60000610352</ele>
        <time>2015-11-11T14:46:56Z</time>
      </trkpt>
      <trkpt lat="43.43255" lon="6.03646">
        <ele>322.60000610352</ele>
        <time>2015-11-11T14:46:58Z</time>
      </trkpt>
      <trkpt lat="43.43256" lon="6.03645">
        <ele>322.39999389648</ele>
        <time>2015-11-11T14:46:59Z</time>
      </trkpt>
      <trkpt lat="43.43257" lon="6.03644">
        <ele>322</ele>
        <time>2015-11-11T14:47:02Z</time>
      </trkpt>
      <trkpt lat="43.43259" lon="6.03642">
        <ele>321.79998779297</ele>
        <time>2015-11-11T14:47:04Z</time>
      </trkpt>
      <trkpt lat="43.43261" lon="6.03638">
        <ele>321.39999389648</ele>
        <time>2015-11-11T14:47:06Z</time>
      </trkpt>
      <trkpt lat="43.43264" lon="6.03636">
        <ele>321</ele>
        <time>2015-11-11T14:47:08Z</time>
      </trkpt>
      <trkpt lat="43.43267" lon="6.03632">
        <ele>320.39999389648</ele>
        <time>2015-11-11T14:47:10Z</time>
      </trkpt>
      <trkpt lat="43.4327" lon="6.03629">
        <ele>319.79998779297</ele>
        <time>2015-11-11T14:47:12Z</time>
      </trkpt>
      <trkpt lat="43.43273" lon="6.03626">
        <ele>319</ele>
        <time>2015-11-11T14:47:14Z</time>
      </trkpt>
      <trkpt lat="43.43274" lon="6.03624">
        <ele>318.79998779297</ele>
        <time>2015-11-11T14:47:15Z</time>
      </trkpt>
      <trkpt lat="43.43274" lon="6.03622">
        <ele>318.39999389648</ele>
        <time>2015-11-11T14:47:16Z</time>
      </trkpt>
      <trkpt lat="43.43275" lon="6.03621">
        <ele>318</ele>
        <time>2015-11-11T14:47:18Z</time>
      </trkpt>
      <trkpt lat="43.43278" lon="6.03619">
        <ele>318</ele>
        <time>2015-11-11T14:47:20Z</time>
      </trkpt>
      <trkpt lat="43.4328" lon="6.03616">
        <ele>317.39999389648</ele>
        <time>2015-11-11T14:47:22Z</time>
      </trkpt>
      <trkpt lat="43.43282" lon="6.03612">
        <ele>316.79998779297</ele>
        <time>2015-11-11T14:47:24Z</time>
      </trkpt>
      <trkpt lat="43.43283" lon="6.03611">
        <ele>316.20001220703</ele>
        <time>2015-11-11T14:47:26Z</time>
      </trkpt>
      <trkpt lat="43.43285" lon="6.03608">
        <ele>316</ele>
        <time>2015-11-11T14:47:28Z</time>
      </trkpt>
      <trkpt lat="43.43286" lon="6.03606">
        <ele>315.39999389648</ele>
        <time>2015-11-11T14:47:30Z</time>
      </trkpt>
      <trkpt lat="43.43286" lon="6.03605">
        <ele>315.39999389648</ele>
        <time>2015-11-11T14:47:32Z</time>
      </trkpt>
      <trkpt lat="43.43287" lon="6.03604">
        <ele>315.39999389648</ele>
        <time>2015-11-11T14:47:34Z</time>
      </trkpt>
      <trkpt lat="43.43288" lon="6.03603">
        <ele>315</ele>
        <time>2015-11-11T14:47:35Z</time>
      </trkpt>
      <trkpt lat="43.43289" lon="6.03602">
        <ele>314.79998779297</ele>
        <time>2015-11-11T14:47:36Z</time>
      </trkpt>
      <trkpt lat="43.43292" lon="6.036">
        <ele>314.20001220703</ele>
        <time>2015-11-11T14:47:38Z</time>
      </trkpt>
      <trkpt lat="43.43294" lon="6.03599">
        <ele>313.79998779297</ele>
        <time>2015-11-11T14:47:39Z</time>
      </trkpt>
      <trkpt lat="43.43296" lon="6.03598">
        <ele>313.39999389648</ele>
        <time>2015-11-11T14:47:40Z</time>
      </trkpt>
      <trkpt lat="43.43298" lon="6.03596">
        <ele>313</ele>
        <time>2015-11-11T14:47:41Z</time>
      </trkpt>
      <trkpt lat="43.433" lon="6.03593">
        <ele>312.60000610352</ele>
        <time>2015-11-11T14:47:42Z</time>
      </trkpt>
      <trkpt lat="43.43304" lon="6.03585">
        <ele>311.39999389648</ele>
        <time>2015-11-11T14:47:44Z</time>
      </trkpt>
      <trkpt lat="43.43306" lon="6.03578">
        <ele>310</ele>
        <time>2015-11-11T14:47:46Z</time>
      </trkpt>
      <trkpt lat="43.43308" lon="6.03573">
        <ele>309</ele>
        <time>2015-11-11T14:47:48Z</time>
      </trkpt>
      <trkpt lat="43.43309" lon="6.0357">
        <ele>308.60000610352</ele>
        <time>2015-11-11T14:47:49Z</time>
      </trkpt>
      <trkpt lat="43.4331" lon="6.03569">
        <ele>308</ele>
        <time>2015-11-11T14:47:50Z</time>
      </trkpt>
      <trkpt lat="43.43309" lon="6.0357">
        <ele>307.79998779297</ele>
        <time>2015-11-11T14:47:51Z</time>
      </trkpt>
      <trkpt lat="43.4331" lon="6.0357">
        <ele>307.79998779297</ele>
        <time>2015-11-11T14:47:52Z</time>
      </trkpt>
      <trkpt lat="43.4331" lon="6.03572">
        <ele>307.79998779297</ele>
        <time>2015-11-11T14:47:54Z</time>
      </trkpt>
      <trkpt lat="43.43311" lon="6.03572">
        <ele>307.60000610352</ele>
        <time>2015-11-11T14:47:56Z</time>
      </trkpt>
      <trkpt lat="43.43311" lon="6.03572">
        <ele>307.79998779297</ele>
        <time>2015-11-11T14:48:00Z</time>
      </trkpt>
      <trkpt lat="43.43311" lon="6.03572">
        <ele>307.60000610352</ele>
        <time>2015-11-11T14:48:09Z</time>
      </trkpt>
      <trkpt lat="43.4331" lon="6.03572">
        <ele>307.60000610352</ele>
        <time>2015-11-11T14:48:10Z</time>
      </trkpt>
      <trkpt lat="43.43312" lon="6.03578">
        <ele>307.20001220703</ele>
        <time>2015-11-11T14:48:13Z</time>
      </trkpt>
      <trkpt lat="43.43312" lon="6.03581">
        <ele>307</ele>
        <time>2015-11-11T14:48:14Z</time>
      </trkpt>
      <trkpt lat="43.43313" lon="6.03588">
        <ele>306.79998779297</ele>
        <time>2015-11-11T14:48:16Z</time>
      </trkpt>
      <trkpt lat="43.43312" lon="6.03591">
        <ele>306.60000610352</ele>
        <time>2015-11-11T14:48:17Z</time>
      </trkpt>
      <trkpt lat="43.43312" lon="6.03594">
        <ele>306.60000610352</ele>
        <time>2015-11-11T14:48:18Z</time>
      </trkpt>
      <trkpt lat="43.43312" lon="6.03595">
        <ele>306.39999389648</ele>
        <time>2015-11-11T14:48:20Z</time>
      </trkpt>
      <trkpt lat="43.43312" lon="6.03597">
        <ele>306.20001220703</ele>
        <time>2015-11-11T14:48:21Z</time>
      </trkpt>
      <trkpt lat="43.43313" lon="6.03598">
        <ele>306.20001220703</ele>
        <time>2015-11-11T14:48:22Z</time>
      </trkpt>
      <trkpt lat="43.43313" lon="6.03598">
        <ele>306.39999389648</ele>
        <time>2015-11-11T14:48:24Z</time>
      </trkpt>
      <trkpt lat="43.43313" lon="6.03598">
        <ele>306.39999389648</ele>
        <time>2015-11-11T14:48:28Z</time>
      </trkpt>
      <trkpt lat="43.43313" lon="6.03598">
        <ele>306.20001220703</ele>
        <time>2015-11-11T14:48:32Z</time>
      </trkpt>
      <trkpt lat="43.43313" lon="6.036">
        <ele>306</ele>
        <time>2015-11-11T14:48:34Z</time>
      </trkpt>
      <trkpt lat="43.43313" lon="6.03602">
        <ele>306</ele>
        <time>2015-11-11T14:48:35Z</time>
      </trkpt>
      <trkpt lat="43.43313" lon="6.03604">
        <ele>305.60000610352</ele>
        <time>2015-11-11T14:48:36Z</time>
      </trkpt>
      <trkpt lat="43.43313" lon="6.03608">
        <ele>305</ele>
        <time>2015-11-11T14:48:38Z</time>
      </trkpt>
      <trkpt lat="43.43314" lon="6.03612">
        <ele>304.60000610352</ele>
        <time>2015-11-11T14:48:40Z</time>
      </trkpt>
      <trkpt lat="43.43313" lon="6.03616">
        <ele>304</ele>
        <time>2015-11-11T14:48:42Z</time>
      </trkpt>
      <trkpt lat="43.43312" lon="6.03622">
        <ele>303.20001220703</ele>
        <time>2015-11-11T14:48:44Z</time>
      </trkpt>
      <trkpt lat="43.43313" lon="6.03627">
        <ele>302.39999389648</ele>
        <time>2015-11-11T14:48:45Z</time>
      </trkpt>
      <trkpt lat="43.43312" lon="6.03631">
        <ele>301.60000610352</ele>
        <time>2015-11-11T14:48:46Z</time>
      </trkpt>
      <trkpt lat="43.43312" lon="6.03635">
        <ele>300.79998779297</ele>
        <time>2015-11-11T14:48:47Z</time>
      </trkpt>
      <trkpt lat="43.4331" lon="6.03638">
        <ele>300.60000610352</ele>
        <time>2015-11-11T14:48:48Z</time>
      </trkpt>
      <trkpt lat="43.43307" lon="6.03642">
        <ele>300.39999389648</ele>
        <time>2015-11-11T14:48:50Z</time>
      </trkpt>
      <trkpt lat="43.43306" lon="6.03644">
        <ele>300</ele>
        <time>2015-11-11T14:48:52Z</time>
      </trkpt>
      <trkpt lat="43.43304" lon="6.03646">
        <ele>300</ele>
        <time>2015-11-11T14:48:53Z</time>
      </trkpt>
      <trkpt lat="43.43303" lon="6.03647">
        <ele>299.60000610352</ele>
        <time>2015-11-11T14:48:54Z</time>
      </trkpt>
      <trkpt lat="43.43301" lon="6.03651">
        <ele>299.60000610352</ele>
        <time>2015-11-11T14:48:56Z</time>
      </trkpt>
      <trkpt lat="43.433" lon="6.03654">
        <ele>299.20001220703</ele>
        <time>2015-11-11T14:48:58Z</time>
      </trkpt>
      <trkpt lat="43.43299" lon="6.0366">
        <ele>299</ele>
        <time>2015-11-11T14:49:00Z</time>
      </trkpt>
      <trkpt lat="43.43298" lon="6.03665">
        <ele>298.20001220703</ele>
        <time>2015-11-11T14:49:02Z</time>
      </trkpt>
      <trkpt lat="43.43298" lon="6.03671">
        <ele>298.20001220703</ele>
        <time>2015-11-11T14:49:04Z</time>
      </trkpt>
      <trkpt lat="43.43298" lon="6.03672">
        <ele>298</ele>
        <time>2015-11-11T14:49:05Z</time>
      </trkpt>
      <trkpt lat="43.43297" lon="6.03674">
        <ele>298</ele>
        <time>2015-11-11T14:49:06Z</time>
      </trkpt>
      <trkpt lat="43.43297" lon="6.03673">
        <ele>297.79998779297</ele>
        <time>2015-11-11T14:49:08Z</time>
      </trkpt>
      <trkpt lat="43.43297" lon="6.03673">
        <ele>297.60000610352</ele>
        <time>2015-11-11T14:49:14Z</time>
      </trkpt>
      <trkpt lat="43.43297" lon="6.03673">
        <ele>298</ele>
        <time>2015-11-11T14:49:38Z</time>
      </trkpt>
      <trkpt lat="43.43297" lon="6.03674">
        <ele>297.79998779297</ele>
        <time>2015-11-11T14:49:40Z</time>
      </trkpt>
      <trkpt lat="43.43298" lon="6.03674">
        <ele>297.79998779297</ele>
        <time>2015-11-11T14:49:42Z</time>
      </trkpt>
      <trkpt lat="43.43298" lon="6.03674">
        <ele>297.79998779297</ele>
        <time>2015-11-11T14:49:46Z</time>
      </trkpt>
      <trkpt lat="43.43298" lon="6.03674">
        <ele>297.60000610352</ele>
        <time>2015-11-11T14:50:00Z</time>
      </trkpt>
      <trkpt lat="43.43298" lon="6.03675">
        <ele>297.79998779297</ele>
        <time>2015-11-11T14:50:02Z</time>
      </trkpt>
      <trkpt lat="43.43298" lon="6.03678">
        <ele>297.60000610352</ele>
        <time>2015-11-11T14:50:04Z</time>
      </trkpt>
      <trkpt lat="43.43298" lon="6.03683">
        <ele>297.60000610352</ele>
        <time>2015-11-11T14:50:06Z</time>
      </trkpt>
      <trkpt lat="43.43298" lon="6.03687">
        <ele>297.39999389648</ele>
        <time>2015-11-11T14:50:08Z</time>
      </trkpt>
      <trkpt lat="43.43298" lon="6.03687">
        <ele>297.39999389648</ele>
        <time>2015-11-11T14:50:09Z</time>
      </trkpt>
      <trkpt lat="43.43299" lon="6.03688">
        <ele>297.60000610352</ele>
        <time>2015-11-11T14:50:10Z</time>
      </trkpt>
      <trkpt lat="43.43299" lon="6.03688">
        <ele>297.60000610352</ele>
        <time>2015-11-11T14:50:12Z</time>
      </trkpt>
      <trkpt lat="43.43299" lon="6.03688">
        <ele>297.20001220703</ele>
        <time>2015-11-11T14:50:14Z</time>
      </trkpt>
      <trkpt lat="43.43299" lon="6.03688">
        <ele>297.39999389648</ele>
        <time>2015-11-11T14:50:18Z</time>
      </trkpt>
      <trkpt lat="43.43299" lon="6.03688">
        <ele>297.39999389648</ele>
        <time>2015-11-11T14:50:22Z</time>
      </trkpt>
      <trkpt lat="43.43299" lon="6.03689">
        <ele>297.20001220703</ele>
        <time>2015-11-11T14:50:24Z</time>
      </trkpt>
      <trkpt lat="43.433" lon="6.0369">
        <ele>297</ele>
        <time>2015-11-11T14:50:25Z</time>
      </trkpt>
      <trkpt lat="43.433" lon="6.03691">
        <ele>297</ele>
        <time>2015-11-11T14:50:26Z</time>
      </trkpt>
      <trkpt lat="43.433" lon="6.03694">
        <ele>297.20001220703</ele>
        <time>2015-11-11T14:50:28Z</time>
      </trkpt>
      <trkpt lat="43.433" lon="6.03696">
        <ele>297</ele>
        <time>2015-11-11T14:50:30Z</time>
      </trkpt>
      <trkpt lat="43.43303" lon="6.03704">
        <ele>296.39999389648</ele>
        <time>2015-11-11T14:50:34Z</time>
      </trkpt>
      <trkpt lat="43.43304" lon="6.03707">
        <ele>296.39999389648</ele>
        <time>2015-11-11T14:50:36Z</time>
      </trkpt>
      <trkpt lat="43.43306" lon="6.03711">
        <ele>296</ele>
        <time>2015-11-11T14:50:38Z</time>
      </trkpt>
      <trkpt lat="43.43308" lon="6.03715">
        <ele>295.79998779297</ele>
        <time>2015-11-11T14:50:40Z</time>
      </trkpt>
      <trkpt lat="43.4331" lon="6.03719">
        <ele>295.60000610352</ele>
        <time>2015-11-11T14:50:42Z</time>
      </trkpt>
      <trkpt lat="43.43312" lon="6.03724">
        <ele>295.20001220703</ele>
        <time>2015-11-11T14:50:44Z</time>
      </trkpt>
      <trkpt lat="43.43315" lon="6.03729">
        <ele>295</ele>
        <time>2015-11-11T14:50:46Z</time>
      </trkpt>
      <trkpt lat="43.43317" lon="6.0373">
        <ele>294.79998779297</ele>
        <time>2015-11-11T14:50:47Z</time>
      </trkpt>
      <trkpt lat="43.43322" lon="6.03735">
        <ele>294.60000610352</ele>
        <time>2015-11-11T14:50:50Z</time>
      </trkpt>
      <trkpt lat="43.43326" lon="6.03738">
        <ele>294.39999389648</ele>
        <time>2015-11-11T14:50:52Z</time>
      </trkpt>
      <trkpt lat="43.43332" lon="6.03742">
        <ele>293.79998779297</ele>
        <time>2015-11-11T14:50:56Z</time>
      </trkpt>
      <trkpt lat="43.43336" lon="6.03745">
        <ele>293.79998779297</ele>
        <time>2015-11-11T14:50:58Z</time>
      </trkpt>
      <trkpt lat="43.4334" lon="6.03747">
        <ele>293.60000610352</ele>
        <time>2015-11-11T14:51:00Z</time>
      </trkpt>
      <trkpt lat="43.43344" lon="6.0375">
        <ele>293.20001220703</ele>
        <time>2015-11-11T14:51:02Z</time>
      </trkpt>
      <trkpt lat="43.43349" lon="6.03755">
        <ele>292.79998779297</ele>
        <time>2015-11-11T14:51:04Z</time>
      </trkpt>
      <trkpt lat="43.43352" lon="6.03757">
        <ele>292.79998779297</ele>
        <time>2015-11-11T14:51:05Z</time>
      </trkpt>
      <trkpt lat="43.43354" lon="6.03759">
        <ele>292.79998779297</ele>
        <time>2015-11-11T14:51:06Z</time>
      </trkpt>
      <trkpt lat="43.43357" lon="6.03763">
        <ele>292.60000610352</ele>
        <time>2015-11-11T14:51:07Z</time>
      </trkpt>
      <trkpt lat="43.43361" lon="6.03766">
        <ele>292.39999389648</ele>
        <time>2015-11-11T14:51:08Z</time>
      </trkpt>
      <trkpt lat="43.43367" lon="6.03774">
        <ele>291.79998779297</ele>
        <time>2015-11-11T14:51:10Z</time>
      </trkpt>
      <trkpt lat="43.4337" lon="6.03777">
        <ele>291.60000610352</ele>
        <time>2015-11-11T14:51:11Z</time>
      </trkpt>
      <trkpt lat="43.43373" lon="6.03781">
        <ele>291.20001220703</ele>
        <time>2015-11-11T14:51:12Z</time>
      </trkpt>
      <trkpt lat="43.4338" lon="6.03785">
        <ele>291.20001220703</ele>
        <time>2015-11-11T14:51:14Z</time>
      </trkpt>
      <trkpt lat="43.43382" lon="6.03786">
        <ele>291.39999389648</ele>
        <time>2015-11-11T14:51:15Z</time>
      </trkpt>
      <trkpt lat="43.43384" lon="6.03789">
        <ele>291.20001220703</ele>
        <time>2015-11-11T14:51:16Z</time>
      </trkpt>
      <trkpt lat="43.43388" lon="6.03793">
        <ele>290.60000610352</ele>
        <time>2015-11-11T14:51:18Z</time>
      </trkpt>
      <trkpt lat="43.4339" lon="6.03795">
        <ele>290.20001220703</ele>
        <time>2015-11-11T14:51:19Z</time>
      </trkpt>
      <trkpt lat="43.43391" lon="6.03796">
        <ele>290.39999389648</ele>
        <time>2015-11-11T14:51:20Z</time>
      </trkpt>
      <trkpt lat="43.43397" lon="6.03801">
        <ele>290.20001220703</ele>
        <time>2015-11-11T14:51:22Z</time>
      </trkpt>
      <trkpt lat="43.43401" lon="6.03803">
        <ele>289.79998779297</ele>
        <time>2015-11-11T14:51:24Z</time>
      </trkpt>
      <trkpt lat="43.43404" lon="6.03805">
        <ele>289.60000610352</ele>
        <time>2015-11-11T14:51:26Z</time>
      </trkpt>
      <trkpt lat="43.43408" lon="6.03805">
        <ele>289.79998779297</ele>
        <time>2015-11-11T14:51:28Z</time>
      </trkpt>
      <trkpt lat="43.43409" lon="6.03805">
        <ele>289.60000610352</ele>
        <time>2015-11-11T14:51:29Z</time>
      </trkpt>
      <trkpt lat="43.43411" lon="6.03806">
        <ele>289.39999389648</ele>
        <time>2015-11-11T14:51:30Z</time>
      </trkpt>
      <trkpt lat="43.43411" lon="6.03806">
        <ele>289.20001220703</ele>
        <time>2015-11-11T14:51:31Z</time>
      </trkpt>
      <trkpt lat="43.43412" lon="6.03807">
        <ele>289.20001220703</ele>
        <time>2015-11-11T14:51:32Z</time>
      </trkpt>
      <trkpt lat="43.43412" lon="6.03807">
        <ele>289.20001220703</ele>
        <time>2015-11-11T14:51:34Z</time>
      </trkpt>
      <trkpt lat="43.43412" lon="6.03807">
        <ele>289.20001220703</ele>
        <time>2015-11-11T14:51:38Z</time>
      </trkpt>
      <trkpt lat="43.43413" lon="6.03807">
        <ele>289.20001220703</ele>
        <time>2015-11-11T14:51:40Z</time>
      </trkpt>
      <trkpt lat="43.43414" lon="6.03808">
        <ele>288.79998779297</ele>
        <time>2015-11-11T14:51:42Z</time>
      </trkpt>
      <trkpt lat="43.43415" lon="6.03807">
        <ele>288.60000610352</ele>
        <time>2015-11-11T14:51:44Z</time>
      </trkpt>
      <trkpt lat="43.43415" lon="6.03807">
        <ele>288.60000610352</ele>
        <time>2015-11-11T14:51:46Z</time>
      </trkpt>
      <trkpt lat="43.43416" lon="6.03807">
        <ele>288.39999389648</ele>
        <time>2015-11-11T14:51:48Z</time>
      </trkpt>
      <trkpt lat="43.43417" lon="6.03807">
        <ele>288.60000610352</ele>
        <time>2015-11-11T14:51:49Z</time>
      </trkpt>
      <trkpt lat="43.43419" lon="6.03807">
        <ele>288.79998779297</ele>
        <time>2015-11-11T14:51:50Z</time>
      </trkpt>
      <trkpt lat="43.43424" lon="6.03805">
        <ele>288.60000610352</ele>
        <time>2015-11-11T14:51:52Z</time>
      </trkpt>
      <trkpt lat="43.43428" lon="6.038">
        <ele>288.39999389648</ele>
        <time>2015-11-11T14:51:54Z</time>
      </trkpt>
      <trkpt lat="43.43431" lon="6.03795">
        <ele>288.79998779297</ele>
        <time>2015-11-11T14:51:56Z</time>
      </trkpt>
      <trkpt lat="43.43434" lon="6.03789">
        <ele>289.20001220703</ele>
        <time>2015-11-11T14:51:58Z</time>
      </trkpt>
      <trkpt lat="43.43435" lon="6.03785">
        <ele>289.20001220703</ele>
        <time>2015-11-11T14:51:59Z</time>
      </trkpt>
      <trkpt lat="43.43436" lon="6.03781">
        <ele>289.39999389648</ele>
        <time>2015-11-11T14:52:00Z</time>
      </trkpt>
      <trkpt lat="43.43439" lon="6.03777">
        <ele>289.60000610352</ele>
        <time>2015-11-11T14:52:02Z</time>
      </trkpt>
      <trkpt lat="43.43441" lon="6.03773">
        <ele>289.79998779297</ele>
        <time>2015-11-11T14:52:04Z</time>
      </trkpt>
      <trkpt lat="43.43444" lon="6.03767">
        <ele>289.60000610352</ele>
        <time>2015-11-11T14:52:06Z</time>
      </trkpt>
      <trkpt lat="43.43448" lon="6.03763">
        <ele>289.60000610352</ele>
        <time>2015-11-11T14:52:08Z</time>
      </trkpt>
      <trkpt lat="43.4345" lon="6.03761">
        <ele>289.60000610352</ele>
        <time>2015-11-11T14:52:09Z</time>
      </trkpt>
      <trkpt lat="43.43452" lon="6.03759">
        <ele>289.20001220703</ele>
        <time>2015-11-11T14:52:10Z</time>
      </trkpt>
      <trkpt lat="43.43464" lon="6.03747">
        <ele>287.60000610352</ele>
        <time>2015-11-11T14:52:16Z</time>
      </trkpt>
      <trkpt lat="43.43467" lon="6.03745">
        <ele>287.60000610352</ele>
        <time>2015-11-11T14:52:18Z</time>
      </trkpt>
      <trkpt lat="43.43471" lon="6.03742">
        <ele>287.20001220703</ele>
        <time>2015-11-11T14:52:20Z</time>
      </trkpt>
      <trkpt lat="43.43476" lon="6.0374">
        <ele>286.60000610352</ele>
        <time>2015-11-11T14:52:22Z</time>
      </trkpt>
      <trkpt lat="43.4348" lon="6.03741">
        <ele>286.20001220703</ele>
        <time>2015-11-11T14:52:24Z</time>
      </trkpt>
      <trkpt lat="43.43482" lon="6.03742">
        <ele>286.39999389648</ele>
        <time>2015-11-11T14:52:26Z</time>
      </trkpt>
      <trkpt lat="43.43484" lon="6.03743">
        <ele>286</ele>
        <time>2015-11-11T14:52:27Z</time>
      </trkpt>
      <trkpt lat="43.43485" lon="6.03744">
        <ele>285.60000610352</ele>
        <time>2015-11-11T14:52:28Z</time>
      </trkpt>
      <trkpt lat="43.43488" lon="6.03746">
        <ele>285.20001220703</ele>
        <time>2015-11-11T14:52:30Z</time>
      </trkpt>
      <trkpt lat="43.43491" lon="6.03748">
        <ele>285</ele>
        <time>2015-11-11T14:52:32Z</time>
      </trkpt>
      <trkpt lat="43.43492" lon="6.03749">
        <ele>284.79998779297</ele>
        <time>2015-11-11T14:52:33Z</time>
      </trkpt>
      <trkpt lat="43.43494" lon="6.0375">
        <ele>284.60000610352</ele>
        <time>2015-11-11T14:52:34Z</time>
      </trkpt>
      <trkpt lat="43.43495" lon="6.03751">
        <ele>284.39999389648</ele>
        <time>2015-11-11T14:52:35Z</time>
      </trkpt>
      <trkpt lat="43.43496" lon="6.03753">
        <ele>284</ele>
        <time>2015-11-11T14:52:36Z</time>
      </trkpt>
      <trkpt lat="43.43499" lon="6.03753">
        <ele>283.79998779297</ele>
        <time>2015-11-11T14:52:37Z</time>
      </trkpt>
      <trkpt lat="43.435" lon="6.03755">
        <ele>283.79998779297</ele>
        <time>2015-11-11T14:52:38Z</time>
      </trkpt>
      <trkpt lat="43.43504" lon="6.03759">
        <ele>283.39999389648</ele>
        <time>2015-11-11T14:52:40Z</time>
      </trkpt>
      <trkpt lat="43.43509" lon="6.03762">
        <ele>282.79998779297</ele>
        <time>2015-11-11T14:52:42Z</time>
      </trkpt>
      <trkpt lat="43.43512" lon="6.03764">
        <ele>282.60000610352</ele>
        <time>2015-11-11T14:52:43Z</time>
      </trkpt>
      <trkpt lat="43.43521" lon="6.03771">
        <ele>282.20001220703</ele>
        <time>2015-11-11T14:52:48Z</time>
      </trkpt>
      <trkpt lat="43.43522" lon="6.03772">
        <ele>282.20001220703</ele>
        <time>2015-11-11T14:52:50Z</time>
      </trkpt>
      <trkpt lat="43.43525" lon="6.03774">
        <ele>282.20001220703</ele>
        <time>2015-11-11T14:52:52Z</time>
      </trkpt>
      <trkpt lat="43.43528" lon="6.03774">
        <ele>281.79998779297</ele>
        <time>2015-11-11T14:52:54Z</time>
      </trkpt>
      <trkpt lat="43.4353" lon="6.03774">
        <ele>281.79998779297</ele>
        <time>2015-11-11T14:52:55Z</time>
      </trkpt>
      <trkpt lat="43.43531" lon="6.03774">
        <ele>281.60000610352</ele>
        <time>2015-11-11T14:52:56Z</time>
      </trkpt>
      <trkpt lat="43.43536" lon="6.03774">
        <ele>281</ele>
        <time>2015-11-11T14:52:58Z</time>
      </trkpt>
      <trkpt lat="43.4354" lon="6.03775">
        <ele>280.60000610352</ele>
        <time>2015-11-11T14:53:00Z</time>
      </trkpt>
      <trkpt lat="43.43542" lon="6.03775">
        <ele>280.20001220703</ele>
        <time>2015-11-11T14:53:01Z</time>
      </trkpt>
      <trkpt lat="43.43543" lon="6.03776">
        <ele>280</ele>
        <time>2015-11-11T14:53:02Z</time>
      </trkpt>
      <trkpt lat="43.43547" lon="6.03778">
        <ele>279.60000610352</ele>
        <time>2015-11-11T14:53:04Z</time>
      </trkpt>
      <trkpt lat="43.4355" lon="6.03781">
        <ele>279.60000610352</ele>
        <time>2015-11-11T14:53:06Z</time>
      </trkpt>
      <trkpt lat="43.43552" lon="6.03782">
        <ele>279.60000610352</ele>
        <time>2015-11-11T14:53:07Z</time>
      </trkpt>
      <trkpt lat="43.43554" lon="6.03783">
        <ele>279.60000610352</ele>
        <time>2015-11-11T14:53:08Z</time>
      </trkpt>
      <trkpt lat="43.43555" lon="6.03782">
        <ele>279.39999389648</ele>
        <time>2015-11-11T14:53:09Z</time>
      </trkpt>
      <trkpt lat="43.43558" lon="6.03782">
        <ele>279.39999389648</ele>
        <time>2015-11-11T14:53:10Z</time>
      </trkpt>
      <trkpt lat="43.43559" lon="6.03783">
        <ele>279.39999389648</ele>
        <time>2015-11-11T14:53:11Z</time>
      </trkpt>
      <trkpt lat="43.43559" lon="6.03783">
        <ele>279.39999389648</ele>
        <time>2015-11-11T14:53:12Z</time>
      </trkpt>
      <trkpt lat="43.43561" lon="6.03784">
        <ele>279.20001220703</ele>
        <time>2015-11-11T14:53:14Z</time>
      </trkpt>
      <trkpt lat="43.43563" lon="6.03785">
        <ele>279.20001220703</ele>
        <time>2015-11-11T14:53:16Z</time>
      </trkpt>
      <trkpt lat="43.43564" lon="6.03787">
        <ele>279</ele>
        <time>2015-11-11T14:53:17Z</time>
      </trkpt>
      <trkpt lat="43.43566" lon="6.03788">
        <ele>279</ele>
        <time>2015-11-11T14:53:18Z</time>
      </trkpt>
      <trkpt lat="43.43568" lon="6.03789">
        <ele>278.79998779297</ele>
        <time>2015-11-11T14:53:20Z</time>
      </trkpt>
      <trkpt lat="43.43568" lon="6.03789">
        <ele>278.60000610352</ele>
        <time>2015-11-11T14:53:22Z</time>
      </trkpt>
      <trkpt lat="43.43569" lon="6.03789">
        <ele>278.60000610352</ele>
        <time>2015-11-11T14:53:23Z</time>
      </trkpt>
      <trkpt lat="43.43569" lon="6.03789">
        <ele>278.60000610352</ele>
        <time>2015-11-11T14:53:28Z</time>
      </trkpt>
      <trkpt lat="43.43569" lon="6.03789">
        <ele>278.60000610352</ele>
        <time>2015-11-11T14:54:00Z</time>
      </trkpt>
      <trkpt lat="43.43569" lon="6.03789">
        <ele>278.60000610352</ele>
        <time>2015-11-11T14:54:02Z</time>
      </trkpt>
      <trkpt lat="43.43569" lon="6.03789">
        <ele>278.39999389648</ele>
        <time>2015-11-11T14:54:06Z</time>
      </trkpt>
      <trkpt lat="43.43569" lon="6.03789">
        <ele>278.39999389648</ele>
        <time>2015-11-11T14:54:40Z</time>
      </trkpt>
      <trkpt lat="43.43569" lon="6.0379">
        <ele>278.39999389648</ele>
        <time>2015-11-11T14:54:42Z</time>
      </trkpt>
      <trkpt lat="43.43569" lon="6.0379">
        <ele>278.39999389648</ele>
        <time>2015-11-11T14:54:48Z</time>
      </trkpt>
      <trkpt lat="43.43569" lon="6.0379">
        <ele>278.39999389648</ele>
        <time>2015-11-11T14:55:20Z</time>
      </trkpt>
      <trkpt lat="43.4357" lon="6.03791">
        <ele>278.60000610352</ele>
        <time>2015-11-11T14:55:22Z</time>
      </trkpt>
      <trkpt lat="43.4357" lon="6.03791">
        <ele>278.39999389648</ele>
        <time>2015-11-11T14:55:26Z</time>
      </trkpt>
      <trkpt lat="43.4357" lon="6.03791">
        <ele>278.60000610352</ele>
        <time>2015-11-11T14:55:30Z</time>
      </trkpt>
      <trkpt lat="43.4357" lon="6.03792">
        <ele>278.60000610352</ele>
        <time>2015-11-11T14:55:32Z</time>
      </trkpt>
      <trkpt lat="43.4357" lon="6.03792">
        <ele>278.79998779297</ele>
        <time>2015-11-11T14:55:34Z</time>
      </trkpt>
      <trkpt lat="43.4357" lon="6.03792">
        <ele>278.79998779297</ele>
        <time>2015-11-11T14:55:36Z</time>
      </trkpt>
      <trkpt lat="43.4357" lon="6.03792">
        <ele>278.60000610352</ele>
        <time>2015-11-11T14:55:37Z</time>
      </trkpt>
      <trkpt lat="43.4357" lon="6.03792">
        <ele>278.60000610352</ele>
        <time>2015-11-11T14:55:40Z</time>
      </trkpt>
      <trkpt lat="43.4357" lon="6.03792">
        <ele>278.60000610352</ele>
        <time>2015-11-11T14:55:41Z</time>
      </trkpt>
      <trkpt lat="43.43568" lon="6.03793">
        <ele>278.60000610352</ele>
        <time>2015-11-11T14:55:43Z</time>
      </trkpt>
      <trkpt lat="43.43567" lon="6.03792">
        <ele>278.60000610352</ele>
        <time>2015-11-11T14:55:44Z</time>
      </trkpt>
      <trkpt lat="43.43564" lon="6.03789">
        <ele>278.79998779297</ele>
        <time>2015-11-11T14:55:46Z</time>
      </trkpt>
      <trkpt lat="43.43562" lon="6.03788">
        <ele>278.79998779297</ele>
        <time>2015-11-11T14:55:47Z</time>
      </trkpt>
      <trkpt lat="43.4356" lon="6.03787">
        <ele>278.79998779297</ele>
        <time>2015-11-11T14:55:48Z</time>
      </trkpt>
      <trkpt lat="43.43557" lon="6.03786">
        <ele>279.20001220703</ele>
        <time>2015-11-11T14:55:50Z</time>
      </trkpt>
      <trkpt lat="43.43554" lon="6.03784">
        <ele>279.39999389648</ele>
        <time>2015-11-11T14:55:52Z</time>
      </trkpt>
      <trkpt lat="43.43551" lon="6.03783">
        <ele>279.20001220703</ele>
        <time>2015-11-11T14:55:54Z</time>
      </trkpt>
      <trkpt lat="43.43547" lon="6.03781">
        <ele>279.39999389648</ele>
        <time>2015-11-11T14:55:56Z</time>
      </trkpt>
      <trkpt lat="43.43544" lon="6.0378">
        <ele>279.79998779297</ele>
        <time>2015-11-11T14:55:58Z</time>
      </trkpt>
      <trkpt lat="43.4354" lon="6.03779">
        <ele>280.39999389648</ele>
        <time>2015-11-11T14:56:00Z</time>
      </trkpt>
      <trkpt lat="43.43536" lon="6.03778">
        <ele>281.20001220703</ele>
        <time>2015-11-11T14:56:02Z</time>
      </trkpt>
      <trkpt lat="43.43533" lon="6.03777">
        <ele>281.39999389648</ele>
        <time>2015-11-11T14:56:04Z</time>
      </trkpt>
      <trkpt lat="43.43531" lon="6.03776">
        <ele>281.60000610352</ele>
        <time>2015-11-11T14:56:05Z</time>
      </trkpt>
      <trkpt lat="43.4353" lon="6.03775">
        <ele>281.79998779297</ele>
        <time>2015-11-11T14:56:06Z</time>
      </trkpt>
      <trkpt lat="43.43527" lon="6.03773">
        <ele>282</ele>
        <time>2015-11-11T14:56:08Z</time>
      </trkpt>
      <trkpt lat="43.43523" lon="6.0377">
        <ele>282</ele>
        <time>2015-11-11T14:56:10Z</time>
      </trkpt>
      <trkpt lat="43.4352" lon="6.03768">
        <ele>282.20001220703</ele>
        <time>2015-11-11T14:56:12Z</time>
      </trkpt>
      <trkpt lat="43.43517" lon="6.03766">
        <ele>282.39999389648</ele>
        <time>2015-11-11T14:56:14Z</time>
      </trkpt>
      <trkpt lat="43.43515" lon="6.03766">
        <ele>282.60000610352</ele>
        <time>2015-11-11T14:56:15Z</time>
      </trkpt>
      <trkpt lat="43.43515" lon="6.03766">
        <ele>282.79998779297</ele>
        <time>2015-11-11T14:56:16Z</time>
      </trkpt>
      <trkpt lat="43.43515" lon="6.03766">
        <ele>283</ele>
        <time>2015-11-11T14:56:17Z</time>
      </trkpt>
      <trkpt lat="43.43515" lon="6.03766">
        <ele>282.60000610352</ele>
        <time>2015-11-11T14:56:22Z</time>
      </trkpt>
      <trkpt lat="43.43515" lon="6.03766">
        <ele>282.79998779297</ele>
        <time>2015-11-11T14:56:34Z</time>
      </trkpt>
      <trkpt lat="43.43515" lon="6.03766">
        <ele>283</ele>
        <time>2015-11-11T14:56:38Z</time>
      </trkpt>
      <trkpt lat="43.43515" lon="6.03766">
        <ele>283</ele>
        <time>2015-11-11T14:56:44Z</time>
      </trkpt>
      <trkpt lat="43.43515" lon="6.03766">
        <ele>282.79998779297</ele>
        <time>2015-11-11T14:56:48Z</time>
      </trkpt>
      <trkpt lat="43.43516" lon="6.03767">
        <ele>282.79998779297</ele>
        <time>2015-11-11T14:56:50Z</time>
      </trkpt>
      <trkpt lat="43.43517" lon="6.03768">
        <ele>282.79998779297</ele>
        <time>2015-11-11T14:56:51Z</time>
      </trkpt>
      <trkpt lat="43.43518" lon="6.03769">
        <ele>282.79998779297</ele>
        <time>2015-11-11T14:56:52Z</time>
      </trkpt>
      <trkpt lat="43.4352" lon="6.0377">
        <ele>282.79998779297</ele>
        <time>2015-11-11T14:56:54Z</time>
      </trkpt>
      <trkpt lat="43.4352" lon="6.03771">
        <ele>282.60000610352</ele>
        <time>2015-11-11T14:56:56Z</time>
      </trkpt>
      <trkpt lat="43.43521" lon="6.03771">
        <ele>282.60000610352</ele>
        <time>2015-11-11T14:56:57Z</time>
      </trkpt>
      <trkpt lat="43.43521" lon="6.03772">
        <ele>282.60000610352</ele>
        <time>2015-11-11T14:56:58Z</time>
      </trkpt>
      <trkpt lat="43.43521" lon="6.03772">
        <ele>282.79998779297</ele>
        <time>2015-11-11T14:57:03Z</time>
      </trkpt>
      <trkpt lat="43.43521" lon="6.03772">
        <ele>282.39999389648</ele>
        <time>2015-11-11T14:57:08Z</time>
      </trkpt>
      <trkpt lat="43.43521" lon="6.03772">
        <ele>282.60000610352</ele>
        <time>2015-11-11T14:57:10Z</time>
      </trkpt>
      <trkpt lat="43.43525" lon="6.03773">
        <ele>282.39999389648</ele>
        <time>2015-11-11T14:57:13Z</time>
      </trkpt>
      <trkpt lat="43.43526" lon="6.03774">
        <ele>282.20001220703</ele>
        <time>2015-11-11T14:57:14Z</time>
      </trkpt>
      <trkpt lat="43.43529" lon="6.03774">
        <ele>282.20001220703</ele>
        <time>2015-11-11T14:57:16Z</time>
      </trkpt>
      <trkpt lat="43.43533" lon="6.03774">
        <ele>281.60000610352</ele>
        <time>2015-11-11T14:57:18Z</time>
      </trkpt>
      <trkpt lat="43.43535" lon="6.03774">
        <ele>281.39999389648</ele>
        <time>2015-11-11T14:57:19Z</time>
      </trkpt>
      <trkpt lat="43.43538" lon="6.03775">
        <ele>281.20001220703</ele>
        <time>2015-11-11T14:57:20Z</time>
      </trkpt>
      <trkpt lat="43.43545" lon="6.03778">
        <ele>280.39999389648</ele>
        <time>2015-11-11T14:57:22Z</time>
      </trkpt>
      <trkpt lat="43.43549" lon="6.0378">
        <ele>280.20001220703</ele>
        <time>2015-11-11T14:57:23Z</time>
      </trkpt>
      <trkpt lat="43.43552" lon="6.03782">
        <ele>279.79998779297</ele>
        <time>2015-11-11T14:57:24Z</time>
      </trkpt>
      <trkpt lat="43.43555" lon="6.03783">
        <ele>279.79998779297</ele>
        <time>2015-11-11T14:57:25Z</time>
      </trkpt>
      <trkpt lat="43.43557" lon="6.03784">
        <ele>279.60000610352</ele>
        <time>2015-11-11T14:57:26Z</time>
      </trkpt>
      <trkpt lat="43.43563" lon="6.03785">
        <ele>279.39999389648</ele>
        <time>2015-11-11T14:57:28Z</time>
      </trkpt>
      <trkpt lat="43.43567" lon="6.03788">
        <ele>279.20001220703</ele>
        <time>2015-11-11T14:57:30Z</time>
      </trkpt>
      <trkpt lat="43.4357" lon="6.03791">
        <ele>279</ele>
        <time>2015-11-11T14:57:32Z</time>
      </trkpt>
      <trkpt lat="43.43573" lon="6.03792">
        <ele>278.60000610352</ele>
        <time>2015-11-11T14:57:34Z</time>
      </trkpt>
      <trkpt lat="43.43575" lon="6.03793">
        <ele>278.60000610352</ele>
        <time>2015-11-11T14:57:36Z</time>
      </trkpt>
      <trkpt lat="43.43575" lon="6.03793">
        <ele>278.79998779297</ele>
        <time>2015-11-11T14:57:37Z</time>
      </trkpt>
      <trkpt lat="43.43575" lon="6.03793">
        <ele>278.79998779297</ele>
        <time>2015-11-11T14:57:42Z</time>
      </trkpt>
      <trkpt lat="43.43575" lon="6.03793">
        <ele>278.79998779297</ele>
        <time>2015-11-11T14:58:10Z</time>
      </trkpt>
      <trkpt lat="43.43575" lon="6.03793">
        <ele>278.79998779297</ele>
        <time>2015-11-11T14:58:12Z</time>
      </trkpt>
      <trkpt lat="43.43575" lon="6.03795">
        <ele>278.60000610352</ele>
        <time>2015-11-11T14:58:13Z</time>
      </trkpt>
      <trkpt lat="43.43576" lon="6.03797">
        <ele>278.60000610352</ele>
        <time>2015-11-11T14:58:14Z</time>
      </trkpt>
      <trkpt lat="43.43578" lon="6.03801">
        <ele>278.39999389648</ele>
        <time>2015-11-11T14:58:16Z</time>
      </trkpt>
      <trkpt lat="43.43581" lon="6.03805">
        <ele>278.39999389648</ele>
        <time>2015-11-11T14:58:18Z</time>
      </trkpt>
      <trkpt lat="43.43583" lon="6.03809">
        <ele>278.20001220703</ele>
        <time>2015-11-11T14:58:20Z</time>
      </trkpt>
      <trkpt lat="43.43584" lon="6.03815">
        <ele>277.79998779297</ele>
        <time>2015-11-11T14:58:22Z</time>
      </trkpt>
      <trkpt lat="43.43587" lon="6.03822">
        <ele>277.20001220703</ele>
        <time>2015-11-11T14:58:24Z</time>
      </trkpt>
      <trkpt lat="43.43588" lon="6.0383">
        <ele>276.79998779297</ele>
        <time>2015-11-11T14:58:26Z</time>
      </trkpt>
      <trkpt lat="43.43589" lon="6.03834">
        <ele>276.60000610352</ele>
        <time>2015-11-11T14:58:27Z</time>
      </trkpt>
      <trkpt lat="43.4359" lon="6.03839">
        <ele>276.79998779297</ele>
        <time>2015-11-11T14:58:28Z</time>
      </trkpt>
      <trkpt lat="43.43591" lon="6.03848">
        <ele>276.79998779297</ele>
        <time>2015-11-11T14:58:30Z</time>
      </trkpt>
      <trkpt lat="43.4359" lon="6.03858">
        <ele>276.20001220703</ele>
        <time>2015-11-11T14:58:32Z</time>
      </trkpt>
      <trkpt lat="43.4359" lon="6.03862">
        <ele>276</ele>
        <time>2015-11-11T14:58:33Z</time>
      </trkpt>
      <trkpt lat="43.43591" lon="6.03867">
        <ele>276</ele>
        <time>2015-11-11T14:58:34Z</time>
      </trkpt>
      <trkpt lat="43.43591" lon="6.03883">
        <ele>275.20001220703</ele>
        <time>2015-11-11T14:58:38Z</time>
      </trkpt>
      <trkpt lat="43.43591" lon="6.03889">
        <ele>274.79998779297</ele>
        <time>2015-11-11T14:58:40Z</time>
      </trkpt>
      <trkpt lat="43.43591" lon="6.03897">
        <ele>274.39999389648</ele>
        <time>2015-11-11T14:58:42Z</time>
      </trkpt>
      <trkpt lat="43.43592" lon="6.03901">
        <ele>274.20001220703</ele>
        <time>2015-11-11T14:58:43Z</time>
      </trkpt>
      <trkpt lat="43.43593" lon="6.03903">
        <ele>274.20001220703</ele>
        <time>2015-11-11T14:58:44Z</time>
      </trkpt>
      <trkpt lat="43.43595" lon="6.0391">
        <ele>274</ele>
        <time>2015-11-11T14:58:46Z</time>
      </trkpt>
      <trkpt lat="43.43597" lon="6.03919">
        <ele>273.39999389648</ele>
        <time>2015-11-11T14:58:48Z</time>
      </trkpt>
      <trkpt lat="43.43601" lon="6.0393">
        <ele>273</ele>
        <time>2015-11-11T14:58:50Z</time>
      </trkpt>
      <trkpt lat="43.43605" lon="6.03943">
        <ele>272.39999389648</ele>
        <time>2015-11-11T14:58:52Z</time>
      </trkpt>
      <trkpt lat="43.43605" lon="6.03949">
        <ele>272</ele>
        <time>2015-11-11T14:58:53Z</time>
      </trkpt>
      <trkpt lat="43.43606" lon="6.03955">
        <ele>272.20001220703</ele>
        <time>2015-11-11T14:58:54Z</time>
      </trkpt>
      <trkpt lat="43.43607" lon="6.03966">
        <ele>273.20001220703</ele>
        <time>2015-11-11T14:58:56Z</time>
      </trkpt>
      <trkpt lat="43.43607" lon="6.0397">
        <ele>273.79998779297</ele>
        <time>2015-11-11T14:58:57Z</time>
      </trkpt>
      <trkpt lat="43.43607" lon="6.03976">
        <ele>275</ele>
        <time>2015-11-11T14:58:59Z</time>
      </trkpt>
      <trkpt lat="43.43607" lon="6.03979">
        <ele>275.39999389648</ele>
        <time>2015-11-11T14:59:00Z</time>
      </trkpt>
      <trkpt lat="43.43606" lon="6.03984">
        <ele>276</ele>
        <time>2015-11-11T14:59:02Z</time>
      </trkpt>
      <trkpt lat="43.43605" lon="6.03987">
        <ele>276.20001220703</ele>
        <time>2015-11-11T14:59:03Z</time>
      </trkpt>
      <trkpt lat="43.43604" lon="6.03989">
        <ele>276.60000610352</ele>
        <time>2015-11-11T14:59:04Z</time>
      </trkpt>
      <trkpt lat="43.43604" lon="6.03994">
        <ele>276.79998779297</ele>
        <time>2015-11-11T14:59:06Z</time>
      </trkpt>
      <trkpt lat="43.43602" lon="6.04">
        <ele>277</ele>
        <time>2015-11-11T14:59:08Z</time>
      </trkpt>
      <trkpt lat="43.43601" lon="6.04007">
        <ele>276.60000610352</ele>
        <time>2015-11-11T14:59:10Z</time>
      </trkpt>
      <trkpt lat="43.43597" lon="6.04016">
        <ele>275.60000610352</ele>
        <time>2015-11-11T14:59:12Z</time>
      </trkpt>
      <trkpt lat="43.43595" lon="6.0402">
        <ele>275.39999389648</ele>
        <time>2015-11-11T14:59:13Z</time>
      </trkpt>
      <trkpt lat="43.43593" lon="6.04025">
        <ele>275</ele>
        <time>2015-11-11T14:59:14Z</time>
      </trkpt>
      <trkpt lat="43.43587" lon="6.04033">
        <ele>274.60000610352</ele>
        <time>2015-11-11T14:59:16Z</time>
      </trkpt>
      <trkpt lat="43.43585" lon="6.04038">
        <ele>274.39999389648</ele>
        <time>2015-11-11T14:59:17Z</time>
      </trkpt>
      <trkpt lat="43.43582" lon="6.04043">
        <ele>274</ele>
        <time>2015-11-11T14:59:18Z</time>
      </trkpt>
      <trkpt lat="43.43579" lon="6.04048">
        <ele>273.39999389648</ele>
        <time>2015-11-11T14:59:19Z</time>
      </trkpt>
      <trkpt lat="43.43576" lon="6.04054">
        <ele>272.79998779297</ele>
        <time>2015-11-11T14:59:20Z</time>
      </trkpt>
      <trkpt lat="43.43572" lon="6.04059">
        <ele>272.20001220703</ele>
        <time>2015-11-11T14:59:21Z</time>
      </trkpt>
      <trkpt lat="43.43568" lon="6.04065">
        <ele>272</ele>
        <time>2015-11-11T14:59:22Z</time>
      </trkpt>
      <trkpt lat="43.43566" lon="6.04071">
        <ele>271.79998779297</ele>
        <time>2015-11-11T14:59:23Z</time>
      </trkpt>
      <trkpt lat="43.43565" lon="6.04078">
        <ele>271.79998779297</ele>
        <time>2015-11-11T14:59:24Z</time>
      </trkpt>
      <trkpt lat="43.43563" lon="6.04085">
        <ele>271.60000610352</ele>
        <time>2015-11-11T14:59:25Z</time>
      </trkpt>
      <trkpt lat="43.43561" lon="6.04091">
        <ele>271.60000610352</ele>
        <time>2015-11-11T14:59:26Z</time>
      </trkpt>
      <trkpt lat="43.43558" lon="6.04103">
        <ele>271.60000610352</ele>
        <time>2015-11-11T14:59:28Z</time>
      </trkpt>
      <trkpt lat="43.43555" lon="6.04108">
        <ele>271.60000610352</ele>
        <time>2015-11-11T14:59:29Z</time>
      </trkpt>
      <trkpt lat="43.43554" lon="6.04113">
        <ele>271.79998779297</ele>
        <time>2015-11-11T14:59:30Z</time>
      </trkpt>
      <trkpt lat="43.43551" lon="6.04123">
        <ele>272.20001220703</ele>
        <time>2015-11-11T14:59:32Z</time>
      </trkpt>
      <trkpt lat="43.43549" lon="6.04128">
        <ele>272.39999389648</ele>
        <time>2015-11-11T14:59:33Z</time>
      </trkpt>
      <trkpt lat="43.43546" lon="6.04132">
        <ele>272.39999389648</ele>
        <time>2015-11-11T14:59:34Z</time>
      </trkpt>
      <trkpt lat="43.43538" lon="6.04151">
        <ele>272</ele>
        <time>2015-11-11T14:59:38Z</time>
      </trkpt>
      <trkpt lat="43.43536" lon="6.04163">
        <ele>271.60000610352</ele>
        <time>2015-11-11T14:59:40Z</time>
      </trkpt>
      <trkpt lat="43.43537" lon="6.04175">
        <ele>271.39999389648</ele>
        <time>2015-11-11T14:59:42Z</time>
      </trkpt>
      <trkpt lat="43.43539" lon="6.04187">
        <ele>270.79998779297</ele>
        <time>2015-11-11T14:59:44Z</time>
      </trkpt>
      <trkpt lat="43.43541" lon="6.04194">
        <ele>270.39999389648</ele>
        <time>2015-11-11T14:59:45Z</time>
      </trkpt>
      <trkpt lat="43.43542" lon="6.04202">
        <ele>269.79998779297</ele>
        <time>2015-11-11T14:59:46Z</time>
      </trkpt>
      <trkpt lat="43.43539" lon="6.04216">
        <ele>269</ele>
        <time>2015-11-11T14:59:48Z</time>
      </trkpt>
      <trkpt lat="43.43533" lon="6.04226">
        <ele>269</ele>
        <time>2015-11-11T14:59:50Z</time>
      </trkpt>
      <trkpt lat="43.4353" lon="6.04231">
        <ele>269</ele>
        <time>2015-11-11T14:59:51Z</time>
      </trkpt>
      <trkpt lat="43.43526" lon="6.04236">
        <ele>269</ele>
        <time>2015-11-11T14:59:52Z</time>
      </trkpt>
      <trkpt lat="43.43519" lon="6.0424">
        <ele>269.39999389648</ele>
        <time>2015-11-11T14:59:54Z</time>
      </trkpt>
      <trkpt lat="43.43513" lon="6.04245">
        <ele>269.79998779297</ele>
        <time>2015-11-11T14:59:56Z</time>
      </trkpt>
      <trkpt lat="43.43509" lon="6.04251">
        <ele>270.20001220703</ele>
        <time>2015-11-11T14:59:58Z</time>
      </trkpt>
      <trkpt lat="43.43507" lon="6.04254">
        <ele>270.20001220703</ele>
        <time>2015-11-11T14:59:59Z</time>
      </trkpt>
      <trkpt lat="43.43505" lon="6.04258">
        <ele>270.39999389648</ele>
        <time>2015-11-11T15:00:00Z</time>
      </trkpt>
      <trkpt lat="43.43504" lon="6.04262">
        <ele>270.39999389648</ele>
        <time>2015-11-11T15:00:01Z</time>
      </trkpt>
      <trkpt lat="43.43499" lon="6.04274">
        <ele>270.39999389648</ele>
        <time>2015-11-11T15:00:04Z</time>
      </trkpt>
      <trkpt lat="43.43498" lon="6.04278">
        <ele>270.60000610352</ele>
        <time>2015-11-11T15:00:05Z</time>
      </trkpt>
      <trkpt lat="43.43497" lon="6.04282">
        <ele>270.79998779297</ele>
        <time>2015-11-11T15:00:06Z</time>
      </trkpt>
      <trkpt lat="43.43494" lon="6.04299">
        <ele>270.60000610352</ele>
        <time>2015-11-11T15:00:10Z</time>
      </trkpt>
      <trkpt lat="43.43493" lon="6.04308">
        <ele>271.20001220703</ele>
        <time>2015-11-11T15:00:12Z</time>
      </trkpt>
      <trkpt lat="43.43492" lon="6.04317">
        <ele>271.20001220703</ele>
        <time>2015-11-11T15:00:14Z</time>
      </trkpt>
      <trkpt lat="43.43492" lon="6.04326">
        <ele>271</ele>
        <time>2015-11-11T15:00:16Z</time>
      </trkpt>
      <trkpt lat="43.43491" lon="6.04352">
        <ele>271.60000610352</ele>
        <time>2015-11-11T15:00:21Z</time>
      </trkpt>
      <trkpt lat="43.43489" lon="6.04368">
        <ele>272</ele>
        <time>2015-11-11T15:00:24Z</time>
      </trkpt>
      <trkpt lat="43.43488" lon="6.04379">
        <ele>272</ele>
        <time>2015-11-11T15:00:26Z</time>
      </trkpt>
      <trkpt lat="43.43487" lon="6.04384">
        <ele>271.79998779297</ele>
        <time>2015-11-11T15:00:27Z</time>
      </trkpt>
      <trkpt lat="43.43488" lon="6.044">
        <ele>271.39999389648</ele>
        <time>2015-11-11T15:00:30Z</time>
      </trkpt>
      <trkpt lat="43.4349" lon="6.04421">
        <ele>271</ele>
        <time>2015-11-11T15:00:34Z</time>
      </trkpt>
      <trkpt lat="43.43491" lon="6.04431">
        <ele>271</ele>
        <time>2015-11-11T15:00:36Z</time>
      </trkpt>
      <trkpt lat="43.43491" lon="6.04436">
        <ele>271.20001220703</ele>
        <time>2015-11-11T15:00:37Z</time>
      </trkpt>
      <trkpt lat="43.43491" lon="6.04441">
        <ele>271.20001220703</ele>
        <time>2015-11-11T15:00:38Z</time>
      </trkpt>
      <trkpt lat="43.4349" lon="6.04451">
        <ele>271</ele>
        <time>2015-11-11T15:00:40Z</time>
      </trkpt>
      <trkpt lat="43.4349" lon="6.04462">
        <ele>270.79998779297</ele>
        <time>2015-11-11T15:00:42Z</time>
      </trkpt>
      <trkpt lat="43.4349" lon="6.04473">
        <ele>270.79998779297</ele>
        <time>2015-11-11T15:00:44Z</time>
      </trkpt>
      <trkpt lat="43.4349" lon="6.04484">
        <ele>270.60000610352</ele>
        <time>2015-11-11T15:00:46Z</time>
      </trkpt>
      <trkpt lat="43.43489" lon="6.04493">
        <ele>270.79998779297</ele>
        <time>2015-11-11T15:00:48Z</time>
      </trkpt>
      <trkpt lat="43.43487" lon="6.04502">
        <ele>271</ele>
        <time>2015-11-11T15:00:50Z</time>
      </trkpt>
      <trkpt lat="43.43485" lon="6.04511">
        <ele>270.79998779297</ele>
        <time>2015-11-11T15:00:52Z</time>
      </trkpt>
      <trkpt lat="43.43478" lon="6.04529">
        <ele>270.60000610352</ele>
        <time>2015-11-11T15:00:56Z</time>
      </trkpt>
      <trkpt lat="43.43475" lon="6.04538">
        <ele>270.79998779297</ele>
        <time>2015-11-11T15:00:58Z</time>
      </trkpt>
      <trkpt lat="43.43472" lon="6.04546">
        <ele>270.79998779297</ele>
        <time>2015-11-11T15:01:00Z</time>
      </trkpt>
      <trkpt lat="43.43468" lon="6.04553">
        <ele>270.79998779297</ele>
        <time>2015-11-11T15:01:02Z</time>
      </trkpt>
      <trkpt lat="43.43466" lon="6.04561">
        <ele>270.79998779297</ele>
        <time>2015-11-11T15:01:04Z</time>
      </trkpt>
      <trkpt lat="43.43465" lon="6.0457">
        <ele>270.60000610352</ele>
        <time>2015-11-11T15:01:06Z</time>
      </trkpt>
      <trkpt lat="43.43463" lon="6.04579">
        <ele>270.79998779297</ele>
        <time>2015-11-11T15:01:08Z</time>
      </trkpt>
      <trkpt lat="43.43461" lon="6.04589">
        <ele>270.60000610352</ele>
        <time>2015-11-11T15:01:10Z</time>
      </trkpt>
      <trkpt lat="43.4346" lon="6.04599">
        <ele>270.60000610352</ele>
        <time>2015-11-11T15:01:12Z</time>
      </trkpt>
      <trkpt lat="43.43458" lon="6.04616">
        <ele>270</ele>
        <time>2015-11-11T15:01:15Z</time>
      </trkpt>
      <trkpt lat="43.43457" lon="6.04621">
        <ele>270.20001220703</ele>
        <time>2015-11-11T15:01:16Z</time>
      </trkpt>
      <trkpt lat="43.43451" lon="6.04653">
        <ele>269.39999389648</ele>
        <time>2015-11-11T15:01:22Z</time>
      </trkpt>
      <trkpt lat="43.43448" lon="6.04663">
        <ele>269.39999389648</ele>
        <time>2015-11-11T15:01:24Z</time>
      </trkpt>
      <trkpt lat="43.43444" lon="6.04684">
        <ele>269.39999389648</ele>
        <time>2015-11-11T15:01:28Z</time>
      </trkpt>
      <trkpt lat="43.43443" lon="6.04694">
        <ele>269.20001220703</ele>
        <time>2015-11-11T15:01:30Z</time>
      </trkpt>
      <trkpt lat="43.43442" lon="6.04699">
        <ele>269.20001220703</ele>
        <time>2015-11-11T15:01:31Z</time>
      </trkpt>
      <trkpt lat="43.43442" lon="6.04704">
        <ele>269.20001220703</ele>
        <time>2015-11-11T15:01:32Z</time>
      </trkpt>
      <trkpt lat="43.43441" lon="6.04714">
        <ele>269.39999389648</ele>
        <time>2015-11-11T15:01:34Z</time>
      </trkpt>
      <trkpt lat="43.43439" lon="6.04739">
        <ele>269</ele>
        <time>2015-11-11T15:01:39Z</time>
      </trkpt>
      <trkpt lat="43.43439" lon="6.04744">
        <ele>268.60000610352</ele>
        <time>2015-11-11T15:01:40Z</time>
      </trkpt>
      <trkpt lat="43.43438" lon="6.04755">
        <ele>268.60000610352</ele>
        <time>2015-11-11T15:01:42Z</time>
      </trkpt>
      <trkpt lat="43.43436" lon="6.04772">
        <ele>268</ele>
        <time>2015-11-11T15:01:45Z</time>
      </trkpt>
      <trkpt lat="43.43436" lon="6.04777">
        <ele>267.79998779297</ele>
        <time>2015-11-11T15:01:46Z</time>
      </trkpt>
      <trkpt lat="43.43435" lon="6.04789">
        <ele>267.60000610352</ele>
        <time>2015-11-11T15:01:48Z</time>
      </trkpt>
      <trkpt lat="43.43435" lon="6.048">
        <ele>267.60000610352</ele>
        <time>2015-11-11T15:01:50Z</time>
      </trkpt>
      <trkpt lat="43.43434" lon="6.04811">
        <ele>267.39999389648</ele>
        <time>2015-11-11T15:01:52Z</time>
      </trkpt>
      <trkpt lat="43.43433" lon="6.04821">
        <ele>267.39999389648</ele>
        <time>2015-11-11T15:01:54Z</time>
      </trkpt>
      <trkpt lat="43.43433" lon="6.04832">
        <ele>267.39999389648</ele>
        <time>2015-11-11T15:01:56Z</time>
      </trkpt>
      <trkpt lat="43.43433" lon="6.04843">
        <ele>267.39999389648</ele>
        <time>2015-11-11T15:01:58Z</time>
      </trkpt>
      <trkpt lat="43.43433" lon="6.04853">
        <ele>267.20001220703</ele>
        <time>2015-11-11T15:02:00Z</time>
      </trkpt>
      <trkpt lat="43.43432" lon="6.04863">
        <ele>267.20001220703</ele>
        <time>2015-11-11T15:02:02Z</time>
      </trkpt>
      <trkpt lat="43.43432" lon="6.04868">
        <ele>267.20001220703</ele>
        <time>2015-11-11T15:02:03Z</time>
      </trkpt>
      <trkpt lat="43.43432" lon="6.04873">
        <ele>267</ele>
        <time>2015-11-11T15:02:04Z</time>
      </trkpt>
      <trkpt lat="43.43433" lon="6.04882">
        <ele>267</ele>
        <time>2015-11-11T15:02:06Z</time>
      </trkpt>
      <trkpt lat="43.43432" lon="6.04892">
        <ele>266.79998779297</ele>
        <time>2015-11-11T15:02:08Z</time>
      </trkpt>
      <trkpt lat="43.43431" lon="6.04903">
        <ele>266.20001220703</ele>
        <time>2015-11-11T15:02:10Z</time>
      </trkpt>
      <trkpt lat="43.43431" lon="6.04914">
        <ele>266.20001220703</ele>
        <time>2015-11-11T15:02:12Z</time>
      </trkpt>
      <trkpt lat="43.4343" lon="6.04926">
        <ele>266</ele>
        <time>2015-11-11T15:02:14Z</time>
      </trkpt>
      <trkpt lat="43.43428" lon="6.04937">
        <ele>265.79998779297</ele>
        <time>2015-11-11T15:02:16Z</time>
      </trkpt>
      <trkpt lat="43.43427" lon="6.04943">
        <ele>266</ele>
        <time>2015-11-11T15:02:17Z</time>
      </trkpt>
      <trkpt lat="43.43427" lon="6.04949">
        <ele>266</ele>
        <time>2015-11-11T15:02:18Z</time>
      </trkpt>
      <trkpt lat="43.43427" lon="6.0496">
        <ele>265.79998779297</ele>
        <time>2015-11-11T15:02:20Z</time>
      </trkpt>
      <trkpt lat="43.43425" lon="6.04971">
        <ele>266</ele>
        <time>2015-11-11T15:02:22Z</time>
      </trkpt>
      <trkpt lat="43.43424" lon="6.04981">
        <ele>266.20001220703</ele>
        <time>2015-11-11T15:02:24Z</time>
      </trkpt>
      <trkpt lat="43.43422" lon="6.0499">
        <ele>266.39999389648</ele>
        <time>2015-11-11T15:02:26Z</time>
      </trkpt>
      <trkpt lat="43.4342" lon="6.04999">
        <ele>266.39999389648</ele>
        <time>2015-11-11T15:02:28Z</time>
      </trkpt>
      <trkpt lat="43.43418" lon="6.05008">
        <ele>266.79998779297</ele>
        <time>2015-11-11T15:02:30Z</time>
      </trkpt>
      <trkpt lat="43.43415" lon="6.05025">
        <ele>267.39999389648</ele>
        <time>2015-11-11T15:02:34Z</time>
      </trkpt>
      <trkpt lat="43.43414" lon="6.05033">
        <ele>268</ele>
        <time>2015-11-11T15:02:36Z</time>
      </trkpt>
      <trkpt lat="43.43412" lon="6.05041">
        <ele>268.20001220703</ele>
        <time>2015-11-11T15:02:38Z</time>
      </trkpt>
      <trkpt lat="43.43411" lon="6.05048">
        <ele>268.60000610352</ele>
        <time>2015-11-11T15:02:40Z</time>
      </trkpt>
      <trkpt lat="43.4341" lon="6.05059">
        <ele>269</ele>
        <time>2015-11-11T15:02:43Z</time>
      </trkpt>
      <trkpt lat="43.43409" lon="6.05063">
        <ele>269.39999389648</ele>
        <time>2015-11-11T15:02:44Z</time>
      </trkpt>
      <trkpt lat="43.43407" lon="6.05069">
        <ele>269.79998779297</ele>
        <time>2015-11-11T15:02:46Z</time>
      </trkpt>
      <trkpt lat="43.43406" lon="6.05072">
        <ele>270</ele>
        <time>2015-11-11T15:02:47Z</time>
      </trkpt>
      <trkpt lat="43.43406" lon="6.05075">
        <ele>270.20001220703</ele>
        <time>2015-11-11T15:02:48Z</time>
      </trkpt>
      <trkpt lat="43.43404" lon="6.05081">
        <ele>270.39999389648</ele>
        <time>2015-11-11T15:02:50Z</time>
      </trkpt>
      <trkpt lat="43.43402" lon="6.05085">
        <ele>270.79998779297</ele>
        <time>2015-11-11T15:02:52Z</time>
      </trkpt>
      <trkpt lat="43.43401" lon="6.05088">
        <ele>271</ele>
        <time>2015-11-11T15:02:54Z</time>
      </trkpt>
      <trkpt lat="43.434" lon="6.05093">
        <ele>271</ele>
        <time>2015-11-11T15:02:56Z</time>
      </trkpt>
      <trkpt lat="43.43398" lon="6.05095">
        <ele>271.20001220703</ele>
        <time>2015-11-11T15:02:58Z</time>
      </trkpt>
      <trkpt lat="43.43395" lon="6.05095">
        <ele>271.39999389648</ele>
        <time>2015-11-11T15:03:00Z</time>
      </trkpt>
      <trkpt lat="43.43393" lon="6.05093">
        <ele>271.60000610352</ele>
        <time>2015-11-11T15:03:02Z</time>
      </trkpt>
      <trkpt lat="43.43393" lon="6.05091">
        <ele>271.79998779297</ele>
        <time>2015-11-11T15:03:04Z</time>
      </trkpt>
      <trkpt lat="43.43393" lon="6.05091">
        <ele>271.79998779297</ele>
        <time>2015-11-11T15:03:05Z</time>
      </trkpt>
      <trkpt lat="43.43393" lon="6.05091">
        <ele>271.79998779297</ele>
        <time>2015-11-11T15:03:06Z</time>
      </trkpt>
      <trkpt lat="43.43393" lon="6.0509">
        <ele>271.79998779297</ele>
        <time>2015-11-11T15:03:08Z</time>
      </trkpt>
      <trkpt lat="43.43393" lon="6.0509">
        <ele>271.79998779297</ele>
        <time>2015-11-11T15:03:14Z</time>
      </trkpt>
      <trkpt lat="43.43393" lon="6.0509">
        <ele>271.60000610352</ele>
        <time>2015-11-11T15:03:44Z</time>
      </trkpt>
      <trkpt lat="43.43393" lon="6.0509">
        <ele>271.60000610352</ele>
        <time>2015-11-11T15:03:46Z</time>
      </trkpt>
      <trkpt lat="43.43393" lon="6.0509">
        <ele>271.39999389648</ele>
        <time>2015-11-11T15:03:52Z</time>
      </trkpt>
      <trkpt lat="43.43393" lon="6.0509">
        <ele>272</ele>
        <time>2015-11-11T15:04:04Z</time>
      </trkpt>
      <trkpt lat="43.43393" lon="6.0509">
        <ele>271.79998779297</ele>
        <time>2015-11-11T15:04:06Z</time>
      </trkpt>
      <trkpt lat="43.43393" lon="6.05092">
        <ele>271.79998779297</ele>
        <time>2015-11-11T15:04:08Z</time>
      </trkpt>
      <trkpt lat="43.43393" lon="6.05092">
        <ele>271.60000610352</ele>
        <time>2015-11-11T15:04:14Z</time>
      </trkpt>
      <trkpt lat="43.43393" lon="6.05092">
        <ele>271.60000610352</ele>
        <time>2015-11-11T15:04:40Z</time>
      </trkpt>
      <trkpt lat="43.43393" lon="6.05092">
        <ele>271.60000610352</ele>
        <time>2015-11-11T15:04:42Z</time>
      </trkpt>
      <trkpt lat="43.43393" lon="6.05092">
        <ele>271.60000610352</ele>
        <time>2015-11-11T15:04:44Z</time>
      </trkpt>
      <trkpt lat="43.43393" lon="6.05092">
        <ele>271.39999389648</ele>
        <time>2015-11-11T15:04:46Z</time>
      </trkpt>
      <trkpt lat="43.43393" lon="6.05093">
        <ele>271.39999389648</ele>
        <time>2015-11-11T15:04:48Z</time>
      </trkpt>
      <trkpt lat="43.43393" lon="6.05093">
        <ele>271.39999389648</ele>
        <time>2015-11-11T15:04:53Z</time>
      </trkpt>
      <trkpt lat="43.43393" lon="6.05093">
        <ele>271.60000610352</ele>
        <time>2015-11-11T15:05:25Z</time>
      </trkpt>
      <trkpt lat="43.43393" lon="6.05094">
        <ele>271.60000610352</ele>
        <time>2015-11-11T15:05:26Z</time>
      </trkpt>
      <trkpt lat="43.43393" lon="6.05094">
        <ele>271.20001220703</ele>
        <time>2015-11-11T15:05:32Z</time>
      </trkpt>
      <trkpt lat="43.43393" lon="6.05094">
        <ele>271.39999389648</ele>
        <time>2015-11-11T15:06:05Z</time>
      </trkpt>
      <trkpt lat="43.43393" lon="6.05094">
        <ele>271.60000610352</ele>
        <time>2015-11-11T15:06:07Z</time>
      </trkpt>
      <trkpt lat="43.43393" lon="6.05094">
        <ele>271.60000610352</ele>
        <time>2015-11-11T15:06:13Z</time>
      </trkpt>
      <trkpt lat="43.43393" lon="6.05094">
        <ele>271.39999389648</ele>
        <time>2015-11-11T15:06:45Z</time>
      </trkpt>
      <trkpt lat="43.43393" lon="6.05094">
        <ele>271.39999389648</ele>
        <time>2015-11-11T15:06:47Z</time>
      </trkpt>
      <trkpt lat="43.43393" lon="6.05094">
        <ele>271.60000610352</ele>
        <time>2015-11-11T15:06:53Z</time>
      </trkpt>
      <trkpt lat="43.43393" lon="6.05094">
        <ele>271.60000610352</ele>
        <time>2015-11-11T15:07:25Z</time>
      </trkpt>
      <trkpt lat="43.43393" lon="6.05094">
        <ele>271.39999389648</ele>
        <time>2015-11-11T15:07:27Z</time>
      </trkpt>
      <trkpt lat="43.43393" lon="6.05094">
        <ele>271.60000610352</ele>
        <time>2015-11-11T15:07:31Z</time>
      </trkpt>
      <trkpt lat="43.43393" lon="6.05094">
        <ele>271.60000610352</ele>
        <time>2015-11-11T15:07:47Z</time>
      </trkpt>
      <trkpt lat="43.43394" lon="6.05096">
        <ele>271.39999389648</ele>
        <time>2015-11-11T15:07:49Z</time>
      </trkpt>
      <trkpt lat="43.43395" lon="6.05101">
        <ele>271.20001220703</ele>
        <time>2015-11-11T15:07:51Z</time>
      </trkpt>
      <trkpt lat="43.43394" lon="6.05107">
        <ele>271.20001220703</ele>
        <time>2015-11-11T15:07:53Z</time>
      </trkpt>
      <trkpt lat="43.43393" lon="6.05114">
        <ele>271</ele>
        <time>2015-11-11T15:07:55Z</time>
      </trkpt>
      <trkpt lat="43.4339" lon="6.05121">
        <ele>271</ele>
        <time>2015-11-11T15:07:57Z</time>
      </trkpt>
      <trkpt lat="43.43388" lon="6.05128">
        <ele>270.79998779297</ele>
        <time>2015-11-11T15:07:59Z</time>
      </trkpt>
      <trkpt lat="43.43386" lon="6.05135">
        <ele>270.60000610352</ele>
        <time>2015-11-11T15:08:01Z</time>
      </trkpt>
      <trkpt lat="43.43384" lon="6.05144">
        <ele>270.39999389648</ele>
        <time>2015-11-11T15:08:03Z</time>
      </trkpt>
      <trkpt lat="43.43383" lon="6.05148">
        <ele>270.20001220703</ele>
        <time>2015-11-11T15:08:04Z</time>
      </trkpt>
      <trkpt lat="43.43381" lon="6.05153">
        <ele>269.79998779297</ele>
        <time>2015-11-11T15:08:05Z</time>
      </trkpt>
      <trkpt lat="43.43379" lon="6.05158">
        <ele>269</ele>
        <time>2015-11-11T15:08:06Z</time>
      </trkpt>
      <trkpt lat="43.43378" lon="6.05163">
        <ele>269</ele>
        <time>2015-11-11T15:08:07Z</time>
      </trkpt>
      <trkpt lat="43.43375" lon="6.05172">
        <ele>268.79998779297</ele>
        <time>2015-11-11T15:08:09Z</time>
      </trkpt>
      <trkpt lat="43.43372" lon="6.05181">
        <ele>268.20001220703</ele>
        <time>2015-11-11T15:08:11Z</time>
      </trkpt>
      <trkpt lat="43.43368" lon="6.05191">
        <ele>268</ele>
        <time>2015-11-11T15:08:13Z</time>
      </trkpt>
      <trkpt lat="43.43364" lon="6.05202">
        <ele>267.60000610352</ele>
        <time>2015-11-11T15:08:15Z</time>
      </trkpt>
      <trkpt lat="43.43356" lon="6.05227">
        <ele>266.39999389648</ele>
        <time>2015-11-11T15:08:19Z</time>
      </trkpt>
      <trkpt lat="43.43352" lon="6.05241">
        <ele>266.39999389648</ele>
        <time>2015-11-11T15:08:21Z</time>
      </trkpt>
      <trkpt lat="43.43346" lon="6.05255">
        <ele>266</ele>
        <time>2015-11-11T15:08:23Z</time>
      </trkpt>
      <trkpt lat="43.43343" lon="6.05262">
        <ele>266</ele>
        <time>2015-11-11T15:08:24Z</time>
      </trkpt>
      <trkpt lat="43.4334" lon="6.05269">
        <ele>266</ele>
        <time>2015-11-11T15:08:25Z</time>
      </trkpt>
      <trkpt lat="43.43335" lon="6.05284">
        <ele>266.20001220703</ele>
        <time>2015-11-11T15:08:27Z</time>
      </trkpt>
      <trkpt lat="43.4333" lon="6.05298">
        <ele>266.60000610352</ele>
        <time>2015-11-11T15:08:29Z</time>
      </trkpt>
      <trkpt lat="43.43324" lon="6.05311">
        <ele>267</ele>
        <time>2015-11-11T15:08:31Z</time>
      </trkpt>
      <trkpt lat="43.43319" lon="6.05324">
        <ele>267.39999389648</ele>
        <time>2015-11-11T15:08:33Z</time>
      </trkpt>
      <trkpt lat="43.43313" lon="6.05338">
        <ele>267.39999389648</ele>
        <time>2015-11-11T15:08:35Z</time>
      </trkpt>
      <trkpt lat="43.4331" lon="6.05345">
        <ele>267.39999389648</ele>
        <time>2015-11-11T15:08:36Z</time>
      </trkpt>
      <trkpt lat="43.43307" lon="6.05352">
        <ele>267.60000610352</ele>
        <time>2015-11-11T15:08:37Z</time>
      </trkpt>
      <trkpt lat="43.43299" lon="6.05365">
        <ele>267.20001220703</ele>
        <time>2015-11-11T15:08:39Z</time>
      </trkpt>
      <trkpt lat="43.43295" lon="6.05377">
        <ele>267.20001220703</ele>
        <time>2015-11-11T15:08:41Z</time>
      </trkpt>
      <trkpt lat="43.43291" lon="6.05388">
        <ele>267.79998779297</ele>
        <time>2015-11-11T15:08:43Z</time>
      </trkpt>
      <trkpt lat="43.43289" lon="6.05393">
        <ele>268</ele>
        <time>2015-11-11T15:08:44Z</time>
      </trkpt>
      <trkpt lat="43.43287" lon="6.05398">
        <ele>267.79998779297</ele>
        <time>2015-11-11T15:08:45Z</time>
      </trkpt>
      <trkpt lat="43.43281" lon="6.05407">
        <ele>267.60000610352</ele>
        <time>2015-11-11T15:08:47Z</time>
      </trkpt>
      <trkpt lat="43.43278" lon="6.05412">
        <ele>267.39999389648</ele>
        <time>2015-11-11T15:08:48Z</time>
      </trkpt>
      <trkpt lat="43.43276" lon="6.05418">
        <ele>267.39999389648</ele>
        <time>2015-11-11T15:08:49Z</time>
      </trkpt>
      <trkpt lat="43.43273" lon="6.05429">
        <ele>267.79998779297</ele>
        <time>2015-11-11T15:08:51Z</time>
      </trkpt>
      <trkpt lat="43.43269" lon="6.05439">
        <ele>268.20001220703</ele>
        <time>2015-11-11T15:08:53Z</time>
      </trkpt>
      <trkpt lat="43.43266" lon="6.05448">
        <ele>268.39999389648</ele>
        <time>2015-11-11T15:08:55Z</time>
      </trkpt>
      <trkpt lat="43.43263" lon="6.05456">
        <ele>269</ele>
        <time>2015-11-11T15:08:57Z</time>
      </trkpt>
      <trkpt lat="43.4326" lon="6.05463">
        <ele>269.79998779297</ele>
        <time>2015-11-11T15:08:59Z</time>
      </trkpt>
      <trkpt lat="43.43258" lon="6.05467">
        <ele>270</ele>
        <time>2015-11-11T15:09:00Z</time>
      </trkpt>
      <trkpt lat="43.43258" lon="6.0547">
        <ele>270</ele>
        <time>2015-11-11T15:09:01Z</time>
      </trkpt>
      <trkpt lat="43.43254" lon="6.05483">
        <ele>271.20001220703</ele>
        <time>2015-11-11T15:09:05Z</time>
      </trkpt>
      <trkpt lat="43.43251" lon="6.05494">
        <ele>272</ele>
        <time>2015-11-11T15:09:09Z</time>
      </trkpt>
      <trkpt lat="43.43249" lon="6.05499">
        <ele>272.60000610352</ele>
        <time>2015-11-11T15:09:11Z</time>
      </trkpt>
      <trkpt lat="43.43247" lon="6.05504">
        <ele>272.79998779297</ele>
        <time>2015-11-11T15:09:13Z</time>
      </trkpt>
      <trkpt lat="43.43246" lon="6.05508">
        <ele>272.79998779297</ele>
        <time>2015-11-11T15:09:15Z</time>
      </trkpt>
      <trkpt lat="43.43245" lon="6.05512">
        <ele>273.20001220703</ele>
        <time>2015-11-11T15:09:17Z</time>
      </trkpt>
      <trkpt lat="43.43245" lon="6.05514">
        <ele>273.20001220703</ele>
        <time>2015-11-11T15:09:18Z</time>
      </trkpt>
      <trkpt lat="43.43245" lon="6.05516">
        <ele>273.60000610352</ele>
        <time>2015-11-11T15:09:19Z</time>
      </trkpt>
      <trkpt lat="43.43244" lon="6.05521">
        <ele>273.79998779297</ele>
        <time>2015-11-11T15:09:21Z</time>
      </trkpt>
      <trkpt lat="43.43242" lon="6.05526">
        <ele>274</ele>
        <time>2015-11-11T15:09:23Z</time>
      </trkpt>
      <trkpt lat="43.43241" lon="6.05532">
        <ele>274.20001220703</ele>
        <time>2015-11-11T15:09:25Z</time>
      </trkpt>
      <trkpt lat="43.4324" lon="6.05537">
        <ele>274.39999389648</ele>
        <time>2015-11-11T15:09:27Z</time>
      </trkpt>
      <trkpt lat="43.43238" lon="6.05543">
        <ele>274.39999389648</ele>
        <time>2015-11-11T15:09:29Z</time>
      </trkpt>
      <trkpt lat="43.43237" lon="6.05548">
        <ele>274.60000610352</ele>
        <time>2015-11-11T15:09:31Z</time>
      </trkpt>
      <trkpt lat="43.43235" lon="6.05553">
        <ele>274.60000610352</ele>
        <time>2015-11-11T15:09:33Z</time>
      </trkpt>
      <trkpt lat="43.43233" lon="6.05558">
        <ele>274.60000610352</ele>
        <time>2015-11-11T15:09:35Z</time>
      </trkpt>
      <trkpt lat="43.43232" lon="6.05563">
        <ele>274.60000610352</ele>
        <time>2015-11-11T15:09:37Z</time>
      </trkpt>
      <trkpt lat="43.4323" lon="6.0557">
        <ele>274.60000610352</ele>
        <time>2015-11-11T15:09:39Z</time>
      </trkpt>
      <trkpt lat="43.43231" lon="6.05573">
        <ele>274.60000610352</ele>
        <time>2015-11-11T15:09:40Z</time>
      </trkpt>
      <trkpt lat="43.43231" lon="6.05577">
        <ele>274.60000610352</ele>
        <time>2015-11-11T15:09:41Z</time>
      </trkpt>
      <trkpt lat="43.43231" lon="6.0558">
        <ele>274.60000610352</ele>
        <time>2015-11-11T15:09:42Z</time>
      </trkpt>
      <trkpt lat="43.4323" lon="6.0559">
        <ele>274.79998779297</ele>
        <time>2015-11-11T15:09:45Z</time>
      </trkpt>
      <trkpt lat="43.43229" lon="6.05597">
        <ele>274.79998779297</ele>
        <time>2015-11-11T15:09:47Z</time>
      </trkpt>
      <trkpt lat="43.43228" lon="6.05604">
        <ele>274.79998779297</ele>
        <time>2015-11-11T15:09:49Z</time>
      </trkpt>
      <trkpt lat="43.43225" lon="6.05618">
        <ele>275</ele>
        <time>2015-11-11T15:09:53Z</time>
      </trkpt>
      <trkpt lat="43.43224" lon="6.05625">
        <ele>275</ele>
        <time>2015-11-11T15:09:55Z</time>
      </trkpt>
      <trkpt lat="43.43224" lon="6.05633">
        <ele>275.20001220703</ele>
        <time>2015-11-11T15:09:57Z</time>
      </trkpt>
      <trkpt lat="43.43223" lon="6.0564">
        <ele>275.60000610352</ele>
        <time>2015-11-11T15:09:59Z</time>
      </trkpt>
      <trkpt lat="43.43222" lon="6.05648">
        <ele>275.39999389648</ele>
        <time>2015-11-11T15:10:01Z</time>
      </trkpt>
      <trkpt lat="43.43222" lon="6.05657">
        <ele>275.39999389648</ele>
        <time>2015-11-11T15:10:03Z</time>
      </trkpt>
      <trkpt lat="43.43222" lon="6.05666">
        <ele>275.60000610352</ele>
        <time>2015-11-11T15:10:05Z</time>
      </trkpt>
      <trkpt lat="43.43221" lon="6.05674">
        <ele>275.79998779297</ele>
        <time>2015-11-11T15:10:07Z</time>
      </trkpt>
      <trkpt lat="43.4322" lon="6.05682">
        <ele>275.79998779297</ele>
        <time>2015-11-11T15:10:09Z</time>
      </trkpt>
      <trkpt lat="43.43219" lon="6.05691">
        <ele>275.79998779297</ele>
        <time>2015-11-11T15:10:11Z</time>
      </trkpt>
      <trkpt lat="43.43217" lon="6.05699">
        <ele>275.60000610352</ele>
        <time>2015-11-11T15:10:13Z</time>
      </trkpt>
      <trkpt lat="43.43215" lon="6.05716">
        <ele>276.20001220703</ele>
        <time>2015-11-11T15:10:17Z</time>
      </trkpt>
      <trkpt lat="43.43215" lon="6.05725">
        <ele>276.20001220703</ele>
        <time>2015-11-11T15:10:19Z</time>
      </trkpt>
      <trkpt lat="43.43214" lon="6.05734">
        <ele>276.20001220703</ele>
        <time>2015-11-11T15:10:21Z</time>
      </trkpt>
      <trkpt lat="43.43214" lon="6.05743">
        <ele>276.20001220703</ele>
        <time>2015-11-11T15:10:23Z</time>
      </trkpt>
      <trkpt lat="43.43213" lon="6.05764">
        <ele>275.79998779297</ele>
        <time>2015-11-11T15:10:27Z</time>
      </trkpt>
      <trkpt lat="43.43211" lon="6.05775">
        <ele>275.39999389648</ele>
        <time>2015-11-11T15:10:29Z</time>
      </trkpt>
      <trkpt lat="43.43208" lon="6.05799">
        <ele>275</ele>
        <time>2015-11-11T15:10:33Z</time>
      </trkpt>
      <trkpt lat="43.43206" lon="6.05812">
        <ele>274.79998779297</ele>
        <time>2015-11-11T15:10:35Z</time>
      </trkpt>
      <trkpt lat="43.43202" lon="6.05839">
        <ele>273.79998779297</ele>
        <time>2015-11-11T15:10:39Z</time>
      </trkpt>
      <trkpt lat="43.43199" lon="6.05853">
        <ele>273.60000610352</ele>
        <time>2015-11-11T15:10:41Z</time>
      </trkpt>
      <trkpt lat="43.43196" lon="6.05867">
        <ele>273.60000610352</ele>
        <time>2015-11-11T15:10:43Z</time>
      </trkpt>
      <trkpt lat="43.43194" lon="6.05881">
        <ele>273.60000610352</ele>
        <time>2015-11-11T15:10:45Z</time>
      </trkpt>
      <trkpt lat="43.43192" lon="6.05888">
        <ele>273.60000610352</ele>
        <time>2015-11-11T15:10:46Z</time>
      </trkpt>
      <trkpt lat="43.4319" lon="6.05894">
        <ele>273.60000610352</ele>
        <time>2015-11-11T15:10:47Z</time>
      </trkpt>
      <trkpt lat="43.43187" lon="6.05907">
        <ele>273.60000610352</ele>
        <time>2015-11-11T15:10:49Z</time>
      </trkpt>
      <trkpt lat="43.43183" lon="6.05919">
        <ele>273.60000610352</ele>
        <time>2015-11-11T15:10:51Z</time>
      </trkpt>
      <trkpt lat="43.43179" lon="6.05931">
        <ele>273.60000610352</ele>
        <time>2015-11-11T15:10:53Z</time>
      </trkpt>
      <trkpt lat="43.43176" lon="6.05944">
        <ele>273.60000610352</ele>
        <time>2015-11-11T15:10:55Z</time>
      </trkpt>
      <trkpt lat="43.43175" lon="6.05956">
        <ele>274</ele>
        <time>2015-11-11T15:10:57Z</time>
      </trkpt>
      <trkpt lat="43.43173" lon="6.05969">
        <ele>274.20001220703</ele>
        <time>2015-11-11T15:10:59Z</time>
      </trkpt>
      <trkpt lat="43.43172" lon="6.05975">
        <ele>274.39999389648</ele>
        <time>2015-11-11T15:11:00Z</time>
      </trkpt>
      <trkpt lat="43.43171" lon="6.05982">
        <ele>274</ele>
        <time>2015-11-11T15:11:01Z</time>
      </trkpt>
      <trkpt lat="43.43166" lon="6.05993">
        <ele>274.20001220703</ele>
        <time>2015-11-11T15:11:03Z</time>
      </trkpt>
      <trkpt lat="43.43161" lon="6.06004">
        <ele>274.20001220703</ele>
        <time>2015-11-11T15:11:05Z</time>
      </trkpt>
      <trkpt lat="43.43159" lon="6.06016">
        <ele>273.79998779297</ele>
        <time>2015-11-11T15:11:07Z</time>
      </trkpt>
      <trkpt lat="43.43157" lon="6.06029">
        <ele>274.39999389648</ele>
        <time>2015-11-11T15:11:09Z</time>
      </trkpt>
      <trkpt lat="43.43153" lon="6.06053">
        <ele>274.79998779297</ele>
        <time>2015-11-11T15:11:13Z</time>
      </trkpt>
      <trkpt lat="43.43151" lon="6.06065">
        <ele>275.39999389648</ele>
        <time>2015-11-11T15:11:15Z</time>
      </trkpt>
      <trkpt lat="43.43149" lon="6.0607">
        <ele>275.39999389648</ele>
        <time>2015-11-11T15:11:16Z</time>
      </trkpt>
      <trkpt lat="43.43147" lon="6.06075">
        <ele>275.39999389648</ele>
        <time>2015-11-11T15:11:17Z</time>
      </trkpt>
      <trkpt lat="43.43144" lon="6.06086">
        <ele>275.39999389648</ele>
        <time>2015-11-11T15:11:19Z</time>
      </trkpt>
      <trkpt lat="43.43142" lon="6.06091">
        <ele>275.39999389648</ele>
        <time>2015-11-11T15:11:20Z</time>
      </trkpt>
      <trkpt lat="43.43141" lon="6.06097">
        <ele>275.39999389648</ele>
        <time>2015-11-11T15:11:21Z</time>
      </trkpt>
      <trkpt lat="43.43139" lon="6.0611">
        <ele>275</ele>
        <time>2015-11-11T15:11:23Z</time>
      </trkpt>
      <trkpt lat="43.43135" lon="6.06124">
        <ele>274.39999389648</ele>
        <time>2015-11-11T15:11:25Z</time>
      </trkpt>
      <trkpt lat="43.43134" lon="6.06132">
        <ele>274</ele>
        <time>2015-11-11T15:11:26Z</time>
      </trkpt>
      <trkpt lat="43.43132" lon="6.06139">
        <ele>273.60000610352</ele>
        <time>2015-11-11T15:11:27Z</time>
      </trkpt>
      <trkpt lat="43.4313" lon="6.06154">
        <ele>273.39999389648</ele>
        <time>2015-11-11T15:11:29Z</time>
      </trkpt>
      <trkpt lat="43.43127" lon="6.06168">
        <ele>273.20001220703</ele>
        <time>2015-11-11T15:11:31Z</time>
      </trkpt>
      <trkpt lat="43.43124" lon="6.06182">
        <ele>273.20001220703</ele>
        <time>2015-11-11T15:11:33Z</time>
      </trkpt>
      <trkpt lat="43.43123" lon="6.06195">
        <ele>273.20001220703</ele>
        <time>2015-11-11T15:11:35Z</time>
      </trkpt>
      <trkpt lat="43.43123" lon="6.06202">
        <ele>273.39999389648</ele>
        <time>2015-11-11T15:11:36Z</time>
      </trkpt>
      <trkpt lat="43.43123" lon="6.06209">
        <ele>273.39999389648</ele>
        <time>2015-11-11T15:11:37Z</time>
      </trkpt>
      <trkpt lat="43.43124" lon="6.06222">
        <ele>273.39999389648</ele>
        <time>2015-11-11T15:11:39Z</time>
      </trkpt>
      <trkpt lat="43.43125" lon="6.06237">
        <ele>272.20001220703</ele>
        <time>2015-11-11T15:11:41Z</time>
      </trkpt>
      <trkpt lat="43.43126" lon="6.06245">
        <ele>271.60000610352</ele>
        <time>2015-11-11T15:11:42Z</time>
      </trkpt>
      <trkpt lat="43.43126" lon="6.06254">
        <ele>270.79998779297</ele>
        <time>2015-11-11T15:11:43Z</time>
      </trkpt>
      <trkpt lat="43.43126" lon="6.06263">
        <ele>270.20001220703</ele>
        <time>2015-11-11T15:11:44Z</time>
      </trkpt>
      <trkpt lat="43.43126" lon="6.06272">
        <ele>270</ele>
        <time>2015-11-11T15:11:45Z</time>
      </trkpt>
      <trkpt lat="43.43129" lon="6.06286">
        <ele>270.20001220703</ele>
        <time>2015-11-11T15:11:47Z</time>
      </trkpt>
      <trkpt lat="43.43129" lon="6.063">
        <ele>270.39999389648</ele>
        <time>2015-11-11T15:11:49Z</time>
      </trkpt>
      <trkpt lat="43.4313" lon="6.06308">
        <ele>270.39999389648</ele>
        <time>2015-11-11T15:11:50Z</time>
      </trkpt>
      <trkpt lat="43.43131" lon="6.06315">
        <ele>270.39999389648</ele>
        <time>2015-11-11T15:11:51Z</time>
      </trkpt>
      <trkpt lat="43.43133" lon="6.06324">
        <ele>270.20001220703</ele>
        <time>2015-11-11T15:11:52Z</time>
      </trkpt>
      <trkpt lat="43.43134" lon="6.06331">
        <ele>270</ele>
        <time>2015-11-11T15:11:53Z</time>
      </trkpt>
      <trkpt lat="43.43135" lon="6.06339">
        <ele>269.60000610352</ele>
        <time>2015-11-11T15:11:54Z</time>
      </trkpt>
      <trkpt lat="43.43135" lon="6.06347">
        <ele>269</ele>
        <time>2015-11-11T15:11:55Z</time>
      </trkpt>
      <trkpt lat="43.43135" lon="6.06365">
        <ele>268</ele>
        <time>2015-11-11T15:11:57Z</time>
      </trkpt>
      <trkpt lat="43.43136" lon="6.06374">
        <ele>267.39999389648</ele>
        <time>2015-11-11T15:11:58Z</time>
      </trkpt>
      <trkpt lat="43.43137" lon="6.06383">
        <ele>267.20001220703</ele>
        <time>2015-11-11T15:11:59Z</time>
      </trkpt>
      <trkpt lat="43.43139" lon="6.06402">
        <ele>266.60000610352</ele>
        <time>2015-11-11T15:12:01Z</time>
      </trkpt>
      <trkpt lat="43.4314" lon="6.06411">
        <ele>266.39999389648</ele>
        <time>2015-11-11T15:12:02Z</time>
      </trkpt>
      <trkpt lat="43.43141" lon="6.0642">
        <ele>266.20001220703</ele>
        <time>2015-11-11T15:12:03Z</time>
      </trkpt>
      <trkpt lat="43.43142" lon="6.06438">
        <ele>265.79998779297</ele>
        <time>2015-11-11T15:12:05Z</time>
      </trkpt>
      <trkpt lat="43.43144" lon="6.06447">
        <ele>265.60000610352</ele>
        <time>2015-11-11T15:12:06Z</time>
      </trkpt>
      <trkpt lat="43.43145" lon="6.06455">
        <ele>265.39999389648</ele>
        <time>2015-11-11T15:12:07Z</time>
      </trkpt>
      <trkpt lat="43.43146" lon="6.06471">
        <ele>265.60000610352</ele>
        <time>2015-11-11T15:12:09Z</time>
      </trkpt>
      <trkpt lat="43.43149" lon="6.0648">
        <ele>266.20001220703</ele>
        <time>2015-11-11T15:12:11Z</time>
      </trkpt>
      <trkpt lat="43.43151" lon="6.06485">
        <ele>266.60000610352</ele>
        <time>2015-11-11T15:12:13Z</time>
      </trkpt>
      <trkpt lat="43.43151" lon="6.06486">
        <ele>267</ele>
        <time>2015-11-11T15:12:15Z</time>
      </trkpt>
      <trkpt lat="43.43151" lon="6.06486">
        <ele>267</ele>
        <time>2015-11-11T15:12:21Z</time>
      </trkpt>
      <trkpt lat="43.43151" lon="6.06486">
        <ele>267</ele>
        <time>2015-11-11T15:12:53Z</time>
      </trkpt>
      <trkpt lat="43.43152" lon="6.06486">
        <ele>267</ele>
        <time>2015-11-11T15:12:54Z</time>
      </trkpt>
      <trkpt lat="43.43152" lon="6.06486">
        <ele>267</ele>
        <time>2015-11-11T15:12:59Z</time>
      </trkpt>
      <trkpt lat="43.43152" lon="6.06486">
        <ele>267</ele>
        <time>2015-11-11T15:13:33Z</time>
      </trkpt>
      <trkpt lat="43.43151" lon="6.06488">
        <ele>267</ele>
        <time>2015-11-11T15:13:35Z</time>
      </trkpt>
      <trkpt lat="43.43151" lon="6.06488">
        <ele>267.20001220703</ele>
        <time>2015-11-11T15:13:41Z</time>
      </trkpt>
      <trkpt lat="43.43151" lon="6.06488">
        <ele>267</ele>
        <time>2015-11-11T15:13:51Z</time>
      </trkpt>
      <trkpt lat="43.43151" lon="6.06488">
        <ele>267</ele>
        <time>2015-11-11T15:13:53Z</time>
      </trkpt>
      <trkpt lat="43.43151" lon="6.06488">
        <ele>267</ele>
        <time>2015-11-11T15:13:54Z</time>
      </trkpt>
      <trkpt lat="43.4315" lon="6.06489">
        <ele>267</ele>
        <time>2015-11-11T15:13:55Z</time>
      </trkpt>
      <trkpt lat="43.43145" lon="6.06489">
        <ele>267</ele>
        <time>2015-11-11T15:13:57Z</time>
      </trkpt>
      <trkpt lat="43.4314" lon="6.06487">
        <ele>267.39999389648</ele>
        <time>2015-11-11T15:13:59Z</time>
      </trkpt>
      <trkpt lat="43.43138" lon="6.06485">
        <ele>267.60000610352</ele>
        <time>2015-11-11T15:14:00Z</time>
      </trkpt>
      <trkpt lat="43.43137" lon="6.06485">
        <ele>268</ele>
        <time>2015-11-11T15:14:01Z</time>
      </trkpt>
      <trkpt lat="43.43135" lon="6.06485">
        <ele>268.39999389648</ele>
        <time>2015-11-11T15:14:02Z</time>
      </trkpt>
      <trkpt lat="43.43134" lon="6.06485">
        <ele>268.60000610352</ele>
        <time>2015-11-11T15:14:03Z</time>
      </trkpt>
      <trkpt lat="43.43131" lon="6.06485">
        <ele>269.20001220703</ele>
        <time>2015-11-11T15:14:05Z</time>
      </trkpt>
      <trkpt lat="43.43128" lon="6.06485">
        <ele>269.79998779297</ele>
        <time>2015-11-11T15:14:07Z</time>
      </trkpt>
      <trkpt lat="43.43126" lon="6.06484">
        <ele>270.60000610352</ele>
        <time>2015-11-11T15:14:09Z</time>
      </trkpt>
      <trkpt lat="43.43123" lon="6.06484">
        <ele>271.20001220703</ele>
        <time>2015-11-11T15:14:11Z</time>
      </trkpt>
      <trkpt lat="43.43121" lon="6.06484">
        <ele>272</ele>
        <time>2015-11-11T15:14:13Z</time>
      </trkpt>
      <trkpt lat="43.43119" lon="6.06483">
        <ele>272.20001220703</ele>
        <time>2015-11-11T15:14:14Z</time>
      </trkpt>
      <trkpt lat="43.43118" lon="6.06482">
        <ele>272.39999389648</ele>
        <time>2015-11-11T15:14:15Z</time>
      </trkpt>
      <trkpt lat="43.43116" lon="6.0648">
        <ele>272.60000610352</ele>
        <time>2015-11-11T15:14:17Z</time>
      </trkpt>
      <trkpt lat="43.43115" lon="6.06479">
        <ele>272.79998779297</ele>
        <time>2015-11-11T15:14:18Z</time>
      </trkpt>
      <trkpt lat="43.43114" lon="6.06479">
        <ele>273</ele>
        <time>2015-11-11T15:14:19Z</time>
      </trkpt>
      <trkpt lat="43.43114" lon="6.06478">
        <ele>273.20001220703</ele>
        <time>2015-11-11T15:14:21Z</time>
      </trkpt>
      <trkpt lat="43.43114" lon="6.06478">
        <ele>273.39999389648</ele>
        <time>2015-11-11T15:14:27Z</time>
      </trkpt>
      <trkpt lat="43.43114" lon="6.06478">
        <ele>273.20001220703</ele>
        <time>2015-11-11T15:14:59Z</time>
      </trkpt>
      <trkpt lat="43.43114" lon="6.06478">
        <ele>273.39999389648</ele>
        <time>2015-11-11T15:15:01Z</time>
      </trkpt>
      <trkpt lat="43.43114" lon="6.06478">
        <ele>273.39999389648</ele>
        <time>2015-11-11T15:15:05Z</time>
      </trkpt>
      <trkpt lat="43.43114" lon="6.06478">
        <ele>273.39999389648</ele>
        <time>2015-11-11T15:15:07Z</time>
      </trkpt>
      <trkpt lat="43.43114" lon="6.06478">
        <ele>273.39999389648</ele>
        <time>2015-11-11T15:15:08Z</time>
      </trkpt>
      <trkpt lat="43.43114" lon="6.06478">
        <ele>273.60000610352</ele>
        <time>2015-11-11T15:15:13Z</time>
      </trkpt>
      <trkpt lat="43.43114" lon="6.06478">
        <ele>273.39999389648</ele>
        <time>2015-11-11T15:15:39Z</time>
      </trkpt>
      <trkpt lat="43.43114" lon="6.06478">
        <ele>273.39999389648</ele>
        <time>2015-11-11T15:15:41Z</time>
      </trkpt>
      <trkpt lat="43.43114" lon="6.06478">
        <ele>273.39999389648</ele>
        <time>2015-11-11T15:15:45Z</time>
      </trkpt>
      <trkpt lat="43.43114" lon="6.06477">
        <ele>273.39999389648</ele>
        <time>2015-11-11T15:15:47Z</time>
      </trkpt>
      <trkpt lat="43.43113" lon="6.06475">
        <ele>273.39999389648</ele>
        <time>2015-11-11T15:15:49Z</time>
      </trkpt>
      <trkpt lat="43.43113" lon="6.06475">
        <ele>273.39999389648</ele>
        <time>2015-11-11T15:15:51Z</time>
      </trkpt>
      <trkpt lat="43.43113" lon="6.06475">
        <ele>273.79998779297</ele>
        <time>2015-11-11T15:15:53Z</time>
      </trkpt>
      <trkpt lat="43.43113" lon="6.06475">
        <ele>274</ele>
        <time>2015-11-11T15:15:55Z</time>
      </trkpt>
      <trkpt lat="43.43113" lon="6.06475">
        <ele>274</ele>
        <time>2015-11-11T15:15:57Z</time>
      </trkpt>
      <trkpt lat="43.43112" lon="6.06473">
        <ele>274</ele>
        <time>2015-11-11T15:15:59Z</time>
      </trkpt>
      <trkpt lat="43.43111" lon="6.06472">
        <ele>274</ele>
        <time>2015-11-11T15:16:01Z</time>
      </trkpt>
      <trkpt lat="43.4311" lon="6.06469">
        <ele>274.20001220703</ele>
        <time>2015-11-11T15:16:03Z</time>
      </trkpt>
      <trkpt lat="43.4311" lon="6.06465">
        <ele>274.39999389648</ele>
        <time>2015-11-11T15:16:05Z</time>
      </trkpt>
      <trkpt lat="43.43109" lon="6.06463">
        <ele>274.39999389648</ele>
        <time>2015-11-11T15:16:06Z</time>
      </trkpt>
      <trkpt lat="43.43108" lon="6.06461">
        <ele>274.60000610352</ele>
        <time>2015-11-11T15:16:07Z</time>
      </trkpt>
      <trkpt lat="43.43108" lon="6.06459">
        <ele>274.79998779297</ele>
        <time>2015-11-11T15:16:08Z</time>
      </trkpt>
      <trkpt lat="43.43106" lon="6.06457">
        <ele>274.79998779297</ele>
        <time>2015-11-11T15:16:09Z</time>
      </trkpt>
      <trkpt lat="43.43104" lon="6.06453">
        <ele>275</ele>
        <time>2015-11-11T15:16:11Z</time>
      </trkpt>
      <trkpt lat="43.43103" lon="6.06451">
        <ele>275</ele>
        <time>2015-11-11T15:16:12Z</time>
      </trkpt>
      <trkpt lat="43.43101" lon="6.06446">
        <ele>275.39999389648</ele>
        <time>2015-11-11T15:16:14Z</time>
      </trkpt>
      <trkpt lat="43.431" lon="6.06444">
        <ele>275.60000610352</ele>
        <time>2015-11-11T15:16:15Z</time>
      </trkpt>
      <trkpt lat="43.43098" lon="6.0644">
        <ele>275.79998779297</ele>
        <time>2015-11-11T15:16:17Z</time>
      </trkpt>
      <trkpt lat="43.43096" lon="6.06438">
        <ele>275.79998779297</ele>
        <time>2015-11-11T15:16:18Z</time>
      </trkpt>
      <trkpt lat="43.43095" lon="6.06436">
        <ele>276</ele>
        <time>2015-11-11T15:16:19Z</time>
      </trkpt>
      <trkpt lat="43.43093" lon="6.06432">
        <ele>276.39999389648</ele>
        <time>2015-11-11T15:16:21Z</time>
      </trkpt>
      <trkpt lat="43.43092" lon="6.06427">
        <ele>276.60000610352</ele>
        <time>2015-11-11T15:16:23Z</time>
      </trkpt>
      <trkpt lat="43.4309" lon="6.06422">
        <ele>277</ele>
        <time>2015-11-11T15:16:25Z</time>
      </trkpt>
      <trkpt lat="43.43089" lon="6.06417">
        <ele>277.39999389648</ele>
        <time>2015-11-11T15:16:27Z</time>
      </trkpt>
      <trkpt lat="43.43088" lon="6.06412">
        <ele>277.60000610352</ele>
        <time>2015-11-11T15:16:29Z</time>
      </trkpt>
      <trkpt lat="43.43087" lon="6.0641">
        <ele>277.39999389648</ele>
        <time>2015-11-11T15:16:30Z</time>
      </trkpt>
      <trkpt lat="43.43086" lon="6.06403">
        <ele>277.60000610352</ele>
        <time>2015-11-11T15:16:33Z</time>
      </trkpt>
      <trkpt lat="43.43085" lon="6.06398">
        <ele>278</ele>
        <time>2015-11-11T15:16:35Z</time>
      </trkpt>
      <trkpt lat="43.43085" lon="6.06395">
        <ele>278.20001220703</ele>
        <time>2015-11-11T15:16:36Z</time>
      </trkpt>
      <trkpt lat="43.43085" lon="6.06393">
        <ele>278.20001220703</ele>
        <time>2015-11-11T15:16:37Z</time>
      </trkpt>
      <trkpt lat="43.43084" lon="6.06387">
        <ele>278.20001220703</ele>
        <time>2015-11-11T15:16:39Z</time>
      </trkpt>
      <trkpt lat="43.43083" lon="6.06382">
        <ele>278.20001220703</ele>
        <time>2015-11-11T15:16:41Z</time>
      </trkpt>
      <trkpt lat="43.43082" lon="6.06376">
        <ele>278.20001220703</ele>
        <time>2015-11-11T15:16:43Z</time>
      </trkpt>
      <trkpt lat="43.43081" lon="6.06371">
        <ele>278.20001220703</ele>
        <time>2015-11-11T15:16:45Z</time>
      </trkpt>
      <trkpt lat="43.43079" lon="6.06366">
        <ele>278.20001220703</ele>
        <time>2015-11-11T15:16:47Z</time>
      </trkpt>
      <trkpt lat="43.43076" lon="6.06361">
        <ele>278.39999389648</ele>
        <time>2015-11-11T15:16:49Z</time>
      </trkpt>
      <trkpt lat="43.43072" lon="6.06357">
        <ele>278.20001220703</ele>
        <time>2015-11-11T15:16:51Z</time>
      </trkpt>
      <trkpt lat="43.43068" lon="6.06354">
        <ele>278</ele>
        <time>2015-11-11T15:16:53Z</time>
      </trkpt>
      <trkpt lat="43.43064" lon="6.06352">
        <ele>278.20001220703</ele>
        <time>2015-11-11T15:16:55Z</time>
      </trkpt>
      <trkpt lat="43.43061" lon="6.0635">
        <ele>278.39999389648</ele>
        <time>2015-11-11T15:16:57Z</time>
      </trkpt>
      <trkpt lat="43.43057" lon="6.06349">
        <ele>278.39999389648</ele>
        <time>2015-11-11T15:16:59Z</time>
      </trkpt>
      <trkpt lat="43.43049" lon="6.06346">
        <ele>278.79998779297</ele>
        <time>2015-11-11T15:17:03Z</time>
      </trkpt>
      <trkpt lat="43.43045" lon="6.06344">
        <ele>279</ele>
        <time>2015-11-11T15:17:05Z</time>
      </trkpt>
      <trkpt lat="43.43041" lon="6.06341">
        <ele>279.20001220703</ele>
        <time>2015-11-11T15:17:07Z</time>
      </trkpt>
      <trkpt lat="43.43037" lon="6.06336">
        <ele>279.20001220703</ele>
        <time>2015-11-11T15:17:09Z</time>
      </trkpt>
      <trkpt lat="43.43036" lon="6.06331">
        <ele>279.20001220703</ele>
        <time>2015-11-11T15:17:11Z</time>
      </trkpt>
      <trkpt lat="43.43034" lon="6.06327">
        <ele>279.39999389648</ele>
        <time>2015-11-11T15:17:13Z</time>
      </trkpt>
      <trkpt lat="43.43033" lon="6.06324">
        <ele>279.60000610352</ele>
        <time>2015-11-11T15:17:15Z</time>
      </trkpt>
      <trkpt lat="43.43032" lon="6.06321">
        <ele>279.79998779297</ele>
        <time>2015-11-11T15:17:17Z</time>
      </trkpt>
      <trkpt lat="43.43031" lon="6.06318">
        <ele>280</ele>
        <time>2015-11-11T15:17:19Z</time>
      </trkpt>
      <trkpt lat="43.43029" lon="6.06315">
        <ele>280.20001220703</ele>
        <time>2015-11-11T15:17:21Z</time>
      </trkpt>
      <trkpt lat="43.43027" lon="6.06314">
        <ele>280.20001220703</ele>
        <time>2015-11-11T15:17:22Z</time>
      </trkpt>
      <trkpt lat="43.43026" lon="6.06313">
        <ele>280.20001220703</ele>
        <time>2015-11-11T15:17:23Z</time>
      </trkpt>
      <trkpt lat="43.43024" lon="6.06312">
        <ele>280.20001220703</ele>
        <time>2015-11-11T15:17:25Z</time>
      </trkpt>
      <trkpt lat="43.43024" lon="6.06312">
        <ele>280.39999389648</ele>
        <time>2015-11-11T15:17:26Z</time>
      </trkpt>
      <trkpt lat="43.43023" lon="6.06311">
        <ele>280.39999389648</ele>
        <time>2015-11-11T15:17:27Z</time>
      </trkpt>
      <trkpt lat="43.4302" lon="6.06311">
        <ele>280.39999389648</ele>
        <time>2015-11-11T15:17:29Z</time>
      </trkpt>
      <trkpt lat="43.43018" lon="6.06311">
        <ele>280.60000610352</ele>
        <time>2015-11-11T15:17:31Z</time>
      </trkpt>
      <trkpt lat="43.43016" lon="6.06311">
        <ele>280.60000610352</ele>
        <time>2015-11-11T15:17:32Z</time>
      </trkpt>
      <trkpt lat="43.43015" lon="6.06311">
        <ele>280.79998779297</ele>
        <time>2015-11-11T15:17:33Z</time>
      </trkpt>
      <trkpt lat="43.43011" lon="6.06311">
        <ele>281</ele>
        <time>2015-11-11T15:17:35Z</time>
      </trkpt>
      <trkpt lat="43.43008" lon="6.0631">
        <ele>281</ele>
        <time>2015-11-11T15:17:37Z</time>
      </trkpt>
      <trkpt lat="43.43001" lon="6.06311">
        <ele>281.39999389648</ele>
        <time>2015-11-11T15:17:41Z</time>
      </trkpt>
      <trkpt lat="43.42996" lon="6.06309">
        <ele>281.60000610352</ele>
        <time>2015-11-11T15:17:44Z</time>
      </trkpt>
      <trkpt lat="43.42992" lon="6.06308">
        <ele>282</ele>
        <time>2015-11-11T15:17:46Z</time>
      </trkpt>
      <trkpt lat="43.42987" lon="6.06307">
        <ele>282</ele>
        <time>2015-11-11T15:17:48Z</time>
      </trkpt>
      <trkpt lat="43.42983" lon="6.06305">
        <ele>282.20001220703</ele>
        <time>2015-11-11T15:17:50Z</time>
      </trkpt>
      <trkpt lat="43.42981" lon="6.06304">
        <ele>282.20001220703</ele>
        <time>2015-11-11T15:17:51Z</time>
      </trkpt>
      <trkpt lat="43.42976" lon="6.06304">
        <ele>282.60000610352</ele>
        <time>2015-11-11T15:17:54Z</time>
      </trkpt>
      <trkpt lat="43.42972" lon="6.06305">
        <ele>283</ele>
        <time>2015-11-11T15:17:57Z</time>
      </trkpt>
      <trkpt lat="43.4297" lon="6.06306">
        <ele>283</ele>
        <time>2015-11-11T15:17:58Z</time>
      </trkpt>
      <trkpt lat="43.42968" lon="6.06305">
        <ele>283.20001220703</ele>
        <time>2015-11-11T15:18:00Z</time>
      </trkpt>
      <trkpt lat="43.42965" lon="6.06305">
        <ele>283.60000610352</ele>
        <time>2015-11-11T15:18:02Z</time>
      </trkpt>
      <trkpt lat="43.42963" lon="6.06304">
        <ele>283.79998779297</ele>
        <time>2015-11-11T15:18:03Z</time>
      </trkpt>
      <trkpt lat="43.42962" lon="6.06303">
        <ele>283.79998779297</ele>
        <time>2015-11-11T15:18:04Z</time>
      </trkpt>
      <trkpt lat="43.4296" lon="6.06302">
        <ele>283.79998779297</ele>
        <time>2015-11-11T15:18:05Z</time>
      </trkpt>
      <trkpt lat="43.42957" lon="6.06297">
        <ele>284</ele>
        <time>2015-11-11T15:18:08Z</time>
      </trkpt>
      <trkpt lat="43.42955" lon="6.06294">
        <ele>284.20001220703</ele>
        <time>2015-11-11T15:18:10Z</time>
      </trkpt>
      <trkpt lat="43.42952" lon="6.06291">
        <ele>284.39999389648</ele>
        <time>2015-11-11T15:18:12Z</time>
      </trkpt>
      <trkpt lat="43.4295" lon="6.06289">
        <ele>284.60000610352</ele>
        <time>2015-11-11T15:18:14Z</time>
      </trkpt>
      <trkpt lat="43.42948" lon="6.06286">
        <ele>284.60000610352</ele>
        <time>2015-11-11T15:18:16Z</time>
      </trkpt>
      <trkpt lat="43.42947" lon="6.06285">
        <ele>285</ele>
        <time>2015-11-11T15:18:17Z</time>
      </trkpt>
      <trkpt lat="43.42941" lon="6.06283">
        <ele>285.60000610352</ele>
        <time>2015-11-11T15:18:22Z</time>
      </trkpt>
      <trkpt lat="43.42938" lon="6.06283">
        <ele>286.20001220703</ele>
        <time>2015-11-11T15:18:24Z</time>
      </trkpt>
      <trkpt lat="43.42934" lon="6.06287">
        <ele>287.20001220703</ele>
        <time>2015-11-11T15:18:28Z</time>
      </trkpt>
      <trkpt lat="43.42932" lon="6.06286">
        <ele>287.60000610352</ele>
        <time>2015-11-11T15:18:30Z</time>
      </trkpt>
      <trkpt lat="43.42929" lon="6.06287">
        <ele>287.79998779297</ele>
        <time>2015-11-11T15:18:32Z</time>
      </trkpt>
      <trkpt lat="43.42928" lon="6.06287">
        <ele>287.79998779297</ele>
        <time>2015-11-11T15:18:33Z</time>
      </trkpt>
      <trkpt lat="43.42919" lon="6.06283">
        <ele>288.60000610352</ele>
        <time>2015-11-11T15:18:40Z</time>
      </trkpt>
      <trkpt lat="43.42916" lon="6.06281">
        <ele>289</ele>
        <time>2015-11-11T15:18:42Z</time>
      </trkpt>
      <trkpt lat="43.42913" lon="6.06278">
        <ele>289.20001220703</ele>
        <time>2015-11-11T15:18:44Z</time>
      </trkpt>
      <trkpt lat="43.42911" lon="6.06277">
        <ele>289.79998779297</ele>
        <time>2015-11-11T15:18:46Z</time>
      </trkpt>
      <trkpt lat="43.42911" lon="6.06277">
        <ele>290.39999389648</ele>
        <time>2015-11-11T15:18:47Z</time>
      </trkpt>
      <trkpt lat="43.42911" lon="6.06277">
        <ele>290.79998779297</ele>
        <time>2015-11-11T15:18:52Z</time>
      </trkpt>
      <trkpt lat="43.42911" lon="6.06277">
        <ele>290.79998779297</ele>
        <time>2015-11-11T15:19:06Z</time>
      </trkpt>
      <trkpt lat="43.42911" lon="6.06277">
        <ele>291</ele>
        <time>2015-11-11T15:19:08Z</time>
      </trkpt>
      <trkpt lat="43.42911" lon="6.06277">
        <ele>291.20001220703</ele>
        <time>2015-11-11T15:19:10Z</time>
      </trkpt>
      <trkpt lat="43.42911" lon="6.06277">
        <ele>291.60000610352</ele>
        <time>2015-11-11T15:19:14Z</time>
      </trkpt>
      <trkpt lat="43.42911" lon="6.06277">
        <ele>291.79998779297</ele>
        <time>2015-11-11T15:19:16Z</time>
      </trkpt>
      <trkpt lat="43.42911" lon="6.06277">
        <ele>292</ele>
        <time>2015-11-11T15:19:18Z</time>
      </trkpt>
      <trkpt lat="43.42911" lon="6.06277">
        <ele>292</ele>
        <time>2015-11-11T15:19:20Z</time>
      </trkpt>
      <trkpt lat="43.42911" lon="6.06277">
        <ele>292.20001220703</ele>
        <time>2015-11-11T15:19:24Z</time>
      </trkpt>
      <trkpt lat="43.42911" lon="6.06277">
        <ele>292.20001220703</ele>
        <time>2015-11-11T15:19:26Z</time>
      </trkpt>
      <trkpt lat="43.42911" lon="6.06277">
        <ele>292</ele>
        <time>2015-11-11T15:19:28Z</time>
      </trkpt>
      <trkpt lat="43.42911" lon="6.06277">
        <ele>291.79998779297</ele>
        <time>2015-11-11T15:19:34Z</time>
      </trkpt>
      <trkpt lat="43.42911" lon="6.06277">
        <ele>292</ele>
        <time>2015-11-11T15:19:52Z</time>
      </trkpt>
      <trkpt lat="43.4291" lon="6.06277">
        <ele>292</ele>
        <time>2015-11-11T15:19:54Z</time>
      </trkpt>
      <trkpt lat="43.42908" lon="6.06277">
        <ele>292</ele>
        <time>2015-11-11T15:19:56Z</time>
      </trkpt>
      <trkpt lat="43.42906" lon="6.06277">
        <ele>292.39999389648</ele>
        <time>2015-11-11T15:19:58Z</time>
      </trkpt>
      <trkpt lat="43.42905" lon="6.06277">
        <ele>293.20001220703</ele>
        <time>2015-11-11T15:20:00Z</time>
      </trkpt>
      <trkpt lat="43.42905" lon="6.06277">
        <ele>293</ele>
        <time>2015-11-11T15:20:04Z</time>
      </trkpt>
      <trkpt lat="43.42905" lon="6.06277">
        <ele>293.20001220703</ele>
        <time>2015-11-11T15:20:07Z</time>
      </trkpt>
      <trkpt lat="43.42905" lon="6.06277">
        <ele>293.39999389648</ele>
        <time>2015-11-11T15:20:08Z</time>
      </trkpt>
      <trkpt lat="43.42904" lon="6.06277">
        <ele>294.20001220703</ele>
        <time>2015-11-11T15:20:14Z</time>
      </trkpt>
      <trkpt lat="43.42904" lon="6.06277">
        <ele>294.39999389648</ele>
        <time>2015-11-11T15:20:15Z</time>
      </trkpt>
      <trkpt lat="43.42904" lon="6.06276">
        <ele>294.79998779297</ele>
        <time>2015-11-11T15:20:18Z</time>
      </trkpt>
      <trkpt lat="43.42905" lon="6.06277">
        <ele>295</ele>
        <time>2015-11-11T15:20:20Z</time>
      </trkpt>
      <trkpt lat="43.42905" lon="6.06277">
        <ele>295.20001220703</ele>
        <time>2015-11-11T15:20:26Z</time>
      </trkpt>
      <trkpt lat="43.42905" lon="6.06277">
        <ele>295</ele>
        <time>2015-11-11T15:20:36Z</time>
      </trkpt>
      <trkpt lat="43.42904" lon="6.06276">
        <ele>295.20001220703</ele>
        <time>2015-11-11T15:20:38Z</time>
      </trkpt>
      <trkpt lat="43.42904" lon="6.06276">
        <ele>294.79998779297</ele>
        <time>2015-11-11T15:20:44Z</time>
      </trkpt>
      <trkpt lat="43.42904" lon="6.06276">
        <ele>295</ele>
        <time>2015-11-11T15:20:48Z</time>
      </trkpt>
      <trkpt lat="43.42904" lon="6.06276">
        <ele>295</ele>
        <time>2015-11-11T15:20:50Z</time>
      </trkpt>
      <trkpt lat="43.42902" lon="6.06275">
        <ele>295.20001220703</ele>
        <time>2015-11-11T15:20:52Z</time>
      </trkpt>
      <trkpt lat="43.42898" lon="6.06274">
        <ele>295.60000610352</ele>
        <time>2015-11-11T15:20:53Z</time>
      </trkpt>
      <trkpt lat="43.42896" lon="6.06273">
        <ele>296</ele>
        <time>2015-11-11T15:20:54Z</time>
      </trkpt>
      <trkpt lat="43.42893" lon="6.06271">
        <ele>296.39999389648</ele>
        <time>2015-11-11T15:20:55Z</time>
      </trkpt>
      <trkpt lat="43.42891" lon="6.0627">
        <ele>296.60000610352</ele>
        <time>2015-11-11T15:20:56Z</time>
      </trkpt>
      <trkpt lat="43.42889" lon="6.06267">
        <ele>297.20001220703</ele>
        <time>2015-11-11T15:20:58Z</time>
      </trkpt>
      <trkpt lat="43.42887" lon="6.06265">
        <ele>297.60000610352</ele>
        <time>2015-11-11T15:20:59Z</time>
      </trkpt>
      <trkpt lat="43.42886" lon="6.06264">
        <ele>298</ele>
        <time>2015-11-11T15:21:00Z</time>
      </trkpt>
      <trkpt lat="43.42881" lon="6.06264">
        <ele>298.39999389648</ele>
        <time>2015-11-11T15:21:02Z</time>
      </trkpt>
      <trkpt lat="43.42878" lon="6.06262">
        <ele>299</ele>
        <time>2015-11-11T15:21:04Z</time>
      </trkpt>
      <trkpt lat="43.42876" lon="6.06261">
        <ele>299.39999389648</ele>
        <time>2015-11-11T15:21:06Z</time>
      </trkpt>
      <trkpt lat="43.42875" lon="6.06261">
        <ele>299.39999389648</ele>
        <time>2015-11-11T15:21:07Z</time>
      </trkpt>
      <trkpt lat="43.42873" lon="6.06261">
        <ele>299.79998779297</ele>
        <time>2015-11-11T15:21:08Z</time>
      </trkpt>
      <trkpt lat="43.42871" lon="6.0626">
        <ele>300.20001220703</ele>
        <time>2015-11-11T15:21:09Z</time>
      </trkpt>
      <trkpt lat="43.4287" lon="6.06259">
        <ele>300.60000610352</ele>
        <time>2015-11-11T15:21:10Z</time>
      </trkpt>
      <trkpt lat="43.42869" lon="6.06258">
        <ele>301</ele>
        <time>2015-11-11T15:21:11Z</time>
      </trkpt>
      <trkpt lat="43.42865" lon="6.06253">
        <ele>301.39999389648</ele>
        <time>2015-11-11T15:21:14Z</time>
      </trkpt>
      <trkpt lat="43.42861" lon="6.06248">
        <ele>303.20001220703</ele>
        <time>2015-11-11T15:21:18Z</time>
      </trkpt>
      <trkpt lat="43.4286" lon="6.06245">
        <ele>304</ele>
        <time>2015-11-11T15:21:20Z</time>
      </trkpt>
      <trkpt lat="43.42859" lon="6.06243">
        <ele>304.39999389648</ele>
        <time>2015-11-11T15:21:21Z</time>
      </trkpt>
      <trkpt lat="43.42859" lon="6.06242">
        <ele>304.60000610352</ele>
        <time>2015-11-11T15:21:22Z</time>
      </trkpt>
      <trkpt lat="43.42859" lon="6.0624">
        <ele>304.79998779297</ele>
        <time>2015-11-11T15:21:23Z</time>
      </trkpt>
      <trkpt lat="43.42859" lon="6.06239">
        <ele>304.79998779297</ele>
        <time>2015-11-11T15:21:24Z</time>
      </trkpt>
      <trkpt lat="43.42859" lon="6.0624">
        <ele>305</ele>
        <time>2015-11-11T15:21:25Z</time>
      </trkpt>
      <trkpt lat="43.42858" lon="6.06239">
        <ele>305</ele>
        <time>2015-11-11T15:21:26Z</time>
      </trkpt>
      <trkpt lat="43.42858" lon="6.06239">
        <ele>304.79998779297</ele>
        <time>2015-11-11T15:21:32Z</time>
      </trkpt>
      <trkpt lat="43.42858" lon="6.06239">
        <ele>305</ele>
        <time>2015-11-11T15:22:00Z</time>
      </trkpt>
      <trkpt lat="43.42858" lon="6.06239">
        <ele>305</ele>
        <time>2015-11-11T15:22:04Z</time>
      </trkpt>
      <trkpt lat="43.42858" lon="6.06239">
        <ele>305.20001220703</ele>
        <time>2015-11-11T15:22:12Z</time>
      </trkpt>
      <trkpt lat="43.42858" lon="6.06239">
        <ele>305</ele>
        <time>2015-11-11T15:22:44Z</time>
      </trkpt>
      <trkpt lat="43.42858" lon="6.06239">
        <ele>305</ele>
        <time>2015-11-11T15:22:45Z</time>
      </trkpt>
      <trkpt lat="43.42858" lon="6.06239">
        <ele>305</ele>
        <time>2015-11-11T15:22:50Z</time>
      </trkpt>
      <trkpt lat="43.42858" lon="6.06239">
        <ele>305.20001220703</ele>
        <time>2015-11-11T15:23:24Z</time>
      </trkpt>
      <trkpt lat="43.42858" lon="6.06239">
        <ele>305.20001220703</ele>
        <time>2015-11-11T15:23:26Z</time>
      </trkpt>
      <trkpt lat="43.42858" lon="6.06239">
        <ele>305.20001220703</ele>
        <time>2015-11-11T15:23:32Z</time>
      </trkpt>
      <trkpt lat="43.42858" lon="6.06239">
        <ele>305.20001220703</ele>
        <time>2015-11-11T15:23:46Z</time>
      </trkpt>
      <trkpt lat="43.42858" lon="6.06239">
        <ele>305.39999389648</ele>
        <time>2015-11-11T15:23:48Z</time>
      </trkpt>
      <trkpt lat="43.42858" lon="6.06239">
        <ele>305.20001220703</ele>
        <time>2015-11-11T15:23:49Z</time>
      </trkpt>
      <trkpt lat="43.42857" lon="6.06239">
        <ele>305.39999389648</ele>
        <time>2015-11-11T15:23:50Z</time>
      </trkpt>
      <trkpt lat="43.42856" lon="6.06237">
        <ele>305.20001220703</ele>
        <time>2015-11-11T15:23:52Z</time>
      </trkpt>
      <trkpt lat="43.42853" lon="6.06233">
        <ele>304.79998779297</ele>
        <time>2015-11-11T15:23:54Z</time>
      </trkpt>
      <trkpt lat="43.42852" lon="6.06232">
        <ele>304.60000610352</ele>
        <time>2015-11-11T15:23:55Z</time>
      </trkpt>
      <trkpt lat="43.4285" lon="6.06231">
        <ele>304.20001220703</ele>
        <time>2015-11-11T15:23:56Z</time>
      </trkpt>
      <trkpt lat="43.42847" lon="6.06229">
        <ele>303.60000610352</ele>
        <time>2015-11-11T15:23:58Z</time>
      </trkpt>
      <trkpt lat="43.42844" lon="6.06229">
        <ele>303</ele>
        <time>2015-11-11T15:24:00Z</time>
      </trkpt>
      <trkpt lat="43.42841" lon="6.06231">
        <ele>302.39999389648</ele>
        <time>2015-11-11T15:24:02Z</time>
      </trkpt>
      <trkpt lat="43.42838" lon="6.06234">
        <ele>301.79998779297</ele>
        <time>2015-11-11T15:24:04Z</time>
      </trkpt>
      <trkpt lat="43.42836" lon="6.06236">
        <ele>301.60000610352</ele>
        <time>2015-11-11T15:24:05Z</time>
      </trkpt>
      <trkpt lat="43.42835" lon="6.06237">
        <ele>301.20001220703</ele>
        <time>2015-11-11T15:24:06Z</time>
      </trkpt>
      <trkpt lat="43.42833" lon="6.06241">
        <ele>300.60000610352</ele>
        <time>2015-11-11T15:24:08Z</time>
      </trkpt>
      <trkpt lat="43.42832" lon="6.06246">
        <ele>300.20001220703</ele>
        <time>2015-11-11T15:24:10Z</time>
      </trkpt>
      <trkpt lat="43.42832" lon="6.06254">
        <ele>299.60000610352</ele>
        <time>2015-11-11T15:24:12Z</time>
      </trkpt>
      <trkpt lat="43.42833" lon="6.06262">
        <ele>299.39999389648</ele>
        <time>2015-11-11T15:24:14Z</time>
      </trkpt>
      <trkpt lat="43.42833" lon="6.06264">
        <ele>299.60000610352</ele>
        <time>2015-11-11T15:24:15Z</time>
      </trkpt>
      <trkpt lat="43.42834" lon="6.06266">
        <ele>299.79998779297</ele>
        <time>2015-11-11T15:24:16Z</time>
      </trkpt>
      <trkpt lat="43.42834" lon="6.0627">
        <ele>300</ele>
        <time>2015-11-11T15:24:18Z</time>
      </trkpt>
      <trkpt lat="43.42834" lon="6.06275">
        <ele>299.79998779297</ele>
        <time>2015-11-11T15:24:20Z</time>
      </trkpt>
      <trkpt lat="43.42834" lon="6.06277">
        <ele>299.60000610352</ele>
        <time>2015-11-11T15:24:21Z</time>
      </trkpt>
      <trkpt lat="43.42834" lon="6.06279">
        <ele>299.20001220703</ele>
        <time>2015-11-11T15:24:22Z</time>
      </trkpt>
      <trkpt lat="43.42833" lon="6.06284">
        <ele>298.79998779297</ele>
        <time>2015-11-11T15:24:24Z</time>
      </trkpt>
      <trkpt lat="43.42833" lon="6.06287">
        <ele>298.39999389648</ele>
        <time>2015-11-11T15:24:26Z</time>
      </trkpt>
      <trkpt lat="43.42832" lon="6.06288">
        <ele>298.20001220703</ele>
        <time>2015-11-11T15:24:27Z</time>
      </trkpt>
      <trkpt lat="43.42833" lon="6.06287">
        <ele>298</ele>
        <time>2015-11-11T15:24:28Z</time>
      </trkpt>
      <trkpt lat="43.42833" lon="6.0629">
        <ele>297.79998779297</ele>
        <time>2015-11-11T15:24:30Z</time>
      </trkpt>
      <trkpt lat="43.42832" lon="6.06291">
        <ele>297.60000610352</ele>
        <time>2015-11-11T15:24:32Z</time>
      </trkpt>
      <trkpt lat="43.42832" lon="6.06291">
        <ele>297.79998779297</ele>
        <time>2015-11-11T15:24:34Z</time>
      </trkpt>
      <trkpt lat="43.42832" lon="6.06291">
        <ele>297.60000610352</ele>
        <time>2015-11-11T15:24:40Z</time>
      </trkpt>
      <trkpt lat="43.42832" lon="6.06291">
        <ele>297.60000610352</ele>
        <time>2015-11-11T15:24:42Z</time>
      </trkpt>
      <trkpt lat="43.42832" lon="6.06292">
        <ele>297.39999389648</ele>
        <time>2015-11-11T15:24:44Z</time>
      </trkpt>
      <trkpt lat="43.42832" lon="6.06291">
        <ele>297.20001220703</ele>
        <time>2015-11-11T15:24:46Z</time>
      </trkpt>
      <trkpt lat="43.42832" lon="6.06295">
        <ele>297.20001220703</ele>
        <time>2015-11-11T15:24:48Z</time>
      </trkpt>
      <trkpt lat="43.42831" lon="6.06296">
        <ele>297</ele>
        <time>2015-11-11T15:24:49Z</time>
      </trkpt>
      <trkpt lat="43.42831" lon="6.06297">
        <ele>297</ele>
        <time>2015-11-11T15:24:50Z</time>
      </trkpt>
      <trkpt lat="43.4283" lon="6.06297">
        <ele>296.79998779297</ele>
        <time>2015-11-11T15:24:51Z</time>
      </trkpt>
      <trkpt lat="43.42828" lon="6.06298">
        <ele>296.60000610352</ele>
        <time>2015-11-11T15:24:52Z</time>
      </trkpt>
      <trkpt lat="43.42826" lon="6.06297">
        <ele>296.39999389648</ele>
        <time>2015-11-11T15:24:54Z</time>
      </trkpt>
      <trkpt lat="43.42825" lon="6.06297">
        <ele>296.20001220703</ele>
        <time>2015-11-11T15:24:56Z</time>
      </trkpt>
      <trkpt lat="43.42822" lon="6.06303">
        <ele>296</ele>
        <time>2015-11-11T15:24:59Z</time>
      </trkpt>
      <trkpt lat="43.4282" lon="6.06304">
        <ele>295.79998779297</ele>
        <time>2015-11-11T15:25:00Z</time>
      </trkpt>
      <trkpt lat="43.42818" lon="6.06305">
        <ele>295.60000610352</ele>
        <time>2015-11-11T15:25:02Z</time>
      </trkpt>
      <trkpt lat="43.42817" lon="6.06306">
        <ele>295.60000610352</ele>
        <time>2015-11-11T15:25:03Z</time>
      </trkpt>
      <trkpt lat="43.42815" lon="6.06308">
        <ele>295.39999389648</ele>
        <time>2015-11-11T15:25:04Z</time>
      </trkpt>
      <trkpt lat="43.42815" lon="6.06308">
        <ele>294.79998779297</ele>
        <time>2015-11-11T15:25:06Z</time>
      </trkpt>
      <trkpt lat="43.42814" lon="6.06308">
        <ele>294.60000610352</ele>
        <time>2015-11-11T15:25:07Z</time>
      </trkpt>
      <trkpt lat="43.42814" lon="6.06308">
        <ele>294.60000610352</ele>
        <time>2015-11-11T15:25:08Z</time>
      </trkpt>
      <trkpt lat="43.42813" lon="6.06309">
        <ele>294.20001220703</ele>
        <time>2015-11-11T15:25:10Z</time>
      </trkpt>
      <trkpt lat="43.42813" lon="6.06309">
        <ele>294.39999389648</ele>
        <time>2015-11-11T15:25:12Z</time>
      </trkpt>
      <trkpt lat="43.42813" lon="6.06309">
        <ele>294.20001220703</ele>
        <time>2015-11-11T15:25:15Z</time>
      </trkpt>
      <trkpt lat="43.42813" lon="6.06309">
        <ele>294.20001220703</ele>
        <time>2015-11-11T15:25:16Z</time>
      </trkpt>
      <trkpt lat="43.4281" lon="6.06311">
        <ele>294.20001220703</ele>
        <time>2015-11-11T15:25:18Z</time>
      </trkpt>
      <trkpt lat="43.4281" lon="6.06311">
        <ele>293.20001220703</ele>
        <time>2015-11-11T15:25:20Z</time>
      </trkpt>
      <trkpt lat="43.42808" lon="6.06312">
        <ele>293</ele>
        <time>2015-11-11T15:25:22Z</time>
      </trkpt>
      <trkpt lat="43.42807" lon="6.06312">
        <ele>292.79998779297</ele>
        <time>2015-11-11T15:25:23Z</time>
      </trkpt>
      <trkpt lat="43.42805" lon="6.06312">
        <ele>292.60000610352</ele>
        <time>2015-11-11T15:25:24Z</time>
      </trkpt>
      <trkpt lat="43.42803" lon="6.06311">
        <ele>292.60000610352</ele>
        <time>2015-11-11T15:25:25Z</time>
      </trkpt>
      <trkpt lat="43.42802" lon="6.06311">
        <ele>292.39999389648</ele>
        <time>2015-11-11T15:25:26Z</time>
      </trkpt>
      <trkpt lat="43.42802" lon="6.06312">
        <ele>292.20001220703</ele>
        <time>2015-11-11T15:25:27Z</time>
      </trkpt>
      <trkpt lat="43.42801" lon="6.06311">
        <ele>292</ele>
        <time>2015-11-11T15:25:28Z</time>
      </trkpt>
      <trkpt lat="43.42801" lon="6.06311">
        <ele>292.20001220703</ele>
        <time>2015-11-11T15:25:34Z</time>
      </trkpt>
      <trkpt lat="43.42801" lon="6.06311">
        <ele>292.20001220703</ele>
        <time>2015-11-11T15:26:06Z</time>
      </trkpt>
      <trkpt lat="43.42801" lon="6.06312">
        <ele>292</ele>
        <time>2015-11-11T15:26:08Z</time>
      </trkpt>
      <trkpt lat="43.42801" lon="6.06312">
        <ele>292</ele>
        <time>2015-11-11T15:26:10Z</time>
      </trkpt>
      <trkpt lat="43.42801" lon="6.06312">
        <ele>292.20001220703</ele>
        <time>2015-11-11T15:26:14Z</time>
      </trkpt>
      <trkpt lat="43.42793" lon="6.06311">
        <ele>292</ele>
        <time>2015-11-11T15:26:18Z</time>
      </trkpt>
      <trkpt lat="43.42788" lon="6.06313">
        <ele>291.79998779297</ele>
        <time>2015-11-11T15:26:20Z</time>
      </trkpt>
      <trkpt lat="43.42784" lon="6.06313">
        <ele>291.60000610352</ele>
        <time>2015-11-11T15:26:22Z</time>
      </trkpt>
      <trkpt lat="43.42778" lon="6.0631">
        <ele>291.20001220703</ele>
        <time>2015-11-11T15:26:24Z</time>
      </trkpt>
      <trkpt lat="43.42773" lon="6.06307">
        <ele>291</ele>
        <time>2015-11-11T15:26:26Z</time>
      </trkpt>
      <trkpt lat="43.42771" lon="6.06305">
        <ele>290.79998779297</ele>
        <time>2015-11-11T15:26:27Z</time>
      </trkpt>
      <trkpt lat="43.42768" lon="6.06305">
        <ele>290.60000610352</ele>
        <time>2015-11-11T15:26:28Z</time>
      </trkpt>
      <trkpt lat="43.42763" lon="6.06306">
        <ele>290</ele>
        <time>2015-11-11T15:26:30Z</time>
      </trkpt>
      <trkpt lat="43.4276" lon="6.06308">
        <ele>289.60000610352</ele>
        <time>2015-11-11T15:26:31Z</time>
      </trkpt>
      <trkpt lat="43.42756" lon="6.06308">
        <ele>289.60000610352</ele>
        <time>2015-11-11T15:26:32Z</time>
      </trkpt>
      <trkpt lat="43.42749" lon="6.0631">
        <ele>289</ele>
        <time>2015-11-11T15:26:34Z</time>
      </trkpt>
      <trkpt lat="43.42742" lon="6.06311">
        <ele>288.39999389648</ele>
        <time>2015-11-11T15:26:36Z</time>
      </trkpt>
      <trkpt lat="43.42736" lon="6.06314">
        <ele>288</ele>
        <time>2015-11-11T15:26:38Z</time>
      </trkpt>
      <trkpt lat="43.4273" lon="6.06317">
        <ele>287.79998779297</ele>
        <time>2015-11-11T15:26:40Z</time>
      </trkpt>
      <trkpt lat="43.42724" lon="6.06319">
        <ele>288</ele>
        <time>2015-11-11T15:26:42Z</time>
      </trkpt>
      <trkpt lat="43.4272" lon="6.06323">
        <ele>288</ele>
        <time>2015-11-11T15:26:44Z</time>
      </trkpt>
      <trkpt lat="43.42715" lon="6.06327">
        <ele>287.60000610352</ele>
        <time>2015-11-11T15:26:46Z</time>
      </trkpt>
      <trkpt lat="43.42712" lon="6.06329">
        <ele>287.20001220703</ele>
        <time>2015-11-11T15:26:47Z</time>
      </trkpt>
      <trkpt lat="43.42712" lon="6.0633">
        <ele>287.20001220703</ele>
        <time>2015-11-11T15:26:48Z</time>
      </trkpt>
      <trkpt lat="43.4271" lon="6.06333">
        <ele>287.60000610352</ele>
        <time>2015-11-11T15:26:50Z</time>
      </trkpt>
      <trkpt lat="43.42709" lon="6.06334">
        <ele>287.79998779297</ele>
        <time>2015-11-11T15:26:51Z</time>
      </trkpt>
      <trkpt lat="43.42707" lon="6.06333">
        <ele>287.60000610352</ele>
        <time>2015-11-11T15:26:52Z</time>
      </trkpt>
      <trkpt lat="43.42705" lon="6.06333">
        <ele>287.20001220703</ele>
        <time>2015-11-11T15:26:54Z</time>
      </trkpt>
      <trkpt lat="43.42701" lon="6.06332">
        <ele>287.20001220703</ele>
        <time>2015-11-11T15:26:56Z</time>
      </trkpt>
      <trkpt lat="43.42698" lon="6.06331">
        <ele>287.39999389648</ele>
        <time>2015-11-11T15:26:58Z</time>
      </trkpt>
      <trkpt lat="43.42694" lon="6.0633">
        <ele>287.39999389648</ele>
        <time>2015-11-11T15:27:00Z</time>
      </trkpt>
      <trkpt lat="43.42691" lon="6.06328">
        <ele>287.60000610352</ele>
        <time>2015-11-11T15:27:02Z</time>
      </trkpt>
      <trkpt lat="43.42689" lon="6.06327">
        <ele>287.60000610352</ele>
        <time>2015-11-11T15:27:04Z</time>
      </trkpt>
      <trkpt lat="43.42688" lon="6.06327">
        <ele>287.60000610352</ele>
        <time>2015-11-11T15:27:06Z</time>
      </trkpt>
      <trkpt lat="43.42688" lon="6.06327">
        <ele>287.79998779297</ele>
        <time>2015-11-11T15:27:10Z</time>
      </trkpt>
      <trkpt lat="43.42688" lon="6.06327">
        <ele>287.79998779297</ele>
        <time>2015-11-11T15:27:44Z</time>
      </trkpt>
      <trkpt lat="43.42688" lon="6.06327">
        <ele>287.79998779297</ele>
        <time>2015-11-11T15:27:46Z</time>
      </trkpt>
      <trkpt lat="43.42687" lon="6.06326">
        <ele>287.79998779297</ele>
        <time>2015-11-11T15:27:48Z</time>
      </trkpt>
      <trkpt lat="43.42683" lon="6.06323">
        <ele>287.60000610352</ele>
        <time>2015-11-11T15:27:50Z</time>
      </trkpt>
      <trkpt lat="43.42678" lon="6.06321">
        <ele>286.60000610352</ele>
        <time>2015-11-11T15:27:52Z</time>
      </trkpt>
      <trkpt lat="43.42673" lon="6.0632">
        <ele>286</ele>
        <time>2015-11-11T15:27:53Z</time>
      </trkpt>
      <trkpt lat="43.42668" lon="6.06319">
        <ele>285.20001220703</ele>
        <time>2015-11-11T15:27:54Z</time>
      </trkpt>
      <trkpt lat="43.42663" lon="6.06318">
        <ele>285</ele>
        <time>2015-11-11T15:27:55Z</time>
      </trkpt>
      <trkpt lat="43.42658" lon="6.06318">
        <ele>284.60000610352</ele>
        <time>2015-11-11T15:27:56Z</time>
      </trkpt>
      <trkpt lat="43.42648" lon="6.06317">
        <ele>284.20001220703</ele>
        <time>2015-11-11T15:27:58Z</time>
      </trkpt>
      <trkpt lat="43.42644" lon="6.06316">
        <ele>284.20001220703</ele>
        <time>2015-11-11T15:27:59Z</time>
      </trkpt>
      <trkpt lat="43.4264" lon="6.06315">
        <ele>283.79998779297</ele>
        <time>2015-11-11T15:28:00Z</time>
      </trkpt>
      <trkpt lat="43.42635" lon="6.06313">
        <ele>283.39999389648</ele>
        <time>2015-11-11T15:28:01Z</time>
      </trkpt>
      <trkpt lat="43.4263" lon="6.06311">
        <ele>283</ele>
        <time>2015-11-11T15:28:02Z</time>
      </trkpt>
      <trkpt lat="43.42626" lon="6.06308">
        <ele>282.60000610352</ele>
        <time>2015-11-11T15:28:03Z</time>
      </trkpt>
      <trkpt lat="43.42617" lon="6.06305">
        <ele>282.20001220703</ele>
        <time>2015-11-11T15:28:05Z</time>
      </trkpt>
      <trkpt lat="43.42608" lon="6.06306">
        <ele>282.20001220703</ele>
        <time>2015-11-11T15:28:07Z</time>
      </trkpt>
      <trkpt lat="43.42604" lon="6.06308">
        <ele>282</ele>
        <time>2015-11-11T15:28:08Z</time>
      </trkpt>
      <trkpt lat="43.42588" lon="6.06319">
        <ele>281.20001220703</ele>
        <time>2015-11-11T15:28:12Z</time>
      </trkpt>
      <trkpt lat="43.42584" lon="6.06323">
        <ele>281</ele>
        <time>2015-11-11T15:28:13Z</time>
      </trkpt>
      <trkpt lat="43.42581" lon="6.06327">
        <ele>280.79998779297</ele>
        <time>2015-11-11T15:28:14Z</time>
      </trkpt>
      <trkpt lat="43.42574" lon="6.06332">
        <ele>280.39999389648</ele>
        <time>2015-11-11T15:28:16Z</time>
      </trkpt>
      <trkpt lat="43.4257" lon="6.06333">
        <ele>280.20001220703</ele>
        <time>2015-11-11T15:28:17Z</time>
      </trkpt>
      <trkpt lat="43.42568" lon="6.06335">
        <ele>279.79998779297</ele>
        <time>2015-11-11T15:28:18Z</time>
      </trkpt>
      <trkpt lat="43.42562" lon="6.06338">
        <ele>279.39999389648</ele>
        <time>2015-11-11T15:28:20Z</time>
      </trkpt>
      <trkpt lat="43.42559" lon="6.06341">
        <ele>279</ele>
        <time>2015-11-11T15:28:21Z</time>
      </trkpt>
      <trkpt lat="43.42555" lon="6.06344">
        <ele>279</ele>
        <time>2015-11-11T15:28:22Z</time>
      </trkpt>
      <trkpt lat="43.42547" lon="6.06349">
        <ele>278.39999389648</ele>
        <time>2015-11-11T15:28:24Z</time>
      </trkpt>
      <trkpt lat="43.42543" lon="6.06351">
        <ele>278</ele>
        <time>2015-11-11T15:28:25Z</time>
      </trkpt>
      <trkpt lat="43.42539" lon="6.06353">
        <ele>277.79998779297</ele>
        <time>2015-11-11T15:28:26Z</time>
      </trkpt>
      <trkpt lat="43.42531" lon="6.06357">
        <ele>277.39999389648</ele>
        <time>2015-11-11T15:28:28Z</time>
      </trkpt>
      <trkpt lat="43.42527" lon="6.06359">
        <ele>277.20001220703</ele>
        <time>2015-11-11T15:28:29Z</time>
      </trkpt>
      <trkpt lat="43.42522" lon="6.06359">
        <ele>277</ele>
        <time>2015-11-11T15:28:30Z</time>
      </trkpt>
      <trkpt lat="43.42512" lon="6.06363">
        <ele>276.39999389648</ele>
        <time>2015-11-11T15:28:32Z</time>
      </trkpt>
      <trkpt lat="43.42507" lon="6.06366">
        <ele>275.60000610352</ele>
        <time>2015-11-11T15:28:33Z</time>
      </trkpt>
      <trkpt lat="43.42496" lon="6.06373">
        <ele>274.79998779297</ele>
        <time>2015-11-11T15:28:35Z</time>
      </trkpt>
      <trkpt lat="43.4249" lon="6.06375">
        <ele>274.39999389648</ele>
        <time>2015-11-11T15:28:36Z</time>
      </trkpt>
      <trkpt lat="43.42478" lon="6.06375">
        <ele>273.60000610352</ele>
        <time>2015-11-11T15:28:38Z</time>
      </trkpt>
      <trkpt lat="43.42466" lon="6.06377">
        <ele>273.39999389648</ele>
        <time>2015-11-11T15:28:40Z</time>
      </trkpt>
      <trkpt lat="43.42454" lon="6.0638">
        <ele>273</ele>
        <time>2015-11-11T15:28:42Z</time>
      </trkpt>
      <trkpt lat="43.42448" lon="6.06384">
        <ele>272.79998779297</ele>
        <time>2015-11-11T15:28:43Z</time>
      </trkpt>
      <trkpt lat="43.42443" lon="6.06388">
        <ele>272.79998779297</ele>
        <time>2015-11-11T15:28:44Z</time>
      </trkpt>
      <trkpt lat="43.42434" lon="6.06397">
        <ele>273</ele>
        <time>2015-11-11T15:28:46Z</time>
      </trkpt>
      <trkpt lat="43.4242" lon="6.06406">
        <ele>273.20001220703</ele>
        <time>2015-11-11T15:28:49Z</time>
      </trkpt>
      <trkpt lat="43.42415" lon="6.06406">
        <ele>273.20001220703</ele>
        <time>2015-11-11T15:28:50Z</time>
      </trkpt>
      <trkpt lat="43.42406" lon="6.06403">
        <ele>273.39999389648</ele>
        <time>2015-11-11T15:28:52Z</time>
      </trkpt>
      <trkpt lat="43.42395" lon="6.06398">
        <ele>272.79998779297</ele>
        <time>2015-11-11T15:28:54Z</time>
      </trkpt>
      <trkpt lat="43.42384" lon="6.06395">
        <ele>272</ele>
        <time>2015-11-11T15:28:56Z</time>
      </trkpt>
      <trkpt lat="43.42375" lon="6.06398">
        <ele>271.20001220703</ele>
        <time>2015-11-11T15:28:58Z</time>
      </trkpt>
      <trkpt lat="43.4237" lon="6.06401">
        <ele>270.39999389648</ele>
        <time>2015-11-11T15:28:59Z</time>
      </trkpt>
      <trkpt lat="43.42366" lon="6.06406">
        <ele>270.39999389648</ele>
        <time>2015-11-11T15:29:00Z</time>
      </trkpt>
      <trkpt lat="43.42362" lon="6.06411">
        <ele>270.39999389648</ele>
        <time>2015-11-11T15:29:01Z</time>
      </trkpt>
      <trkpt lat="43.42357" lon="6.06415">
        <ele>270.60000610352</ele>
        <time>2015-11-11T15:29:02Z</time>
      </trkpt>
      <trkpt lat="43.42339" lon="6.06429">
        <ele>270.79998779297</ele>
        <time>2015-11-11T15:29:06Z</time>
      </trkpt>
      <trkpt lat="43.42335" lon="6.06432">
        <ele>271</ele>
        <time>2015-11-11T15:29:07Z</time>
      </trkpt>
      <trkpt lat="43.42331" lon="6.06436">
        <ele>271</ele>
        <time>2015-11-11T15:29:08Z</time>
      </trkpt>
      <trkpt lat="43.42323" lon="6.06444">
        <ele>270.79998779297</ele>
        <time>2015-11-11T15:29:10Z</time>
      </trkpt>
      <trkpt lat="43.42314" lon="6.06454">
        <ele>269.79998779297</ele>
        <time>2015-11-11T15:29:12Z</time>
      </trkpt>
      <trkpt lat="43.42309" lon="6.0646">
        <ele>269.20001220703</ele>
        <time>2015-11-11T15:29:13Z</time>
      </trkpt>
      <trkpt lat="43.42305" lon="6.06465">
        <ele>268.60000610352</ele>
        <time>2015-11-11T15:29:14Z</time>
      </trkpt>
      <trkpt lat="43.42297" lon="6.06475">
        <ele>268</ele>
        <time>2015-11-11T15:29:16Z</time>
      </trkpt>
      <trkpt lat="43.4229" lon="6.06487">
        <ele>267.20001220703</ele>
        <time>2015-11-11T15:29:18Z</time>
      </trkpt>
      <trkpt lat="43.42285" lon="6.06493">
        <ele>266.79998779297</ele>
        <time>2015-11-11T15:29:19Z</time>
      </trkpt>
      <trkpt lat="43.42279" lon="6.06499">
        <ele>266.20001220703</ele>
        <time>2015-11-11T15:29:20Z</time>
      </trkpt>
      <trkpt lat="43.42274" lon="6.06503">
        <ele>265.39999389648</ele>
        <time>2015-11-11T15:29:21Z</time>
      </trkpt>
      <trkpt lat="43.4227" lon="6.06505">
        <ele>265</ele>
        <time>2015-11-11T15:29:22Z</time>
      </trkpt>
      <trkpt lat="43.42265" lon="6.06509">
        <ele>265</ele>
        <time>2015-11-11T15:29:23Z</time>
      </trkpt>
      <trkpt lat="43.42261" lon="6.0651">
        <ele>264.79998779297</ele>
        <time>2015-11-11T15:29:24Z</time>
      </trkpt>
      <trkpt lat="43.42256" lon="6.0651">
        <ele>264.39999389648</ele>
        <time>2015-11-11T15:29:25Z</time>
      </trkpt>
      <trkpt lat="43.42241" lon="6.06507">
        <ele>263.39999389648</ele>
        <time>2015-11-11T15:29:28Z</time>
      </trkpt>
      <trkpt lat="43.42231" lon="6.06504">
        <ele>263</ele>
        <time>2015-11-11T15:29:30Z</time>
      </trkpt>
      <trkpt lat="43.42221" lon="6.06503">
        <ele>262.39999389648</ele>
        <time>2015-11-11T15:29:32Z</time>
      </trkpt>
      <trkpt lat="43.42215" lon="6.06503">
        <ele>262.20001220703</ele>
        <time>2015-11-11T15:29:33Z</time>
      </trkpt>
      <trkpt lat="43.4221" lon="6.06503">
        <ele>261.79998779297</ele>
        <time>2015-11-11T15:29:34Z</time>
      </trkpt>
      <trkpt lat="43.42205" lon="6.06503">
        <ele>261.39999389648</ele>
        <time>2015-11-11T15:29:35Z</time>
      </trkpt>
      <trkpt lat="43.42202" lon="6.06503">
        <ele>261.20001220703</ele>
        <time>2015-11-11T15:29:36Z</time>
      </trkpt>
      <trkpt lat="43.42199" lon="6.06501">
        <ele>261</ele>
        <time>2015-11-11T15:29:37Z</time>
      </trkpt>
      <trkpt lat="43.42198" lon="6.06498">
        <ele>260.79998779297</ele>
        <time>2015-11-11T15:29:38Z</time>
      </trkpt>
      <trkpt lat="43.42195" lon="6.06495">
        <ele>260.79998779297</ele>
        <time>2015-11-11T15:29:40Z</time>
      </trkpt>
      <trkpt lat="43.42196" lon="6.06492">
        <ele>260.79998779297</ele>
        <time>2015-11-11T15:29:41Z</time>
      </trkpt>
      <trkpt lat="43.42194" lon="6.0649">
        <ele>261.20001220703</ele>
        <time>2015-11-11T15:29:42Z</time>
      </trkpt>
      <trkpt lat="43.42194" lon="6.06487">
        <ele>261</ele>
        <time>2015-11-11T15:29:43Z</time>
      </trkpt>
      <trkpt lat="43.42191" lon="6.06478">
        <ele>261.20001220703</ele>
        <time>2015-11-11T15:29:46Z</time>
      </trkpt>
      <trkpt lat="43.42189" lon="6.0647">
        <ele>261</ele>
        <time>2015-11-11T15:29:48Z</time>
      </trkpt>
      <trkpt lat="43.42188" lon="6.06462">
        <ele>261</ele>
        <time>2015-11-11T15:29:50Z</time>
      </trkpt>
      <trkpt lat="43.42186" lon="6.06455">
        <ele>260.79998779297</ele>
        <time>2015-11-11T15:29:52Z</time>
      </trkpt>
      <trkpt lat="43.42185" lon="6.06448">
        <ele>260.79998779297</ele>
        <time>2015-11-11T15:29:54Z</time>
      </trkpt>
      <trkpt lat="43.42181" lon="6.06437">
        <ele>261</ele>
        <time>2015-11-11T15:29:57Z</time>
      </trkpt>
      <trkpt lat="43.4218" lon="6.06432">
        <ele>261</ele>
        <time>2015-11-11T15:29:58Z</time>
      </trkpt>
      <trkpt lat="43.42179" lon="6.06422">
        <ele>261.20001220703</ele>
        <time>2015-11-11T15:30:00Z</time>
      </trkpt>
      <trkpt lat="43.42176" lon="6.06412">
        <ele>261</ele>
        <time>2015-11-11T15:30:02Z</time>
      </trkpt>
      <trkpt lat="43.42175" lon="6.06402">
        <ele>260.79998779297</ele>
        <time>2015-11-11T15:30:04Z</time>
      </trkpt>
      <trkpt lat="43.42173" lon="6.0639">
        <ele>260.79998779297</ele>
        <time>2015-11-11T15:30:06Z</time>
      </trkpt>
      <trkpt lat="43.4217" lon="6.0638">
        <ele>260.39999389648</ele>
        <time>2015-11-11T15:30:08Z</time>
      </trkpt>
      <trkpt lat="43.42169" lon="6.06369">
        <ele>260.39999389648</ele>
        <time>2015-11-11T15:30:10Z</time>
      </trkpt>
      <trkpt lat="43.42167" lon="6.06358">
        <ele>260.20001220703</ele>
        <time>2015-11-11T15:30:12Z</time>
      </trkpt>
      <trkpt lat="43.42164" lon="6.06347">
        <ele>260.39999389648</ele>
        <time>2015-11-11T15:30:14Z</time>
      </trkpt>
      <trkpt lat="43.42162" lon="6.06332">
        <ele>260.60000610352</ele>
        <time>2015-11-11T15:30:17Z</time>
      </trkpt>
      <trkpt lat="43.42161" lon="6.06326">
        <ele>260.60000610352</ele>
        <time>2015-11-11T15:30:18Z</time>
      </trkpt>
      <trkpt lat="43.4216" lon="6.06316">
        <ele>261</ele>
        <time>2015-11-11T15:30:20Z</time>
      </trkpt>
      <trkpt lat="43.42159" lon="6.06305">
        <ele>261.79998779297</ele>
        <time>2015-11-11T15:30:22Z</time>
      </trkpt>
      <trkpt lat="43.42157" lon="6.06295">
        <ele>262.60000610352</ele>
        <time>2015-11-11T15:30:24Z</time>
      </trkpt>
      <trkpt lat="43.42156" lon="6.06285">
        <ele>263.20001220703</ele>
        <time>2015-11-11T15:30:26Z</time>
      </trkpt>
      <trkpt lat="43.42155" lon="6.06276">
        <ele>263.79998779297</ele>
        <time>2015-11-11T15:30:28Z</time>
      </trkpt>
      <trkpt lat="43.42155" lon="6.06271">
        <ele>264.20001220703</ele>
        <time>2015-11-11T15:30:29Z</time>
      </trkpt>
      <trkpt lat="43.42155" lon="6.06266">
        <ele>264.39999389648</ele>
        <time>2015-11-11T15:30:30Z</time>
      </trkpt>
      <trkpt lat="43.42155" lon="6.06258">
        <ele>265</ele>
        <time>2015-11-11T15:30:32Z</time>
      </trkpt>
      <trkpt lat="43.42155" lon="6.0625">
        <ele>265.39999389648</ele>
        <time>2015-11-11T15:30:34Z</time>
      </trkpt>
      <trkpt lat="43.42154" lon="6.06237">
        <ele>266.39999389648</ele>
        <time>2015-11-11T15:30:38Z</time>
      </trkpt>
      <trkpt lat="43.42153" lon="6.06231">
        <ele>266.60000610352</ele>
        <time>2015-11-11T15:30:40Z</time>
      </trkpt>
      <trkpt lat="43.42153" lon="6.06229">
        <ele>267</ele>
        <time>2015-11-11T15:30:41Z</time>
      </trkpt>
      <trkpt lat="43.42152" lon="6.06227">
        <ele>267.20001220703</ele>
        <time>2015-11-11T15:30:42Z</time>
      </trkpt>
      <trkpt lat="43.4215" lon="6.06223">
        <ele>267.60000610352</ele>
        <time>2015-11-11T15:30:44Z</time>
      </trkpt>
      <trkpt lat="43.42149" lon="6.06221">
        <ele>267.60000610352</ele>
        <time>2015-11-11T15:30:45Z</time>
      </trkpt>
      <trkpt lat="43.42146" lon="6.06218">
        <ele>267.60000610352</ele>
        <time>2015-11-11T15:30:47Z</time>
      </trkpt>
      <trkpt lat="43.42144" lon="6.06218">
        <ele>267.60000610352</ele>
        <time>2015-11-11T15:30:48Z</time>
      </trkpt>
      <trkpt lat="43.42141" lon="6.06218">
        <ele>267.79998779297</ele>
        <time>2015-11-11T15:30:50Z</time>
      </trkpt>
      <trkpt lat="43.42138" lon="6.06218">
        <ele>267.60000610352</ele>
        <time>2015-11-11T15:30:52Z</time>
      </trkpt>
      <trkpt lat="43.42135" lon="6.06217">
        <ele>267.60000610352</ele>
        <time>2015-11-11T15:30:54Z</time>
      </trkpt>
      <trkpt lat="43.42136" lon="6.06217">
        <ele>267.39999389648</ele>
        <time>2015-11-11T15:30:56Z</time>
      </trkpt>
      <trkpt lat="43.42136" lon="6.06217">
        <ele>267.39999389648</ele>
        <time>2015-11-11T15:31:04Z</time>
      </trkpt>
      <trkpt lat="43.42136" lon="6.06217">
        <ele>267.39999389648</ele>
        <time>2015-11-11T15:31:10Z</time>
      </trkpt>
      <trkpt lat="43.42135" lon="6.06217">
        <ele>267.39999389648</ele>
        <time>2015-11-11T15:31:12Z</time>
      </trkpt>
      <trkpt lat="43.42134" lon="6.06218">
        <ele>267.39999389648</ele>
        <time>2015-11-11T15:31:14Z</time>
      </trkpt>
      <trkpt lat="43.42134" lon="6.06218">
        <ele>267.39999389648</ele>
        <time>2015-11-11T15:31:16Z</time>
      </trkpt>
      <trkpt lat="43.42134" lon="6.06218">
        <ele>267.20001220703</ele>
        <time>2015-11-11T15:31:20Z</time>
      </trkpt>
      <trkpt lat="43.42134" lon="6.06218">
        <ele>267.20001220703</ele>
        <time>2015-11-11T15:31:42Z</time>
      </trkpt>
      <trkpt lat="43.42133" lon="6.0622">
        <ele>267.39999389648</ele>
        <time>2015-11-11T15:31:44Z</time>
      </trkpt>
      <trkpt lat="43.42127" lon="6.06221">
        <ele>267</ele>
        <time>2015-11-11T15:31:46Z</time>
      </trkpt>
      <trkpt lat="43.42122" lon="6.06223">
        <ele>266.39999389648</ele>
        <time>2015-11-11T15:31:48Z</time>
      </trkpt>
      <trkpt lat="43.42115" lon="6.06224">
        <ele>266</ele>
        <time>2015-11-11T15:31:50Z</time>
      </trkpt>
      <trkpt lat="43.42109" lon="6.06226">
        <ele>265.79998779297</ele>
        <time>2015-11-11T15:31:52Z</time>
      </trkpt>
      <trkpt lat="43.42103" lon="6.06228">
        <ele>265.20001220703</ele>
        <time>2015-11-11T15:31:54Z</time>
      </trkpt>
      <trkpt lat="43.42094" lon="6.06231">
        <ele>264.20001220703</ele>
        <time>2015-11-11T15:31:56Z</time>
      </trkpt>
      <trkpt lat="43.42089" lon="6.06233">
        <ele>263.39999389648</ele>
        <time>2015-11-11T15:31:57Z</time>
      </trkpt>
      <trkpt lat="43.42084" lon="6.06235">
        <ele>263</ele>
        <time>2015-11-11T15:31:58Z</time>
      </trkpt>
      <trkpt lat="43.42072" lon="6.06239">
        <ele>261.39999389648</ele>
        <time>2015-11-11T15:32:00Z</time>
      </trkpt>
      <trkpt lat="43.42057" lon="6.06244">
        <ele>259.60000610352</ele>
        <time>2015-11-11T15:32:02Z</time>
      </trkpt>
      <trkpt lat="43.42042" lon="6.06249">
        <ele>257.60000610352</ele>
        <time>2015-11-11T15:32:04Z</time>
      </trkpt>
      <trkpt lat="43.42033" lon="6.06252">
        <ele>256.39999389648</ele>
        <time>2015-11-11T15:32:05Z</time>
      </trkpt>
      <trkpt lat="43.42026" lon="6.06255">
        <ele>255.60000610352</ele>
        <time>2015-11-11T15:32:06Z</time>
      </trkpt>
      <trkpt lat="43.42021" lon="6.06257">
        <ele>255</ele>
        <time>2015-11-11T15:32:07Z</time>
      </trkpt>
      <trkpt lat="43.42017" lon="6.06259">
        <ele>254.60000610352</ele>
        <time>2015-11-11T15:32:08Z</time>
      </trkpt>
      <trkpt lat="43.42007" lon="6.06262">
        <ele>254</ele>
        <time>2015-11-11T15:32:10Z</time>
      </trkpt>
      <trkpt lat="43.42002" lon="6.06263">
        <ele>253.39999389648</ele>
        <time>2015-11-11T15:32:11Z</time>
      </trkpt>
      <trkpt lat="43.41996" lon="6.06265">
        <ele>252.60000610352</ele>
        <time>2015-11-11T15:32:12Z</time>
      </trkpt>
      <trkpt lat="43.41985" lon="6.0627">
        <ele>250.80000305176</ele>
        <time>2015-11-11T15:32:14Z</time>
      </trkpt>
      <trkpt lat="43.41974" lon="6.06273">
        <ele>249.60000610352</ele>
        <time>2015-11-11T15:32:16Z</time>
      </trkpt>
      <trkpt lat="43.41951" lon="6.0628">
        <ele>247.19999694824</ele>
        <time>2015-11-11T15:32:20Z</time>
      </trkpt>
      <trkpt lat="43.41935" lon="6.06285">
        <ele>246</ele>
        <time>2015-11-11T15:32:23Z</time>
      </trkpt>
      <trkpt lat="43.41929" lon="6.06286">
        <ele>246.19999694824</ele>
        <time>2015-11-11T15:32:24Z</time>
      </trkpt>
      <trkpt lat="43.41918" lon="6.06289">
        <ele>245.80000305176</ele>
        <time>2015-11-11T15:32:26Z</time>
      </trkpt>
      <trkpt lat="43.41906" lon="6.06291">
        <ele>245.19999694824</ele>
        <time>2015-11-11T15:32:28Z</time>
      </trkpt>
      <trkpt lat="43.41901" lon="6.06291">
        <ele>244.80000305176</ele>
        <time>2015-11-11T15:32:29Z</time>
      </trkpt>
      <trkpt lat="43.41895" lon="6.06291">
        <ele>244.39999389648</ele>
        <time>2015-11-11T15:32:30Z</time>
      </trkpt>
      <trkpt lat="43.41883" lon="6.0629">
        <ele>243.60000610352</ele>
        <time>2015-11-11T15:32:32Z</time>
      </trkpt>
      <trkpt lat="43.41871" lon="6.06289">
        <ele>242.80000305176</ele>
        <time>2015-11-11T15:32:34Z</time>
      </trkpt>
      <trkpt lat="43.41858" lon="6.06289">
        <ele>242.19999694824</ele>
        <time>2015-11-11T15:32:36Z</time>
      </trkpt>
      <trkpt lat="43.41845" lon="6.06288">
        <ele>241.19999694824</ele>
        <time>2015-11-11T15:32:38Z</time>
      </trkpt>
      <trkpt lat="43.41832" lon="6.06288">
        <ele>240.60000610352</ele>
        <time>2015-11-11T15:32:40Z</time>
      </trkpt>
      <trkpt lat="43.41821" lon="6.06288">
        <ele>240.39999389648</ele>
        <time>2015-11-11T15:32:42Z</time>
      </trkpt>
      <trkpt lat="43.41811" lon="6.06287">
        <ele>240.19999694824</ele>
        <time>2015-11-11T15:32:44Z</time>
      </trkpt>
      <trkpt lat="43.41805" lon="6.06284">
        <ele>239.80000305176</ele>
        <time>2015-11-11T15:32:45Z</time>
      </trkpt>
      <trkpt lat="43.418" lon="6.06281">
        <ele>239.60000610352</ele>
        <time>2015-11-11T15:32:46Z</time>
      </trkpt>
      <trkpt lat="43.41787" lon="6.06268">
        <ele>238.19999694824</ele>
        <time>2015-11-11T15:32:49Z</time>
      </trkpt>
      <trkpt lat="43.41782" lon="6.06264">
        <ele>238</ele>
        <time>2015-11-11T15:32:50Z</time>
      </trkpt>
      <trkpt lat="43.41771" lon="6.06257">
        <ele>237.39999389648</ele>
        <time>2015-11-11T15:32:52Z</time>
      </trkpt>
      <trkpt lat="43.41758" lon="6.06251">
        <ele>236.60000610352</ele>
        <time>2015-11-11T15:32:54Z</time>
      </trkpt>
      <trkpt lat="43.41745" lon="6.06248">
        <ele>235.80000305176</ele>
        <time>2015-11-11T15:32:56Z</time>
      </trkpt>
      <trkpt lat="43.41731" lon="6.06246">
        <ele>234.39999389648</ele>
        <time>2015-11-11T15:32:58Z</time>
      </trkpt>
      <trkpt lat="43.41717" lon="6.06246">
        <ele>233</ele>
        <time>2015-11-11T15:33:00Z</time>
      </trkpt>
      <trkpt lat="43.4171" lon="6.06246">
        <ele>233</ele>
        <time>2015-11-11T15:33:01Z</time>
      </trkpt>
      <trkpt lat="43.41704" lon="6.06247">
        <ele>233.19999694824</ele>
        <time>2015-11-11T15:33:02Z</time>
      </trkpt>
      <trkpt lat="43.41692" lon="6.06247">
        <ele>233.60000610352</ele>
        <time>2015-11-11T15:33:04Z</time>
      </trkpt>
      <trkpt lat="43.4167" lon="6.06245">
        <ele>234.19999694824</ele>
        <time>2015-11-11T15:33:08Z</time>
      </trkpt>
      <trkpt lat="43.4166" lon="6.06243">
        <ele>234.19999694824</ele>
        <time>2015-11-11T15:33:10Z</time>
      </trkpt>
      <trkpt lat="43.4165" lon="6.0624">
        <ele>234</ele>
        <time>2015-11-11T15:33:12Z</time>
      </trkpt>
      <trkpt lat="43.41644" lon="6.06236">
        <ele>234</ele>
        <time>2015-11-11T15:33:14Z</time>
      </trkpt>
      <trkpt lat="43.41636" lon="6.06232">
        <ele>233.39999389648</ele>
        <time>2015-11-11T15:33:16Z</time>
      </trkpt>
      <trkpt lat="43.41629" lon="6.06229">
        <ele>233</ele>
        <time>2015-11-11T15:33:18Z</time>
      </trkpt>
      <trkpt lat="43.41622" lon="6.06229">
        <ele>232.60000610352</ele>
        <time>2015-11-11T15:33:20Z</time>
      </trkpt>
      <trkpt lat="43.41619" lon="6.06231">
        <ele>232.80000305176</ele>
        <time>2015-11-11T15:33:21Z</time>
      </trkpt>
      <trkpt lat="43.41616" lon="6.06231">
        <ele>232.80000305176</ele>
        <time>2015-11-11T15:33:22Z</time>
      </trkpt>
      <trkpt lat="43.4161" lon="6.06234">
        <ele>232.39999389648</ele>
        <time>2015-11-11T15:33:24Z</time>
      </trkpt>
      <trkpt lat="43.41606" lon="6.06234">
        <ele>232.19999694824</ele>
        <time>2015-11-11T15:33:26Z</time>
      </trkpt>
      <trkpt lat="43.41607" lon="6.06234">
        <ele>232.39999389648</ele>
        <time>2015-11-11T15:33:28Z</time>
      </trkpt>
      <trkpt lat="43.41607" lon="6.06234">
        <ele>232.39999389648</ele>
        <time>2015-11-11T15:33:30Z</time>
      </trkpt>
      <trkpt lat="43.41607" lon="6.06234">
        <ele>232.19999694824</ele>
        <time>2015-11-11T15:33:32Z</time>
      </trkpt>
      <trkpt lat="43.41606" lon="6.06237">
        <ele>232.39999389648</ele>
        <time>2015-11-11T15:33:34Z</time>
      </trkpt>
      <trkpt lat="43.41605" lon="6.06241">
        <ele>232.19999694824</ele>
        <time>2015-11-11T15:33:36Z</time>
      </trkpt>
      <trkpt lat="43.41604" lon="6.06245">
        <ele>232.19999694824</ele>
        <time>2015-11-11T15:33:38Z</time>
      </trkpt>
      <trkpt lat="43.41603" lon="6.06256">
        <ele>232.39999389648</ele>
        <time>2015-11-11T15:33:43Z</time>
      </trkpt>
      <trkpt lat="43.41602" lon="6.06258">
        <ele>232.39999389648</ele>
        <time>2015-11-11T15:33:44Z</time>
      </trkpt>
      <trkpt lat="43.41599" lon="6.0626">
        <ele>232.19999694824</ele>
        <time>2015-11-11T15:33:46Z</time>
      </trkpt>
      <trkpt lat="43.41596" lon="6.06261">
        <ele>232</ele>
        <time>2015-11-11T15:33:47Z</time>
      </trkpt>
      <trkpt lat="43.41593" lon="6.06263">
        <ele>232</ele>
        <time>2015-11-11T15:33:48Z</time>
      </trkpt>
      <trkpt lat="43.41588" lon="6.06267">
        <ele>231.80000305176</ele>
        <time>2015-11-11T15:33:50Z</time>
      </trkpt>
      <trkpt lat="43.41584" lon="6.06273">
        <ele>231.19999694824</ele>
        <time>2015-11-11T15:33:52Z</time>
      </trkpt>
      <trkpt lat="43.41584" lon="6.06278">
        <ele>231.19999694824</ele>
        <time>2015-11-11T15:33:54Z</time>
      </trkpt>
      <trkpt lat="43.41584" lon="6.06285">
        <ele>231</ele>
        <time>2015-11-11T15:33:56Z</time>
      </trkpt>
      <trkpt lat="43.41585" lon="6.06292">
        <ele>231</ele>
        <time>2015-11-11T15:33:58Z</time>
      </trkpt>
      <trkpt lat="43.41585" lon="6.06296">
        <ele>231</ele>
        <time>2015-11-11T15:33:59Z</time>
      </trkpt>
      <trkpt lat="43.41586" lon="6.063">
        <ele>230.80000305176</ele>
        <time>2015-11-11T15:34:00Z</time>
      </trkpt>
      <trkpt lat="43.41584" lon="6.06311">
        <ele>230.39999389648</ele>
        <time>2015-11-11T15:34:02Z</time>
      </trkpt>
      <trkpt lat="43.41578" lon="6.06322">
        <ele>229.60000610352</ele>
        <time>2015-11-11T15:34:04Z</time>
      </trkpt>
      <trkpt lat="43.4157" lon="6.06333">
        <ele>229</ele>
        <time>2015-11-11T15:34:06Z</time>
      </trkpt>
      <trkpt lat="43.41566" lon="6.0634">
        <ele>228.60000610352</ele>
        <time>2015-11-11T15:34:07Z</time>
      </trkpt>
      <trkpt lat="43.41562" lon="6.06348">
        <ele>228</ele>
        <time>2015-11-11T15:34:08Z</time>
      </trkpt>
      <trkpt lat="43.41558" lon="6.06357">
        <ele>227.60000610352</ele>
        <time>2015-11-11T15:34:09Z</time>
      </trkpt>
      <trkpt lat="43.41556" lon="6.06366">
        <ele>227</ele>
        <time>2015-11-11T15:34:10Z</time>
      </trkpt>
      <trkpt lat="43.41552" lon="6.06384">
        <ele>226.19999694824</ele>
        <time>2015-11-11T15:34:12Z</time>
      </trkpt>
      <trkpt lat="43.41549" lon="6.06403">
        <ele>225</ele>
        <time>2015-11-11T15:34:14Z</time>
      </trkpt>
      <trkpt lat="43.41545" lon="6.06423">
        <ele>223.80000305176</ele>
        <time>2015-11-11T15:34:16Z</time>
      </trkpt>
      <trkpt lat="43.41544" lon="6.06436">
        <ele>223.39999389648</ele>
        <time>2015-11-11T15:34:18Z</time>
      </trkpt>
      <trkpt lat="43.41544" lon="6.06451">
        <ele>223.60000610352</ele>
        <time>2015-11-11T15:34:22Z</time>
      </trkpt>
      <trkpt lat="43.41544" lon="6.06455">
        <ele>223.39999389648</ele>
        <time>2015-11-11T15:34:24Z</time>
      </trkpt>
      <trkpt lat="43.41545" lon="6.06458">
        <ele>223.39999389648</ele>
        <time>2015-11-11T15:34:26Z</time>
      </trkpt>
      <trkpt lat="43.41544" lon="6.0646">
        <ele>223.39999389648</ele>
        <time>2015-11-11T15:34:27Z</time>
      </trkpt>
      <trkpt lat="43.41543" lon="6.06462">
        <ele>223.39999389648</ele>
        <time>2015-11-11T15:34:28Z</time>
      </trkpt>
      <trkpt lat="43.41539" lon="6.06463">
        <ele>223.39999389648</ele>
        <time>2015-11-11T15:34:30Z</time>
      </trkpt>
      <trkpt lat="43.41536" lon="6.06464">
        <ele>222.39999389648</ele>
        <time>2015-11-11T15:34:31Z</time>
      </trkpt>
      <trkpt lat="43.41533" lon="6.06468">
        <ele>221.39999389648</ele>
        <time>2015-11-11T15:34:32Z</time>
      </trkpt>
      <trkpt lat="43.41529" lon="6.06479">
        <ele>220.39999389648</ele>
        <time>2015-11-11T15:34:34Z</time>
      </trkpt>
      <trkpt lat="43.41529" lon="6.06485">
        <ele>220.39999389648</ele>
        <time>2015-11-11T15:34:35Z</time>
      </trkpt>
      <trkpt lat="43.41527" lon="6.06491">
        <ele>220.60000610352</ele>
        <time>2015-11-11T15:34:36Z</time>
      </trkpt>
      <trkpt lat="43.41523" lon="6.06503">
        <ele>220.80000305176</ele>
        <time>2015-11-11T15:34:38Z</time>
      </trkpt>
      <trkpt lat="43.41522" lon="6.06514">
        <ele>221.19999694824</ele>
        <time>2015-11-11T15:34:40Z</time>
      </trkpt>
      <trkpt lat="43.41521" lon="6.06521">
        <ele>221.39999389648</ele>
        <time>2015-11-11T15:34:41Z</time>
      </trkpt>
      <trkpt lat="43.4152" lon="6.06528">
        <ele>221.39999389648</ele>
        <time>2015-11-11T15:34:42Z</time>
      </trkpt>
      <trkpt lat="43.41518" lon="6.06534">
        <ele>221.19999694824</ele>
        <time>2015-11-11T15:34:43Z</time>
      </trkpt>
      <trkpt lat="43.41518" lon="6.06541">
        <ele>221</ele>
        <time>2015-11-11T15:34:44Z</time>
      </trkpt>
      <trkpt lat="43.41515" lon="6.06556">
        <ele>220.60000610352</ele>
        <time>2015-11-11T15:34:46Z</time>
      </trkpt>
      <trkpt lat="43.41513" lon="6.06574">
        <ele>220.39999389648</ele>
        <time>2015-11-11T15:34:48Z</time>
      </trkpt>
      <trkpt lat="43.41511" lon="6.06592">
        <ele>220.39999389648</ele>
        <time>2015-11-11T15:34:50Z</time>
      </trkpt>
      <trkpt lat="43.41508" lon="6.06611">
        <ele>220</ele>
        <time>2015-11-11T15:34:52Z</time>
      </trkpt>
      <trkpt lat="43.41505" lon="6.0663">
        <ele>219.60000610352</ele>
        <time>2015-11-11T15:34:54Z</time>
      </trkpt>
      <trkpt lat="43.41504" lon="6.06639">
        <ele>219.19999694824</ele>
        <time>2015-11-11T15:34:55Z</time>
      </trkpt>
      <trkpt lat="43.41502" lon="6.06649">
        <ele>219.39999389648</ele>
        <time>2015-11-11T15:34:56Z</time>
      </trkpt>
      <trkpt lat="43.41499" lon="6.06668">
        <ele>219.39999389648</ele>
        <time>2015-11-11T15:34:58Z</time>
      </trkpt>
      <trkpt lat="43.41497" lon="6.06687">
        <ele>219.19999694824</ele>
        <time>2015-11-11T15:35:00Z</time>
      </trkpt>
      <trkpt lat="43.41497" lon="6.06696">
        <ele>219</ele>
        <time>2015-11-11T15:35:01Z</time>
      </trkpt>
      <trkpt lat="43.41497" lon="6.06706">
        <ele>219.19999694824</ele>
        <time>2015-11-11T15:35:02Z</time>
      </trkpt>
      <trkpt lat="43.41496" lon="6.06726">
        <ele>218.80000305176</ele>
        <time>2015-11-11T15:35:04Z</time>
      </trkpt>
      <trkpt lat="43.41495" lon="6.06749">
        <ele>217.60000610352</ele>
        <time>2015-11-11T15:35:06Z</time>
      </trkpt>
      <trkpt lat="43.41494" lon="6.0676">
        <ele>217.19999694824</ele>
        <time>2015-11-11T15:35:07Z</time>
      </trkpt>
      <trkpt lat="43.41492" lon="6.06773">
        <ele>216.60000610352</ele>
        <time>2015-11-11T15:35:08Z</time>
      </trkpt>
      <trkpt lat="43.41488" lon="6.06797">
        <ele>215.39999389648</ele>
        <time>2015-11-11T15:35:10Z</time>
      </trkpt>
      <trkpt lat="43.41483" lon="6.06819">
        <ele>215.60000610352</ele>
        <time>2015-11-11T15:35:12Z</time>
      </trkpt>
      <trkpt lat="43.4148" lon="6.06827">
        <ele>215.80000305176</ele>
        <time>2015-11-11T15:35:13Z</time>
      </trkpt>
      <trkpt lat="43.41478" lon="6.06832">
        <ele>216.60000610352</ele>
        <time>2015-11-11T15:35:14Z</time>
      </trkpt>
      <trkpt lat="43.41476" lon="6.06834">
        <ele>217.19999694824</ele>
        <time>2015-11-11T15:35:15Z</time>
      </trkpt>
      <trkpt lat="43.41476" lon="6.06836">
        <ele>217.80000305176</ele>
        <time>2015-11-11T15:35:16Z</time>
      </trkpt>
      <trkpt lat="43.41476" lon="6.0684">
        <ele>218.39999389648</ele>
        <time>2015-11-11T15:35:18Z</time>
      </trkpt>
      <trkpt lat="43.41476" lon="6.06843">
        <ele>218.19999694824</ele>
        <time>2015-11-11T15:35:19Z</time>
      </trkpt>
      <trkpt lat="43.41475" lon="6.06846">
        <ele>218.19999694824</ele>
        <time>2015-11-11T15:35:20Z</time>
      </trkpt>
      <trkpt lat="43.41475" lon="6.06851">
        <ele>218.39999389648</ele>
        <time>2015-11-11T15:35:22Z</time>
      </trkpt>
      <trkpt lat="43.41474" lon="6.06856">
        <ele>218.60000610352</ele>
        <time>2015-11-11T15:35:24Z</time>
      </trkpt>
      <trkpt lat="43.41474" lon="6.06861">
        <ele>218.39999389648</ele>
        <time>2015-11-11T15:35:26Z</time>
      </trkpt>
      <trkpt lat="43.41476" lon="6.06866">
        <ele>218.60000610352</ele>
        <time>2015-11-11T15:35:28Z</time>
      </trkpt>
      <trkpt lat="43.41477" lon="6.06871">
        <ele>218.60000610352</ele>
        <time>2015-11-11T15:35:30Z</time>
      </trkpt>
      <trkpt lat="43.41478" lon="6.06875">
        <ele>218.80000305176</ele>
        <time>2015-11-11T15:35:32Z</time>
      </trkpt>
      <trkpt lat="43.41478" lon="6.06877">
        <ele>218.60000610352</ele>
        <time>2015-11-11T15:35:34Z</time>
      </trkpt>
      <trkpt lat="43.41478" lon="6.06876">
        <ele>218.39999389648</ele>
        <time>2015-11-11T15:35:36Z</time>
      </trkpt>
      <trkpt lat="43.41478" lon="6.06876">
        <ele>218.39999389648</ele>
        <time>2015-11-11T15:35:40Z</time>
      </trkpt>
      <trkpt lat="43.41478" lon="6.06876">
        <ele>218.39999389648</ele>
        <time>2015-11-11T15:35:56Z</time>
      </trkpt>
      <trkpt lat="43.41478" lon="6.06877">
        <ele>218.39999389648</ele>
        <time>2015-11-11T15:35:58Z</time>
      </trkpt>
      <trkpt lat="43.41476" lon="6.06883">
        <ele>218.19999694824</ele>
        <time>2015-11-11T15:36:00Z</time>
      </trkpt>
      <trkpt lat="43.41476" lon="6.06884">
        <ele>218.19999694824</ele>
        <time>2015-11-11T15:36:01Z</time>
      </trkpt>
      <trkpt lat="43.41476" lon="6.06883">
        <ele>218.19999694824</ele>
        <time>2015-11-11T15:36:02Z</time>
      </trkpt>
      <trkpt lat="43.41476" lon="6.06883">
        <ele>218.39999389648</ele>
        <time>2015-11-11T15:36:04Z</time>
      </trkpt>
      <trkpt lat="43.41476" lon="6.06884">
        <ele>218.19999694824</ele>
        <time>2015-11-11T15:36:06Z</time>
      </trkpt>
      <trkpt lat="43.41477" lon="6.06886">
        <ele>218.19999694824</ele>
        <time>2015-11-11T15:36:07Z</time>
      </trkpt>
      <trkpt lat="43.41477" lon="6.06889">
        <ele>218.19999694824</ele>
        <time>2015-11-11T15:36:08Z</time>
      </trkpt>
      <trkpt lat="43.41478" lon="6.06896">
        <ele>218.19999694824</ele>
        <time>2015-11-11T15:36:10Z</time>
      </trkpt>
      <trkpt lat="43.41478" lon="6.069">
        <ele>218.39999389648</ele>
        <time>2015-11-11T15:36:11Z</time>
      </trkpt>
      <trkpt lat="43.41477" lon="6.06903">
        <ele>218.39999389648</ele>
        <time>2015-11-11T15:36:12Z</time>
      </trkpt>
      <trkpt lat="43.41473" lon="6.06915">
        <ele>218.39999389648</ele>
        <time>2015-11-11T15:36:16Z</time>
      </trkpt>
      <trkpt lat="43.41471" lon="6.0692">
        <ele>218.39999389648</ele>
        <time>2015-11-11T15:36:18Z</time>
      </trkpt>
      <trkpt lat="43.4147" lon="6.06927">
        <ele>218.60000610352</ele>
        <time>2015-11-11T15:36:20Z</time>
      </trkpt>
      <trkpt lat="43.41473" lon="6.06934">
        <ele>218.19999694824</ele>
        <time>2015-11-11T15:36:22Z</time>
      </trkpt>
      <trkpt lat="43.41477" lon="6.06939">
        <ele>217.80000305176</ele>
        <time>2015-11-11T15:36:24Z</time>
      </trkpt>
      <trkpt lat="43.41483" lon="6.06943">
        <ele>217.80000305176</ele>
        <time>2015-11-11T15:36:26Z</time>
      </trkpt>
      <trkpt lat="43.41487" lon="6.06948">
        <ele>217.60000610352</ele>
        <time>2015-11-11T15:36:28Z</time>
      </trkpt>
      <trkpt lat="43.41489" lon="6.06951">
        <ele>217.60000610352</ele>
        <time>2015-11-11T15:36:29Z</time>
      </trkpt>
      <trkpt lat="43.41492" lon="6.06954">
        <ele>217.60000610352</ele>
        <time>2015-11-11T15:36:30Z</time>
      </trkpt>
      <trkpt lat="43.41496" lon="6.06959">
        <ele>217.80000305176</ele>
        <time>2015-11-11T15:36:32Z</time>
      </trkpt>
      <trkpt lat="43.41499" lon="6.06963">
        <ele>217.80000305176</ele>
        <time>2015-11-11T15:36:34Z</time>
      </trkpt>
      <trkpt lat="43.415" lon="6.06965">
        <ele>217.80000305176</ele>
        <time>2015-11-11T15:36:35Z</time>
      </trkpt>
      <trkpt lat="43.41502" lon="6.06966">
        <ele>217.80000305176</ele>
        <time>2015-11-11T15:36:36Z</time>
      </trkpt>
      <trkpt lat="43.41505" lon="6.06969">
        <ele>217.80000305176</ele>
        <time>2015-11-11T15:36:38Z</time>
      </trkpt>
      <trkpt lat="43.4151" lon="6.06972">
        <ele>217.80000305176</ele>
        <time>2015-11-11T15:36:40Z</time>
      </trkpt>
      <trkpt lat="43.41513" lon="6.06972">
        <ele>217.60000610352</ele>
        <time>2015-11-11T15:36:41Z</time>
      </trkpt>
      <trkpt lat="43.41517" lon="6.06972">
        <ele>217.60000610352</ele>
        <time>2015-11-11T15:36:42Z</time>
      </trkpt>
      <trkpt lat="43.41523" lon="6.06972">
        <ele>217.39999389648</ele>
        <time>2015-11-11T15:36:44Z</time>
      </trkpt>
      <trkpt lat="43.41529" lon="6.0697">
        <ele>217.39999389648</ele>
        <time>2015-11-11T15:36:46Z</time>
      </trkpt>
      <trkpt lat="43.41536" lon="6.06969">
        <ele>217.60000610352</ele>
        <time>2015-11-11T15:36:48Z</time>
      </trkpt>
      <trkpt lat="43.41542" lon="6.06968">
        <ele>217.60000610352</ele>
        <time>2015-11-11T15:36:50Z</time>
      </trkpt>
      <trkpt lat="43.41549" lon="6.06966">
        <ele>217.39999389648</ele>
        <time>2015-11-11T15:36:52Z</time>
      </trkpt>
      <trkpt lat="43.41553" lon="6.06965">
        <ele>217.60000610352</ele>
        <time>2015-11-11T15:36:53Z</time>
      </trkpt>
      <trkpt lat="43.41556" lon="6.06964">
        <ele>217.60000610352</ele>
        <time>2015-11-11T15:36:54Z</time>
      </trkpt>
      <trkpt lat="43.41562" lon="6.06964">
        <ele>217.80000305176</ele>
        <time>2015-11-11T15:36:56Z</time>
      </trkpt>
      <trkpt lat="43.41566" lon="6.06964">
        <ele>218.39999389648</ele>
        <time>2015-11-11T15:36:58Z</time>
      </trkpt>
      <trkpt lat="43.41568" lon="6.06964">
        <ele>218.60000610352</ele>
        <time>2015-11-11T15:36:59Z</time>
      </trkpt>
      <trkpt lat="43.41569" lon="6.06964">
        <ele>218.80000305176</ele>
        <time>2015-11-11T15:37:00Z</time>
      </trkpt>
      <trkpt lat="43.41568" lon="6.06964">
        <ele>219</ele>
        <time>2015-11-11T15:37:01Z</time>
      </trkpt>
      <trkpt lat="43.4157" lon="6.06963">
        <ele>219.19999694824</ele>
        <time>2015-11-11T15:37:02Z</time>
      </trkpt>
      <trkpt lat="43.41571" lon="6.06963">
        <ele>219.39999389648</ele>
        <time>2015-11-11T15:37:03Z</time>
      </trkpt>
      <trkpt lat="43.4157" lon="6.06963">
        <ele>219.39999389648</ele>
        <time>2015-11-11T15:37:04Z</time>
      </trkpt>
      <trkpt lat="43.41571" lon="6.06963">
        <ele>219.39999389648</ele>
        <time>2015-11-11T15:37:06Z</time>
      </trkpt>
      <trkpt lat="43.41571" lon="6.06963">
        <ele>219.39999389648</ele>
        <time>2015-11-11T15:37:08Z</time>
      </trkpt>
      <trkpt lat="43.41571" lon="6.06964">
        <ele>219.19999694824</ele>
        <time>2015-11-11T15:37:10Z</time>
      </trkpt>
      <trkpt lat="43.41572" lon="6.06969">
        <ele>219</ele>
        <time>2015-11-11T15:37:12Z</time>
      </trkpt>
      <trkpt lat="43.41573" lon="6.06974">
        <ele>218.60000610352</ele>
        <time>2015-11-11T15:37:13Z</time>
      </trkpt>
      <trkpt lat="43.41573" lon="6.06978">
        <ele>218.39999389648</ele>
        <time>2015-11-11T15:37:14Z</time>
      </trkpt>
      <trkpt lat="43.41575" lon="6.06988">
        <ele>218.19999694824</ele>
        <time>2015-11-11T15:37:16Z</time>
      </trkpt>
      <trkpt lat="43.41576" lon="6.06997">
        <ele>218.19999694824</ele>
        <time>2015-11-11T15:37:18Z</time>
      </trkpt>
      <trkpt lat="43.41578" lon="6.07006">
        <ele>218.19999694824</ele>
        <time>2015-11-11T15:37:20Z</time>
      </trkpt>
      <trkpt lat="43.41577" lon="6.07013">
        <ele>218.19999694824</ele>
        <time>2015-11-11T15:37:22Z</time>
      </trkpt>
      <trkpt lat="43.41578" lon="6.07018">
        <ele>218.60000610352</ele>
        <time>2015-11-11T15:37:24Z</time>
      </trkpt>
      <trkpt lat="43.41578" lon="6.07017">
        <ele>218.80000305176</ele>
        <time>2015-11-11T15:37:26Z</time>
      </trkpt>
      <trkpt lat="43.41578" lon="6.07017">
        <ele>219</ele>
        <time>2015-11-11T15:37:28Z</time>
      </trkpt>
      <trkpt lat="43.41579" lon="6.07022">
        <ele>218.80000305176</ele>
        <time>2015-11-11T15:37:31Z</time>
      </trkpt>
      <trkpt lat="43.41579" lon="6.07021">
        <ele>218.80000305176</ele>
        <time>2015-11-11T15:37:32Z</time>
      </trkpt>
      <trkpt lat="43.41579" lon="6.07021">
        <ele>218.80000305176</ele>
        <time>2015-11-11T15:37:34Z</time>
      </trkpt>
      <trkpt lat="43.41579" lon="6.07021">
        <ele>218.80000305176</ele>
        <time>2015-11-11T15:37:40Z</time>
      </trkpt>
      <trkpt lat="43.41579" lon="6.07021">
        <ele>218.80000305176</ele>
        <time>2015-11-11T15:37:54Z</time>
      </trkpt>
      <trkpt lat="43.41579" lon="6.07024">
        <ele>218.80000305176</ele>
        <time>2015-11-11T15:37:56Z</time>
      </trkpt>
      <trkpt lat="43.4158" lon="6.07027">
        <ele>219</ele>
        <time>2015-11-11T15:37:58Z</time>
      </trkpt>
      <trkpt lat="43.4158" lon="6.07029">
        <ele>218.80000305176</ele>
        <time>2015-11-11T15:37:59Z</time>
      </trkpt>
      <trkpt lat="43.4158" lon="6.0703">
        <ele>218.80000305176</ele>
        <time>2015-11-11T15:38:00Z</time>
      </trkpt>
      <trkpt lat="43.4158" lon="6.07032">
        <ele>218.80000305176</ele>
        <time>2015-11-11T15:38:02Z</time>
      </trkpt>
      <trkpt lat="43.41581" lon="6.07032">
        <ele>219</ele>
        <time>2015-11-11T15:38:04Z</time>
      </trkpt>
      <trkpt lat="43.4158" lon="6.07032">
        <ele>218.80000305176</ele>
        <time>2015-11-11T15:38:05Z</time>
      </trkpt>
      <trkpt lat="43.4158" lon="6.07032">
        <ele>218.80000305176</ele>
        <time>2015-11-11T15:38:10Z</time>
      </trkpt>
    </trkseg>
  </trk>
</gpx>